GFSSGP_prec_precacc_012.txt.gz
Total_Precipitation_Accumulation
0.00 0.00 0.00 0.00 0.00 0.00 0.00 0.00 0.00 0.00 0.00 0.00 0.00 0.00 0.00 0.00 0.00 0.00 0.00 0.00 0.00 0.00 0.00 0.00 0.01 0.02 0.01 0.01 0.00 0.00 0.00 0.00 0.00 0.00 0.00 0.00 0.00 0.00 0.00 0.00 0.00 0.00 0.00 0.00 0.00 0.00 0.00 0.00 0.00
0.00 0.00 0.00 0.00 0.00 0.00 0.00 0.00 0.00 0.00 0.00 0.00 0.00 0.00 0.00 0.00 0.00 0.00 0.00 0.00 0.00 0.00 0.00 0.00 0.00 0.01 0.01 0.02 0.00 0.00 0.00 0.00 0.00 0.00 0.00 0.00 0.00 0.00 0.00 0.00 0.00 0.00 0.00 0.00 0.00 0.00 0.00 0.00 0.00
0.00 0.00 0.00 0.00 0.00 0.00 0.00 0.00 0.00 0.00 0.00 0.00 0.00 0.00 0.00 0.00 0.00 0.00 0.00 0.00 0.00 0.00 0.00 0.00 0.01 0.01 0.02 0.01 0.00 0.00 0.00 0.00 0.00 0.00 0.00 0.01 0.02 0.02 0.01 0.00 0.00 0.00 0.00 0.00 0.00 0.00 0.00 0.00 0.00
0.00 0.00 0.00 0.00 0.00 0.00 0.00 0.00 0.00 0.00 0.00 0.00 0.00 0.00 0.00 0.00 0.00 0.00 0.00 0.00 0.00 0.00 0.00 0.00 0.00 0.01 0.00 0.00 0.00 0.00 0.00 0.00 0.00 0.00 0.00 0.00 0.02 0.05 0.05 0.01 0.00 0.00 0.00 0.00 0.00 0.00 0.00 0.00 0.00
0.00 0.00 0.00 0.00 0.00 0.00 0.00 0.00 0.00 0.00 0.00 0.00 0.00 0.00 0.00 0.00 0.00 0.00 0.00 0.00 0.00 0.00 0.00 0.00 0.00 0.00 0.00 0.00 0.00 0.00 0.00 0.00 0.00 0.00 0.00 0.00 0.01 0.05 0.07 0.02 0.00 0.00 0.00 0.00 0.00 0.00 0.00 0.00 0.00
0.00 0.00 0.00 0.00 0.00 0.00 0.00 0.00 0.00 0.00 0.00 0.00 0.00 0.00 0.00 0.00 0.00 0.00 0.00 0.00 0.00 0.00 0.00 0.00 0.00 0.00 0.00 0.00 0.01 0.00 0.00 0.00 0.00 0.00 0.00 0.00 0.00 0.02 0.07 0.02 0.00 0.00 0.00 0.00 0.00 0.00 0.00 0.01 0.01
0.00 0.00 0.00 0.00 0.00 0.00 0.00 0.00 0.00 0.00 0.00 0.00 0.00 0.00 0.00 0.00 0.00 0.00 0.00 0.00 0.00 0.00 0.00 0.00 0.00 0.00 0.00 0.00 0.01 0.01 0.01 0.01 0.00 0.00 0.00 0.00 0.00 0.00 0.00 0.00 0.00 0.00 0.00 0.00 0.00 0.00 0.00 0.00 0.00
0.00 0.00 0.00 0.00 0.00 0.00 0.00 0.00 0.00 0.00 0.00 0.00 0.00 0.00 0.00 0.00 0.00 0.00 0.00 0.00 0.00 0.00 0.00 0.00 0.00 0.00 0.00 0.00 0.00 0.00 0.00 0.00 0.00 0.00 0.00 0.00 0.00 0.00 0.00 0.00 0.00 0.00 0.00 0.00 0.00 0.00 0.00 0.00 0.00
0.00 0.00 0.00 0.00 0.00 0.00 0.00 0.00 0.00 0.00 0.00 0.00 0.00 0.00 0.00 0.00 0.00 0.00 0.00 0.00 0.00 0.00 0.00 0.00 0.00 0.00 0.00 0.00 0.00 0.00 0.00 0.00 0.00 0.00 0.00 0.00 0.00 0.00 0.00 0.00 0.00 0.00 0.00 0.00 0.00 0.00 0.00 0.00 0.00
0.00 0.00 0.00 0.00 0.00 0.00 0.00 0.00 0.00 0.00 0.00 0.00 0.00 0.00 0.00 0.00 0.00 0.00 0.00 0.00 0.00 0.00 0.00 0.00 0.00 0.00 0.00 0.00 0.00 0.00 0.00 0.00 0.00 0.00 0.00 0.00 0.00 0.00 0.00 0.00 0.00 0.00 0.00 0.00 0.00 0.00 0.00 0.00 0.00
0.00 0.00 0.00 0.00 0.00 0.00 0.00 0.00 0.00 0.00 0.00 0.00 0.00 0.00 0.00 0.00 0.00 0.00 0.00 0.00 0.00 0.00 0.00 0.00 0.00 0.00 0.00 0.00 0.00 0.00 0.00 0.00 0.00 0.00 0.00 0.00 0.00 0.00 0.00 0.00 0.00 0.00 0.00 0.00 0.00 0.00 0.00 0.00 0.00
0.00 0.00 0.00 0.00 0.00 0.00 0.00 0.00 0.00 0.00 0.00 0.00 0.00 0.00 0.00 0.00 0.00 0.00 0.00 0.00 0.00 0.00 0.00 0.00 0.00 0.00 0.00 0.00 0.00 0.00 0.00 0.00 0.00 0.00 0.00 0.00 0.00 0.00 0.00 0.00 0.00 0.00 0.00 0.00 0.00 0.00 0.00 0.00 0.00
0.00 0.00 0.00 0.00 0.00 0.00 0.00 0.00 0.00 0.00 0.00 0.00 0.00 0.00 0.00 0.00 0.00 0.00 0.00 0.00 0.00 0.00 0.00 0.00 0.00 0.00 0.00 0.00 0.00 0.00 0.00 0.00 0.00 0.00 0.00 0.00 0.00 0.00 0.00 0.00 0.00 0.00 0.00 0.00 0.00 0.00 0.00 0.00 0.00
0.00 0.00 0.00 0.00 0.00 0.00 0.00 0.00 0.00 0.00 0.00 0.00 0.00 0.00 0.00 0.00 0.00 0.00 0.00 0.00 0.00 0.00 0.00 0.00 0.00 0.00 0.00 0.00 0.00 0.00 0.00 0.00 0.00 0.00 0.00 0.00 0.00 0.00 0.00 0.00 0.00 0.00 0.00 0.00 0.00 0.00 0.00 0.00 0.00
0.02 0.03 0.01 0.00 0.00 0.00 0.00 0.00 0.00 0.00 0.00 0.00 0.00 0.00 0.00 0.00 0.00 0.00 0.00 0.00 0.00 0.00 0.00 0.00 0.00 0.00 0.00 0.00 0.00 0.00 0.00 0.00 0.00 0.00 0.00 0.00 0.00 0.00 0.00 0.00 0.00 0.00 0.00 0.00 0.00 0.00 0.00 0.00 0.00
0.09 0.11 0.03 0.00 0.00 0.00 0.00 0.00 0.00 0.00 0.00 0.00 0.00 0.00 0.00 0.00 0.00 0.00 0.00 0.00 0.00 0.00 0.00 0.00 0.00 0.00 0.00 0.00 0.00 0.00 0.00 0.00 0.00 0.00 0.00 0.00 0.00 0.00 0.00 0.00 0.00 0.00 0.00 0.00 0.00 0.00 0.00 0.00 0.00
0.16 0.05 0.02 0.00 0.00 0.00 0.00 0.00 0.00 0.00 0.00 0.00 0.00 0.00 0.00 0.00 0.00 0.00 0.00 0.00 0.00 0.00 0.00 0.00 0.00 0.00 0.00 0.00 0.00 0.00 0.00 0.00 0.00 0.00 0.00 0.00 0.00 0.00 0.00 0.00 0.00 0.00 0.00 0.00 0.00 0.00 0.00 0.00 0.00
0.06 0.04 0.03 0.01 0.00 0.01 0.00 0.00 0.00 0.00 0.00 0.00 0.00 0.00 0.00 0.00 0.00 0.00 0.00 0.00 0.00 0.00 0.00 0.00 0.00 0.00 0.00 0.00 0.00 0.00 0.00 0.00 0.00 0.00 0.00 0.00 0.00 0.00 0.00 0.00 0.00 0.00 0.00 0.00 0.00 0.00 0.00 0.00 0.00
0.05 0.07 0.04 0.01 0.01 0.02 0.00 0.00 0.00 0.00 0.00 0.00 0.00 0.00 0.00 0.00 0.00 0.00 0.00 0.00 0.00 0.00 0.00 0.00 0.00 0.00 0.00 0.00 0.00 0.00 0.00 0.00 0.00 0.00 0.00 0.00 0.00 0.00 0.00 0.00 0.00 0.00 0.00 0.00 0.00 0.00 0.00 0.00 0.00
0.11 0.12 0.04 0.03 0.02 0.04 0.01 0.00 0.00 0.00 0.00 0.00 0.00 0.00 0.00 0.00 0.00 0.00 0.00 0.00 0.00 0.00 0.00 0.00 0.00 0.00 0.00 0.00 0.00 0.00 0.00 0.00 0.00 0.00 0.00 0.00 0.00 0.00 0.00 0.00 0.00 0.00 0.00 0.00 0.00 0.00 0.00 0.00 0.00
0.10 0.14 0.10 0.04 0.06 0.05 0.04 0.01 0.00 0.00 0.00 0.00 0.00 0.00 0.00 0.00 0.00 0.00 0.00 0.00 0.00 0.00 0.00 0.00 0.00 0.00 0.00 0.00 0.00 0.00 0.00 0.00 0.00 0.00 0.00 0.00 0.00 0.00 0.00 0.00 0.00 0.00 0.00 0.00 0.00 0.00 0.00 0.00 0.00
0.11 0.07 0.11 0.17 0.14 0.04 0.06 0.03 0.00 0.00 0.00 0.00 0.00 0.00 0.00 0.00 0.00 0.00 0.00 0.00 0.00 0.00 0.00 0.00 0.00 0.00 0.00 0.00 0.00 0.00 0.00 0.00 0.00 0.00 0.00 0.00 0.00 0.00 0.00 0.00 0.00 0.00 0.00 0.00 0.00 0.00 0.00 0.00 0.00
0.17 0.07 0.11 0.23 0.34 0.32 0.06 0.06 0.01 0.00 0.00 0.00 0.00 0.00 0.00 0.00 0.00 0.00 0.00 0.00 0.00 0.00 0.00 0.00 0.00 0.00 0.00 0.00 0.00 0.00 0.00 0.00 0.00 0.00 0.00 0.00 0.00 0.00 0.00 0.00 0.00 0.00 0.00 0.00 0.00 0.00 0.00 0.00 0.00
0.17 0.22 0.23 0.42 0.40 0.58 0.29 0.06 0.01 0.00 0.00 0.00 0.00 0.00 0.00 0.00 0.00 0.00 0.00 0.00 0.00 0.00 0.00 0.00 0.00 0.00 0.00 0.00 0.00 0.00 0.00 0.00 0.00 0.00 0.00 0.00 0.00 0.00 0.00 0.00 0.00 0.00 0.00 0.00 0.00 0.00 0.00 0.00 0.00
0.45 0.47 0.62 0.54 0.67 0.37 0.15 0.16 0.06 0.00 0.00 0.00 0.00 0.00 0.00 0.00 0.00 0.00 0.00 0.00 0.00 0.00 0.00 0.00 0.00 0.00 0.00 0.00 0.00 0.00 0.00 0.00 0.00 0.00 0.00 0.00 0.00 0.00 0.00 0.00 0.00 0.00 0.00 0.00 0.00 0.00 0.00 0.00 0.00
0.57 0.51 0.49 0.31 0.26 0.16 0.07 0.26 0.05 0.00 0.00 0.00 0.00 0.00 0.00 0.00 0.00 0.00 0.00 0.00 0.00 0.00 0.00 0.00 0.00 0.00 0.00 0.00 0.00 0.00 0.00 0.00 0.00 0.00 0.00 0.00 0.00 0.00 0.00 0.00 0.00 0.00 0.00 0.00 0.00 0.00 0.00 0.00 0.00
0.52 0.46 0.29 0.38 0.09 0.09 0.08 0.08 0.04 0.01 0.00 0.00 0.00 0.00 0.00 0.00 0.00 0.00 0.00 0.00 0.00 0.00 0.00 0.00 0.00 0.00 0.00 0.00 0.00 0.00 0.00 0.00 0.00 0.00 0.00 0.00 0.00 0.00 0.00 0.00 0.00 0.00 0.00 0.00 0.00 0.00 0.00 0.00 0.00
0.48 0.26 0.31 0.58 0.39 0.10 0.05 0.02 0.04 0.00 0.00 0.00 0.00 0.00 0.00 0.00 0.00 0.00 0.00 0.00 0.00 0.00 0.00 0.00 0.00 0.00 0.00 0.00 0.00 0.00 0.00 0.00 0.00 0.00 0.00 0.00 0.00 0.00 0.00 0.00 0.00 0.00 0.00 0.00 0.00 0.00 0.00 0.00 0.00
0.55 0.51 0.26 0.36 0.31 0.21 0.09 0.02 0.00 0.00 0.01 0.01 0.01 0.00 0.00 0.00 0.00 0.00 0.00 0.00 0.00 0.00 0.00 0.00 0.00 0.00 0.00 0.00 0.00 0.00 0.00 0.00 0.00 0.00 0.00 0.00 0.00 0.00 0.00 0.00 0.00 0.00 0.00 0.00 0.00 0.00 0.00 0.00 0.00
0.18 0.23 0.13 0.34 0.33 0.21 0.16 0.05 0.00 0.00 0.00 0.01 0.01 0.00 0.00 0.00 0.00 0.00 0.00 0.00 0.00 0.00 0.00 0.00 0.00 0.00 0.00 0.00 0.00 0.00 0.00 0.00 0.00 0.00 0.00 0.00 0.00 0.00 0.00 0.00 0.00 0.00 0.00 0.00 0.00 0.00 0.00 0.00 0.00

GFSSGP_prec_precacc_015.txt.gz
Total_Precipitation_Accumulation
0.00 0.00 0.00 0.00 0.00 0.00 0.00 0.00 0.00 0.00 0.00 0.00 0.00 0.00 0.00 0.00 0.00 0.00 0.00 0.00 0.00 0.00 0.00 0.00 0.01 0.03 0.02 0.01 0.00 0.00 0.00 0.00 0.00 0.00 0.00 0.00 0.00 0.00 0.00 0.00 0.00 0.00 0.00 0.00 0.00 0.00 0.00 0.00 0.00
0.00 0.00 0.00 0.00 0.00 0.00 0.00 0.00 0.00 0.00 0.00 0.00 0.00 0.00 0.00 0.00 0.00 0.00 0.00 0.00 0.00 0.00 0.00 0.00 0.00 0.01 0.02 0.02 0.00 0.00 0.00 0.00 0.00 0.00 0.00 0.00 0.00 0.00 0.00 0.00 0.00 0.00 0.00 0.00 0.00 0.00 0.00 0.00 0.00
0.00 0.00 0.00 0.00 0.00 0.00 0.00 0.00 0.00 0.00 0.00 0.00 0.00 0.00 0.00 0.00 0.00 0.00 0.00 0.00 0.00 0.00 0.00 0.00 0.01 0.01 0.02 0.01 0.00 0.00 0.00 0.00 0.00 0.00 0.00 0.01 0.02 0.02 0.01 0.00 0.00 0.00 0.00 0.00 0.00 0.00 0.00 0.00 0.00
0.00 0.00 0.00 0.00 0.00 0.00 0.00 0.00 0.00 0.00 0.00 0.00 0.00 0.00 0.00 0.00 0.00 0.00 0.00 0.00 0.00 0.00 0.00 0.00 0.00 0.01 0.00 0.00 0.00 0.00 0.00 0.00 0.00 0.00 0.00 0.00 0.02 0.06 0.06 0.01 0.00 0.00 0.00 0.00 0.00 0.00 0.00 0.00 0.00
0.00 0.00 0.00 0.00 0.00 0.00 0.00 0.00 0.00 0.00 0.00 0.00 0.00 0.00 0.00 0.00 0.00 0.00 0.00 0.00 0.00 0.00 0.00 0.00 0.00 0.00 0.00 0.00 0.00 0.00 0.00 0.00 0.00 0.00 0.00 0.00 0.02 0.06 0.08 0.02 0.00 0.00 0.00 0.00 0.00 0.00 0.00 0.00 0.00
0.00 0.00 0.00 0.00 0.00 0.00 0.00 0.00 0.00 0.00 0.00 0.00 0.00 0.00 0.00 0.00 0.00 0.00 0.00 0.00 0.00 0.00 0.00 0.00 0.00 0.00 0.00 0.00 0.01 0.00 0.00 0.00 0.00 0.00 0.00 0.00 0.00 0.02 0.08 0.02 0.00 0.00 0.00 0.00 0.00 0.00 0.00 0.01 0.01
0.00 0.00 0.00 0.00 0.00 0.00 0.00 0.00 0.00 0.00 0.00 0.00 0.00 0.00 0.00 0.00 0.00 0.00 0.00 0.00 0.00 0.00 0.00 0.00 0.00 0.00 0.00 0.00 0.01 0.01 0.01 0.01 0.00 0.00 0.00 0.00 0.00 0.00 0.00 0.00 0.00 0.00 0.00 0.00 0.00 0.00 0.00 0.00 0.00
0.00 0.00 0.00 0.00 0.00 0.00 0.00 0.00 0.00 0.00 0.00 0.00 0.00 0.00 0.00 0.00 0.00 0.00 0.00 0.00 0.00 0.00 0.00 0.00 0.00 0.00 0.00 0.00 0.00 0.00 0.00 0.00 0.00 0.00 0.00 0.00 0.00 0.00 0.00 0.00 0.00 0.00 0.00 0.00 0.00 0.00 0.00 0.00 0.00
0.00 0.00 0.00 0.00 0.00 0.00 0.00 0.00 0.00 0.00 0.00 0.00 0.00 0.00 0.00 0.00 0.00 0.00 0.00 0.00 0.00 0.00 0.00 0.00 0.00 0.00 0.00 0.00 0.00 0.00 0.00 0.00 0.00 0.00 0.00 0.00 0.00 0.00 0.00 0.00 0.00 0.00 0.00 0.00 0.00 0.00 0.00 0.00 0.00
0.00 0.00 0.00 0.00 0.00 0.00 0.00 0.00 0.00 0.00 0.00 0.00 0.00 0.00 0.00 0.00 0.00 0.00 0.00 0.00 0.00 0.00 0.00 0.00 0.00 0.00 0.00 0.00 0.00 0.00 0.00 0.00 0.00 0.00 0.00 0.00 0.00 0.00 0.00 0.00 0.00 0.00 0.00 0.00 0.00 0.00 0.01 0.01 0.00
0.00 0.00 0.00 0.00 0.00 0.00 0.00 0.00 0.00 0.00 0.00 0.00 0.00 0.00 0.00 0.00 0.00 0.00 0.00 0.00 0.00 0.00 0.00 0.00 0.00 0.00 0.00 0.00 0.00 0.00 0.00 0.00 0.00 0.00 0.00 0.00 0.00 0.00 0.00 0.00 0.00 0.00 0.00 0.00 0.00 0.00 0.00 0.00 0.00
0.00 0.00 0.00 0.00 0.00 0.00 0.00 0.00 0.00 0.00 0.00 0.00 0.00 0.00 0.00 0.00 0.00 0.00 0.00 0.00 0.00 0.00 0.00 0.00 0.00 0.00 0.00 0.00 0.00 0.00 0.00 0.00 0.00 0.00 0.00 0.00 0.00 0.00 0.00 0.00 0.00 0.00 0.00 0.00 0.00 0.00 0.00 0.00 0.00
0.00 0.00 0.00 0.00 0.00 0.00 0.00 0.00 0.00 0.00 0.00 0.00 0.00 0.00 0.00 0.00 0.00 0.00 0.00 0.00 0.00 0.00 0.00 0.00 0.00 0.00 0.00 0.00 0.00 0.00 0.00 0.00 0.00 0.00 0.00 0.00 0.00 0.00 0.00 0.00 0.00 0.00 0.00 0.00 0.00 0.00 0.00 0.00 0.00
0.00 0.00 0.00 0.00 0.00 0.00 0.00 0.00 0.00 0.00 0.00 0.00 0.00 0.00 0.00 0.00 0.00 0.00 0.00 0.00 0.00 0.00 0.00 0.00 0.00 0.00 0.00 0.00 0.00 0.00 0.00 0.00 0.00 0.00 0.00 0.00 0.00 0.00 0.00 0.00 0.00 0.00 0.00 0.00 0.00 0.00 0.00 0.00 0.00
0.02 0.03 0.01 0.00 0.00 0.00 0.00 0.00 0.00 0.00 0.00 0.00 0.00 0.00 0.00 0.00 0.00 0.00 0.00 0.00 0.00 0.00 0.00 0.00 0.00 0.00 0.00 0.00 0.00 0.00 0.00 0.00 0.00 0.00 0.00 0.00 0.00 0.00 0.00 0.00 0.00 0.00 0.00 0.00 0.00 0.00 0.00 0.00 0.00
0.09 0.11 0.03 0.00 0.00 0.00 0.00 0.00 0.00 0.00 0.00 0.00 0.00 0.00 0.00 0.00 0.00 0.00 0.00 0.00 0.00 0.00 0.00 0.00 0.00 0.00 0.00 0.00 0.00 0.00 0.00 0.00 0.00 0.00 0.00 0.00 0.00 0.00 0.00 0.00 0.00 0.00 0.00 0.00 0.00 0.00 0.00 0.00 0.00
0.16 0.05 0.02 0.00 0.00 0.00 0.00 0.00 0.00 0.00 0.00 0.00 0.00 0.00 0.00 0.00 0.00 0.00 0.00 0.00 0.00 0.00 0.00 0.00 0.00 0.00 0.00 0.00 0.00 0.00 0.00 0.00 0.00 0.00 0.00 0.00 0.00 0.00 0.00 0.00 0.00 0.00 0.00 0.00 0.00 0.00 0.00 0.00 0.00
0.06 0.04 0.03 0.01 0.00 0.01 0.00 0.00 0.00 0.00 0.00 0.00 0.00 0.00 0.00 0.00 0.00 0.00 0.00 0.00 0.00 0.00 0.00 0.00 0.00 0.00 0.00 0.00 0.00 0.00 0.00 0.00 0.00 0.00 0.00 0.00 0.00 0.00 0.00 0.00 0.00 0.00 0.00 0.00 0.00 0.00 0.00 0.00 0.00
0.05 0.07 0.04 0.01 0.01 0.02 0.00 0.00 0.00 0.00 0.00 0.00 0.00 0.00 0.00 0.00 0.00 0.00 0.00 0.00 0.00 0.00 0.00 0.00 0.00 0.00 0.00 0.00 0.00 0.00 0.00 0.00 0.00 0.00 0.00 0.00 0.00 0.00 0.00 0.00 0.00 0.00 0.00 0.00 0.00 0.00 0.00 0.00 0.00
0.11 0.12 0.04 0.03 0.02 0.04 0.01 0.00 0.00 0.00 0.00 0.00 0.00 0.00 0.00 0.00 0.00 0.00 0.00 0.00 0.00 0.00 0.00 0.00 0.00 0.00 0.00 0.00 0.00 0.00 0.00 0.00 0.00 0.00 0.00 0.00 0.00 0.00 0.00 0.00 0.00 0.00 0.00 0.00 0.00 0.00 0.00 0.00 0.00
0.10 0.14 0.10 0.04 0.06 0.05 0.04 0.01 0.00 0.00 0.00 0.00 0.00 0.00 0.00 0.00 0.00 0.00 0.00 0.00 0.00 0.00 0.00 0.00 0.00 0.00 0.00 0.00 0.00 0.00 0.00 0.00 0.00 0.00 0.00 0.00 0.00 0.00 0.00 0.00 0.00 0.00 0.00 0.00 0.00 0.00 0.00 0.00 0.00
0.11 0.07 0.11 0.17 0.15 0.04 0.06 0.03 0.00 0.00 0.00 0.00 0.00 0.00 0.00 0.00 0.00 0.00 0.00 0.00 0.00 0.00 0.00 0.00 0.00 0.00 0.00 0.00 0.00 0.00 0.00 0.00 0.00 0.00 0.00 0.00 0.00 0.00 0.00 0.00 0.00 0.00 0.00 0.00 0.00 0.00 0.00 0.00 0.00
0.17 0.07 0.11 0.23 0.35 0.33 0.06 0.07 0.01 0.00 0.00 0.00 0.00 0.00 0.00 0.00 0.00 0.00 0.00 0.00 0.00 0.00 0.00 0.00 0.00 0.00 0.00 0.00 0.00 0.00 0.00 0.00 0.00 0.00 0.00 0.00 0.00 0.00 0.00 0.00 0.00 0.00 0.00 0.00 0.00 0.00 0.00 0.00 0.00
0.18 0.23 0.24 0.44 0.42 0.60 0.29 0.06 0.01 0.00 0.00 0.00 0.00 0.00 0.00 0.00 0.00 0.00 0.00 0.00 0.00 0.00 0.00 0.00 0.00 0.00 0.00 0.00 0.00 0.00 0.00 0.00 0.00 0.00 0.00 0.00 0.00 0.00 0.00 0.00 0.00 0.00 0.00 0.00 0.00 0.00 0.00 0.00 0.00
0.46 0.49 0.67 0.58 0.71 0.38 0.15 0.16 0.06 0.00 0.00 0.00 0.00 0.00 0.00 0.00 0.00 0.00 0.00 0.00 0.00 0.00 0.00 0.00 0.00 0.00 0.00 0.00 0.00 0.00 0.00 0.00 0.00 0.00 0.00 0.00 0.00 0.00 0.00 0.00 0.00 0.00 0.00 0.00 0.00 0.00 0.00 0.00 0.00
0.58 0.52 0.52 0.33 0.27 0.17 0.08 0.26 0.05 0.00 0.00 0.00 0.00 0.00 0.00 0.00 0.00 0.00 0.00 0.00 0.00 0.00 0.00 0.00 0.00 0.00 0.00 0.00 0.00 0.00 0.00 0.00 0.00 0.00 0.00 0.00 0.00 0.00 0.00 0.00 0.00 0.00 0.00 0.00 0.00 0.00 0.00 0.00 0.00
0.58 0.54 0.32 0.40 0.11 0.14 0.08 0.08 0.04 0.01 0.00 0.00 0.00 0.00 0.00 0.00 0.00 0.00 0.00 0.00 0.00 0.00 0.00 0.00 0.00 0.00 0.00 0.00 0.00 0.00 0.00 0.00 0.00 0.00 0.00 0.00 0.00 0.00 0.00 0.00 0.00 0.00 0.00 0.00 0.00 0.00 0.00 0.00 0.00
0.49 0.28 0.34 0.69 0.45 0.12 0.05 0.02 0.04 0.00 0.00 0.00 0.00 0.00 0.00 0.00 0.00 0.00 0.00 0.00 0.00 0.00 0.00 0.00 0.00 0.00 0.00 0.00 0.00 0.00 0.00 0.00 0.00 0.00 0.00 0.00 0.00 0.00 0.00 0.00 0.00 0.00 0.00 0.00 0.00 0.00 0.00 0.00 0.00
0.55 0.53 0.30 0.37 0.31 0.22 0.10 0.02 0.00 0.00 0.01 0.01 0.01 0.00 0.00 0.00 0.00 0.00 0.00 0.00 0.00 0.00 0.00 0.00 0.00 0.00 0.00 0.00 0.00 0.00 0.00 0.00 0.00 0.00 0.00 0.00 0.00 0.00 0.00 0.00 0.00 0.00 0.00 0.00 0.00 0.00 0.00 0.00 0.00
0.18 0.23 0.14 0.36 0.33 0.22 0.18 0.07 0.00 0.00 0.00 0.01 0.01 0.01 0.01 0.00 0.00 0.00 0.00 0.00 0.00 0.00 0.00 0.00 0.00 0.00 0.00 0.00 0.00 0.00 0.00 0.00 0.00 0.00 0.00 0.00 0.00 0.00 0.00 0.00 0.00 0.00 0.00 0.00 0.00 0.00 0.00 0.00 0.00

GFSSGP_prec_precacc_018.txt.gz
Total_Precipitation_Accumulation
0.00 0.00 0.00 0.00 0.00 0.00 0.00 0.00 0.00 0.00 0.00 0.00 0.00 0.00 0.00 0.00 0.00 0.00 0.00 0.00 0.00 0.00 0.00 0.00 0.01 0.05 0.02 0.01 0.00 0.00 0.00 0.00 0.00 0.00 0.02 0.00 0.00 0.00 0.00 0.01 0.00 0.00 0.00 0.00 0.00 0.00 0.00 0.00 0.00
0.00 0.00 0.00 0.00 0.00 0.00 0.00 0.00 0.00 0.00 0.00 0.00 0.00 0.00 0.00 0.00 0.00 0.00 0.00 0.00 0.00 0.00 0.00 0.00 0.01 0.02 0.02 0.02 0.00 0.00 0.00 0.00 0.00 0.00 0.00 0.00 0.00 0.00 0.00 0.00 0.00 0.00 0.00 0.00 0.00 0.00 0.00 0.00 0.00
0.00 0.00 0.00 0.00 0.00 0.00 0.00 0.00 0.00 0.00 0.00 0.00 0.00 0.00 0.00 0.00 0.00 0.00 0.00 0.00 0.00 0.00 0.00 0.00 0.01 0.02 0.02 0.01 0.00 0.00 0.00 0.00 0.00 0.00 0.00 0.01 0.02 0.02 0.01 0.00 0.00 0.00 0.00 0.00 0.00 0.00 0.00 0.00 0.00
0.00 0.00 0.00 0.00 0.00 0.00 0.00 0.00 0.00 0.00 0.00 0.00 0.00 0.00 0.00 0.00 0.00 0.00 0.00 0.00 0.00 0.00 0.00 0.00 0.01 0.01 0.00 0.00 0.00 0.00 0.00 0.00 0.00 0.00 0.00 0.00 0.03 0.07 0.06 0.01 0.00 0.00 0.00 0.00 0.00 0.00 0.00 0.00 0.00
0.00 0.00 0.00 0.00 0.00 0.00 0.00 0.00 0.00 0.00 0.00 0.00 0.00 0.00 0.00 0.00 0.00 0.00 0.00 0.00 0.00 0.00 0.00 0.00 0.00 0.00 0.00 0.00 0.00 0.00 0.00 0.00 0.00 0.00 0.00 0.01 0.03 0.07 0.09 0.02 0.00 0.00 0.00 0.00 0.00 0.00 0.00 0.00 0.00
0.00 0.00 0.00 0.00 0.00 0.00 0.00 0.00 0.00 0.00 0.00 0.00 0.00 0.00 0.00 0.00 0.00 0.00 0.00 0.00 0.00 0.00 0.00 0.00 0.00 0.00 0.00 0.00 0.01 0.00 0.00 0.00 0.00 0.00 0.00 0.00 0.00 0.03 0.09 0.03 0.00 0.00 0.00 0.00 0.00 0.00 0.00 0.01 0.01
0.00 0.00 0.00 0.00 0.00 0.00 0.00 0.00 0.00 0.00 0.00 0.00 0.00 0.00 0.00 0.00 0.00 0.00 0.00 0.00 0.00 0.00 0.00 0.00 0.00 0.00 0.00 0.00 0.01 0.01 0.01 0.01 0.00 0.00 0.00 0.00 0.00 0.00 0.02 0.01 0.00 0.00 0.00 0.00 0.00 0.00 0.00 0.00 0.00
0.00 0.00 0.00 0.00 0.00 0.00 0.00 0.00 0.00 0.00 0.00 0.00 0.00 0.00 0.00 0.00 0.00 0.00 0.00 0.00 0.00 0.00 0.00 0.00 0.00 0.00 0.00 0.00 0.00 0.00 0.00 0.00 0.00 0.00 0.00 0.00 0.00 0.00 0.00 0.00 0.00 0.00 0.00 0.00 0.00 0.00 0.00 0.00 0.00
0.00 0.00 0.00 0.00 0.00 0.00 0.00 0.00 0.00 0.00 0.00 0.00 0.00 0.00 0.00 0.00 0.00 0.00 0.00 0.00 0.00 0.00 0.00 0.00 0.00 0.00 0.00 0.00 0.00 0.00 0.00 0.00 0.00 0.00 0.00 0.00 0.00 0.00 0.00 0.00 0.00 0.00 0.00 0.00 0.00 0.00 0.01 0.01 0.01
0.00 0.00 0.00 0.00 0.00 0.00 0.00 0.00 0.00 0.00 0.00 0.00 0.00 0.00 0.00 0.00 0.00 0.00 0.00 0.00 0.00 0.00 0.00 0.00 0.00 0.00 0.00 0.00 0.00 0.00 0.00 0.00 0.00 0.00 0.00 0.00 0.00 0.00 0.00 0.00 0.00 0.00 0.00 0.00 0.00 0.01 0.01 0.01 0.00
0.00 0.00 0.00 0.00 0.00 0.00 0.00 0.00 0.00 0.00 0.00 0.00 0.00 0.00 0.00 0.00 0.00 0.00 0.00 0.00 0.00 0.00 0.00 0.00 0.00 0.00 0.00 0.00 0.00 0.00 0.00 0.00 0.00 0.00 0.00 0.00 0.00 0.00 0.00 0.00 0.00 0.00 0.00 0.00 0.00 0.00 0.00 0.00 0.00
0.00 0.00 0.00 0.00 0.00 0.00 0.00 0.00 0.00 0.00 0.00 0.00 0.00 0.00 0.00 0.00 0.00 0.00 0.00 0.00 0.00 0.00 0.00 0.00 0.00 0.00 0.00 0.00 0.00 0.00 0.00 0.00 0.00 0.00 0.00 0.00 0.00 0.00 0.00 0.00 0.00 0.00 0.00 0.00 0.00 0.00 0.00 0.00 0.00
0.00 0.00 0.00 0.00 0.00 0.00 0.00 0.00 0.00 0.00 0.00 0.00 0.00 0.00 0.00 0.00 0.00 0.00 0.00 0.00 0.00 0.00 0.00 0.00 0.00 0.00 0.00 0.00 0.00 0.00 0.00 0.00 0.00 0.00 0.00 0.00 0.00 0.00 0.00 0.00 0.00 0.00 0.00 0.00 0.00 0.00 0.00 0.00 0.00
0.00 0.00 0.00 0.00 0.00 0.00 0.00 0.00 0.00 0.00 0.00 0.00 0.00 0.00 0.00 0.00 0.00 0.00 0.00 0.00 0.00 0.00 0.00 0.00 0.00 0.00 0.00 0.00 0.00 0.00 0.00 0.00 0.00 0.00 0.00 0.00 0.00 0.00 0.00 0.00 0.00 0.00 0.00 0.00 0.00 0.00 0.00 0.00 0.00
0.02 0.03 0.01 0.00 0.00 0.00 0.00 0.00 0.00 0.00 0.00 0.00 0.00 0.00 0.00 0.00 0.00 0.00 0.00 0.00 0.00 0.00 0.00 0.00 0.00 0.00 0.00 0.00 0.00 0.00 0.00 0.00 0.00 0.00 0.00 0.00 0.00 0.00 0.00 0.00 0.00 0.00 0.00 0.00 0.00 0.00 0.00 0.00 0.00
0.09 0.11 0.03 0.00 0.00 0.00 0.00 0.00 0.00 0.00 0.00 0.00 0.00 0.00 0.00 0.00 0.00 0.00 0.00 0.00 0.00 0.00 0.00 0.00 0.00 0.00 0.00 0.00 0.00 0.00 0.01 0.01 0.00 0.00 0.00 0.00 0.00 0.00 0.00 0.00 0.00 0.00 0.00 0.00 0.00 0.00 0.00 0.00 0.00
0.16 0.06 0.02 0.00 0.00 0.00 0.00 0.00 0.00 0.00 0.00 0.00 0.00 0.00 0.00 0.00 0.00 0.00 0.00 0.00 0.00 0.00 0.00 0.00 0.00 0.00 0.00 0.00 0.00 0.00 0.01 0.01 0.00 0.00 0.00 0.00 0.00 0.00 0.00 0.00 0.00 0.00 0.00 0.00 0.00 0.00 0.00 0.00 0.00
0.06 0.05 0.03 0.01 0.00 0.01 0.00 0.00 0.00 0.00 0.00 0.00 0.00 0.00 0.00 0.00 0.00 0.00 0.00 0.00 0.00 0.00 0.00 0.00 0.00 0.00 0.00 0.00 0.01 0.00 0.00 0.00 0.00 0.00 0.00 0.00 0.00 0.00 0.00 0.00 0.00 0.00 0.00 0.00 0.00 0.00 0.00 0.00 0.00
0.05 0.07 0.04 0.01 0.01 0.02 0.00 0.00 0.00 0.00 0.00 0.00 0.00 0.00 0.00 0.00 0.00 0.00 0.00 0.00 0.00 0.00 0.00 0.00 0.00 0.00 0.00 0.00 0.01 0.00 0.00 0.00 0.00 0.00 0.00 0.00 0.00 0.00 0.00 0.00 0.00 0.00 0.00 0.00 0.00 0.00 0.00 0.00 0.00
0.11 0.12 0.04 0.03 0.02 0.04 0.01 0.00 0.00 0.00 0.00 0.00 0.00 0.00 0.00 0.00 0.00 0.00 0.00 0.00 0.00 0.00 0.00 0.00 0.00 0.00 0.00 0.00 0.00 0.00 0.00 0.00 0.00 0.00 0.00 0.00 0.00 0.00 0.00 0.00 0.00 0.00 0.00 0.00 0.00 0.00 0.00 0.00 0.00
0.10 0.14 0.10 0.04 0.06 0.05 0.04 0.01 0.00 0.00 0.00 0.00 0.00 0.00 0.00 0.00 0.00 0.00 0.00 0.00 0.00 0.00 0.00 0.00 0.00 0.00 0.00 0.00 0.01 0.00 0.00 0.00 0.00 0.00 0.00 0.00 0.00 0.00 0.00 0.00 0.00 0.00 0.00 0.00 0.00 0.00 0.00 0.00 0.00
0.11 0.07 0.11 0.17 0.15 0.04 0.06 0.03 0.00 0.00 0.00 0.00 0.00 0.00 0.00 0.00 0.00 0.00 0.00 0.00 0.00 0.00 0.00 0.00 0.00 0.00 0.00 0.00 0.01 0.00 0.00 0.00 0.00 0.00 0.00 0.00 0.00 0.00 0.00 0.00 0.00 0.00 0.00 0.00 0.00 0.00 0.00 0.00 0.00
0.17 0.07 0.11 0.23 0.35 0.33 0.06 0.07 0.01 0.00 0.00 0.00 0.00 0.00 0.00 0.00 0.00 0.00 0.00 0.00 0.00 0.00 0.00 0.00 0.00 0.00 0.00 0.00 0.00 0.00 0.00 0.00 0.00 0.00 0.00 0.00 0.00 0.00 0.00 0.00 0.00 0.00 0.00 0.00 0.00 0.00 0.00 0.00 0.00
0.18 0.24 0.25 0.45 0.44 0.62 0.29 0.06 0.01 0.00 0.00 0.00 0.00 0.00 0.00 0.00 0.00 0.00 0.00 0.00 0.00 0.00 0.00 0.00 0.00 0.00 0.00 0.00 0.00 0.00 0.00 0.00 0.00 0.00 0.00 0.00 0.00 0.00 0.00 0.00 0.00 0.00 0.00 0.00 0.00 0.00 0.00 0.00 0.00
0.46 0.53 0.73 0.65 0.78 0.40 0.15 0.16 0.06 0.00 0.00 0.00 0.00 0.00 0.00 0.00 0.00 0.00 0.00 0.00 0.00 0.00 0.00 0.00 0.00 0.00 0.00 0.00 0.00 0.00 0.00 0.00 0.00 0.00 0.00 0.00 0.00 0.00 0.00 0.00 0.00 0.00 0.00 0.00 0.00 0.00 0.00 0.00 0.00
0.58 0.53 0.56 0.36 0.28 0.17 0.08 0.26 0.05 0.00 0.00 0.00 0.00 0.00 0.00 0.00 0.00 0.00 0.00 0.00 0.00 0.00 0.00 0.00 0.00 0.00 0.00 0.00 0.00 0.00 0.00 0.00 0.00 0.00 0.00 0.00 0.00 0.00 0.00 0.00 0.00 0.00 0.00 0.00 0.00 0.00 0.00 0.00 0.00
0.64 0.59 0.34 0.44 0.15 0.21 0.08 0.08 0.04 0.01 0.00 0.00 0.00 0.00 0.00 0.00 0.00 0.00 0.00 0.00 0.00 0.00 0.00 0.00 0.00 0.00 0.00 0.00 0.00 0.00 0.00 0.00 0.00 0.00 0.00 0.00 0.00 0.00 0.00 0.00 0.00 0.00 0.00 0.00 0.00 0.00 0.00 0.00 0.00
0.51 0.31 0.42 0.88 0.52 0.16 0.06 0.02 0.04 0.00 0.00 0.00 0.00 0.00 0.00 0.00 0.00 0.00 0.00 0.00 0.00 0.00 0.00 0.00 0.00 0.00 0.00 0.00 0.00 0.00 0.00 0.00 0.00 0.00 0.00 0.00 0.00 0.00 0.00 0.00 0.00 0.00 0.00 0.00 0.00 0.00 0.00 0.00 0.00
0.55 0.54 0.32 0.41 0.36 0.22 0.10 0.02 0.00 0.00 0.01 0.01 0.01 0.00 0.00 0.00 0.00 0.00 0.00 0.00 0.00 0.00 0.00 0.00 0.00 0.00 0.00 0.00 0.00 0.00 0.00 0.00 0.00 0.00 0.00 0.00 0.00 0.00 0.00 0.00 0.00 0.00 0.00 0.00 0.00 0.00 0.00 0.00 0.00
0.19 0.23 0.14 0.38 0.33 0.22 0.18 0.07 0.00 0.00 0.01 0.01 0.01 0.01 0.01 0.01 0.00 0.00 0.00 0.00 0.00 0.00 0.00 0.00 0.00 0.00 0.00 0.00 0.00 0.00 0.00 0.00 0.00 0.00 0.00 0.00 0.00 0.00 0.00 0.00 0.00 0.00 0.00 0.00 0.00 0.00 0.00 0.00 0.00

GFSSGP_prec_precacc_021.txt.gz
Total_Precipitation_Accumulation
0.00 0.00 0.00 0.00 0.00 0.00 0.00 0.00 0.00 0.00 0.00 0.00 0.00 0.00 0.00 0.00 0.00 0.00 0.00 0.00 0.00 0.00 0.00 0.00 0.02 0.05 0.02 0.01 0.00 0.00 0.00 0.00 0.00 0.01 0.04 0.01 0.00 0.00 0.00 0.01 0.00 0.00 0.00 0.00 0.00 0.00 0.00 0.00 0.00
0.00 0.00 0.00 0.00 0.00 0.00 0.00 0.00 0.00 0.00 0.00 0.00 0.00 0.00 0.00 0.00 0.00 0.00 0.00 0.00 0.00 0.00 0.00 0.00 0.01 0.03 0.02 0.02 0.00 0.00 0.00 0.00 0.00 0.02 0.01 0.00 0.00 0.00 0.00 0.00 0.00 0.00 0.00 0.00 0.00 0.00 0.00 0.00 0.00
0.00 0.00 0.00 0.00 0.00 0.00 0.00 0.00 0.00 0.00 0.00 0.00 0.00 0.00 0.00 0.00 0.00 0.00 0.00 0.00 0.00 0.00 0.00 0.00 0.01 0.02 0.02 0.01 0.00 0.00 0.00 0.00 0.00 0.00 0.00 0.01 0.02 0.02 0.01 0.00 0.00 0.00 0.00 0.00 0.00 0.00 0.00 0.00 0.00
0.00 0.00 0.00 0.00 0.00 0.00 0.00 0.00 0.00 0.00 0.00 0.00 0.00 0.00 0.00 0.00 0.00 0.00 0.00 0.00 0.00 0.00 0.00 0.00 0.01 0.02 0.00 0.00 0.00 0.00 0.00 0.00 0.00 0.00 0.00 0.00 0.03 0.07 0.06 0.01 0.00 0.00 0.00 0.00 0.00 0.00 0.00 0.00 0.00
0.00 0.00 0.00 0.00 0.00 0.00 0.00 0.00 0.00 0.00 0.00 0.00 0.00 0.00 0.00 0.00 0.00 0.00 0.00 0.00 0.00 0.00 0.00 0.00 0.01 0.00 0.00 0.00 0.00 0.00 0.00 0.00 0.00 0.00 0.00 0.01 0.03 0.08 0.11 0.03 0.00 0.00 0.00 0.00 0.00 0.00 0.00 0.00 0.00
0.00 0.00 0.00 0.00 0.00 0.00 0.00 0.00 0.00 0.00 0.00 0.00 0.00 0.00 0.00 0.00 0.00 0.00 0.00 0.00 0.00 0.00 0.00 0.00 0.00 0.00 0.00 0.00 0.01 0.00 0.00 0.00 0.00 0.00 0.00 0.00 0.01 0.04 0.11 0.04 0.00 0.00 0.00 0.00 0.00 0.00 0.00 0.01 0.01
0.00 0.00 0.00 0.00 0.00 0.00 0.00 0.00 0.00 0.00 0.00 0.00 0.00 0.00 0.00 0.00 0.00 0.00 0.00 0.00 0.00 0.00 0.00 0.00 0.00 0.00 0.00 0.00 0.01 0.01 0.01 0.01 0.00 0.00 0.00 0.00 0.00 0.01 0.03 0.01 0.00 0.00 0.00 0.00 0.00 0.00 0.00 0.00 0.01
0.00 0.00 0.00 0.00 0.00 0.00 0.00 0.00 0.00 0.00 0.00 0.00 0.00 0.00 0.00 0.00 0.00 0.00 0.00 0.00 0.00 0.00 0.00 0.00 0.00 0.00 0.00 0.00 0.00 0.00 0.00 0.00 0.00 0.00 0.00 0.00 0.00 0.00 0.00 0.00 0.00 0.00 0.00 0.00 0.00 0.00 0.01 0.02 0.02
0.00 0.00 0.00 0.00 0.00 0.00 0.00 0.00 0.00 0.00 0.00 0.00 0.00 0.00 0.00 0.00 0.00 0.00 0.00 0.00 0.00 0.00 0.00 0.00 0.00 0.00 0.00 0.00 0.00 0.00 0.00 0.00 0.00 0.00 0.00 0.00 0.00 0.00 0.00 0.00 0.00 0.00 0.00 0.00 0.00 0.01 0.03 0.02 0.01
0.00 0.00 0.00 0.00 0.00 0.00 0.00 0.00 0.00 0.00 0.00 0.00 0.00 0.00 0.00 0.00 0.00 0.00 0.00 0.00 0.00 0.00 0.00 0.00 0.00 0.00 0.00 0.00 0.00 0.00 0.00 0.00 0.00 0.00 0.00 0.00 0.00 0.00 0.00 0.00 0.00 0.00 0.00 0.00 0.00 0.01 0.01 0.01 0.00
0.00 0.00 0.00 0.00 0.00 0.00 0.00 0.00 0.00 0.00 0.00 0.00 0.00 0.00 0.00 0.00 0.00 0.00 0.00 0.00 0.00 0.00 0.00 0.00 0.00 0.00 0.00 0.00 0.00 0.00 0.00 0.00 0.00 0.00 0.00 0.00 0.00 0.00 0.00 0.00 0.00 0.00 0.00 0.00 0.00 0.00 0.00 0.00 0.00
0.00 0.00 0.00 0.00 0.00 0.00 0.00 0.00 0.00 0.00 0.00 0.00 0.00 0.00 0.00 0.00 0.00 0.00 0.00 0.00 0.00 0.00 0.00 0.00 0.00 0.00 0.00 0.00 0.00 0.00 0.00 0.00 0.00 0.00 0.00 0.00 0.00 0.00 0.00 0.00 0.00 0.00 0.00 0.00 0.00 0.00 0.00 0.00 0.00
0.00 0.00 0.00 0.00 0.00 0.00 0.00 0.00 0.00 0.00 0.00 0.00 0.00 0.00 0.00 0.00 0.00 0.00 0.00 0.00 0.00 0.00 0.00 0.00 0.00 0.00 0.00 0.00 0.00 0.00 0.00 0.00 0.00 0.00 0.00 0.00 0.00 0.00 0.00 0.00 0.00 0.00 0.00 0.00 0.00 0.00 0.00 0.00 0.00
0.00 0.00 0.00 0.00 0.00 0.00 0.00 0.00 0.00 0.00 0.00 0.00 0.00 0.00 0.00 0.00 0.00 0.00 0.00 0.00 0.00 0.00 0.00 0.00 0.00 0.00 0.00 0.00 0.00 0.00 0.00 0.00 0.00 0.00 0.00 0.00 0.00 0.00 0.00 0.00 0.00 0.00 0.00 0.00 0.00 0.00 0.00 0.00 0.00
0.02 0.03 0.01 0.00 0.00 0.00 0.00 0.00 0.00 0.00 0.00 0.00 0.00 0.00 0.00 0.00 0.00 0.00 0.00 0.00 0.00 0.00 0.00 0.00 0.00 0.00 0.00 0.00 0.00 0.00 0.00 0.00 0.00 0.00 0.00 0.00 0.00 0.00 0.00 0.00 0.00 0.00 0.00 0.00 0.00 0.00 0.00 0.00 0.00
0.09 0.11 0.03 0.00 0.00 0.00 0.00 0.00 0.00 0.00 0.00 0.00 0.00 0.00 0.00 0.00 0.00 0.00 0.00 0.00 0.00 0.00 0.00 0.00 0.00 0.00 0.00 0.00 0.00 0.00 0.01 0.02 0.01 0.00 0.00 0.00 0.00 0.00 0.00 0.00 0.00 0.00 0.00 0.00 0.00 0.00 0.00 0.00 0.00
0.16 0.06 0.02 0.00 0.00 0.00 0.00 0.00 0.00 0.00 0.00 0.00 0.00 0.00 0.00 0.00 0.00 0.00 0.00 0.00 0.00 0.00 0.00 0.00 0.00 0.00 0.00 0.00 0.00 0.02 0.01 0.01 0.01 0.01 0.00 0.00 0.00 0.00 0.00 0.00 0.00 0.00 0.00 0.00 0.00 0.00 0.00 0.00 0.00
0.06 0.05 0.03 0.01 0.00 0.01 0.00 0.00 0.00 0.00 0.00 0.00 0.00 0.00 0.00 0.00 0.00 0.00 0.00 0.00 0.00 0.00 0.00 0.00 0.00 0.00 0.00 0.00 0.05 0.04 0.01 0.01 0.00 0.00 0.00 0.00 0.00 0.00 0.00 0.00 0.00 0.00 0.00 0.00 0.00 0.00 0.00 0.00 0.00
0.05 0.07 0.04 0.01 0.01 0.02 0.00 0.00 0.00 0.00 0.00 0.00 0.00 0.00 0.00 0.00 0.00 0.00 0.00 0.00 0.00 0.00 0.00 0.00 0.00 0.00 0.00 0.00 0.02 0.02 0.00 0.00 0.00 0.00 0.00 0.00 0.00 0.00 0.00 0.00 0.00 0.00 0.00 0.00 0.00 0.00 0.00 0.00 0.00
0.11 0.12 0.04 0.03 0.02 0.04 0.01 0.00 0.00 0.00 0.00 0.00 0.00 0.00 0.00 0.00 0.00 0.00 0.00 0.00 0.00 0.00 0.00 0.00 0.00 0.00 0.00 0.00 0.02 0.03 0.01 0.00 0.00 0.00 0.00 0.00 0.00 0.00 0.00 0.00 0.00 0.00 0.00 0.00 0.00 0.00 0.00 0.00 0.00
0.10 0.14 0.10 0.04 0.06 0.05 0.04 0.01 0.00 0.00 0.00 0.00 0.00 0.00 0.00 0.00 0.00 0.00 0.00 0.00 0.00 0.00 0.00 0.00 0.00 0.00 0.00 0.00 0.02 0.03 0.02 0.00 0.00 0.00 0.00 0.00 0.00 0.00 0.00 0.00 0.00 0.00 0.00 0.00 0.00 0.00 0.00 0.00 0.00
0.11 0.07 0.11 0.17 0.15 0.04 0.06 0.03 0.00 0.00 0.00 0.00 0.00 0.00 0.00 0.00 0.00 0.00 0.00 0.00 0.00 0.00 0.00 0.00 0.00 0.00 0.00 0.00 0.02 0.04 0.01 0.00 0.00 0.00 0.00 0.00 0.00 0.00 0.00 0.00 0.00 0.00 0.00 0.00 0.00 0.00 0.00 0.00 0.00
0.17 0.07 0.11 0.23 0.35 0.34 0.06 0.08 0.01 0.00 0.00 0.00 0.00 0.00 0.00 0.00 0.00 0.00 0.00 0.00 0.00 0.00 0.00 0.00 0.00 0.00 0.00 0.00 0.02 0.03 0.00 0.00 0.00 0.00 0.00 0.00 0.00 0.00 0.00 0.00 0.00 0.00 0.00 0.00 0.00 0.00 0.00 0.00 0.00
0.18 0.24 0.25 0.46 0.46 0.65 0.29 0.06 0.01 0.00 0.00 0.00 0.00 0.00 0.00 0.00 0.00 0.00 0.00 0.00 0.00 0.00 0.00 0.00 0.00 0.00 0.00 0.00 0.00 0.00 0.00 0.00 0.00 0.00 0.00 0.00 0.00 0.00 0.00 0.00 0.00 0.00 0.00 0.00 0.00 0.00 0.00 0.00 0.00
0.46 0.57 0.78 0.70 0.83 0.41 0.15 0.16 0.06 0.00 0.00 0.00 0.00 0.00 0.00 0.00 0.00 0.00 0.00 0.00 0.00 0.00 0.00 0.00 0.00 0.00 0.00 0.00 0.00 0.00 0.00 0.00 0.00 0.00 0.00 0.00 0.00 0.00 0.00 0.00 0.00 0.00 0.00 0.00 0.00 0.00 0.00 0.00 0.00
0.58 0.54 0.60 0.37 0.28 0.17 0.08 0.26 0.05 0.00 0.00 0.00 0.00 0.00 0.00 0.00 0.00 0.00 0.00 0.00 0.00 0.00 0.00 0.00 0.00 0.00 0.00 0.00 0.00 0.00 0.00 0.00 0.00 0.00 0.00 0.00 0.00 0.00 0.00 0.00 0.00 0.00 0.00 0.00 0.00 0.00 0.00 0.00 0.00
0.65 0.61 0.35 0.47 0.17 0.25 0.09 0.08 0.04 0.01 0.00 0.00 0.00 0.00 0.00 0.00 0.00 0.00 0.00 0.00 0.00 0.00 0.00 0.00 0.00 0.00 0.00 0.00 0.00 0.00 0.00 0.00 0.00 0.00 0.00 0.00 0.00 0.00 0.00 0.00 0.00 0.00 0.00 0.00 0.00 0.00 0.00 0.00 0.00
0.52 0.31 0.45 0.95 0.58 0.18 0.06 0.02 0.04 0.00 0.00 0.00 0.00 0.00 0.00 0.00 0.00 0.00 0.00 0.00 0.00 0.00 0.00 0.00 0.00 0.00 0.00 0.00 0.00 0.00 0.00 0.00 0.00 0.00 0.00 0.00 0.00 0.00 0.00 0.00 0.00 0.00 0.00 0.00 0.00 0.00 0.00 0.00 0.00
0.55 0.55 0.33 0.44 0.39 0.23 0.10 0.02 0.00 0.00 0.01 0.01 0.01 0.00 0.00 0.00 0.00 0.00 0.00 0.00 0.00 0.00 0.00 0.00 0.00 0.00 0.00 0.00 0.00 0.00 0.00 0.00 0.00 0.00 0.00 0.00 0.00 0.00 0.00 0.00 0.00 0.00 0.00 0.00 0.00 0.00 0.00 0.00 0.00
0.19 0.23 0.16 0.45 0.35 0.23 0.18 0.07 0.00 0.01 0.01 0.01 0.01 0.01 0.01 0.01 0.00 0.00 0.00 0.00 0.00 0.00 0.00 0.00 0.00 0.00 0.00 0.00 0.00 0.00 0.00 0.00 0.00 0.00 0.00 0.00 0.00 0.00 0.00 0.00 0.00 0.00 0.00 0.00 0.00 0.00 0.00 0.00 0.00

GFSSGP_prec_precacc_024.txt.gz
Total_Precipitation_Accumulation
0.00 0.00 0.00 0.00 0.00 0.00 0.00 0.00 0.00 0.00 0.00 0.00 0.00 0.00 0.00 0.00 0.00 0.00 0.00 0.00 0.00 0.00 0.00 0.00 0.02 0.06 0.02 0.01 0.00 0.00 0.00 0.00 0.00 0.01 0.05 0.02 0.00 0.00 0.01 0.01 0.00 0.00 0.00 0.00 0.00 0.00 0.00 0.00 0.00
0.00 0.00 0.00 0.00 0.00 0.00 0.00 0.00 0.00 0.00 0.00 0.00 0.00 0.00 0.00 0.00 0.00 0.00 0.00 0.00 0.00 0.00 0.00 0.00 0.02 0.03 0.02 0.02 0.00 0.00 0.00 0.00 0.00 0.03 0.02 0.00 0.00 0.00 0.00 0.00 0.00 0.00 0.00 0.00 0.00 0.00 0.00 0.00 0.00
0.00 0.00 0.00 0.00 0.00 0.00 0.00 0.00 0.00 0.00 0.00 0.00 0.00 0.00 0.00 0.00 0.00 0.00 0.00 0.00 0.00 0.00 0.00 0.00 0.02 0.02 0.02 0.01 0.00 0.00 0.00 0.00 0.00 0.01 0.00 0.01 0.02 0.02 0.01 0.00 0.00 0.00 0.00 0.00 0.00 0.00 0.00 0.00 0.00
0.00 0.00 0.00 0.00 0.00 0.00 0.00 0.00 0.00 0.00 0.00 0.00 0.00 0.00 0.00 0.00 0.00 0.00 0.00 0.00 0.00 0.00 0.00 0.00 0.02 0.02 0.01 0.00 0.00 0.00 0.00 0.00 0.00 0.00 0.00 0.00 0.03 0.07 0.06 0.01 0.00 0.00 0.00 0.00 0.00 0.00 0.00 0.00 0.00
0.00 0.00 0.00 0.00 0.00 0.00 0.00 0.00 0.00 0.00 0.00 0.00 0.00 0.00 0.00 0.00 0.00 0.00 0.00 0.00 0.00 0.00 0.00 0.00 0.02 0.01 0.00 0.00 0.00 0.00 0.00 0.00 0.00 0.00 0.00 0.01 0.04 0.08 0.12 0.03 0.00 0.00 0.00 0.00 0.00 0.00 0.00 0.00 0.00
0.00 0.00 0.00 0.00 0.00 0.00 0.00 0.00 0.00 0.00 0.00 0.00 0.00 0.00 0.00 0.00 0.00 0.00 0.00 0.00 0.00 0.00 0.00 0.00 0.02 0.02 0.00 0.00 0.01 0.00 0.00 0.00 0.00 0.00 0.00 0.00 0.01 0.05 0.11 0.04 0.00 0.00 0.00 0.00 0.00 0.00 0.00 0.01 0.01
0.00 0.00 0.00 0.00 0.00 0.00 0.00 0.00 0.00 0.00 0.00 0.00 0.00 0.00 0.00 0.00 0.00 0.00 0.00 0.00 0.00 0.00 0.00 0.00 0.01 0.01 0.00 0.00 0.01 0.01 0.01 0.01 0.00 0.00 0.00 0.00 0.00 0.01 0.05 0.02 0.00 0.00 0.00 0.00 0.00 0.00 0.00 0.00 0.02
0.00 0.00 0.00 0.00 0.00 0.00 0.00 0.00 0.00 0.00 0.00 0.00 0.00 0.00 0.00 0.00 0.00 0.00 0.00 0.00 0.00 0.00 0.00 0.00 0.00 0.01 0.01 0.00 0.00 0.00 0.00 0.00 0.00 0.00 0.00 0.00 0.00 0.00 0.01 0.00 0.00 0.00 0.00 0.00 0.00 0.00 0.02 0.03 0.02
0.00 0.00 0.00 0.00 0.00 0.00 0.00 0.00 0.00 0.00 0.00 0.00 0.00 0.00 0.00 0.00 0.00 0.00 0.00 0.00 0.00 0.00 0.00 0.00 0.00 0.00 0.01 0.00 0.00 0.00 0.00 0.00 0.00 0.00 0.00 0.00 0.00 0.00 0.00 0.00 0.00 0.00 0.00 0.00 0.00 0.01 0.03 0.02 0.01
0.00 0.00 0.00 0.00 0.00 0.00 0.00 0.00 0.00 0.00 0.00 0.00 0.00 0.00 0.00 0.00 0.00 0.00 0.00 0.00 0.00 0.00 0.00 0.00 0.00 0.00 0.00 0.00 0.00 0.00 0.00 0.00 0.00 0.00 0.00 0.00 0.00 0.00 0.00 0.00 0.00 0.00 0.00 0.00 0.00 0.01 0.01 0.01 0.00
0.00 0.00 0.00 0.00 0.00 0.00 0.00 0.00 0.00 0.00 0.00 0.00 0.00 0.00 0.00 0.00 0.00 0.00 0.00 0.00 0.00 0.00 0.00 0.00 0.00 0.00 0.00 0.00 0.00 0.00 0.00 0.00 0.00 0.00 0.00 0.00 0.00 0.00 0.00 0.00 0.00 0.00 0.00 0.00 0.00 0.00 0.00 0.00 0.00
0.00 0.00 0.00 0.00 0.00 0.00 0.00 0.00 0.00 0.00 0.00 0.00 0.00 0.00 0.00 0.00 0.00 0.00 0.00 0.00 0.00 0.00 0.00 0.00 0.00 0.00 0.00 0.00 0.00 0.00 0.00 0.00 0.00 0.00 0.00 0.00 0.00 0.00 0.00 0.00 0.00 0.00 0.00 0.00 0.00 0.00 0.00 0.00 0.00
0.00 0.00 0.00 0.00 0.00 0.00 0.00 0.00 0.00 0.00 0.00 0.00 0.00 0.00 0.00 0.00 0.00 0.00 0.00 0.00 0.00 0.00 0.00 0.00 0.00 0.00 0.00 0.00 0.00 0.00 0.00 0.00 0.00 0.00 0.00 0.00 0.00 0.00 0.00 0.00 0.00 0.00 0.00 0.00 0.00 0.00 0.00 0.00 0.00
0.00 0.00 0.00 0.00 0.00 0.00 0.00 0.00 0.00 0.00 0.00 0.00 0.00 0.00 0.00 0.00 0.00 0.00 0.00 0.00 0.00 0.00 0.00 0.00 0.00 0.00 0.00 0.00 0.00 0.00 0.00 0.00 0.00 0.00 0.00 0.00 0.00 0.00 0.00 0.00 0.00 0.00 0.00 0.00 0.00 0.00 0.00 0.00 0.00
0.02 0.03 0.01 0.00 0.00 0.00 0.00 0.00 0.00 0.00 0.00 0.00 0.00 0.00 0.00 0.00 0.00 0.00 0.00 0.00 0.00 0.00 0.00 0.00 0.00 0.00 0.00 0.00 0.00 0.00 0.00 0.00 0.00 0.00 0.00 0.00 0.00 0.00 0.00 0.00 0.00 0.00 0.00 0.00 0.00 0.00 0.00 0.00 0.00
0.09 0.11 0.03 0.00 0.00 0.00 0.00 0.00 0.00 0.00 0.00 0.00 0.00 0.00 0.00 0.00 0.00 0.00 0.00 0.00 0.00 0.00 0.00 0.00 0.00 0.00 0.00 0.00 0.00 0.00 0.01 0.02 0.01 0.00 0.00 0.00 0.00 0.00 0.00 0.00 0.00 0.00 0.00 0.00 0.00 0.00 0.00 0.00 0.00
0.16 0.06 0.02 0.00 0.00 0.00 0.00 0.00 0.00 0.00 0.00 0.00 0.00 0.00 0.00 0.00 0.00 0.00 0.00 0.00 0.00 0.00 0.00 0.00 0.00 0.00 0.00 0.00 0.00 0.03 0.02 0.01 0.01 0.01 0.00 0.00 0.00 0.00 0.00 0.00 0.00 0.00 0.00 0.00 0.00 0.00 0.00 0.00 0.00
0.06 0.05 0.03 0.01 0.00 0.01 0.00 0.00 0.00 0.00 0.00 0.00 0.00 0.00 0.00 0.00 0.00 0.00 0.00 0.00 0.00 0.00 0.00 0.00 0.00 0.00 0.00 0.00 0.05 0.05 0.01 0.01 0.01 0.00 0.00 0.00 0.00 0.00 0.00 0.00 0.00 0.00 0.00 0.00 0.00 0.00 0.00 0.00 0.00
0.05 0.07 0.04 0.01 0.01 0.02 0.00 0.00 0.00 0.00 0.00 0.00 0.00 0.00 0.00 0.00 0.00 0.00 0.00 0.00 0.00 0.00 0.00 0.00 0.00 0.00 0.00 0.00 0.03 0.04 0.05 0.03 0.01 0.00 0.00 0.00 0.00 0.00 0.00 0.00 0.00 0.00 0.00 0.00 0.00 0.00 0.00 0.00 0.00
0.11 0.12 0.04 0.03 0.02 0.04 0.01 0.00 0.00 0.00 0.00 0.00 0.00 0.00 0.00 0.00 0.00 0.00 0.00 0.00 0.00 0.00 0.00 0.00 0.00 0.00 0.00 0.00 0.02 0.05 0.07 0.05 0.02 0.00 0.00 0.00 0.00 0.00 0.00 0.00 0.00 0.00 0.00 0.00 0.00 0.00 0.00 0.00 0.00
0.10 0.14 0.10 0.04 0.06 0.05 0.04 0.01 0.00 0.00 0.00 0.00 0.00 0.00 0.00 0.00 0.00 0.00 0.00 0.00 0.00 0.00 0.00 0.00 0.00 0.00 0.00 0.00 0.03 0.04 0.03 0.02 0.01 0.00 0.00 0.00 0.00 0.00 0.00 0.00 0.00 0.00 0.00 0.00 0.00 0.00 0.00 0.00 0.00
0.11 0.07 0.11 0.17 0.15 0.04 0.06 0.03 0.00 0.00 0.00 0.00 0.00 0.00 0.00 0.00 0.00 0.00 0.00 0.00 0.00 0.00 0.00 0.00 0.00 0.00 0.00 0.00 0.02 0.05 0.03 0.03 0.02 0.00 0.00 0.00 0.00 0.00 0.00 0.00 0.00 0.00 0.00 0.00 0.00 0.00 0.00 0.00 0.00
0.17 0.07 0.11 0.23 0.35 0.34 0.07 0.08 0.01 0.00 0.00 0.00 0.00 0.00 0.00 0.00 0.00 0.00 0.00 0.00 0.00 0.00 0.00 0.00 0.00 0.00 0.00 0.00 0.03 0.07 0.04 0.02 0.01 0.00 0.00 0.00 0.00 0.00 0.00 0.00 0.00 0.00 0.00 0.00 0.00 0.00 0.00 0.00 0.00
0.18 0.24 0.26 0.46 0.47 0.68 0.30 0.07 0.01 0.00 0.00 0.00 0.00 0.00 0.00 0.00 0.00 0.00 0.00 0.00 0.00 0.00 0.00 0.00 0.00 0.00 0.00 0.00 0.00 0.03 0.04 0.02 0.00 0.00 0.00 0.00 0.00 0.00 0.00 0.00 0.00 0.00 0.00 0.00 0.00 0.00 0.00 0.00 0.00
0.47 0.58 0.79 0.71 0.87 0.42 0.15 0.16 0.06 0.00 0.00 0.00 0.00 0.00 0.00 0.00 0.00 0.00 0.00 0.00 0.00 0.00 0.00 0.00 0.00 0.00 0.00 0.00 0.00 0.01 0.02 0.00 0.00 0.00 0.00 0.00 0.00 0.00 0.00 0.00 0.00 0.00 0.00 0.00 0.00 0.00 0.00 0.00 0.00
0.59 0.55 0.60 0.37 0.28 0.17 0.08 0.26 0.05 0.00 0.00 0.00 0.00 0.00 0.00 0.00 0.00 0.00 0.00 0.00 0.00 0.00 0.00 0.00 0.00 0.00 0.00 0.00 0.00 0.00 0.00 0.00 0.00 0.00 0.00 0.00 0.00 0.00 0.00 0.00 0.00 0.00 0.00 0.00 0.00 0.00 0.00 0.00 0.00
0.66 0.62 0.35 0.49 0.18 0.27 0.09 0.08 0.04 0.01 0.00 0.00 0.00 0.00 0.00 0.00 0.00 0.00 0.00 0.00 0.00 0.00 0.00 0.00 0.00 0.00 0.00 0.00 0.00 0.00 0.00 0.00 0.00 0.00 0.00 0.00 0.00 0.00 0.00 0.00 0.00 0.00 0.00 0.00 0.00 0.00 0.00 0.00 0.00
0.52 0.31 0.47 1.00 0.60 0.19 0.06 0.02 0.04 0.00 0.00 0.00 0.00 0.00 0.00 0.00 0.00 0.00 0.00 0.00 0.00 0.00 0.00 0.00 0.00 0.00 0.00 0.00 0.00 0.00 0.01 0.00 0.00 0.00 0.00 0.00 0.00 0.00 0.00 0.00 0.00 0.00 0.00 0.00 0.00 0.00 0.00 0.00 0.00
0.56 0.57 0.37 0.49 0.41 0.24 0.10 0.02 0.00 0.00 0.01 0.01 0.01 0.00 0.00 0.00 0.00 0.00 0.00 0.00 0.00 0.00 0.00 0.00 0.00 0.00 0.00 0.00 0.00 0.00 0.00 0.00 0.00 0.00 0.00 0.00 0.00 0.00 0.00 0.00 0.00 0.00 0.00 0.00 0.00 0.00 0.00 0.00 0.00
0.19 0.23 0.18 0.59 0.41 0.30 0.25 0.10 0.00 0.01 0.01 0.01 0.01 0.01 0.01 0.01 0.00 0.00 0.00 0.00 0.00 0.00 0.00 0.00 0.00 0.00 0.00 0.00 0.00 0.00 0.00 0.00 0.00 0.00 0.00 0.00 0.00 0.00 0.00 0.00 0.00 0.00 0.00 0.00 0.00 0.00 0.00 0.00 0.00

GFSSGP_prec_precacc_027.txt.gz
Total_Precipitation_Accumulation
0.00 0.00 0.00 0.00 0.00 0.00 0.00 0.00 0.00 0.00 0.00 0.00 0.00 0.00 0.00 0.00 0.00 0.00 0.00 0.00 0.00 0.00 0.00 0.00 0.02 0.06 0.02 0.01 0.00 0.00 0.00 0.00 0.00 0.02 0.06 0.02 0.00 0.00 0.01 0.01 0.00 0.00 0.00 0.00 0.00 0.00 0.00 0.00 0.00
0.00 0.00 0.00 0.00 0.00 0.00 0.00 0.00 0.00 0.00 0.00 0.00 0.00 0.00 0.00 0.00 0.00 0.00 0.00 0.00 0.00 0.00 0.00 0.00 0.02 0.04 0.02 0.02 0.00 0.00 0.00 0.00 0.00 0.04 0.02 0.00 0.00 0.00 0.00 0.00 0.00 0.00 0.00 0.00 0.00 0.00 0.00 0.00 0.00
0.00 0.00 0.00 0.00 0.00 0.00 0.00 0.00 0.00 0.00 0.00 0.00 0.00 0.00 0.00 0.00 0.00 0.00 0.00 0.00 0.00 0.00 0.00 0.00 0.02 0.03 0.02 0.01 0.00 0.00 0.00 0.00 0.01 0.02 0.00 0.01 0.02 0.02 0.01 0.00 0.00 0.00 0.00 0.00 0.00 0.00 0.00 0.00 0.00
0.00 0.00 0.00 0.00 0.00 0.00 0.00 0.00 0.00 0.00 0.00 0.00 0.00 0.00 0.00 0.00 0.00 0.00 0.00 0.00 0.00 0.00 0.00 0.00 0.02 0.02 0.01 0.00 0.00 0.00 0.00 0.00 0.00 0.00 0.00 0.00 0.03 0.07 0.06 0.01 0.00 0.00 0.00 0.00 0.00 0.00 0.00 0.00 0.00
0.00 0.00 0.00 0.00 0.00 0.00 0.00 0.00 0.00 0.00 0.00 0.00 0.00 0.00 0.00 0.00 0.00 0.00 0.00 0.00 0.00 0.00 0.00 0.00 0.02 0.02 0.00 0.00 0.00 0.00 0.00 0.00 0.00 0.00 0.00 0.01 0.04 0.08 0.12 0.03 0.00 0.00 0.00 0.00 0.00 0.00 0.00 0.00 0.00
0.00 0.00 0.00 0.00 0.00 0.00 0.00 0.00 0.00 0.00 0.00 0.00 0.00 0.00 0.00 0.00 0.00 0.00 0.00 0.00 0.00 0.00 0.00 0.00 0.02 0.03 0.01 0.00 0.01 0.00 0.00 0.00 0.00 0.00 0.00 0.00 0.01 0.05 0.11 0.05 0.00 0.00 0.00 0.00 0.00 0.00 0.00 0.01 0.01
0.00 0.00 0.00 0.00 0.00 0.00 0.00 0.00 0.00 0.00 0.00 0.00 0.00 0.00 0.00 0.00 0.00 0.00 0.00 0.00 0.00 0.00 0.00 0.00 0.02 0.03 0.01 0.00 0.01 0.01 0.01 0.01 0.00 0.00 0.00 0.00 0.00 0.02 0.06 0.02 0.00 0.00 0.00 0.00 0.00 0.00 0.00 0.01 0.02
0.00 0.00 0.00 0.00 0.00 0.00 0.00 0.00 0.00 0.00 0.00 0.00 0.00 0.00 0.00 0.00 0.00 0.00 0.00 0.00 0.00 0.00 0.00 0.00 0.00 0.02 0.01 0.00 0.00 0.00 0.00 0.00 0.00 0.00 0.00 0.00 0.00 0.00 0.01 0.00 0.00 0.00 0.00 0.00 0.00 0.01 0.03 0.03 0.02
0.00 0.00 0.00 0.00 0.00 0.00 0.00 0.00 0.00 0.00 0.00 0.00 0.00 0.00 0.00 0.00 0.00 0.00 0.00 0.00 0.00 0.00 0.00 0.00 0.00 0.00 0.01 0.00 0.00 0.00 0.00 0.00 0.00 0.00 0.00 0.00 0.00 0.00 0.00 0.00 0.00 0.00 0.00 0.00 0.00 0.01 0.03 0.02 0.01
0.00 0.00 0.00 0.00 0.00 0.00 0.00 0.00 0.00 0.00 0.00 0.00 0.00 0.00 0.00 0.00 0.00 0.00 0.00 0.00 0.00 0.00 0.00 0.00 0.00 0.00 0.00 0.00 0.00 0.00 0.00 0.00 0.00 0.00 0.00 0.00 0.00 0.00 0.00 0.00 0.00 0.00 0.00 0.00 0.00 0.01 0.01 0.01 0.00
0.00 0.00 0.00 0.00 0.00 0.00 0.00 0.00 0.00 0.00 0.00 0.00 0.00 0.00 0.00 0.00 0.00 0.00 0.00 0.00 0.00 0.00 0.00 0.00 0.00 0.00 0.00 0.00 0.00 0.00 0.00 0.00 0.00 0.00 0.00 0.00 0.00 0.00 0.00 0.00 0.00 0.00 0.00 0.00 0.00 0.00 0.00 0.00 0.00
0.00 0.00 0.00 0.00 0.00 0.00 0.00 0.00 0.00 0.00 0.00 0.00 0.00 0.00 0.00 0.00 0.00 0.00 0.00 0.00 0.00 0.00 0.00 0.00 0.00 0.00 0.00 0.00 0.00 0.00 0.00 0.00 0.00 0.00 0.00 0.00 0.00 0.00 0.00 0.00 0.00 0.00 0.00 0.00 0.00 0.00 0.00 0.00 0.00
0.00 0.00 0.00 0.00 0.00 0.00 0.00 0.00 0.00 0.00 0.00 0.00 0.00 0.00 0.00 0.00 0.00 0.00 0.00 0.00 0.00 0.00 0.00 0.00 0.00 0.00 0.00 0.00 0.00 0.00 0.00 0.00 0.00 0.00 0.00 0.00 0.00 0.00 0.00 0.00 0.00 0.00 0.00 0.00 0.00 0.00 0.00 0.00 0.00
0.00 0.00 0.00 0.00 0.00 0.00 0.00 0.00 0.00 0.00 0.00 0.00 0.00 0.00 0.00 0.00 0.00 0.00 0.00 0.00 0.00 0.00 0.00 0.00 0.00 0.00 0.00 0.00 0.00 0.00 0.00 0.00 0.00 0.00 0.00 0.00 0.00 0.00 0.00 0.00 0.00 0.00 0.00 0.00 0.00 0.00 0.00 0.00 0.00
0.02 0.03 0.01 0.00 0.00 0.00 0.00 0.00 0.00 0.00 0.00 0.00 0.00 0.00 0.00 0.00 0.00 0.00 0.00 0.00 0.00 0.00 0.00 0.00 0.00 0.00 0.00 0.00 0.00 0.00 0.00 0.00 0.00 0.00 0.00 0.00 0.00 0.00 0.00 0.00 0.00 0.00 0.00 0.00 0.00 0.00 0.00 0.00 0.00
0.09 0.11 0.03 0.00 0.00 0.00 0.00 0.00 0.00 0.00 0.00 0.00 0.00 0.00 0.00 0.00 0.00 0.00 0.00 0.00 0.00 0.00 0.00 0.00 0.00 0.00 0.00 0.00 0.00 0.00 0.01 0.02 0.01 0.00 0.00 0.00 0.00 0.00 0.00 0.00 0.00 0.00 0.00 0.00 0.00 0.00 0.00 0.00 0.00
0.16 0.06 0.02 0.00 0.00 0.00 0.00 0.00 0.00 0.00 0.00 0.00 0.00 0.00 0.00 0.00 0.00 0.00 0.00 0.00 0.00 0.00 0.00 0.00 0.00 0.00 0.00 0.00 0.00 0.03 0.02 0.01 0.01 0.01 0.00 0.00 0.00 0.00 0.00 0.00 0.00 0.00 0.00 0.00 0.00 0.00 0.00 0.00 0.00
0.06 0.05 0.03 0.01 0.00 0.01 0.00 0.00 0.00 0.00 0.00 0.00 0.00 0.00 0.00 0.00 0.00 0.00 0.00 0.00 0.00 0.00 0.00 0.00 0.00 0.00 0.00 0.00 0.05 0.05 0.02 0.02 0.01 0.00 0.00 0.00 0.00 0.00 0.00 0.00 0.00 0.00 0.00 0.00 0.00 0.00 0.00 0.00 0.00
0.05 0.07 0.04 0.01 0.01 0.02 0.00 0.00 0.00 0.00 0.00 0.00 0.00 0.00 0.00 0.00 0.00 0.00 0.00 0.00 0.00 0.00 0.00 0.00 0.00 0.00 0.00 0.00 0.03 0.04 0.06 0.07 0.06 0.01 0.00 0.00 0.00 0.00 0.00 0.00 0.00 0.00 0.00 0.00 0.00 0.00 0.00 0.00 0.00
0.11 0.12 0.04 0.03 0.02 0.04 0.01 0.00 0.00 0.00 0.00 0.00 0.00 0.00 0.00 0.00 0.00 0.00 0.00 0.00 0.00 0.00 0.00 0.00 0.00 0.00 0.00 0.00 0.02 0.05 0.07 0.07 0.07 0.05 0.01 0.00 0.00 0.00 0.00 0.00 0.00 0.00 0.00 0.00 0.00 0.00 0.00 0.00 0.00
0.10 0.14 0.10 0.04 0.06 0.05 0.04 0.01 0.00 0.00 0.00 0.00 0.00 0.00 0.00 0.00 0.00 0.00 0.00 0.00 0.00 0.00 0.00 0.00 0.00 0.00 0.00 0.00 0.03 0.04 0.03 0.02 0.02 0.01 0.02 0.01 0.00 0.00 0.00 0.00 0.00 0.00 0.00 0.00 0.00 0.00 0.00 0.00 0.00
0.11 0.07 0.11 0.17 0.15 0.04 0.06 0.03 0.00 0.00 0.00 0.00 0.00 0.00 0.00 0.00 0.00 0.00 0.00 0.00 0.00 0.00 0.00 0.00 0.00 0.00 0.00 0.00 0.02 0.05 0.03 0.04 0.03 0.03 0.02 0.01 0.00 0.00 0.00 0.00 0.00 0.00 0.00 0.00 0.00 0.00 0.00 0.00 0.00
0.17 0.07 0.11 0.23 0.35 0.34 0.07 0.09 0.01 0.00 0.00 0.00 0.00 0.00 0.00 0.00 0.00 0.00 0.00 0.00 0.00 0.00 0.00 0.00 0.00 0.00 0.00 0.00 0.03 0.07 0.04 0.02 0.02 0.01 0.01 0.00 0.00 0.00 0.00 0.00 0.00 0.00 0.00 0.00 0.00 0.00 0.00 0.00 0.00
0.18 0.24 0.26 0.47 0.48 0.69 0.30 0.07 0.01 0.00 0.00 0.00 0.00 0.00 0.00 0.00 0.00 0.00 0.00 0.00 0.00 0.00 0.00 0.00 0.00 0.00 0.00 0.00 0.00 0.03 0.04 0.02 0.01 0.00 0.00 0.00 0.00 0.00 0.00 0.00 0.00 0.00 0.00 0.00 0.00 0.00 0.00 0.00 0.00
0.47 0.59 0.79 0.72 0.89 0.42 0.15 0.16 0.06 0.00 0.00 0.00 0.00 0.00 0.00 0.00 0.00 0.00 0.00 0.00 0.00 0.00 0.00 0.00 0.00 0.00 0.00 0.00 0.00 0.01 0.02 0.02 0.01 0.01 0.02 0.01 0.00 0.00 0.00 0.00 0.00 0.00 0.00 0.00 0.00 0.00 0.00 0.00 0.00
0.59 0.55 0.61 0.37 0.28 0.17 0.08 0.26 0.05 0.00 0.00 0.00 0.00 0.00 0.00 0.00 0.00 0.00 0.00 0.00 0.00 0.00 0.00 0.00 0.00 0.00 0.00 0.00 0.00 0.00 0.01 0.01 0.02 0.01 0.00 0.01 0.00 0.00 0.00 0.00 0.00 0.00 0.00 0.00 0.00 0.00 0.00 0.00 0.00
0.66 0.63 0.35 0.50 0.18 0.27 0.09 0.08 0.04 0.01 0.00 0.00 0.00 0.00 0.00 0.00 0.00 0.00 0.00 0.00 0.00 0.00 0.00 0.00 0.00 0.00 0.00 0.00 0.00 0.00 0.01 0.01 0.01 0.01 0.00 0.00 0.00 0.00 0.00 0.00 0.00 0.00 0.00 0.00 0.00 0.00 0.00 0.00 0.00
0.52 0.31 0.48 1.02 0.61 0.19 0.06 0.02 0.04 0.00 0.00 0.00 0.00 0.00 0.00 0.00 0.00 0.00 0.00 0.00 0.00 0.00 0.00 0.00 0.00 0.00 0.00 0.00 0.00 0.00 0.01 0.01 0.00 0.00 0.00 0.00 0.00 0.00 0.00 0.00 0.00 0.00 0.00 0.00 0.00 0.00 0.00 0.00 0.00
0.56 0.57 0.37 0.51 0.43 0.25 0.10 0.02 0.00 0.00 0.01 0.01 0.01 0.00 0.00 0.00 0.00 0.00 0.00 0.00 0.00 0.00 0.00 0.00 0.00 0.00 0.00 0.00 0.00 0.00 0.00 0.01 0.01 0.00 0.00 0.00 0.00 0.00 0.00 0.00 0.00 0.00 0.00 0.00 0.00 0.00 0.00 0.00 0.00
0.19 0.23 0.18 0.64 0.42 0.36 0.31 0.12 0.00 0.01 0.01 0.01 0.01 0.01 0.01 0.01 0.00 0.00 0.00 0.00 0.00 0.00 0.00 0.00 0.00 0.00 0.00 0.00 0.00 0.00 0.00 0.00 0.00 0.00 0.00 0.00 0.00 0.00 0.00 0.00 0.00 0.00 0.00 0.00 0.00 0.00 0.00 0.00 0.00

GFSSGP_prec_precacc_030.txt.gz
Total_Precipitation_Accumulation
0.00 0.00 0.00 0.00 0.00 0.00 0.00 0.00 0.00 0.00 0.00 0.00 0.00 0.00 0.00 0.00 0.00 0.00 0.00 0.00 0.00 0.00 0.00 0.00 0.02 0.06 0.02 0.01 0.00 0.00 0.00 0.00 0.00 0.03 0.07 0.03 0.00 0.00 0.01 0.01 0.00 0.00 0.00 0.00 0.00 0.00 0.00 0.00 0.00
0.00 0.00 0.00 0.00 0.00 0.00 0.00 0.00 0.00 0.00 0.00 0.00 0.00 0.00 0.00 0.00 0.00 0.00 0.00 0.00 0.00 0.00 0.00 0.00 0.02 0.04 0.02 0.02 0.00 0.00 0.00 0.00 0.00 0.05 0.02 0.00 0.00 0.00 0.00 0.00 0.00 0.00 0.00 0.00 0.00 0.00 0.00 0.00 0.00
0.00 0.00 0.00 0.00 0.00 0.00 0.00 0.00 0.00 0.00 0.00 0.00 0.00 0.00 0.00 0.00 0.00 0.00 0.00 0.00 0.00 0.00 0.00 0.00 0.02 0.03 0.02 0.01 0.00 0.00 0.00 0.00 0.01 0.02 0.00 0.01 0.02 0.02 0.01 0.00 0.00 0.00 0.00 0.00 0.00 0.00 0.00 0.00 0.00
0.00 0.00 0.00 0.00 0.00 0.00 0.00 0.00 0.00 0.00 0.00 0.00 0.00 0.00 0.00 0.00 0.00 0.00 0.00 0.00 0.00 0.00 0.00 0.00 0.02 0.03 0.01 0.00 0.00 0.00 0.00 0.00 0.01 0.00 0.00 0.00 0.03 0.07 0.06 0.01 0.00 0.00 0.00 0.00 0.00 0.00 0.00 0.00 0.00
0.00 0.00 0.00 0.00 0.00 0.00 0.00 0.00 0.00 0.00 0.00 0.00 0.00 0.00 0.00 0.00 0.00 0.00 0.00 0.00 0.00 0.00 0.00 0.00 0.02 0.02 0.01 0.00 0.00 0.00 0.00 0.00 0.00 0.00 0.00 0.01 0.04 0.08 0.12 0.03 0.00 0.00 0.00 0.00 0.00 0.00 0.00 0.00 0.00
0.00 0.00 0.00 0.00 0.00 0.00 0.00 0.00 0.00 0.00 0.00 0.00 0.00 0.00 0.00 0.00 0.00 0.00 0.00 0.00 0.00 0.00 0.00 0.00 0.02 0.04 0.01 0.00 0.01 0.00 0.00 0.00 0.00 0.00 0.00 0.00 0.01 0.05 0.12 0.05 0.00 0.00 0.00 0.00 0.00 0.00 0.00 0.01 0.01
0.00 0.00 0.00 0.00 0.00 0.00 0.00 0.00 0.00 0.00 0.00 0.00 0.00 0.00 0.00 0.00 0.00 0.00 0.00 0.00 0.00 0.00 0.00 0.00 0.02 0.03 0.01 0.00 0.01 0.01 0.01 0.01 0.00 0.00 0.00 0.00 0.00 0.02 0.06 0.02 0.00 0.00 0.00 0.00 0.00 0.00 0.00 0.01 0.02
0.00 0.00 0.00 0.00 0.00 0.00 0.00 0.00 0.00 0.00 0.00 0.00 0.00 0.00 0.00 0.00 0.00 0.00 0.00 0.00 0.00 0.00 0.00 0.00 0.00 0.02 0.02 0.00 0.00 0.00 0.00 0.00 0.00 0.00 0.00 0.00 0.00 0.01 0.02 0.00 0.00 0.00 0.00 0.00 0.00 0.01 0.03 0.03 0.02
0.00 0.00 0.00 0.00 0.00 0.00 0.00 0.00 0.00 0.00 0.00 0.00 0.00 0.00 0.00 0.00 0.00 0.00 0.00 0.00 0.00 0.00 0.00 0.00 0.00 0.00 0.01 0.00 0.00 0.00 0.00 0.00 0.00 0.00 0.00 0.00 0.00 0.00 0.00 0.00 0.00 0.00 0.00 0.00 0.00 0.01 0.03 0.02 0.01
0.00 0.00 0.00 0.00 0.00 0.00 0.00 0.00 0.00 0.00 0.00 0.00 0.00 0.00 0.00 0.00 0.00 0.00 0.00 0.00 0.00 0.00 0.00 0.00 0.00 0.00 0.01 0.00 0.00 0.00 0.00 0.00 0.00 0.00 0.00 0.00 0.00 0.00 0.00 0.00 0.00 0.00 0.00 0.00 0.00 0.01 0.01 0.01 0.00
0.00 0.00 0.00 0.00 0.00 0.00 0.00 0.00 0.00 0.00 0.00 0.00 0.00 0.00 0.00 0.00 0.00 0.00 0.00 0.00 0.00 0.00 0.00 0.00 0.00 0.00 0.00 0.00 0.00 0.00 0.00 0.00 0.00 0.00 0.00 0.00 0.00 0.00 0.00 0.00 0.00 0.00 0.00 0.00 0.00 0.00 0.00 0.00 0.00
0.00 0.00 0.00 0.00 0.00 0.00 0.00 0.00 0.00 0.00 0.00 0.00 0.00 0.00 0.00 0.00 0.00 0.00 0.00 0.00 0.00 0.00 0.00 0.00 0.00 0.00 0.00 0.00 0.00 0.00 0.00 0.00 0.00 0.00 0.00 0.00 0.00 0.00 0.00 0.00 0.00 0.00 0.00 0.00 0.00 0.00 0.00 0.00 0.00
0.00 0.00 0.00 0.00 0.00 0.00 0.00 0.00 0.00 0.00 0.00 0.00 0.00 0.00 0.00 0.00 0.00 0.00 0.00 0.00 0.01 0.00 0.00 0.00 0.00 0.00 0.00 0.00 0.00 0.00 0.00 0.00 0.00 0.00 0.00 0.00 0.00 0.00 0.00 0.00 0.00 0.00 0.00 0.00 0.00 0.00 0.00 0.00 0.00
0.00 0.00 0.00 0.00 0.00 0.00 0.00 0.00 0.00 0.00 0.00 0.00 0.00 0.00 0.00 0.00 0.00 0.00 0.00 0.00 0.00 0.00 0.00 0.00 0.00 0.00 0.00 0.00 0.00 0.00 0.00 0.00 0.00 0.00 0.00 0.00 0.00 0.00 0.00 0.00 0.00 0.00 0.00 0.00 0.00 0.00 0.00 0.00 0.00
0.02 0.03 0.01 0.00 0.00 0.00 0.00 0.00 0.00 0.00 0.00 0.00 0.00 0.00 0.00 0.00 0.00 0.00 0.00 0.00 0.00 0.00 0.00 0.00 0.00 0.00 0.00 0.00 0.00 0.00 0.00 0.00 0.00 0.00 0.00 0.00 0.00 0.00 0.00 0.00 0.00 0.00 0.00 0.00 0.00 0.00 0.00 0.00 0.00
0.09 0.11 0.03 0.00 0.00 0.00 0.00 0.00 0.00 0.00 0.00 0.00 0.00 0.00 0.00 0.00 0.00 0.00 0.00 0.00 0.00 0.00 0.00 0.00 0.00 0.00 0.00 0.00 0.00 0.00 0.01 0.02 0.03 0.01 0.00 0.00 0.00 0.00 0.00 0.00 0.00 0.00 0.00 0.00 0.00 0.00 0.00 0.00 0.00
0.16 0.06 0.02 0.00 0.00 0.00 0.00 0.00 0.00 0.00 0.00 0.00 0.00 0.00 0.00 0.00 0.00 0.00 0.00 0.00 0.00 0.00 0.00 0.00 0.00 0.00 0.00 0.00 0.00 0.03 0.02 0.01 0.02 0.01 0.00 0.00 0.00 0.00 0.00 0.00 0.00 0.00 0.00 0.00 0.00 0.00 0.00 0.00 0.00
0.06 0.05 0.03 0.01 0.00 0.01 0.00 0.00 0.00 0.00 0.00 0.00 0.00 0.00 0.00 0.00 0.00 0.00 0.00 0.00 0.00 0.00 0.00 0.00 0.00 0.00 0.00 0.00 0.05 0.05 0.02 0.02 0.02 0.00 0.00 0.00 0.00 0.00 0.00 0.00 0.00 0.00 0.00 0.00 0.00 0.00 0.00 0.00 0.00
0.05 0.07 0.04 0.01 0.01 0.02 0.00 0.00 0.00 0.00 0.00 0.00 0.00 0.00 0.00 0.00 0.00 0.00 0.00 0.00 0.00 0.00 0.00 0.00 0.00 0.00 0.00 0.00 0.03 0.04 0.06 0.07 0.06 0.02 0.00 0.00 0.00 0.00 0.00 0.00 0.00 0.00 0.00 0.00 0.00 0.00 0.00 0.00 0.00
0.11 0.12 0.04 0.03 0.02 0.04 0.01 0.00 0.00 0.00 0.00 0.00 0.00 0.00 0.00 0.00 0.00 0.00 0.00 0.00 0.00 0.00 0.00 0.00 0.00 0.00 0.00 0.00 0.02 0.06 0.09 0.09 0.07 0.05 0.02 0.01 0.00 0.00 0.00 0.00 0.00 0.00 0.00 0.00 0.00 0.00 0.00 0.00 0.00
0.10 0.14 0.10 0.04 0.06 0.05 0.04 0.01 0.00 0.00 0.00 0.00 0.00 0.00 0.00 0.00 0.00 0.00 0.00 0.00 0.00 0.00 0.00 0.00 0.00 0.00 0.00 0.00 0.03 0.04 0.03 0.03 0.02 0.02 0.04 0.03 0.02 0.00 0.00 0.00 0.00 0.00 0.00 0.00 0.00 0.00 0.00 0.00 0.00
0.11 0.07 0.11 0.17 0.15 0.04 0.06 0.03 0.00 0.00 0.00 0.00 0.00 0.00 0.00 0.00 0.00 0.00 0.00 0.00 0.00 0.00 0.00 0.00 0.00 0.00 0.00 0.00 0.02 0.05 0.04 0.04 0.04 0.04 0.04 0.03 0.01 0.00 0.00 0.00 0.00 0.00 0.00 0.00 0.00 0.00 0.00 0.00 0.00
0.17 0.07 0.11 0.23 0.35 0.35 0.07 0.09 0.01 0.00 0.00 0.00 0.00 0.00 0.00 0.00 0.00 0.00 0.00 0.00 0.00 0.00 0.00 0.00 0.00 0.00 0.00 0.00 0.03 0.07 0.04 0.02 0.02 0.01 0.01 0.01 0.01 0.01 0.00 0.00 0.00 0.00 0.00 0.00 0.00 0.00 0.00 0.00 0.00
0.18 0.24 0.26 0.47 0.48 0.69 0.30 0.07 0.01 0.00 0.00 0.00 0.00 0.00 0.00 0.00 0.00 0.00 0.00 0.00 0.00 0.00 0.00 0.00 0.00 0.00 0.00 0.00 0.00 0.03 0.04 0.02 0.01 0.00 0.01 0.03 0.03 0.01 0.00 0.00 0.00 0.00 0.00 0.00 0.00 0.00 0.00 0.00 0.00
0.47 0.59 0.79 0.72 0.89 0.42 0.15 0.16 0.06 0.00 0.00 0.00 0.00 0.00 0.00 0.00 0.00 0.00 0.00 0.00 0.00 0.00 0.00 0.00 0.00 0.00 0.00 0.00 0.00 0.01 0.02 0.02 0.01 0.02 0.03 0.03 0.02 0.01 0.00 0.00 0.00 0.00 0.00 0.00 0.00 0.00 0.00 0.00 0.00
0.59 0.55 0.61 0.37 0.28 0.17 0.08 0.26 0.05 0.00 0.00 0.00 0.00 0.00 0.00 0.00 0.00 0.00 0.00 0.00 0.00 0.00 0.00 0.00 0.00 0.00 0.00 0.00 0.00 0.00 0.01 0.01 0.02 0.02 0.02 0.03 0.04 0.02 0.01 0.00 0.00 0.00 0.00 0.00 0.00 0.00 0.00 0.00 0.00
0.66 0.63 0.35 0.50 0.18 0.27 0.09 0.08 0.04 0.01 0.00 0.00 0.00 0.00 0.00 0.00 0.00 0.00 0.00 0.00 0.00 0.00 0.00 0.00 0.00 0.00 0.00 0.00 0.00 0.00 0.01 0.01 0.01 0.02 0.02 0.02 0.01 0.01 0.00 0.00 0.00 0.00 0.00 0.00 0.00 0.00 0.00 0.00 0.00
0.52 0.31 0.48 1.03 0.61 0.19 0.06 0.02 0.04 0.00 0.00 0.00 0.00 0.00 0.00 0.00 0.00 0.00 0.00 0.00 0.00 0.00 0.00 0.00 0.00 0.00 0.00 0.00 0.00 0.00 0.01 0.01 0.01 0.01 0.01 0.01 0.00 0.00 0.00 0.00 0.00 0.00 0.00 0.00 0.00 0.00 0.00 0.00 0.00
0.56 0.58 0.37 0.51 0.43 0.25 0.10 0.02 0.00 0.00 0.01 0.01 0.01 0.00 0.00 0.00 0.00 0.00 0.00 0.00 0.00 0.00 0.00 0.00 0.00 0.00 0.00 0.00 0.00 0.00 0.00 0.01 0.01 0.01 0.00 0.01 0.01 0.00 0.00 0.00 0.00 0.00 0.00 0.00 0.00 0.00 0.00 0.00 0.00
0.19 0.23 0.18 0.64 0.42 0.37 0.32 0.13 0.00 0.01 0.01 0.01 0.01 0.01 0.01 0.01 0.00 0.00 0.00 0.00 0.00 0.00 0.00 0.00 0.00 0.00 0.00 0.00 0.00 0.00 0.01 0.01 0.01 0.01 0.01 0.01 0.01 0.00 0.00 0.00 0.00 0.00 0.00 0.00 0.00 0.00 0.00 0.00 0.00

GFSSGP_prec_precacc_036.txt.gz
Total_Precipitation_Accumulation
0.00 0.00 0.00 0.00 0.00 0.00 0.00 0.00 0.00 0.00 0.00 0.00 0.00 0.00 0.00 0.00 0.00 0.00 0.00 0.00 0.00 0.00 0.00 0.00 0.03 0.06 0.02 0.01 0.00 0.00 0.00 0.00 0.00 0.04 0.08 0.03 0.00 0.00 0.01 0.01 0.00 0.00 0.00 0.00 0.00 0.00 0.00 0.00 0.00
0.00 0.00 0.00 0.00 0.00 0.00 0.00 0.00 0.00 0.00 0.00 0.00 0.00 0.00 0.00 0.00 0.00 0.00 0.00 0.00 0.00 0.00 0.00 0.00 0.02 0.04 0.02 0.02 0.00 0.00 0.00 0.00 0.01 0.06 0.02 0.00 0.00 0.00 0.00 0.00 0.00 0.00 0.00 0.00 0.00 0.00 0.00 0.00 0.00
0.00 0.00 0.00 0.00 0.00 0.00 0.00 0.00 0.00 0.00 0.00 0.00 0.00 0.00 0.00 0.00 0.00 0.00 0.00 0.00 0.00 0.00 0.00 0.00 0.02 0.03 0.02 0.01 0.00 0.00 0.00 0.00 0.02 0.02 0.00 0.01 0.02 0.02 0.01 0.00 0.00 0.00 0.00 0.00 0.00 0.00 0.00 0.00 0.00
0.00 0.00 0.00 0.00 0.00 0.00 0.00 0.00 0.00 0.00 0.00 0.00 0.00 0.00 0.00 0.00 0.00 0.00 0.00 0.00 0.00 0.00 0.00 0.00 0.02 0.03 0.01 0.00 0.00 0.00 0.00 0.00 0.01 0.00 0.00 0.00 0.03 0.07 0.06 0.01 0.00 0.00 0.00 0.00 0.00 0.00 0.00 0.00 0.00
0.00 0.00 0.00 0.00 0.00 0.00 0.00 0.00 0.00 0.00 0.00 0.00 0.00 0.00 0.00 0.00 0.00 0.00 0.00 0.00 0.00 0.00 0.00 0.00 0.02 0.02 0.01 0.00 0.00 0.00 0.00 0.00 0.00 0.00 0.00 0.01 0.04 0.08 0.12 0.03 0.00 0.00 0.00 0.00 0.00 0.00 0.00 0.00 0.00
0.00 0.00 0.00 0.00 0.00 0.00 0.00 0.00 0.00 0.00 0.00 0.00 0.00 0.00 0.00 0.00 0.00 0.00 0.00 0.00 0.00 0.00 0.00 0.00 0.02 0.04 0.01 0.00 0.01 0.00 0.00 0.00 0.00 0.00 0.00 0.00 0.01 0.05 0.12 0.05 0.00 0.00 0.00 0.00 0.00 0.00 0.00 0.01 0.01
0.00 0.00 0.00 0.00 0.00 0.00 0.00 0.00 0.00 0.00 0.00 0.00 0.00 0.00 0.00 0.00 0.00 0.00 0.00 0.00 0.00 0.00 0.00 0.00 0.02 0.03 0.01 0.00 0.01 0.01 0.01 0.01 0.00 0.00 0.00 0.00 0.00 0.02 0.06 0.02 0.00 0.00 0.00 0.00 0.00 0.00 0.00 0.01 0.02
0.00 0.00 0.00 0.00 0.00 0.00 0.00 0.00 0.00 0.00 0.00 0.00 0.00 0.00 0.00 0.00 0.00 0.00 0.00 0.00 0.00 0.00 0.00 0.00 0.00 0.02 0.02 0.00 0.00 0.00 0.00 0.00 0.00 0.00 0.00 0.00 0.00 0.01 0.02 0.00 0.00 0.00 0.00 0.00 0.00 0.01 0.03 0.03 0.02
0.00 0.00 0.00 0.00 0.00 0.00 0.00 0.00 0.00 0.00 0.00 0.00 0.00 0.00 0.00 0.00 0.00 0.00 0.00 0.00 0.00 0.00 0.01 0.01 0.00 0.00 0.01 0.00 0.00 0.00 0.00 0.00 0.00 0.00 0.00 0.00 0.00 0.00 0.00 0.00 0.00 0.00 0.00 0.00 0.00 0.01 0.03 0.02 0.01
0.00 0.00 0.00 0.00 0.00 0.00 0.00 0.00 0.00 0.00 0.00 0.00 0.00 0.00 0.00 0.00 0.00 0.00 0.00 0.00 0.00 0.00 0.01 0.00 0.00 0.00 0.01 0.00 0.00 0.00 0.00 0.00 0.00 0.00 0.00 0.00 0.00 0.00 0.00 0.00 0.00 0.00 0.00 0.00 0.00 0.01 0.01 0.01 0.00
0.00 0.00 0.00 0.00 0.00 0.00 0.00 0.00 0.00 0.00 0.00 0.00 0.00 0.00 0.00 0.00 0.00 0.00 0.00 0.00 0.00 0.00 0.00 0.00 0.00 0.00 0.00 0.00 0.00 0.00 0.00 0.00 0.00 0.00 0.00 0.00 0.00 0.00 0.00 0.00 0.00 0.00 0.00 0.00 0.00 0.00 0.00 0.00 0.00
0.00 0.00 0.00 0.00 0.00 0.00 0.00 0.00 0.00 0.00 0.00 0.00 0.00 0.00 0.00 0.00 0.00 0.00 0.00 0.00 0.00 0.00 0.00 0.00 0.00 0.00 0.00 0.00 0.00 0.00 0.00 0.00 0.00 0.00 0.00 0.00 0.00 0.00 0.00 0.00 0.00 0.00 0.00 0.00 0.00 0.00 0.00 0.00 0.00
0.00 0.00 0.00 0.00 0.00 0.00 0.00 0.00 0.00 0.00 0.00 0.00 0.00 0.00 0.00 0.00 0.00 0.00 0.00 0.00 0.01 0.00 0.00 0.00 0.00 0.00 0.00 0.00 0.00 0.00 0.00 0.00 0.00 0.00 0.00 0.00 0.00 0.00 0.00 0.00 0.00 0.00 0.00 0.00 0.00 0.00 0.00 0.00 0.00
0.00 0.00 0.00 0.00 0.00 0.00 0.00 0.00 0.00 0.00 0.00 0.00 0.00 0.00 0.00 0.00 0.00 0.00 0.00 0.00 0.00 0.00 0.00 0.00 0.00 0.00 0.00 0.00 0.00 0.00 0.00 0.00 0.00 0.00 0.00 0.00 0.00 0.00 0.00 0.00 0.00 0.00 0.00 0.00 0.00 0.00 0.00 0.00 0.00
0.02 0.03 0.01 0.00 0.00 0.00 0.00 0.00 0.00 0.00 0.00 0.00 0.00 0.00 0.00 0.00 0.00 0.00 0.00 0.00 0.00 0.00 0.00 0.00 0.00 0.00 0.00 0.00 0.01 0.00 0.00 0.00 0.00 0.00 0.00 0.00 0.00 0.00 0.00 0.00 0.00 0.00 0.00 0.00 0.00 0.00 0.00 0.00 0.00
0.09 0.11 0.03 0.00 0.00 0.00 0.00 0.00 0.00 0.00 0.00 0.00 0.00 0.00 0.00 0.00 0.00 0.00 0.00 0.00 0.00 0.00 0.00 0.00 0.00 0.00 0.00 0.00 0.02 0.01 0.01 0.02 0.04 0.01 0.00 0.00 0.00 0.00 0.00 0.00 0.00 0.00 0.00 0.00 0.00 0.00 0.00 0.00 0.00
0.16 0.06 0.02 0.00 0.00 0.00 0.00 0.00 0.00 0.00 0.00 0.00 0.00 0.00 0.00 0.00 0.00 0.00 0.00 0.00 0.00 0.00 0.00 0.00 0.00 0.00 0.00 0.00 0.02 0.06 0.05 0.02 0.04 0.02 0.00 0.00 0.00 0.00 0.00 0.00 0.00 0.00 0.00 0.00 0.00 0.00 0.00 0.00 0.00
0.06 0.05 0.03 0.01 0.00 0.01 0.00 0.00 0.00 0.00 0.00 0.00 0.00 0.00 0.00 0.00 0.00 0.00 0.00 0.00 0.00 0.00 0.00 0.00 0.00 0.00 0.03 0.04 0.09 0.15 0.14 0.04 0.04 0.01 0.00 0.00 0.00 0.00 0.00 0.00 0.00 0.00 0.00 0.00 0.00 0.00 0.00 0.00 0.00
0.05 0.07 0.04 0.01 0.01 0.02 0.00 0.00 0.00 0.00 0.00 0.00 0.00 0.00 0.00 0.00 0.00 0.00 0.00 0.00 0.00 0.00 0.00 0.00 0.00 0.00 0.02 0.02 0.05 0.12 0.16 0.08 0.08 0.03 0.00 0.00 0.01 0.02 0.01 0.00 0.00 0.00 0.00 0.00 0.00 0.00 0.00 0.00 0.00
0.11 0.12 0.04 0.03 0.02 0.04 0.01 0.00 0.00 0.00 0.00 0.00 0.00 0.00 0.00 0.00 0.00 0.00 0.00 0.00 0.00 0.00 0.00 0.00 0.00 0.00 0.00 0.02 0.04 0.14 0.23 0.20 0.20 0.10 0.03 0.02 0.04 0.05 0.03 0.00 0.00 0.00 0.00 0.00 0.00 0.00 0.00 0.00 0.00
0.10 0.14 0.10 0.04 0.06 0.05 0.04 0.01 0.00 0.00 0.00 0.00 0.00 0.00 0.00 0.00 0.00 0.00 0.00 0.00 0.00 0.00 0.00 0.00 0.00 0.00 0.01 0.02 0.07 0.14 0.16 0.17 0.16 0.08 0.05 0.07 0.14 0.09 0.06 0.01 0.00 0.00 0.00 0.00 0.00 0.00 0.00 0.00 0.00
0.11 0.07 0.11 0.17 0.15 0.04 0.06 0.03 0.00 0.00 0.00 0.00 0.00 0.00 0.00 0.00 0.00 0.00 0.00 0.00 0.00 0.00 0.00 0.00 0.00 0.00 0.00 0.00 0.04 0.07 0.07 0.08 0.08 0.08 0.16 0.19 0.15 0.10 0.04 0.01 0.02 0.01 0.00 0.00 0.00 0.00 0.00 0.00 0.00
0.17 0.07 0.11 0.23 0.35 0.35 0.07 0.09 0.01 0.00 0.00 0.00 0.00 0.00 0.00 0.00 0.00 0.00 0.00 0.00 0.00 0.00 0.00 0.00 0.00 0.00 0.00 0.00 0.03 0.08 0.05 0.05 0.05 0.07 0.10 0.12 0.14 0.09 0.07 0.04 0.02 0.01 0.00 0.00 0.00 0.00 0.00 0.00 0.00
0.18 0.24 0.26 0.47 0.48 0.69 0.30 0.07 0.01 0.00 0.00 0.00 0.00 0.00 0.00 0.00 0.00 0.00 0.00 0.00 0.00 0.00 0.00 0.00 0.00 0.00 0.00 0.00 0.00 0.03 0.04 0.03 0.02 0.03 0.06 0.08 0.12 0.09 0.06 0.05 0.04 0.02 0.00 0.00 0.00 0.00 0.00 0.00 0.00
0.47 0.59 0.79 0.72 0.89 0.42 0.15 0.16 0.06 0.00 0.00 0.00 0.00 0.00 0.00 0.00 0.00 0.00 0.00 0.00 0.00 0.00 0.00 0.00 0.00 0.00 0.00 0.00 0.00 0.02 0.04 0.02 0.03 0.04 0.06 0.06 0.07 0.06 0.04 0.04 0.03 0.02 0.01 0.01 0.00 0.00 0.00 0.00 0.00
0.59 0.55 0.61 0.37 0.28 0.17 0.08 0.26 0.05 0.00 0.00 0.00 0.00 0.00 0.00 0.00 0.00 0.00 0.00 0.00 0.00 0.00 0.00 0.00 0.00 0.00 0.00 0.00 0.00 0.00 0.01 0.02 0.05 0.05 0.05 0.06 0.07 0.06 0.04 0.04 0.04 0.02 0.01 0.01 0.00 0.00 0.00 0.00 0.00
0.66 0.63 0.35 0.50 0.18 0.27 0.09 0.08 0.04 0.01 0.00 0.00 0.00 0.00 0.00 0.00 0.00 0.00 0.00 0.00 0.00 0.00 0.00 0.00 0.00 0.00 0.00 0.01 0.01 0.01 0.01 0.03 0.04 0.04 0.05 0.05 0.05 0.05 0.05 0.05 0.03 0.02 0.01 0.01 0.00 0.00 0.00 0.00 0.00
0.52 0.31 0.48 1.03 0.61 0.19 0.06 0.02 0.04 0.00 0.00 0.00 0.00 0.00 0.00 0.00 0.00 0.00 0.00 0.00 0.00 0.00 0.00 0.00 0.00 0.00 0.00 0.03 0.03 0.01 0.04 0.04 0.03 0.03 0.03 0.04 0.04 0.04 0.04 0.04 0.02 0.02 0.01 0.00 0.00 0.00 0.00 0.00 0.00
0.56 0.58 0.37 0.51 0.43 0.25 0.10 0.02 0.00 0.00 0.01 0.01 0.01 0.00 0.00 0.00 0.00 0.00 0.00 0.00 0.00 0.00 0.00 0.00 0.00 0.00 0.01 0.02 0.00 0.00 0.02 0.04 0.03 0.03 0.03 0.03 0.04 0.02 0.02 0.01 0.02 0.01 0.01 0.01 0.02 0.03 0.01 0.00 0.00
0.19 0.23 0.18 0.64 0.42 0.37 0.32 0.13 0.00 0.01 0.01 0.01 0.01 0.01 0.01 0.01 0.00 0.00 0.00 0.00 0.00 0.00 0.00 0.00 0.00 0.01 0.02 0.01 0.00 0.01 0.04 0.04 0.03 0.03 0.03 0.03 0.03 0.02 0.02 0.02 0.01 0.01 0.02 0.05 0.08 0.07 0.01 0.00 0.00

GFSSGP_prec_precacc_039.txt.gz
Total_Precipitation_Accumulation
0.00 0.00 0.00 0.00 0.00 0.00 0.00 0.00 0.00 0.00 0.00 0.00 0.00 0.00 0.00 0.00 0.00 0.00 0.00 0.00 0.00 0.00 0.00 0.00 0.03 0.07 0.03 0.01 0.01 0.00 0.00 0.00 0.00 0.04 0.09 0.03 0.00 0.00 0.01 0.01 0.01 0.00 0.01 0.04 0.04 0.03 0.00 0.00 0.00
0.00 0.00 0.00 0.00 0.00 0.00 0.00 0.00 0.00 0.00 0.00 0.00 0.00 0.00 0.00 0.00 0.00 0.00 0.00 0.00 0.00 0.00 0.00 0.00 0.03 0.04 0.02 0.02 0.00 0.00 0.00 0.00 0.02 0.06 0.02 0.00 0.00 0.00 0.00 0.00 0.00 0.00 0.00 0.00 0.00 0.00 0.00 0.00 0.00
0.00 0.00 0.00 0.00 0.00 0.00 0.00 0.00 0.00 0.00 0.00 0.00 0.00 0.00 0.00 0.00 0.00 0.00 0.00 0.00 0.00 0.00 0.00 0.00 0.02 0.03 0.02 0.01 0.00 0.00 0.00 0.00 0.02 0.02 0.00 0.01 0.02 0.02 0.01 0.00 0.00 0.00 0.00 0.00 0.00 0.00 0.00 0.00 0.00
0.00 0.00 0.00 0.00 0.00 0.00 0.00 0.00 0.00 0.00 0.00 0.00 0.00 0.00 0.00 0.00 0.00 0.00 0.00 0.00 0.00 0.00 0.00 0.00 0.03 0.03 0.01 0.00 0.00 0.00 0.00 0.01 0.01 0.00 0.00 0.00 0.03 0.07 0.06 0.01 0.00 0.00 0.00 0.00 0.00 0.00 0.00 0.00 0.00
0.00 0.00 0.00 0.00 0.00 0.00 0.00 0.00 0.00 0.00 0.00 0.00 0.00 0.00 0.00 0.00 0.00 0.00 0.00 0.00 0.00 0.00 0.00 0.00 0.02 0.02 0.01 0.00 0.00 0.00 0.01 0.00 0.00 0.00 0.00 0.01 0.04 0.08 0.12 0.03 0.00 0.00 0.00 0.00 0.00 0.00 0.00 0.00 0.00
0.00 0.00 0.00 0.00 0.00 0.00 0.00 0.00 0.00 0.00 0.00 0.00 0.00 0.00 0.00 0.00 0.00 0.00 0.00 0.00 0.00 0.00 0.00 0.00 0.02 0.04 0.01 0.00 0.01 0.00 0.01 0.00 0.00 0.00 0.00 0.00 0.01 0.05 0.12 0.05 0.00 0.00 0.00 0.00 0.00 0.00 0.00 0.01 0.01
0.00 0.00 0.00 0.00 0.00 0.00 0.00 0.00 0.00 0.00 0.00 0.00 0.00 0.00 0.00 0.00 0.00 0.00 0.00 0.00 0.00 0.00 0.00 0.00 0.02 0.03 0.01 0.00 0.01 0.01 0.01 0.01 0.00 0.00 0.00 0.00 0.00 0.02 0.06 0.02 0.00 0.00 0.00 0.00 0.00 0.00 0.00 0.01 0.02
0.00 0.00 0.00 0.00 0.00 0.00 0.00 0.00 0.00 0.00 0.00 0.00 0.00 0.00 0.00 0.00 0.00 0.00 0.00 0.00 0.00 0.00 0.01 0.00 0.00 0.02 0.02 0.00 0.00 0.00 0.01 0.00 0.00 0.00 0.00 0.00 0.00 0.01 0.02 0.00 0.00 0.00 0.00 0.00 0.00 0.01 0.03 0.03 0.02
0.00 0.00 0.00 0.00 0.00 0.00 0.00 0.00 0.00 0.00 0.00 0.00 0.00 0.00 0.00 0.00 0.00 0.00 0.00 0.00 0.00 0.02 0.04 0.03 0.02 0.01 0.01 0.00 0.00 0.00 0.00 0.00 0.00 0.00 0.00 0.00 0.00 0.00 0.00 0.00 0.00 0.00 0.00 0.00 0.00 0.01 0.03 0.02 0.01
0.00 0.00 0.00 0.00 0.00 0.00 0.00 0.00 0.00 0.00 0.00 0.00 0.00 0.00 0.00 0.00 0.00 0.00 0.00 0.00 0.00 0.02 0.04 0.02 0.01 0.00 0.01 0.00 0.00 0.00 0.00 0.00 0.00 0.00 0.00 0.00 0.00 0.00 0.00 0.00 0.00 0.00 0.00 0.00 0.00 0.01 0.01 0.01 0.00
0.00 0.00 0.00 0.00 0.00 0.00 0.00 0.00 0.00 0.00 0.00 0.00 0.00 0.00 0.00 0.00 0.00 0.00 0.00 0.00 0.00 0.01 0.00 0.00 0.00 0.00 0.00 0.00 0.00 0.00 0.00 0.00 0.00 0.00 0.00 0.00 0.00 0.00 0.00 0.00 0.00 0.00 0.00 0.00 0.00 0.00 0.00 0.00 0.00
0.00 0.00 0.00 0.00 0.00 0.00 0.00 0.00 0.00 0.00 0.00 0.00 0.00 0.00 0.00 0.00 0.00 0.00 0.00 0.00 0.00 0.00 0.00 0.00 0.00 0.00 0.00 0.00 0.00 0.00 0.00 0.00 0.00 0.00 0.00 0.00 0.00 0.00 0.00 0.00 0.00 0.00 0.00 0.00 0.00 0.00 0.00 0.00 0.00
0.00 0.00 0.00 0.00 0.00 0.00 0.00 0.00 0.00 0.00 0.00 0.00 0.00 0.00 0.00 0.00 0.00 0.00 0.00 0.00 0.01 0.00 0.00 0.00 0.00 0.00 0.00 0.00 0.00 0.00 0.00 0.00 0.00 0.00 0.00 0.00 0.00 0.00 0.00 0.00 0.00 0.00 0.00 0.00 0.00 0.00 0.00 0.00 0.00
0.00 0.00 0.00 0.00 0.00 0.00 0.00 0.00 0.00 0.00 0.00 0.00 0.00 0.00 0.00 0.00 0.00 0.00 0.00 0.00 0.00 0.00 0.00 0.00 0.00 0.00 0.00 0.00 0.00 0.00 0.00 0.00 0.00 0.00 0.00 0.00 0.00 0.00 0.00 0.00 0.00 0.00 0.00 0.00 0.00 0.00 0.00 0.00 0.00
0.02 0.03 0.01 0.00 0.00 0.00 0.00 0.00 0.00 0.00 0.00 0.00 0.00 0.00 0.00 0.00 0.00 0.00 0.00 0.00 0.00 0.00 0.00 0.00 0.00 0.00 0.00 0.00 0.01 0.01 0.02 0.00 0.00 0.00 0.00 0.00 0.00 0.00 0.00 0.00 0.00 0.00 0.00 0.00 0.00 0.00 0.00 0.00 0.00
0.09 0.11 0.03 0.00 0.00 0.00 0.00 0.00 0.00 0.00 0.00 0.00 0.00 0.00 0.00 0.00 0.00 0.00 0.00 0.00 0.00 0.00 0.00 0.00 0.01 0.02 0.00 0.00 0.03 0.04 0.05 0.02 0.04 0.01 0.00 0.00 0.00 0.00 0.00 0.00 0.00 0.00 0.00 0.00 0.00 0.00 0.00 0.00 0.00
0.16 0.06 0.02 0.00 0.00 0.00 0.00 0.00 0.00 0.00 0.00 0.00 0.00 0.00 0.00 0.00 0.00 0.00 0.00 0.00 0.00 0.00 0.00 0.00 0.00 0.01 0.01 0.01 0.05 0.10 0.10 0.03 0.06 0.02 0.00 0.00 0.00 0.00 0.00 0.00 0.00 0.00 0.00 0.00 0.00 0.00 0.00 0.00 0.00
0.06 0.05 0.03 0.01 0.00 0.01 0.00 0.00 0.00 0.00 0.00 0.00 0.00 0.00 0.00 0.00 0.00 0.00 0.00 0.00 0.00 0.00 0.00 0.00 0.00 0.00 0.03 0.08 0.14 0.18 0.16 0.06 0.06 0.01 0.00 0.00 0.00 0.00 0.00 0.00 0.00 0.00 0.00 0.00 0.00 0.00 0.00 0.00 0.00
0.05 0.07 0.04 0.01 0.01 0.02 0.00 0.00 0.00 0.00 0.00 0.00 0.00 0.00 0.00 0.00 0.00 0.00 0.00 0.00 0.00 0.00 0.00 0.00 0.00 0.00 0.02 0.03 0.06 0.13 0.17 0.10 0.11 0.04 0.00 0.01 0.04 0.07 0.04 0.00 0.00 0.00 0.00 0.00 0.00 0.00 0.00 0.00 0.00
0.11 0.12 0.04 0.03 0.02 0.04 0.01 0.00 0.00 0.00 0.00 0.00 0.00 0.00 0.00 0.00 0.00 0.00 0.00 0.00 0.00 0.00 0.00 0.00 0.00 0.00 0.00 0.02 0.04 0.14 0.25 0.21 0.22 0.13 0.04 0.03 0.07 0.14 0.08 0.01 0.00 0.00 0.00 0.00 0.00 0.00 0.00 0.00 0.00
0.11 0.14 0.10 0.04 0.06 0.05 0.04 0.01 0.00 0.00 0.00 0.00 0.00 0.00 0.00 0.00 0.00 0.00 0.00 0.00 0.00 0.00 0.00 0.00 0.00 0.00 0.01 0.02 0.07 0.15 0.17 0.20 0.19 0.09 0.05 0.07 0.21 0.19 0.16 0.05 0.00 0.00 0.00 0.00 0.00 0.00 0.00 0.00 0.00
0.11 0.07 0.11 0.17 0.15 0.04 0.06 0.03 0.00 0.00 0.00 0.00 0.00 0.00 0.00 0.00 0.00 0.00 0.00 0.00 0.00 0.00 0.00 0.00 0.00 0.00 0.00 0.00 0.04 0.07 0.07 0.08 0.08 0.08 0.18 0.22 0.21 0.19 0.15 0.09 0.05 0.04 0.01 0.01 0.01 0.00 0.00 0.00 0.00
0.17 0.07 0.11 0.23 0.35 0.35 0.07 0.09 0.01 0.00 0.00 0.00 0.00 0.00 0.00 0.00 0.00 0.00 0.00 0.00 0.00 0.00 0.00 0.00 0.00 0.00 0.00 0.00 0.03 0.09 0.06 0.05 0.05 0.07 0.11 0.14 0.17 0.14 0.13 0.11 0.07 0.06 0.07 0.05 0.02 0.00 0.00 0.00 0.00
0.18 0.24 0.26 0.47 0.48 0.69 0.30 0.07 0.01 0.00 0.00 0.00 0.00 0.00 0.00 0.00 0.00 0.00 0.00 0.00 0.00 0.00 0.00 0.00 0.00 0.00 0.00 0.00 0.00 0.03 0.05 0.03 0.02 0.03 0.08 0.10 0.14 0.12 0.09 0.09 0.09 0.07 0.05 0.04 0.02 0.01 0.00 0.00 0.00
0.47 0.59 0.79 0.72 0.89 0.42 0.15 0.16 0.06 0.00 0.00 0.00 0.00 0.00 0.00 0.00 0.00 0.00 0.00 0.00 0.00 0.00 0.00 0.00 0.00 0.00 0.00 0.00 0.00 0.02 0.04 0.02 0.03 0.06 0.11 0.10 0.09 0.07 0.05 0.07 0.08 0.06 0.04 0.03 0.02 0.02 0.01 0.00 0.00
0.59 0.55 0.61 0.37 0.28 0.17 0.08 0.26 0.05 0.00 0.00 0.00 0.00 0.00 0.00 0.00 0.00 0.00 0.00 0.00 0.00 0.00 0.00 0.00 0.00 0.00 0.00 0.00 0.00 0.00 0.01 0.02 0.05 0.06 0.05 0.07 0.10 0.09 0.06 0.07 0.07 0.05 0.04 0.03 0.02 0.02 0.01 0.01 0.00
0.66 0.63 0.35 0.50 0.18 0.27 0.09 0.08 0.04 0.01 0.00 0.00 0.00 0.00 0.00 0.00 0.00 0.00 0.00 0.00 0.00 0.00 0.00 0.00 0.00 0.00 0.00 0.01 0.01 0.01 0.01 0.03 0.04 0.04 0.05 0.05 0.05 0.07 0.07 0.07 0.06 0.05 0.03 0.02 0.01 0.01 0.01 0.00 0.00
0.52 0.31 0.48 1.03 0.61 0.19 0.06 0.02 0.04 0.00 0.00 0.00 0.00 0.00 0.00 0.00 0.00 0.00 0.00 0.00 0.00 0.00 0.00 0.00 0.00 0.00 0.00 0.03 0.03 0.01 0.04 0.04 0.03 0.03 0.03 0.04 0.05 0.06 0.07 0.06 0.05 0.04 0.02 0.01 0.00 0.01 0.01 0.01 0.01
0.56 0.58 0.37 0.51 0.43 0.25 0.10 0.02 0.00 0.00 0.01 0.01 0.01 0.00 0.00 0.00 0.00 0.00 0.00 0.00 0.00 0.00 0.00 0.00 0.00 0.00 0.01 0.02 0.00 0.00 0.02 0.04 0.03 0.03 0.03 0.04 0.05 0.03 0.03 0.03 0.03 0.02 0.01 0.01 0.02 0.03 0.04 0.04 0.03
0.19 0.23 0.18 0.64 0.42 0.37 0.32 0.13 0.00 0.01 0.01 0.01 0.01 0.01 0.01 0.01 0.00 0.00 0.00 0.00 0.00 0.00 0.00 0.00 0.00 0.01 0.02 0.01 0.00 0.01 0.04 0.04 0.04 0.04 0.04 0.05 0.06 0.05 0.04 0.03 0.02 0.01 0.02 0.05 0.09 0.13 0.12 0.10 0.08

GFSSGP_prec_precacc_042.txt.gz
Total_Precipitation_Accumulation
0.00 0.00 0.00 0.00 0.00 0.00 0.00 0.00 0.00 0.00 0.00 0.00 0.00 0.00 0.00 0.00 0.00 0.00 0.00 0.00 0.00 0.00 0.00 0.01 0.03 0.07 0.04 0.02 0.02 0.01 0.01 0.00 0.00 0.04 0.09 0.03 0.00 0.00 0.01 0.01 0.01 0.03 0.05 0.09 0.13 0.07 0.00 0.00 0.00
0.00 0.00 0.00 0.00 0.00 0.00 0.00 0.00 0.00 0.00 0.00 0.00 0.00 0.00 0.00 0.00 0.00 0.00 0.00 0.00 0.00 0.00 0.00 0.00 0.03 0.05 0.03 0.03 0.01 0.00 0.01 0.01 0.02 0.06 0.02 0.00 0.00 0.00 0.00 0.00 0.00 0.01 0.01 0.01 0.00 0.00 0.00 0.00 0.00
0.00 0.00 0.00 0.00 0.00 0.00 0.00 0.00 0.00 0.00 0.00 0.00 0.00 0.00 0.00 0.00 0.00 0.00 0.00 0.00 0.00 0.00 0.00 0.00 0.03 0.04 0.03 0.01 0.00 0.00 0.00 0.01 0.02 0.02 0.00 0.01 0.02 0.02 0.01 0.00 0.00 0.00 0.00 0.00 0.00 0.00 0.00 0.00 0.00
0.00 0.00 0.00 0.00 0.00 0.00 0.00 0.00 0.00 0.00 0.00 0.00 0.00 0.00 0.00 0.00 0.00 0.00 0.00 0.00 0.00 0.00 0.00 0.00 0.03 0.03 0.01 0.00 0.00 0.00 0.00 0.01 0.01 0.00 0.00 0.00 0.03 0.07 0.06 0.01 0.00 0.00 0.00 0.00 0.00 0.00 0.00 0.00 0.00
0.00 0.00 0.00 0.00 0.00 0.00 0.00 0.00 0.00 0.00 0.00 0.00 0.00 0.00 0.00 0.00 0.00 0.00 0.00 0.00 0.00 0.00 0.00 0.00 0.02 0.02 0.01 0.00 0.00 0.00 0.01 0.01 0.00 0.00 0.00 0.01 0.04 0.08 0.12 0.03 0.00 0.00 0.00 0.00 0.00 0.00 0.00 0.00 0.00
0.00 0.00 0.00 0.00 0.00 0.00 0.00 0.00 0.00 0.00 0.00 0.00 0.00 0.00 0.00 0.00 0.00 0.00 0.00 0.00 0.00 0.00 0.00 0.00 0.02 0.04 0.01 0.00 0.01 0.00 0.01 0.01 0.00 0.00 0.00 0.00 0.01 0.05 0.12 0.05 0.00 0.00 0.00 0.00 0.00 0.00 0.00 0.01 0.01
0.00 0.00 0.00 0.00 0.00 0.00 0.00 0.00 0.00 0.00 0.00 0.00 0.00 0.00 0.00 0.00 0.00 0.00 0.00 0.00 0.00 0.00 0.00 0.00 0.02 0.03 0.01 0.00 0.01 0.01 0.01 0.01 0.00 0.00 0.00 0.00 0.00 0.02 0.06 0.02 0.00 0.00 0.00 0.00 0.00 0.00 0.00 0.01 0.02
0.00 0.00 0.00 0.00 0.00 0.00 0.00 0.00 0.00 0.00 0.00 0.00 0.00 0.00 0.00 0.00 0.00 0.00 0.00 0.00 0.00 0.00 0.01 0.00 0.00 0.02 0.02 0.00 0.00 0.00 0.01 0.00 0.00 0.00 0.00 0.00 0.00 0.01 0.02 0.00 0.00 0.00 0.00 0.00 0.00 0.01 0.03 0.03 0.02
0.00 0.00 0.00 0.00 0.00 0.00 0.00 0.00 0.00 0.00 0.00 0.00 0.00 0.00 0.00 0.00 0.00 0.00 0.00 0.00 0.00 0.02 0.04 0.03 0.02 0.01 0.01 0.00 0.00 0.00 0.01 0.00 0.00 0.00 0.00 0.00 0.00 0.00 0.00 0.00 0.00 0.00 0.00 0.00 0.00 0.01 0.03 0.02 0.01
0.00 0.00 0.00 0.00 0.00 0.00 0.00 0.00 0.00 0.00 0.00 0.00 0.00 0.00 0.00 0.00 0.00 0.00 0.00 0.00 0.00 0.02 0.04 0.02 0.01 0.00 0.01 0.00 0.00 0.00 0.00 0.00 0.00 0.00 0.00 0.00 0.00 0.00 0.00 0.00 0.00 0.00 0.00 0.00 0.00 0.01 0.01 0.01 0.00
0.00 0.00 0.00 0.00 0.00 0.00 0.00 0.00 0.00 0.00 0.00 0.00 0.00 0.00 0.00 0.00 0.00 0.00 0.00 0.01 0.01 0.01 0.00 0.00 0.00 0.00 0.00 0.00 0.00 0.00 0.00 0.00 0.00 0.00 0.00 0.00 0.00 0.00 0.00 0.00 0.00 0.00 0.00 0.00 0.00 0.00 0.00 0.00 0.00
0.00 0.00 0.00 0.00 0.00 0.00 0.00 0.00 0.00 0.00 0.00 0.00 0.00 0.00 0.00 0.00 0.00 0.00 0.00 0.01 0.01 0.00 0.00 0.00 0.00 0.00 0.00 0.00 0.00 0.00 0.00 0.00 0.00 0.00 0.00 0.00 0.00 0.00 0.00 0.00 0.00 0.00 0.00 0.00 0.00 0.00 0.00 0.00 0.00
0.00 0.00 0.00 0.00 0.00 0.00 0.00 0.00 0.00 0.00 0.00 0.00 0.00 0.00 0.00 0.00 0.00 0.00 0.00 0.00 0.01 0.00 0.00 0.00 0.00 0.00 0.00 0.00 0.00 0.00 0.00 0.00 0.00 0.00 0.00 0.00 0.00 0.00 0.00 0.00 0.00 0.00 0.00 0.00 0.00 0.00 0.00 0.00 0.00
0.00 0.00 0.00 0.00 0.00 0.00 0.00 0.00 0.00 0.00 0.00 0.00 0.00 0.00 0.00 0.00 0.00 0.00 0.00 0.00 0.00 0.00 0.00 0.01 0.00 0.00 0.00 0.00 0.00 0.00 0.00 0.00 0.00 0.00 0.00 0.00 0.00 0.00 0.00 0.00 0.00 0.00 0.00 0.00 0.00 0.00 0.00 0.00 0.00
0.02 0.03 0.01 0.00 0.00 0.00 0.00 0.00 0.00 0.00 0.00 0.00 0.00 0.00 0.00 0.00 0.00 0.00 0.00 0.00 0.00 0.00 0.00 0.01 0.01 0.00 0.00 0.00 0.01 0.02 0.03 0.00 0.00 0.00 0.00 0.00 0.00 0.00 0.00 0.00 0.00 0.00 0.00 0.00 0.00 0.00 0.00 0.00 0.00
0.09 0.11 0.03 0.00 0.00 0.00 0.00 0.00 0.00 0.00 0.00 0.00 0.00 0.00 0.00 0.00 0.00 0.00 0.00 0.00 0.00 0.00 0.00 0.00 0.02 0.02 0.00 0.00 0.03 0.07 0.09 0.05 0.05 0.03 0.00 0.00 0.00 0.00 0.00 0.00 0.00 0.00 0.00 0.00 0.00 0.00 0.00 0.00 0.00
0.16 0.06 0.02 0.00 0.00 0.00 0.00 0.00 0.00 0.00 0.00 0.00 0.00 0.00 0.00 0.00 0.00 0.00 0.00 0.00 0.00 0.00 0.00 0.00 0.00 0.01 0.01 0.01 0.07 0.16 0.16 0.05 0.07 0.04 0.00 0.00 0.00 0.00 0.00 0.00 0.00 0.00 0.00 0.00 0.00 0.00 0.00 0.00 0.00
0.06 0.05 0.03 0.01 0.00 0.01 0.00 0.00 0.00 0.00 0.00 0.00 0.00 0.00 0.00 0.00 0.00 0.00 0.00 0.00 0.00 0.00 0.00 0.00 0.00 0.00 0.03 0.08 0.17 0.21 0.17 0.07 0.07 0.02 0.00 0.01 0.00 0.00 0.00 0.00 0.00 0.00 0.00 0.00 0.00 0.00 0.00 0.00 0.00
0.05 0.07 0.04 0.01 0.01 0.02 0.00 0.00 0.00 0.00 0.00 0.00 0.00 0.00 0.00 0.00 0.00 0.00 0.00 0.00 0.00 0.00 0.00 0.00 0.00 0.00 0.02 0.03 0.06 0.14 0.17 0.12 0.12 0.07 0.05 0.03 0.05 0.09 0.05 0.00 0.00 0.00 0.00 0.00 0.00 0.00 0.00 0.00 0.00
0.11 0.12 0.04 0.03 0.02 0.04 0.01 0.00 0.00 0.00 0.00 0.00 0.00 0.00 0.00 0.00 0.00 0.00 0.00 0.00 0.00 0.00 0.00 0.00 0.00 0.00 0.00 0.02 0.04 0.14 0.25 0.22 0.24 0.18 0.07 0.04 0.09 0.19 0.11 0.03 0.02 0.00 0.00 0.00 0.00 0.00 0.00 0.00 0.00
0.11 0.14 0.10 0.04 0.06 0.05 0.04 0.01 0.00 0.00 0.00 0.00 0.00 0.00 0.00 0.00 0.00 0.00 0.00 0.00 0.00 0.00 0.00 0.00 0.00 0.00 0.01 0.02 0.07 0.15 0.17 0.20 0.20 0.10 0.05 0.07 0.25 0.28 0.25 0.11 0.04 0.02 0.01 0.01 0.00 0.00 0.00 0.00 0.00
0.12 0.07 0.11 0.17 0.15 0.04 0.06 0.03 0.00 0.00 0.00 0.00 0.00 0.00 0.00 0.00 0.00 0.00 0.00 0.00 0.00 0.00 0.00 0.00 0.00 0.00 0.00 0.00 0.04 0.08 0.07 0.08 0.08 0.08 0.18 0.23 0.25 0.27 0.24 0.16 0.10 0.07 0.04 0.03 0.04 0.05 0.04 0.01 0.00
0.19 0.07 0.11 0.23 0.35 0.35 0.07 0.09 0.01 0.00 0.00 0.00 0.00 0.00 0.00 0.00 0.00 0.00 0.00 0.00 0.00 0.00 0.00 0.00 0.00 0.00 0.00 0.00 0.03 0.09 0.07 0.05 0.05 0.08 0.11 0.14 0.20 0.19 0.20 0.18 0.13 0.09 0.09 0.10 0.08 0.04 0.02 0.01 0.00
0.18 0.24 0.26 0.47 0.48 0.69 0.30 0.07 0.01 0.00 0.00 0.00 0.00 0.00 0.00 0.00 0.00 0.00 0.00 0.00 0.00 0.00 0.00 0.00 0.00 0.00 0.00 0.00 0.00 0.03 0.05 0.04 0.03 0.05 0.11 0.11 0.15 0.14 0.12 0.12 0.11 0.11 0.07 0.07 0.08 0.05 0.02 0.01 0.01
0.47 0.59 0.79 0.72 0.89 0.42 0.15 0.16 0.06 0.00 0.00 0.00 0.00 0.00 0.00 0.00 0.00 0.00 0.00 0.00 0.00 0.00 0.00 0.00 0.00 0.00 0.00 0.00 0.00 0.02 0.04 0.03 0.04 0.07 0.13 0.12 0.11 0.08 0.07 0.09 0.10 0.08 0.08 0.07 0.06 0.06 0.04 0.03 0.01
0.59 0.55 0.61 0.37 0.28 0.17 0.08 0.26 0.05 0.00 0.00 0.00 0.00 0.00 0.00 0.00 0.00 0.00 0.00 0.00 0.00 0.00 0.00 0.00 0.00 0.00 0.00 0.00 0.00 0.00 0.01 0.02 0.05 0.07 0.06 0.07 0.10 0.09 0.08 0.09 0.10 0.08 0.07 0.06 0.06 0.06 0.04 0.02 0.02
0.66 0.63 0.35 0.50 0.18 0.27 0.09 0.08 0.04 0.01 0.00 0.00 0.00 0.00 0.00 0.00 0.00 0.00 0.00 0.00 0.00 0.00 0.00 0.00 0.00 0.00 0.00 0.01 0.01 0.01 0.01 0.03 0.04 0.04 0.05 0.05 0.05 0.07 0.08 0.10 0.12 0.12 0.09 0.06 0.05 0.04 0.02 0.01 0.01
0.52 0.31 0.48 1.03 0.61 0.19 0.06 0.02 0.04 0.00 0.00 0.00 0.00 0.00 0.00 0.00 0.00 0.00 0.00 0.00 0.00 0.00 0.00 0.00 0.00 0.00 0.00 0.03 0.03 0.01 0.04 0.04 0.03 0.03 0.03 0.04 0.05 0.06 0.07 0.08 0.08 0.08 0.06 0.04 0.03 0.02 0.01 0.01 0.01
0.56 0.58 0.37 0.51 0.43 0.25 0.10 0.02 0.00 0.00 0.01 0.01 0.01 0.00 0.00 0.00 0.00 0.00 0.00 0.00 0.00 0.00 0.00 0.00 0.00 0.00 0.01 0.02 0.00 0.00 0.02 0.04 0.03 0.03 0.03 0.04 0.05 0.03 0.04 0.03 0.04 0.04 0.04 0.03 0.03 0.03 0.04 0.04 0.04
0.19 0.23 0.18 0.64 0.42 0.37 0.32 0.13 0.00 0.01 0.01 0.01 0.01 0.01 0.01 0.01 0.00 0.00 0.00 0.00 0.00 0.00 0.00 0.00 0.00 0.01 0.02 0.01 0.00 0.01 0.04 0.04 0.04 0.04 0.04 0.05 0.06 0.05 0.05 0.04 0.03 0.02 0.03 0.05 0.09 0.13 0.13 0.11 0.10

GFSSGP_prec_precacc_045.txt.gz
Total_Precipitation_Accumulation
0.00 0.00 0.00 0.00 0.00 0.00 0.00 0.00 0.00 0.00 0.00 0.00 0.00 0.00 0.00 0.00 0.00 0.00 0.00 0.00 0.00 0.00 0.00 0.01 0.03 0.08 0.04 0.03 0.03 0.02 0.01 0.00 0.01 0.05 0.09 0.03 0.00 0.00 0.01 0.01 0.02 0.04 0.07 0.16 0.23 0.09 0.01 0.00 0.00
0.00 0.00 0.00 0.00 0.00 0.00 0.00 0.00 0.00 0.00 0.00 0.00 0.00 0.00 0.00 0.00 0.00 0.00 0.00 0.00 0.00 0.00 0.00 0.00 0.03 0.05 0.03 0.04 0.03 0.01 0.01 0.01 0.02 0.07 0.02 0.00 0.00 0.00 0.00 0.00 0.01 0.03 0.05 0.05 0.01 0.00 0.00 0.00 0.00
0.00 0.00 0.00 0.00 0.00 0.00 0.00 0.00 0.00 0.00 0.00 0.00 0.00 0.00 0.00 0.00 0.00 0.00 0.00 0.00 0.00 0.00 0.00 0.00 0.03 0.04 0.04 0.02 0.02 0.01 0.01 0.01 0.02 0.02 0.00 0.01 0.02 0.02 0.01 0.00 0.00 0.00 0.00 0.00 0.00 0.00 0.00 0.00 0.00
0.00 0.00 0.00 0.00 0.00 0.00 0.00 0.00 0.00 0.00 0.00 0.00 0.00 0.00 0.00 0.00 0.00 0.00 0.00 0.00 0.00 0.00 0.00 0.00 0.03 0.04 0.02 0.01 0.01 0.00 0.01 0.02 0.01 0.01 0.00 0.00 0.03 0.07 0.06 0.01 0.00 0.00 0.00 0.00 0.00 0.00 0.00 0.00 0.00
0.00 0.00 0.00 0.00 0.00 0.00 0.00 0.00 0.00 0.00 0.00 0.00 0.00 0.00 0.00 0.00 0.00 0.00 0.00 0.00 0.00 0.00 0.00 0.00 0.03 0.03 0.01 0.01 0.01 0.00 0.01 0.01 0.00 0.00 0.00 0.01 0.04 0.08 0.12 0.03 0.00 0.00 0.00 0.00 0.00 0.00 0.00 0.00 0.00
0.00 0.00 0.00 0.00 0.00 0.00 0.00 0.00 0.00 0.00 0.00 0.00 0.00 0.00 0.00 0.00 0.00 0.00 0.00 0.00 0.00 0.00 0.00 0.00 0.03 0.04 0.01 0.00 0.01 0.00 0.01 0.01 0.00 0.00 0.00 0.00 0.01 0.05 0.12 0.05 0.00 0.00 0.00 0.00 0.00 0.00 0.00 0.01 0.01
0.00 0.00 0.00 0.00 0.00 0.00 0.00 0.00 0.00 0.00 0.00 0.00 0.00 0.00 0.00 0.00 0.00 0.00 0.00 0.00 0.00 0.00 0.00 0.00 0.02 0.03 0.01 0.00 0.01 0.01 0.02 0.02 0.00 0.00 0.00 0.00 0.00 0.02 0.06 0.02 0.00 0.00 0.00 0.00 0.00 0.00 0.00 0.01 0.02
0.00 0.00 0.00 0.00 0.00 0.00 0.00 0.00 0.00 0.00 0.00 0.00 0.00 0.00 0.00 0.00 0.00 0.00 0.00 0.00 0.00 0.00 0.01 0.00 0.00 0.02 0.02 0.00 0.00 0.00 0.02 0.00 0.00 0.00 0.00 0.00 0.00 0.01 0.02 0.00 0.00 0.00 0.00 0.00 0.00 0.01 0.03 0.03 0.02
0.00 0.00 0.00 0.00 0.00 0.00 0.00 0.00 0.00 0.00 0.00 0.00 0.00 0.00 0.00 0.00 0.00 0.00 0.00 0.00 0.00 0.02 0.04 0.03 0.02 0.01 0.01 0.00 0.00 0.00 0.01 0.00 0.00 0.00 0.00 0.00 0.00 0.00 0.00 0.00 0.00 0.00 0.01 0.00 0.01 0.01 0.03 0.02 0.01
0.00 0.00 0.00 0.00 0.00 0.00 0.00 0.00 0.00 0.00 0.00 0.00 0.00 0.00 0.00 0.00 0.00 0.00 0.00 0.00 0.01 0.03 0.04 0.02 0.01 0.00 0.01 0.00 0.00 0.00 0.00 0.00 0.00 0.00 0.00 0.00 0.00 0.00 0.00 0.00 0.00 0.00 0.01 0.01 0.01 0.01 0.01 0.01 0.00
0.00 0.00 0.00 0.00 0.00 0.00 0.00 0.00 0.00 0.00 0.00 0.00 0.00 0.00 0.00 0.00 0.01 0.01 0.01 0.01 0.01 0.01 0.00 0.00 0.00 0.00 0.00 0.00 0.00 0.00 0.00 0.00 0.00 0.00 0.00 0.00 0.00 0.00 0.00 0.00 0.00 0.00 0.00 0.00 0.00 0.00 0.00 0.00 0.00
0.00 0.00 0.00 0.00 0.00 0.00 0.00 0.00 0.00 0.00 0.00 0.00 0.00 0.00 0.00 0.00 0.00 0.00 0.01 0.03 0.02 0.01 0.00 0.00 0.00 0.00 0.00 0.01 0.00 0.00 0.00 0.00 0.00 0.00 0.00 0.00 0.00 0.00 0.00 0.00 0.00 0.00 0.00 0.00 0.00 0.00 0.00 0.00 0.00
0.00 0.00 0.00 0.00 0.00 0.00 0.00 0.00 0.00 0.00 0.00 0.00 0.00 0.00 0.00 0.00 0.00 0.00 0.00 0.01 0.02 0.00 0.00 0.00 0.01 0.01 0.02 0.02 0.01 0.00 0.00 0.00 0.00 0.00 0.00 0.00 0.00 0.00 0.00 0.00 0.00 0.00 0.00 0.00 0.00 0.00 0.00 0.00 0.00
0.00 0.00 0.00 0.00 0.00 0.00 0.00 0.00 0.00 0.00 0.00 0.00 0.00 0.00 0.00 0.00 0.00 0.00 0.00 0.00 0.00 0.00 0.00 0.01 0.00 0.00 0.00 0.02 0.02 0.01 0.00 0.00 0.00 0.00 0.00 0.00 0.00 0.00 0.00 0.00 0.00 0.00 0.00 0.00 0.00 0.00 0.00 0.00 0.00
0.02 0.03 0.01 0.00 0.00 0.00 0.00 0.00 0.00 0.00 0.00 0.00 0.00 0.00 0.00 0.00 0.00 0.00 0.00 0.00 0.00 0.00 0.00 0.01 0.01 0.00 0.00 0.00 0.02 0.03 0.04 0.00 0.00 0.00 0.00 0.00 0.00 0.00 0.00 0.00 0.00 0.00 0.00 0.00 0.00 0.00 0.00 0.00 0.00
0.09 0.11 0.03 0.00 0.00 0.00 0.00 0.00 0.00 0.00 0.00 0.00 0.00 0.00 0.00 0.00 0.00 0.00 0.00 0.00 0.00 0.00 0.00 0.00 0.02 0.02 0.00 0.01 0.06 0.09 0.13 0.07 0.06 0.03 0.00 0.00 0.00 0.00 0.00 0.00 0.00 0.00 0.00 0.00 0.00 0.00 0.00 0.00 0.00
0.16 0.06 0.02 0.00 0.00 0.00 0.00 0.00 0.00 0.00 0.00 0.00 0.00 0.00 0.00 0.00 0.00 0.00 0.00 0.00 0.00 0.00 0.00 0.00 0.00 0.01 0.01 0.03 0.09 0.21 0.21 0.10 0.08 0.04 0.00 0.00 0.00 0.00 0.00 0.00 0.00 0.00 0.00 0.00 0.00 0.00 0.00 0.00 0.00
0.06 0.05 0.03 0.01 0.00 0.01 0.00 0.00 0.00 0.00 0.00 0.00 0.00 0.00 0.00 0.00 0.00 0.00 0.00 0.00 0.00 0.00 0.00 0.00 0.00 0.00 0.03 0.08 0.19 0.23 0.18 0.07 0.07 0.03 0.01 0.04 0.02 0.01 0.00 0.00 0.00 0.00 0.00 0.00 0.00 0.00 0.00 0.00 0.00
0.05 0.07 0.04 0.01 0.01 0.02 0.00 0.00 0.00 0.00 0.00 0.00 0.00 0.00 0.00 0.00 0.00 0.00 0.00 0.00 0.00 0.00 0.00 0.00 0.00 0.00 0.02 0.03 0.06 0.14 0.17 0.15 0.14 0.08 0.12 0.05 0.08 0.13 0.06 0.00 0.00 0.00 0.00 0.00 0.00 0.00 0.00 0.00 0.00
0.11 0.12 0.04 0.03 0.02 0.04 0.01 0.00 0.00 0.00 0.00 0.00 0.00 0.00 0.00 0.00 0.00 0.00 0.00 0.00 0.00 0.00 0.00 0.00 0.00 0.00 0.00 0.02 0.04 0.14 0.25 0.23 0.24 0.20 0.09 0.04 0.11 0.21 0.15 0.05 0.03 0.00 0.00 0.00 0.00 0.00 0.00 0.00 0.00
0.11 0.14 0.10 0.04 0.06 0.05 0.04 0.01 0.00 0.00 0.00 0.00 0.00 0.00 0.00 0.00 0.00 0.00 0.00 0.00 0.00 0.00 0.00 0.00 0.00 0.00 0.01 0.02 0.07 0.15 0.17 0.20 0.20 0.10 0.05 0.07 0.25 0.30 0.29 0.13 0.06 0.05 0.02 0.01 0.00 0.00 0.00 0.00 0.00
0.13 0.07 0.11 0.17 0.15 0.04 0.06 0.03 0.00 0.00 0.00 0.00 0.00 0.00 0.00 0.00 0.00 0.00 0.00 0.00 0.00 0.00 0.00 0.00 0.00 0.00 0.00 0.00 0.04 0.08 0.07 0.08 0.08 0.08 0.18 0.23 0.25 0.29 0.28 0.19 0.15 0.12 0.07 0.03 0.06 0.05 0.05 0.03 0.01
0.19 0.07 0.11 0.23 0.35 0.35 0.07 0.09 0.01 0.00 0.00 0.00 0.00 0.00 0.00 0.00 0.00 0.00 0.00 0.00 0.00 0.00 0.00 0.00 0.00 0.00 0.00 0.00 0.03 0.09 0.07 0.05 0.05 0.08 0.11 0.14 0.20 0.21 0.25 0.22 0.17 0.11 0.12 0.13 0.10 0.06 0.04 0.03 0.02
0.19 0.25 0.26 0.47 0.48 0.69 0.30 0.07 0.01 0.00 0.00 0.00 0.00 0.00 0.00 0.00 0.00 0.00 0.00 0.00 0.00 0.00 0.00 0.00 0.00 0.00 0.00 0.00 0.00 0.03 0.05 0.04 0.03 0.05 0.12 0.12 0.16 0.16 0.16 0.16 0.13 0.14 0.09 0.09 0.11 0.10 0.07 0.04 0.03
0.48 0.60 0.79 0.72 0.89 0.42 0.15 0.16 0.06 0.00 0.00 0.00 0.00 0.00 0.00 0.00 0.00 0.00 0.00 0.00 0.00 0.00 0.00 0.00 0.00 0.00 0.00 0.00 0.00 0.02 0.04 0.03 0.04 0.07 0.13 0.13 0.11 0.08 0.08 0.12 0.14 0.11 0.12 0.13 0.15 0.11 0.09 0.06 0.05
0.59 0.55 0.61 0.37 0.28 0.17 0.08 0.26 0.05 0.00 0.00 0.00 0.00 0.00 0.00 0.00 0.00 0.00 0.00 0.00 0.00 0.00 0.00 0.00 0.00 0.00 0.00 0.00 0.00 0.00 0.01 0.02 0.05 0.08 0.06 0.08 0.10 0.09 0.08 0.13 0.15 0.14 0.14 0.11 0.17 0.14 0.08 0.05 0.03
0.66 0.63 0.35 0.50 0.18 0.27 0.09 0.08 0.04 0.01 0.00 0.00 0.00 0.00 0.00 0.00 0.00 0.00 0.00 0.00 0.00 0.00 0.00 0.00 0.00 0.00 0.00 0.01 0.01 0.01 0.01 0.03 0.04 0.04 0.05 0.05 0.06 0.07 0.08 0.11 0.14 0.15 0.14 0.14 0.12 0.12 0.09 0.05 0.02
0.52 0.31 0.48 1.03 0.61 0.19 0.06 0.02 0.04 0.00 0.00 0.00 0.00 0.00 0.00 0.00 0.00 0.00 0.00 0.00 0.00 0.00 0.00 0.00 0.00 0.00 0.00 0.03 0.03 0.01 0.04 0.04 0.03 0.03 0.03 0.04 0.05 0.06 0.07 0.08 0.08 0.08 0.07 0.07 0.07 0.07 0.06 0.06 0.03
0.56 0.58 0.37 0.51 0.43 0.25 0.10 0.02 0.00 0.00 0.01 0.01 0.01 0.00 0.00 0.00 0.00 0.00 0.00 0.00 0.00 0.00 0.00 0.00 0.00 0.00 0.01 0.02 0.00 0.00 0.02 0.04 0.03 0.03 0.03 0.04 0.05 0.03 0.04 0.03 0.04 0.04 0.04 0.04 0.04 0.05 0.05 0.05 0.04
0.19 0.23 0.18 0.64 0.42 0.37 0.32 0.13 0.00 0.01 0.01 0.01 0.01 0.01 0.01 0.01 0.00 0.00 0.00 0.00 0.00 0.00 0.00 0.00 0.00 0.01 0.02 0.01 0.00 0.01 0.04 0.04 0.04 0.04 0.04 0.05 0.06 0.05 0.05 0.04 0.03 0.02 0.03 0.05 0.09 0.13 0.13 0.11 0.11

GFSSGP_prec_precacc_048.txt.gz
Total_Precipitation_Accumulation
0.00 0.00 0.00 0.00 0.00 0.00 0.00 0.00 0.00 0.00 0.00 0.00 0.00 0.00 0.00 0.00 0.00 0.00 0.00 0.00 0.00 0.00 0.00 0.01 0.04 0.08 0.05 0.05 0.04 0.02 0.01 0.00 0.01 0.05 0.09 0.03 0.00 0.00 0.01 0.02 0.02 0.04 0.08 0.21 0.28 0.10 0.01 0.00 0.00
0.00 0.00 0.00 0.00 0.00 0.00 0.00 0.00 0.00 0.00 0.00 0.00 0.00 0.00 0.00 0.00 0.00 0.00 0.00 0.00 0.00 0.00 0.00 0.00 0.03 0.05 0.03 0.05 0.03 0.01 0.01 0.01 0.02 0.07 0.03 0.00 0.00 0.00 0.00 0.01 0.03 0.05 0.09 0.10 0.02 0.00 0.00 0.00 0.00
0.00 0.00 0.00 0.00 0.00 0.00 0.00 0.00 0.00 0.00 0.00 0.00 0.00 0.00 0.00 0.00 0.00 0.00 0.00 0.00 0.00 0.00 0.00 0.00 0.03 0.04 0.04 0.03 0.03 0.01 0.01 0.01 0.03 0.02 0.00 0.01 0.02 0.02 0.01 0.00 0.01 0.00 0.00 0.00 0.00 0.00 0.00 0.00 0.00
0.00 0.00 0.00 0.00 0.00 0.00 0.00 0.00 0.00 0.00 0.00 0.00 0.00 0.00 0.00 0.00 0.00 0.00 0.00 0.00 0.00 0.00 0.00 0.00 0.03 0.04 0.02 0.02 0.02 0.01 0.01 0.02 0.02 0.01 0.00 0.00 0.03 0.07 0.06 0.01 0.00 0.00 0.00 0.00 0.00 0.00 0.00 0.00 0.00
0.00 0.00 0.00 0.00 0.00 0.00 0.00 0.00 0.00 0.00 0.00 0.00 0.00 0.00 0.00 0.00 0.00 0.00 0.00 0.00 0.00 0.00 0.00 0.00 0.03 0.03 0.01 0.01 0.02 0.01 0.01 0.01 0.01 0.00 0.00 0.01 0.04 0.08 0.12 0.03 0.00 0.00 0.00 0.00 0.00 0.00 0.00 0.00 0.00
0.00 0.00 0.00 0.00 0.00 0.00 0.00 0.00 0.00 0.00 0.00 0.00 0.00 0.00 0.00 0.00 0.00 0.00 0.00 0.00 0.00 0.00 0.00 0.00 0.03 0.04 0.02 0.01 0.01 0.01 0.02 0.01 0.00 0.00 0.00 0.00 0.01 0.05 0.12 0.05 0.00 0.00 0.00 0.00 0.00 0.00 0.00 0.01 0.01
0.00 0.00 0.00 0.00 0.00 0.00 0.00 0.00 0.00 0.00 0.00 0.00 0.00 0.00 0.00 0.00 0.00 0.00 0.00 0.00 0.00 0.00 0.00 0.00 0.02 0.03 0.01 0.00 0.01 0.01 0.02 0.02 0.00 0.00 0.00 0.00 0.00 0.02 0.06 0.02 0.00 0.00 0.00 0.01 0.00 0.00 0.00 0.01 0.02
0.00 0.00 0.00 0.00 0.00 0.00 0.00 0.00 0.00 0.00 0.00 0.00 0.00 0.00 0.00 0.00 0.00 0.01 0.00 0.00 0.00 0.00 0.01 0.00 0.00 0.02 0.02 0.00 0.00 0.00 0.02 0.01 0.00 0.00 0.00 0.00 0.00 0.01 0.02 0.00 0.00 0.00 0.01 0.01 0.01 0.01 0.03 0.03 0.02
0.00 0.00 0.00 0.00 0.00 0.00 0.00 0.00 0.00 0.00 0.00 0.00 0.00 0.00 0.00 0.00 0.00 0.01 0.01 0.01 0.01 0.02 0.04 0.03 0.02 0.01 0.01 0.00 0.00 0.00 0.01 0.00 0.00 0.00 0.00 0.00 0.00 0.00 0.00 0.00 0.00 0.00 0.02 0.01 0.02 0.01 0.03 0.02 0.01
0.00 0.00 0.00 0.00 0.00 0.00 0.00 0.00 0.00 0.00 0.00 0.00 0.00 0.00 0.00 0.00 0.00 0.00 0.01 0.01 0.01 0.03 0.04 0.02 0.01 0.00 0.01 0.00 0.00 0.00 0.00 0.00 0.00 0.00 0.00 0.00 0.00 0.00 0.00 0.00 0.00 0.00 0.02 0.01 0.02 0.01 0.01 0.01 0.00
0.00 0.00 0.00 0.00 0.00 0.00 0.00 0.00 0.00 0.00 0.00 0.00 0.00 0.00 0.00 0.00 0.01 0.01 0.01 0.01 0.01 0.01 0.01 0.00 0.00 0.00 0.00 0.00 0.00 0.00 0.00 0.00 0.00 0.00 0.00 0.00 0.00 0.00 0.00 0.00 0.00 0.00 0.01 0.00 0.00 0.00 0.00 0.00 0.00
0.00 0.00 0.00 0.00 0.00 0.00 0.00 0.00 0.00 0.00 0.00 0.00 0.00 0.00 0.00 0.00 0.00 0.01 0.01 0.03 0.02 0.01 0.00 0.00 0.00 0.00 0.00 0.01 0.00 0.00 0.00 0.00 0.00 0.00 0.00 0.00 0.00 0.00 0.00 0.00 0.00 0.00 0.00 0.00 0.00 0.00 0.00 0.00 0.00
0.00 0.00 0.00 0.00 0.00 0.00 0.00 0.00 0.00 0.00 0.00 0.00 0.00 0.00 0.00 0.00 0.00 0.00 0.00 0.01 0.02 0.00 0.00 0.00 0.01 0.01 0.02 0.02 0.02 0.00 0.00 0.00 0.00 0.00 0.00 0.00 0.00 0.00 0.00 0.00 0.00 0.00 0.00 0.00 0.00 0.00 0.00 0.00 0.00
0.00 0.00 0.00 0.00 0.00 0.00 0.00 0.00 0.00 0.00 0.00 0.00 0.00 0.00 0.00 0.00 0.00 0.00 0.00 0.00 0.00 0.00 0.00 0.01 0.02 0.01 0.00 0.03 0.03 0.03 0.00 0.00 0.00 0.00 0.00 0.00 0.00 0.00 0.00 0.00 0.00 0.00 0.00 0.00 0.00 0.00 0.00 0.00 0.00
0.02 0.03 0.01 0.00 0.00 0.00 0.00 0.00 0.00 0.00 0.00 0.00 0.00 0.00 0.00 0.00 0.00 0.00 0.00 0.00 0.00 0.00 0.00 0.01 0.01 0.00 0.00 0.01 0.04 0.05 0.08 0.03 0.01 0.00 0.00 0.00 0.00 0.00 0.00 0.00 0.00 0.00 0.00 0.00 0.00 0.00 0.00 0.00 0.00
0.09 0.11 0.03 0.00 0.00 0.00 0.00 0.00 0.00 0.00 0.00 0.00 0.00 0.00 0.00 0.00 0.00 0.00 0.00 0.00 0.00 0.00 0.00 0.00 0.02 0.02 0.00 0.02 0.07 0.11 0.16 0.09 0.10 0.06 0.01 0.00 0.00 0.00 0.00 0.00 0.00 0.00 0.00 0.00 0.00 0.00 0.00 0.00 0.00
0.16 0.06 0.02 0.00 0.00 0.00 0.00 0.00 0.00 0.00 0.00 0.00 0.00 0.00 0.00 0.00 0.00 0.00 0.00 0.00 0.00 0.00 0.00 0.00 0.00 0.01 0.01 0.03 0.10 0.23 0.23 0.10 0.09 0.07 0.02 0.01 0.01 0.01 0.00 0.00 0.00 0.00 0.00 0.00 0.00 0.00 0.00 0.00 0.00
0.06 0.05 0.03 0.01 0.00 0.01 0.00 0.00 0.00 0.00 0.00 0.00 0.00 0.00 0.00 0.00 0.00 0.00 0.00 0.00 0.00 0.00 0.00 0.00 0.00 0.00 0.03 0.08 0.19 0.24 0.19 0.08 0.07 0.03 0.02 0.12 0.06 0.04 0.01 0.00 0.00 0.00 0.00 0.00 0.00 0.00 0.00 0.00 0.00
0.05 0.07 0.04 0.01 0.01 0.02 0.00 0.00 0.00 0.00 0.00 0.00 0.00 0.00 0.00 0.00 0.00 0.00 0.00 0.00 0.00 0.00 0.00 0.00 0.00 0.00 0.02 0.03 0.07 0.15 0.18 0.16 0.15 0.08 0.17 0.08 0.12 0.14 0.08 0.01 0.00 0.00 0.00 0.00 0.00 0.00 0.00 0.00 0.00
0.11 0.12 0.04 0.03 0.02 0.04 0.01 0.00 0.00 0.00 0.00 0.00 0.00 0.00 0.00 0.00 0.00 0.00 0.00 0.00 0.00 0.00 0.00 0.00 0.00 0.00 0.00 0.02 0.04 0.14 0.25 0.23 0.24 0.20 0.09 0.05 0.12 0.21 0.15 0.06 0.05 0.02 0.00 0.00 0.00 0.00 0.00 0.00 0.00
0.11 0.14 0.10 0.04 0.06 0.05 0.04 0.01 0.00 0.00 0.00 0.00 0.00 0.00 0.00 0.00 0.00 0.00 0.00 0.00 0.00 0.00 0.00 0.00 0.00 0.00 0.01 0.02 0.07 0.15 0.18 0.20 0.20 0.11 0.05 0.07 0.25 0.30 0.30 0.18 0.10 0.09 0.03 0.01 0.00 0.00 0.00 0.00 0.00
0.13 0.07 0.11 0.17 0.15 0.04 0.06 0.03 0.00 0.00 0.00 0.00 0.00 0.00 0.00 0.00 0.00 0.00 0.00 0.00 0.00 0.00 0.00 0.00 0.00 0.00 0.00 0.00 0.04 0.08 0.07 0.08 0.08 0.08 0.18 0.23 0.25 0.29 0.31 0.24 0.18 0.16 0.11 0.04 0.06 0.05 0.05 0.03 0.01
0.20 0.07 0.11 0.23 0.35 0.35 0.07 0.09 0.01 0.00 0.00 0.00 0.00 0.00 0.00 0.00 0.00 0.00 0.00 0.00 0.00 0.00 0.00 0.00 0.00 0.00 0.00 0.00 0.03 0.09 0.07 0.05 0.05 0.08 0.11 0.14 0.20 0.21 0.27 0.25 0.21 0.13 0.13 0.18 0.13 0.08 0.06 0.05 0.02
0.20 0.25 0.26 0.47 0.48 0.69 0.30 0.07 0.01 0.00 0.00 0.00 0.00 0.00 0.00 0.00 0.00 0.00 0.00 0.00 0.00 0.00 0.00 0.00 0.00 0.00 0.00 0.00 0.00 0.03 0.05 0.04 0.03 0.05 0.12 0.12 0.16 0.16 0.16 0.18 0.14 0.18 0.12 0.13 0.14 0.17 0.13 0.09 0.07
0.48 0.61 0.81 0.73 0.89 0.42 0.15 0.16 0.06 0.00 0.00 0.00 0.00 0.00 0.00 0.00 0.00 0.00 0.00 0.00 0.00 0.00 0.00 0.00 0.00 0.00 0.00 0.00 0.00 0.02 0.04 0.03 0.04 0.07 0.14 0.13 0.11 0.08 0.08 0.12 0.15 0.13 0.16 0.19 0.25 0.20 0.16 0.13 0.10
0.60 0.56 0.61 0.37 0.28 0.17 0.08 0.26 0.05 0.00 0.00 0.00 0.00 0.00 0.00 0.00 0.00 0.00 0.00 0.00 0.00 0.00 0.00 0.00 0.00 0.00 0.00 0.00 0.00 0.00 0.01 0.02 0.05 0.08 0.06 0.08 0.10 0.09 0.08 0.14 0.16 0.16 0.16 0.14 0.21 0.20 0.15 0.12 0.08
0.66 0.63 0.35 0.50 0.18 0.27 0.09 0.08 0.04 0.01 0.00 0.00 0.00 0.00 0.00 0.00 0.00 0.00 0.00 0.00 0.00 0.00 0.00 0.00 0.00 0.00 0.00 0.01 0.01 0.01 0.01 0.03 0.04 0.04 0.05 0.05 0.06 0.08 0.08 0.11 0.14 0.16 0.16 0.16 0.15 0.16 0.16 0.13 0.10
0.52 0.31 0.48 1.03 0.61 0.19 0.06 0.02 0.04 0.00 0.00 0.00 0.00 0.00 0.00 0.00 0.00 0.00 0.00 0.00 0.00 0.00 0.00 0.00 0.00 0.00 0.00 0.03 0.03 0.01 0.04 0.04 0.03 0.03 0.03 0.04 0.05 0.06 0.07 0.08 0.08 0.08 0.08 0.08 0.08 0.08 0.10 0.11 0.09
0.56 0.58 0.37 0.51 0.43 0.25 0.10 0.02 0.00 0.00 0.01 0.01 0.01 0.00 0.00 0.00 0.00 0.00 0.00 0.00 0.00 0.00 0.00 0.00 0.00 0.00 0.01 0.02 0.00 0.00 0.02 0.04 0.03 0.03 0.03 0.04 0.05 0.03 0.04 0.03 0.04 0.04 0.04 0.04 0.04 0.05 0.06 0.07 0.06
0.19 0.23 0.18 0.64 0.42 0.37 0.32 0.13 0.00 0.01 0.01 0.01 0.01 0.01 0.01 0.01 0.00 0.00 0.00 0.00 0.00 0.00 0.00 0.00 0.00 0.01 0.02 0.01 0.00 0.01 0.04 0.04 0.04 0.04 0.04 0.05 0.06 0.05 0.05 0.04 0.03 0.02 0.03 0.05 0.09 0.13 0.13 0.12 0.11

GFSSGP_prec_precacc_051.txt.gz
Total_Precipitation_Accumulation
0.00 0.00 0.00 0.00 0.00 0.00 0.00 0.00 0.00 0.00 0.00 0.00 0.00 0.00 0.00 0.00 0.00 0.00 0.00 0.00 0.00 0.00 0.00 0.01 0.04 0.08 0.05 0.06 0.04 0.02 0.01 0.01 0.01 0.05 0.09 0.03 0.00 0.00 0.01 0.02 0.02 0.04 0.09 0.27 0.29 0.10 0.01 0.00 0.00
0.00 0.00 0.00 0.00 0.00 0.00 0.00 0.00 0.00 0.00 0.00 0.00 0.00 0.00 0.00 0.00 0.00 0.00 0.00 0.00 0.00 0.00 0.00 0.00 0.03 0.05 0.04 0.06 0.03 0.01 0.01 0.01 0.02 0.07 0.03 0.00 0.00 0.00 0.00 0.02 0.04 0.06 0.15 0.15 0.03 0.00 0.00 0.00 0.00
0.00 0.00 0.00 0.00 0.00 0.00 0.00 0.00 0.00 0.00 0.00 0.00 0.00 0.00 0.00 0.00 0.00 0.00 0.00 0.00 0.00 0.00 0.00 0.00 0.03 0.04 0.04 0.04 0.03 0.02 0.01 0.02 0.03 0.02 0.00 0.01 0.02 0.02 0.02 0.02 0.02 0.01 0.01 0.00 0.00 0.00 0.00 0.00 0.00
0.00 0.00 0.00 0.00 0.00 0.00 0.00 0.00 0.00 0.00 0.00 0.00 0.00 0.00 0.00 0.00 0.00 0.00 0.00 0.00 0.00 0.00 0.00 0.00 0.03 0.04 0.03 0.03 0.03 0.02 0.02 0.02 0.02 0.01 0.00 0.00 0.03 0.07 0.06 0.01 0.00 0.00 0.00 0.00 0.00 0.00 0.00 0.00 0.00
0.00 0.00 0.00 0.00 0.00 0.00 0.00 0.00 0.00 0.00 0.00 0.00 0.00 0.00 0.00 0.00 0.00 0.00 0.00 0.00 0.00 0.00 0.00 0.00 0.03 0.03 0.02 0.02 0.03 0.02 0.02 0.02 0.01 0.00 0.00 0.01 0.04 0.08 0.12 0.03 0.00 0.00 0.00 0.00 0.00 0.00 0.00 0.00 0.00
0.00 0.00 0.00 0.00 0.00 0.00 0.00 0.00 0.00 0.00 0.00 0.00 0.00 0.00 0.00 0.00 0.00 0.00 0.00 0.00 0.00 0.00 0.00 0.00 0.03 0.05 0.02 0.02 0.02 0.02 0.03 0.02 0.01 0.00 0.00 0.00 0.01 0.05 0.12 0.05 0.00 0.00 0.00 0.00 0.00 0.00 0.00 0.01 0.01
0.00 0.00 0.00 0.00 0.00 0.00 0.00 0.00 0.00 0.00 0.00 0.00 0.00 0.00 0.00 0.00 0.00 0.00 0.00 0.00 0.00 0.00 0.00 0.00 0.02 0.03 0.02 0.01 0.01 0.02 0.02 0.03 0.01 0.00 0.00 0.00 0.00 0.02 0.06 0.02 0.00 0.00 0.00 0.01 0.00 0.00 0.00 0.01 0.02
0.00 0.00 0.00 0.00 0.00 0.00 0.00 0.00 0.00 0.00 0.00 0.00 0.00 0.00 0.00 0.00 0.00 0.01 0.00 0.00 0.00 0.00 0.01 0.00 0.00 0.02 0.02 0.00 0.00 0.01 0.02 0.01 0.00 0.00 0.00 0.00 0.00 0.01 0.02 0.00 0.00 0.00 0.01 0.01 0.01 0.01 0.03 0.03 0.02
0.00 0.00 0.00 0.00 0.00 0.00 0.00 0.00 0.00 0.00 0.00 0.00 0.00 0.00 0.00 0.00 0.00 0.01 0.01 0.01 0.01 0.02 0.04 0.03 0.02 0.01 0.01 0.00 0.00 0.00 0.01 0.01 0.00 0.00 0.00 0.00 0.00 0.00 0.00 0.00 0.00 0.00 0.02 0.02 0.02 0.01 0.03 0.02 0.01
0.00 0.00 0.00 0.00 0.00 0.00 0.00 0.00 0.00 0.00 0.00 0.00 0.00 0.00 0.00 0.00 0.00 0.00 0.01 0.01 0.01 0.03 0.04 0.02 0.01 0.00 0.01 0.00 0.00 0.00 0.00 0.00 0.00 0.00 0.00 0.00 0.00 0.00 0.00 0.00 0.00 0.00 0.02 0.02 0.03 0.01 0.01 0.01 0.00
0.00 0.00 0.00 0.00 0.00 0.00 0.00 0.00 0.00 0.00 0.00 0.00 0.00 0.00 0.00 0.00 0.01 0.01 0.01 0.01 0.01 0.01 0.01 0.00 0.00 0.00 0.00 0.00 0.00 0.00 0.00 0.00 0.00 0.00 0.00 0.00 0.00 0.00 0.00 0.00 0.00 0.00 0.01 0.00 0.01 0.00 0.00 0.00 0.00
0.00 0.00 0.00 0.00 0.00 0.00 0.00 0.00 0.00 0.00 0.00 0.00 0.00 0.00 0.00 0.00 0.00 0.01 0.01 0.03 0.02 0.01 0.00 0.00 0.00 0.00 0.00 0.01 0.00 0.00 0.00 0.00 0.00 0.00 0.00 0.00 0.00 0.00 0.00 0.00 0.00 0.00 0.00 0.00 0.00 0.00 0.00 0.00 0.00
0.00 0.00 0.00 0.00 0.00 0.00 0.00 0.00 0.00 0.00 0.00 0.00 0.00 0.00 0.00 0.00 0.00 0.00 0.00 0.01 0.02 0.00 0.00 0.00 0.01 0.01 0.02 0.02 0.02 0.00 0.00 0.00 0.00 0.00 0.00 0.00 0.00 0.00 0.00 0.00 0.00 0.00 0.00 0.00 0.00 0.00 0.00 0.00 0.00
0.00 0.00 0.00 0.00 0.00 0.00 0.00 0.00 0.00 0.00 0.00 0.00 0.00 0.00 0.00 0.00 0.00 0.00 0.00 0.00 0.00 0.00 0.00 0.01 0.03 0.02 0.00 0.03 0.03 0.03 0.00 0.00 0.00 0.00 0.00 0.00 0.00 0.00 0.00 0.00 0.00 0.00 0.00 0.00 0.00 0.00 0.00 0.00 0.00
0.02 0.03 0.01 0.00 0.00 0.00 0.00 0.00 0.00 0.00 0.00 0.00 0.00 0.00 0.00 0.00 0.00 0.00 0.00 0.00 0.00 0.00 0.00 0.01 0.01 0.00 0.00 0.01 0.04 0.05 0.08 0.03 0.01 0.00 0.00 0.00 0.00 0.00 0.00 0.00 0.00 0.00 0.00 0.00 0.00 0.00 0.00 0.00 0.00
0.09 0.11 0.03 0.00 0.00 0.00 0.00 0.00 0.00 0.00 0.00 0.00 0.00 0.00 0.00 0.00 0.00 0.00 0.00 0.00 0.00 0.00 0.00 0.00 0.02 0.02 0.00 0.02 0.07 0.12 0.16 0.09 0.10 0.06 0.01 0.00 0.00 0.00 0.00 0.00 0.00 0.00 0.00 0.00 0.00 0.00 0.00 0.00 0.00
0.16 0.06 0.02 0.00 0.00 0.00 0.00 0.00 0.00 0.00 0.00 0.00 0.00 0.00 0.00 0.00 0.00 0.00 0.00 0.00 0.00 0.00 0.00 0.00 0.00 0.01 0.01 0.03 0.10 0.23 0.24 0.11 0.09 0.07 0.02 0.01 0.01 0.02 0.00 0.00 0.00 0.00 0.00 0.00 0.00 0.00 0.00 0.00 0.00
0.06 0.05 0.03 0.01 0.00 0.01 0.00 0.00 0.00 0.00 0.00 0.00 0.00 0.00 0.00 0.00 0.00 0.00 0.00 0.00 0.00 0.00 0.00 0.00 0.00 0.00 0.03 0.08 0.19 0.24 0.20 0.08 0.08 0.03 0.02 0.12 0.06 0.04 0.02 0.00 0.00 0.00 0.00 0.00 0.00 0.00 0.00 0.00 0.00
0.05 0.07 0.04 0.01 0.01 0.02 0.00 0.00 0.00 0.00 0.00 0.00 0.00 0.00 0.00 0.00 0.00 0.00 0.00 0.00 0.00 0.00 0.00 0.00 0.00 0.00 0.02 0.03 0.07 0.15 0.18 0.19 0.17 0.08 0.17 0.08 0.12 0.14 0.08 0.01 0.00 0.00 0.00 0.00 0.00 0.00 0.00 0.00 0.00
0.11 0.12 0.04 0.03 0.02 0.04 0.01 0.00 0.00 0.00 0.00 0.00 0.00 0.00 0.00 0.00 0.00 0.00 0.00 0.00 0.00 0.00 0.00 0.00 0.00 0.00 0.00 0.02 0.04 0.14 0.25 0.23 0.25 0.21 0.09 0.05 0.12 0.21 0.15 0.06 0.06 0.02 0.00 0.00 0.00 0.00 0.00 0.00 0.00
0.11 0.14 0.10 0.04 0.06 0.05 0.04 0.01 0.00 0.00 0.00 0.00 0.00 0.00 0.00 0.00 0.00 0.00 0.00 0.00 0.00 0.00 0.00 0.00 0.00 0.00 0.01 0.02 0.07 0.15 0.18 0.20 0.20 0.11 0.05 0.07 0.26 0.30 0.30 0.18 0.11 0.09 0.03 0.01 0.00 0.00 0.00 0.00 0.00
0.13 0.07 0.11 0.17 0.15 0.04 0.06 0.03 0.00 0.00 0.00 0.00 0.00 0.00 0.00 0.00 0.00 0.00 0.00 0.00 0.00 0.00 0.00 0.00 0.00 0.00 0.00 0.00 0.04 0.08 0.07 0.08 0.08 0.08 0.18 0.23 0.25 0.29 0.32 0.25 0.20 0.17 0.11 0.04 0.07 0.06 0.07 0.03 0.01
0.20 0.07 0.11 0.23 0.35 0.35 0.07 0.09 0.01 0.00 0.00 0.00 0.00 0.00 0.00 0.00 0.00 0.00 0.00 0.00 0.00 0.00 0.00 0.00 0.00 0.00 0.00 0.00 0.03 0.09 0.07 0.05 0.05 0.08 0.11 0.14 0.20 0.21 0.28 0.26 0.23 0.14 0.14 0.22 0.15 0.09 0.08 0.07 0.04
0.20 0.25 0.26 0.47 0.48 0.69 0.30 0.07 0.01 0.00 0.00 0.00 0.00 0.00 0.00 0.00 0.00 0.00 0.00 0.00 0.00 0.00 0.00 0.00 0.00 0.00 0.00 0.00 0.00 0.03 0.05 0.04 0.03 0.05 0.12 0.12 0.16 0.16 0.16 0.18 0.14 0.18 0.15 0.14 0.17 0.23 0.17 0.12 0.11
0.48 0.62 0.82 0.74 0.90 0.42 0.15 0.16 0.06 0.00 0.00 0.00 0.00 0.00 0.00 0.00 0.00 0.00 0.00 0.00 0.00 0.00 0.00 0.00 0.00 0.00 0.00 0.00 0.00 0.02 0.04 0.03 0.04 0.07 0.14 0.13 0.11 0.08 0.08 0.12 0.15 0.13 0.16 0.21 0.28 0.24 0.20 0.18 0.14
0.60 0.57 0.62 0.37 0.28 0.17 0.08 0.26 0.05 0.00 0.00 0.00 0.00 0.00 0.00 0.00 0.00 0.00 0.00 0.00 0.00 0.00 0.00 0.00 0.00 0.00 0.00 0.00 0.00 0.00 0.01 0.02 0.05 0.08 0.06 0.08 0.10 0.09 0.08 0.15 0.17 0.17 0.16 0.15 0.22 0.21 0.16 0.14 0.11
0.68 0.65 0.35 0.50 0.18 0.27 0.09 0.08 0.04 0.01 0.00 0.00 0.00 0.00 0.00 0.00 0.00 0.00 0.00 0.00 0.00 0.00 0.00 0.00 0.00 0.00 0.00 0.01 0.01 0.01 0.01 0.03 0.04 0.04 0.05 0.05 0.06 0.08 0.08 0.11 0.15 0.17 0.17 0.18 0.18 0.19 0.18 0.16 0.13
0.53 0.32 0.49 1.03 0.61 0.19 0.06 0.02 0.04 0.00 0.00 0.00 0.00 0.00 0.00 0.00 0.00 0.00 0.00 0.00 0.00 0.00 0.00 0.00 0.00 0.00 0.00 0.03 0.03 0.01 0.04 0.04 0.03 0.03 0.03 0.04 0.05 0.06 0.07 0.08 0.08 0.08 0.09 0.11 0.13 0.14 0.16 0.17 0.15
0.56 0.58 0.38 0.51 0.43 0.25 0.10 0.02 0.00 0.00 0.01 0.01 0.01 0.00 0.00 0.00 0.00 0.00 0.00 0.00 0.00 0.00 0.00 0.00 0.00 0.00 0.01 0.02 0.00 0.00 0.02 0.04 0.03 0.03 0.03 0.04 0.05 0.03 0.04 0.03 0.04 0.04 0.05 0.05 0.06 0.07 0.09 0.12 0.11
0.19 0.23 0.18 0.64 0.42 0.37 0.32 0.13 0.00 0.01 0.01 0.01 0.01 0.01 0.01 0.01 0.00 0.00 0.00 0.00 0.00 0.00 0.00 0.00 0.00 0.01 0.02 0.01 0.00 0.01 0.04 0.04 0.04 0.04 0.04 0.05 0.06 0.05 0.05 0.04 0.03 0.02 0.03 0.06 0.10 0.14 0.14 0.13 0.14

GFSSGP_prec_precacc_054.txt.gz
Total_Precipitation_Accumulation
0.00 0.00 0.00 0.00 0.00 0.00 0.00 0.00 0.00 0.00 0.00 0.00 0.00 0.00 0.00 0.00 0.00 0.00 0.00 0.00 0.00 0.00 0.00 0.01 0.04 0.09 0.05 0.07 0.05 0.02 0.02 0.01 0.01 0.05 0.09 0.03 0.00 0.00 0.01 0.02 0.02 0.04 0.12 0.30 0.29 0.10 0.01 0.00 0.00
0.00 0.00 0.00 0.00 0.00 0.00 0.00 0.00 0.00 0.00 0.00 0.00 0.00 0.00 0.00 0.00 0.00 0.00 0.00 0.00 0.00 0.00 0.00 0.00 0.03 0.05 0.04 0.07 0.04 0.02 0.02 0.01 0.02 0.07 0.03 0.00 0.00 0.00 0.01 0.02 0.04 0.07 0.18 0.16 0.03 0.00 0.00 0.00 0.00
0.00 0.00 0.00 0.00 0.00 0.00 0.00 0.00 0.00 0.00 0.00 0.00 0.00 0.00 0.00 0.00 0.00 0.00 0.00 0.00 0.00 0.00 0.00 0.00 0.03 0.04 0.05 0.04 0.04 0.03 0.02 0.02 0.03 0.02 0.00 0.01 0.02 0.04 0.04 0.03 0.02 0.02 0.02 0.00 0.00 0.00 0.00 0.00 0.00
0.00 0.00 0.00 0.00 0.00 0.00 0.00 0.00 0.00 0.00 0.00 0.00 0.00 0.00 0.00 0.00 0.00 0.00 0.00 0.00 0.00 0.00 0.00 0.00 0.03 0.04 0.03 0.04 0.05 0.03 0.03 0.03 0.02 0.01 0.00 0.00 0.03 0.08 0.06 0.01 0.00 0.00 0.00 0.00 0.00 0.00 0.00 0.00 0.00
0.00 0.00 0.00 0.00 0.00 0.00 0.00 0.00 0.00 0.00 0.00 0.00 0.00 0.00 0.00 0.00 0.00 0.00 0.00 0.00 0.00 0.00 0.00 0.00 0.03 0.03 0.02 0.03 0.04 0.03 0.03 0.02 0.01 0.00 0.00 0.01 0.04 0.09 0.12 0.03 0.00 0.00 0.00 0.00 0.00 0.00 0.00 0.00 0.00
0.05 0.01 0.01 0.00 0.00 0.00 0.00 0.00 0.00 0.00 0.00 0.00 0.00 0.00 0.00 0.00 0.00 0.00 0.00 0.00 0.00 0.00 0.00 0.00 0.03 0.05 0.02 0.02 0.03 0.03 0.03 0.03 0.01 0.00 0.00 0.00 0.01 0.05 0.12 0.05 0.00 0.00 0.00 0.00 0.00 0.00 0.00 0.01 0.01
0.09 0.02 0.01 0.00 0.00 0.00 0.00 0.00 0.00 0.00 0.00 0.00 0.00 0.00 0.00 0.00 0.00 0.00 0.00 0.00 0.00 0.00 0.00 0.00 0.02 0.03 0.02 0.02 0.02 0.03 0.03 0.03 0.01 0.00 0.00 0.00 0.00 0.02 0.06 0.02 0.00 0.00 0.00 0.01 0.00 0.00 0.00 0.01 0.02
0.02 0.06 0.02 0.00 0.00 0.00 0.00 0.00 0.00 0.00 0.00 0.00 0.00 0.00 0.02 0.00 0.00 0.01 0.00 0.00 0.00 0.00 0.01 0.00 0.00 0.02 0.02 0.01 0.00 0.02 0.03 0.01 0.00 0.00 0.00 0.00 0.00 0.01 0.02 0.00 0.00 0.00 0.01 0.01 0.01 0.01 0.03 0.03 0.02
0.00 0.06 0.11 0.00 0.00 0.00 0.00 0.00 0.00 0.00 0.00 0.00 0.00 0.00 0.00 0.00 0.00 0.01 0.01 0.01 0.01 0.02 0.04 0.03 0.02 0.01 0.01 0.00 0.00 0.00 0.02 0.01 0.00 0.00 0.00 0.00 0.00 0.00 0.00 0.00 0.00 0.00 0.02 0.02 0.02 0.01 0.03 0.02 0.01
0.00 0.00 0.01 0.00 0.00 0.00 0.00 0.00 0.00 0.00 0.00 0.00 0.00 0.00 0.00 0.00 0.00 0.00 0.01 0.01 0.01 0.03 0.04 0.02 0.01 0.00 0.01 0.00 0.00 0.00 0.00 0.00 0.00 0.00 0.00 0.00 0.00 0.00 0.00 0.00 0.00 0.00 0.03 0.02 0.03 0.01 0.01 0.01 0.00
0.00 0.00 0.00 0.00 0.00 0.00 0.00 0.00 0.00 0.00 0.00 0.00 0.00 0.00 0.00 0.00 0.01 0.01 0.01 0.01 0.01 0.01 0.01 0.00 0.00 0.00 0.00 0.00 0.00 0.00 0.00 0.00 0.00 0.00 0.00 0.00 0.00 0.00 0.00 0.00 0.00 0.00 0.01 0.00 0.01 0.00 0.00 0.00 0.00
0.00 0.00 0.00 0.00 0.00 0.00 0.00 0.00 0.00 0.00 0.00 0.00 0.00 0.00 0.00 0.00 0.00 0.01 0.01 0.03 0.02 0.01 0.00 0.00 0.00 0.00 0.00 0.01 0.00 0.00 0.00 0.00 0.00 0.00 0.00 0.00 0.00 0.00 0.00 0.00 0.00 0.00 0.00 0.00 0.00 0.00 0.00 0.00 0.00
0.00 0.00 0.00 0.00 0.00 0.00 0.00 0.00 0.00 0.00 0.00 0.00 0.00 0.00 0.00 0.00 0.00 0.00 0.00 0.01 0.02 0.00 0.00 0.01 0.01 0.01 0.02 0.02 0.02 0.00 0.00 0.00 0.00 0.00 0.00 0.00 0.00 0.00 0.00 0.00 0.00 0.00 0.00 0.00 0.00 0.00 0.00 0.00 0.00
0.00 0.00 0.00 0.00 0.00 0.00 0.00 0.00 0.00 0.00 0.00 0.00 0.00 0.00 0.00 0.00 0.00 0.00 0.00 0.00 0.00 0.00 0.00 0.02 0.04 0.02 0.00 0.03 0.03 0.03 0.00 0.00 0.00 0.00 0.00 0.00 0.00 0.00 0.00 0.00 0.00 0.00 0.00 0.00 0.00 0.00 0.00 0.00 0.00
0.02 0.03 0.01 0.00 0.00 0.00 0.00 0.00 0.00 0.00 0.00 0.00 0.00 0.00 0.00 0.00 0.00 0.00 0.00 0.00 0.00 0.00 0.01 0.01 0.01 0.00 0.00 0.01 0.05 0.05 0.08 0.03 0.01 0.00 0.00 0.00 0.00 0.00 0.00 0.00 0.00 0.00 0.00 0.00 0.00 0.00 0.00 0.00 0.00
0.09 0.11 0.03 0.00 0.00 0.00 0.00 0.00 0.00 0.00 0.00 0.00 0.00 0.00 0.00 0.00 0.00 0.00 0.00 0.00 0.00 0.00 0.00 0.01 0.02 0.03 0.00 0.02 0.08 0.13 0.16 0.09 0.10 0.06 0.01 0.00 0.00 0.00 0.00 0.00 0.00 0.00 0.00 0.00 0.00 0.00 0.00 0.00 0.00
0.16 0.06 0.02 0.00 0.00 0.00 0.00 0.00 0.00 0.00 0.00 0.00 0.00 0.00 0.00 0.00 0.00 0.00 0.00 0.00 0.00 0.00 0.00 0.00 0.00 0.01 0.01 0.03 0.10 0.24 0.25 0.11 0.09 0.07 0.02 0.01 0.01 0.02 0.00 0.00 0.00 0.00 0.00 0.00 0.00 0.00 0.00 0.00 0.00
0.06 0.05 0.03 0.01 0.00 0.01 0.00 0.00 0.00 0.00 0.00 0.00 0.00 0.00 0.00 0.00 0.00 0.00 0.00 0.00 0.00 0.00 0.00 0.00 0.00 0.00 0.03 0.08 0.19 0.25 0.22 0.09 0.08 0.03 0.03 0.12 0.06 0.06 0.02 0.00 0.00 0.00 0.00 0.00 0.00 0.00 0.00 0.00 0.00
0.05 0.07 0.04 0.01 0.01 0.02 0.00 0.00 0.00 0.00 0.00 0.00 0.00 0.00 0.00 0.00 0.00 0.00 0.00 0.00 0.00 0.00 0.00 0.00 0.00 0.00 0.02 0.03 0.07 0.16 0.18 0.19 0.17 0.09 0.18 0.09 0.13 0.15 0.11 0.03 0.01 0.00 0.00 0.00 0.00 0.00 0.00 0.00 0.00
0.11 0.12 0.04 0.03 0.02 0.04 0.01 0.00 0.00 0.00 0.00 0.00 0.00 0.00 0.00 0.00 0.00 0.00 0.00 0.00 0.00 0.00 0.00 0.00 0.00 0.00 0.00 0.02 0.04 0.14 0.26 0.23 0.25 0.22 0.10 0.09 0.13 0.23 0.16 0.10 0.10 0.04 0.02 0.00 0.00 0.00 0.00 0.00 0.00
0.11 0.14 0.10 0.04 0.06 0.05 0.04 0.01 0.00 0.00 0.00 0.00 0.00 0.00 0.00 0.00 0.00 0.00 0.00 0.00 0.00 0.00 0.00 0.00 0.00 0.00 0.01 0.02 0.07 0.15 0.18 0.20 0.20 0.11 0.05 0.08 0.29 0.34 0.31 0.19 0.13 0.15 0.08 0.07 0.01 0.05 0.03 0.02 0.01
0.13 0.07 0.11 0.17 0.15 0.04 0.06 0.03 0.00 0.00 0.00 0.00 0.00 0.00 0.00 0.00 0.00 0.00 0.00 0.00 0.00 0.00 0.00 0.00 0.00 0.00 0.00 0.00 0.04 0.08 0.07 0.08 0.08 0.08 0.18 0.23 0.25 0.30 0.35 0.29 0.22 0.17 0.13 0.08 0.11 0.13 0.14 0.07 0.02
0.20 0.07 0.11 0.23 0.35 0.35 0.07 0.09 0.01 0.00 0.00 0.00 0.00 0.00 0.00 0.00 0.00 0.00 0.00 0.00 0.00 0.00 0.00 0.00 0.00 0.00 0.00 0.00 0.03 0.09 0.07 0.05 0.05 0.08 0.11 0.14 0.20 0.21 0.28 0.26 0.24 0.16 0.15 0.24 0.18 0.15 0.15 0.13 0.10
0.20 0.25 0.26 0.47 0.48 0.69 0.30 0.07 0.01 0.00 0.00 0.00 0.00 0.00 0.00 0.00 0.00 0.00 0.00 0.00 0.00 0.00 0.00 0.00 0.00 0.00 0.00 0.00 0.00 0.03 0.05 0.04 0.03 0.05 0.12 0.12 0.16 0.16 0.17 0.19 0.14 0.18 0.16 0.15 0.18 0.26 0.23 0.19 0.17
0.48 0.62 0.83 0.75 0.90 0.42 0.15 0.16 0.06 0.00 0.00 0.00 0.00 0.00 0.00 0.00 0.00 0.00 0.00 0.00 0.00 0.00 0.00 0.00 0.00 0.00 0.00 0.00 0.00 0.02 0.04 0.03 0.04 0.07 0.14 0.13 0.11 0.09 0.09 0.16 0.17 0.14 0.17 0.22 0.29 0.26 0.24 0.26 0.21
0.60 0.58 0.64 0.38 0.28 0.17 0.08 0.26 0.05 0.00 0.00 0.00 0.00 0.00 0.00 0.00 0.00 0.00 0.00 0.00 0.00 0.00 0.00 0.00 0.00 0.00 0.00 0.00 0.00 0.00 0.01 0.02 0.05 0.08 0.06 0.08 0.10 0.09 0.09 0.18 0.21 0.20 0.18 0.17 0.24 0.23 0.18 0.19 0.17
0.68 0.65 0.36 0.50 0.18 0.27 0.09 0.08 0.04 0.01 0.00 0.00 0.00 0.00 0.00 0.00 0.00 0.00 0.00 0.00 0.00 0.00 0.00 0.00 0.00 0.00 0.00 0.01 0.01 0.01 0.01 0.03 0.04 0.04 0.05 0.05 0.06 0.08 0.08 0.12 0.18 0.19 0.18 0.19 0.21 0.22 0.21 0.20 0.19
0.54 0.32 0.50 1.03 0.61 0.19 0.06 0.02 0.04 0.00 0.00 0.00 0.00 0.00 0.00 0.00 0.00 0.00 0.00 0.00 0.00 0.00 0.00 0.00 0.00 0.00 0.00 0.03 0.03 0.01 0.04 0.04 0.03 0.03 0.03 0.04 0.05 0.06 0.07 0.08 0.08 0.09 0.09 0.12 0.15 0.17 0.19 0.23 0.22
0.58 0.58 0.38 0.52 0.43 0.25 0.10 0.02 0.00 0.00 0.01 0.01 0.01 0.00 0.00 0.00 0.00 0.00 0.00 0.00 0.00 0.00 0.00 0.00 0.00 0.00 0.01 0.02 0.00 0.00 0.02 0.04 0.03 0.03 0.03 0.04 0.05 0.03 0.04 0.03 0.04 0.04 0.05 0.06 0.07 0.09 0.12 0.16 0.16
0.20 0.23 0.18 0.65 0.43 0.37 0.32 0.13 0.00 0.01 0.01 0.01 0.01 0.01 0.01 0.01 0.00 0.00 0.00 0.00 0.00 0.00 0.00 0.00 0.00 0.01 0.02 0.01 0.00 0.01 0.04 0.04 0.04 0.04 0.04 0.05 0.06 0.05 0.05 0.04 0.03 0.02 0.03 0.06 0.12 0.16 0.17 0.16 0.17

GFSSGP_prec_precacc_057.txt.gz
Total_Precipitation_Accumulation
0.00 0.00 0.00 0.00 0.00 0.00 0.00 0.00 0.00 0.00 0.00 0.00 0.00 0.00 0.00 0.00 0.00 0.00 0.00 0.00 0.00 0.00 0.00 0.01 0.04 0.09 0.05 0.07 0.05 0.02 0.03 0.02 0.01 0.05 0.09 0.03 0.00 0.00 0.01 0.02 0.02 0.05 0.14 0.31 0.29 0.10 0.01 0.00 0.00
0.00 0.00 0.00 0.00 0.00 0.00 0.00 0.00 0.00 0.00 0.00 0.00 0.00 0.00 0.00 0.00 0.00 0.00 0.00 0.00 0.00 0.00 0.00 0.00 0.03 0.06 0.05 0.07 0.04 0.02 0.02 0.01 0.02 0.07 0.03 0.00 0.00 0.00 0.01 0.02 0.04 0.09 0.19 0.16 0.03 0.00 0.00 0.00 0.00
0.00 0.00 0.00 0.00 0.00 0.00 0.00 0.00 0.00 0.00 0.00 0.00 0.00 0.00 0.00 0.00 0.00 0.00 0.00 0.00 0.00 0.00 0.00 0.00 0.03 0.04 0.05 0.04 0.04 0.03 0.03 0.02 0.03 0.02 0.00 0.01 0.03 0.05 0.04 0.03 0.03 0.03 0.02 0.00 0.00 0.00 0.00 0.00 0.00
0.00 0.00 0.00 0.00 0.00 0.00 0.00 0.00 0.00 0.00 0.00 0.00 0.00 0.00 0.00 0.00 0.00 0.00 0.00 0.00 0.00 0.00 0.00 0.00 0.03 0.04 0.03 0.05 0.05 0.03 0.03 0.03 0.02 0.01 0.00 0.01 0.04 0.08 0.07 0.01 0.00 0.00 0.00 0.00 0.00 0.00 0.00 0.00 0.00
0.00 0.00 0.00 0.00 0.00 0.00 0.00 0.00 0.00 0.00 0.00 0.00 0.00 0.00 0.00 0.00 0.00 0.00 0.00 0.00 0.00 0.00 0.00 0.00 0.03 0.03 0.02 0.04 0.05 0.03 0.04 0.02 0.01 0.00 0.00 0.01 0.04 0.09 0.12 0.03 0.00 0.00 0.00 0.00 0.00 0.00 0.00 0.00 0.00
0.09 0.03 0.01 0.00 0.00 0.00 0.00 0.00 0.00 0.00 0.00 0.00 0.00 0.00 0.01 0.00 0.00 0.01 0.00 0.00 0.00 0.00 0.00 0.00 0.03 0.05 0.03 0.03 0.04 0.04 0.04 0.03 0.01 0.00 0.00 0.00 0.01 0.05 0.12 0.05 0.00 0.00 0.00 0.00 0.00 0.00 0.00 0.01 0.01
0.13 0.15 0.03 0.00 0.00 0.00 0.00 0.00 0.00 0.00 0.00 0.00 0.00 0.01 0.06 0.03 0.00 0.01 0.00 0.00 0.00 0.00 0.00 0.00 0.02 0.03 0.02 0.02 0.03 0.04 0.03 0.03 0.01 0.00 0.00 0.00 0.00 0.02 0.06 0.02 0.00 0.00 0.00 0.01 0.00 0.00 0.00 0.01 0.02
0.04 0.16 0.10 0.01 0.00 0.00 0.00 0.00 0.00 0.00 0.00 0.00 0.00 0.01 0.05 0.02 0.00 0.01 0.02 0.01 0.00 0.00 0.01 0.00 0.00 0.02 0.02 0.01 0.01 0.02 0.03 0.01 0.00 0.00 0.00 0.00 0.00 0.01 0.02 0.00 0.00 0.00 0.01 0.01 0.01 0.01 0.03 0.03 0.02
0.02 0.12 0.23 0.06 0.01 0.00 0.00 0.00 0.00 0.00 0.00 0.00 0.00 0.00 0.00 0.01 0.01 0.01 0.01 0.01 0.02 0.02 0.04 0.03 0.02 0.01 0.01 0.00 0.00 0.00 0.02 0.01 0.00 0.00 0.00 0.00 0.00 0.00 0.00 0.00 0.00 0.00 0.02 0.02 0.02 0.01 0.03 0.02 0.01
0.07 0.12 0.06 0.02 0.00 0.00 0.01 0.00 0.00 0.00 0.00 0.00 0.00 0.00 0.00 0.00 0.00 0.01 0.01 0.01 0.01 0.03 0.04 0.02 0.01 0.00 0.01 0.00 0.00 0.00 0.00 0.00 0.00 0.00 0.00 0.00 0.00 0.00 0.00 0.00 0.00 0.00 0.03 0.02 0.03 0.01 0.01 0.01 0.00
0.00 0.02 0.00 0.01 0.01 0.01 0.01 0.00 0.00 0.00 0.00 0.00 0.00 0.00 0.00 0.00 0.01 0.01 0.01 0.01 0.01 0.01 0.01 0.00 0.00 0.00 0.00 0.00 0.00 0.00 0.00 0.00 0.00 0.00 0.00 0.00 0.00 0.00 0.00 0.00 0.00 0.00 0.01 0.00 0.01 0.00 0.00 0.00 0.00
0.00 0.00 0.00 0.02 0.02 0.02 0.00 0.00 0.00 0.00 0.00 0.00 0.00 0.00 0.00 0.00 0.00 0.01 0.01 0.03 0.02 0.01 0.00 0.00 0.00 0.00 0.00 0.01 0.00 0.00 0.00 0.00 0.00 0.00 0.00 0.00 0.00 0.00 0.00 0.00 0.00 0.00 0.00 0.00 0.00 0.00 0.00 0.00 0.00
0.00 0.00 0.00 0.00 0.00 0.00 0.00 0.00 0.00 0.00 0.00 0.00 0.00 0.00 0.00 0.00 0.00 0.00 0.00 0.01 0.02 0.00 0.00 0.01 0.01 0.01 0.02 0.02 0.02 0.00 0.00 0.00 0.00 0.00 0.00 0.00 0.00 0.00 0.00 0.00 0.00 0.00 0.00 0.00 0.00 0.00 0.00 0.00 0.00
0.00 0.00 0.00 0.00 0.00 0.00 0.00 0.00 0.00 0.00 0.00 0.00 0.00 0.00 0.00 0.00 0.00 0.00 0.00 0.00 0.00 0.00 0.00 0.02 0.04 0.02 0.00 0.03 0.03 0.03 0.00 0.00 0.00 0.00 0.00 0.00 0.00 0.00 0.00 0.00 0.00 0.00 0.00 0.00 0.00 0.00 0.00 0.00 0.00
0.02 0.04 0.01 0.00 0.00 0.00 0.00 0.00 0.00 0.00 0.00 0.00 0.00 0.00 0.00 0.00 0.00 0.00 0.00 0.00 0.00 0.00 0.01 0.01 0.01 0.00 0.00 0.01 0.05 0.05 0.08 0.03 0.01 0.00 0.00 0.00 0.00 0.00 0.00 0.00 0.00 0.00 0.00 0.00 0.00 0.00 0.00 0.00 0.00
0.09 0.12 0.03 0.00 0.00 0.00 0.00 0.00 0.00 0.00 0.00 0.00 0.00 0.00 0.00 0.00 0.00 0.00 0.00 0.00 0.00 0.00 0.00 0.01 0.03 0.03 0.01 0.02 0.08 0.15 0.16 0.09 0.10 0.06 0.01 0.00 0.00 0.00 0.00 0.00 0.00 0.00 0.00 0.00 0.00 0.00 0.00 0.00 0.00
0.18 0.06 0.02 0.00 0.00 0.00 0.00 0.00 0.00 0.00 0.00 0.00 0.00 0.00 0.00 0.00 0.00 0.00 0.00 0.00 0.00 0.00 0.00 0.00 0.00 0.01 0.03 0.05 0.10 0.25 0.26 0.11 0.09 0.07 0.02 0.01 0.01 0.02 0.00 0.00 0.00 0.00 0.00 0.00 0.00 0.00 0.00 0.00 0.00
0.07 0.05 0.03 0.01 0.00 0.01 0.00 0.00 0.00 0.00 0.00 0.00 0.00 0.00 0.00 0.00 0.00 0.00 0.00 0.00 0.00 0.00 0.00 0.00 0.00 0.00 0.03 0.08 0.19 0.25 0.22 0.10 0.09 0.03 0.03 0.12 0.07 0.06 0.04 0.01 0.00 0.00 0.00 0.00 0.00 0.00 0.00 0.00 0.00
0.05 0.07 0.04 0.01 0.01 0.02 0.00 0.00 0.00 0.00 0.00 0.00 0.00 0.00 0.00 0.00 0.00 0.00 0.00 0.00 0.00 0.00 0.00 0.00 0.00 0.00 0.02 0.03 0.07 0.16 0.18 0.20 0.19 0.09 0.19 0.11 0.16 0.18 0.14 0.04 0.01 0.01 0.00 0.00 0.00 0.00 0.00 0.00 0.00
0.11 0.12 0.04 0.03 0.02 0.04 0.01 0.00 0.00 0.00 0.00 0.00 0.00 0.00 0.00 0.00 0.00 0.00 0.00 0.00 0.00 0.00 0.00 0.00 0.00 0.00 0.00 0.02 0.04 0.14 0.26 0.23 0.25 0.22 0.10 0.10 0.17 0.27 0.20 0.14 0.13 0.08 0.03 0.02 0.01 0.02 0.06 0.02 0.02
0.11 0.14 0.10 0.04 0.06 0.05 0.04 0.01 0.00 0.00 0.00 0.00 0.00 0.00 0.00 0.00 0.00 0.00 0.00 0.00 0.00 0.00 0.00 0.00 0.00 0.00 0.01 0.02 0.07 0.15 0.18 0.20 0.20 0.11 0.05 0.08 0.30 0.36 0.34 0.21 0.16 0.22 0.16 0.13 0.06 0.10 0.12 0.10 0.07
0.13 0.07 0.11 0.17 0.15 0.04 0.06 0.03 0.00 0.00 0.00 0.00 0.00 0.00 0.00 0.00 0.00 0.00 0.00 0.00 0.00 0.00 0.00 0.00 0.00 0.00 0.00 0.00 0.04 0.08 0.07 0.08 0.08 0.08 0.18 0.23 0.25 0.30 0.35 0.31 0.28 0.23 0.17 0.14 0.20 0.24 0.23 0.19 0.10
0.21 0.07 0.11 0.23 0.35 0.35 0.07 0.09 0.01 0.00 0.00 0.00 0.00 0.00 0.00 0.00 0.00 0.00 0.00 0.00 0.00 0.00 0.00 0.00 0.00 0.00 0.00 0.00 0.03 0.09 0.07 0.05 0.05 0.08 0.11 0.14 0.20 0.22 0.28 0.26 0.25 0.18 0.20 0.29 0.23 0.20 0.20 0.17 0.16
0.21 0.25 0.26 0.47 0.48 0.69 0.30 0.07 0.01 0.00 0.00 0.00 0.00 0.00 0.00 0.00 0.00 0.00 0.00 0.00 0.00 0.00 0.00 0.00 0.00 0.00 0.00 0.00 0.00 0.03 0.05 0.04 0.03 0.05 0.12 0.12 0.16 0.16 0.18 0.19 0.15 0.20 0.17 0.17 0.22 0.33 0.31 0.27 0.27
0.49 0.62 0.83 0.75 0.90 0.42 0.15 0.16 0.06 0.00 0.00 0.00 0.00 0.00 0.00 0.00 0.00 0.00 0.00 0.00 0.00 0.00 0.00 0.00 0.00 0.00 0.00 0.00 0.00 0.02 0.04 0.03 0.04 0.07 0.14 0.13 0.11 0.09 0.09 0.16 0.19 0.16 0.18 0.23 0.31 0.28 0.30 0.37 0.32
0.60 0.58 0.64 0.38 0.28 0.17 0.08 0.26 0.05 0.00 0.00 0.00 0.00 0.00 0.00 0.00 0.00 0.00 0.00 0.00 0.00 0.00 0.00 0.00 0.00 0.00 0.00 0.00 0.00 0.00 0.01 0.02 0.05 0.08 0.06 0.08 0.10 0.09 0.09 0.18 0.21 0.20 0.19 0.17 0.24 0.24 0.19 0.24 0.26
0.69 0.65 0.36 0.50 0.18 0.27 0.09 0.08 0.04 0.01 0.00 0.00 0.00 0.00 0.00 0.00 0.00 0.00 0.00 0.00 0.00 0.00 0.00 0.00 0.00 0.00 0.00 0.01 0.01 0.01 0.01 0.03 0.04 0.04 0.05 0.05 0.06 0.08 0.08 0.12 0.18 0.19 0.18 0.20 0.21 0.23 0.22 0.22 0.24
0.54 0.32 0.50 1.03 0.61 0.19 0.06 0.02 0.04 0.00 0.00 0.00 0.00 0.00 0.00 0.00 0.00 0.00 0.00 0.00 0.00 0.00 0.00 0.00 0.00 0.00 0.00 0.03 0.03 0.01 0.04 0.04 0.03 0.03 0.03 0.04 0.05 0.06 0.07 0.08 0.08 0.09 0.09 0.12 0.16 0.18 0.20 0.25 0.25
0.58 0.58 0.38 0.52 0.43 0.25 0.10 0.02 0.00 0.00 0.01 0.01 0.01 0.00 0.00 0.00 0.00 0.00 0.00 0.00 0.00 0.00 0.00 0.00 0.00 0.00 0.01 0.02 0.00 0.00 0.02 0.04 0.03 0.03 0.03 0.04 0.05 0.03 0.04 0.03 0.04 0.04 0.05 0.06 0.07 0.09 0.12 0.16 0.17
0.20 0.23 0.18 0.66 0.43 0.37 0.32 0.13 0.00 0.01 0.01 0.01 0.01 0.01 0.01 0.01 0.00 0.00 0.00 0.00 0.00 0.00 0.00 0.00 0.00 0.01 0.02 0.01 0.00 0.01 0.04 0.04 0.04 0.04 0.04 0.05 0.06 0.05 0.05 0.04 0.03 0.02 0.03 0.06 0.12 0.16 0.18 0.18 0.18

GFSSGP_prec_precacc_060.txt.gz
Total_Precipitation_Accumulation
0.00 0.00 0.00 0.00 0.00 0.00 0.00 0.00 0.00 0.00 0.00 0.00 0.00 0.00 0.00 0.00 0.00 0.00 0.00 0.00 0.00 0.00 0.00 0.01 0.05 0.10 0.06 0.07 0.05 0.02 0.03 0.02 0.02 0.05 0.09 0.03 0.00 0.00 0.01 0.02 0.03 0.07 0.14 0.31 0.29 0.10 0.01 0.00 0.00
0.00 0.00 0.00 0.00 0.00 0.00 0.00 0.00 0.00 0.00 0.00 0.00 0.00 0.00 0.00 0.00 0.00 0.00 0.00 0.00 0.00 0.00 0.00 0.00 0.04 0.06 0.05 0.07 0.04 0.02 0.02 0.01 0.02 0.07 0.03 0.00 0.00 0.00 0.01 0.02 0.06 0.10 0.19 0.16 0.03 0.00 0.00 0.00 0.00
0.00 0.00 0.00 0.00 0.00 0.00 0.00 0.00 0.00 0.00 0.00 0.00 0.00 0.00 0.00 0.00 0.00 0.00 0.00 0.00 0.00 0.00 0.00 0.00 0.04 0.05 0.05 0.04 0.04 0.03 0.03 0.02 0.03 0.02 0.00 0.02 0.04 0.06 0.04 0.04 0.04 0.03 0.02 0.00 0.00 0.00 0.00 0.00 0.00
0.00 0.00 0.00 0.00 0.00 0.00 0.00 0.00 0.00 0.00 0.00 0.00 0.00 0.00 0.00 0.00 0.00 0.00 0.00 0.00 0.00 0.00 0.00 0.01 0.04 0.04 0.03 0.05 0.05 0.03 0.03 0.03 0.02 0.01 0.00 0.01 0.05 0.09 0.08 0.02 0.00 0.00 0.00 0.00 0.00 0.00 0.00 0.00 0.00
0.00 0.00 0.00 0.00 0.00 0.00 0.00 0.00 0.00 0.00 0.00 0.00 0.00 0.00 0.00 0.00 0.00 0.00 0.00 0.00 0.00 0.00 0.00 0.00 0.04 0.04 0.03 0.05 0.05 0.03 0.04 0.02 0.01 0.00 0.00 0.02 0.05 0.09 0.12 0.03 0.00 0.00 0.00 0.00 0.00 0.00 0.00 0.00 0.00
0.09 0.03 0.01 0.00 0.00 0.00 0.00 0.00 0.00 0.00 0.00 0.00 0.00 0.00 0.02 0.01 0.00 0.01 0.00 0.00 0.00 0.00 0.00 0.00 0.03 0.05 0.04 0.04 0.04 0.04 0.04 0.03 0.01 0.00 0.00 0.01 0.02 0.05 0.12 0.05 0.00 0.00 0.00 0.00 0.00 0.00 0.00 0.01 0.01
0.13 0.16 0.04 0.00 0.00 0.00 0.00 0.00 0.00 0.00 0.00 0.00 0.00 0.02 0.08 0.03 0.01 0.02 0.00 0.00 0.00 0.00 0.00 0.00 0.02 0.03 0.02 0.02 0.03 0.04 0.03 0.03 0.01 0.00 0.00 0.00 0.00 0.02 0.06 0.02 0.00 0.00 0.00 0.01 0.00 0.00 0.00 0.01 0.02
0.04 0.16 0.10 0.02 0.00 0.00 0.00 0.00 0.00 0.00 0.00 0.00 0.00 0.01 0.06 0.02 0.00 0.02 0.02 0.01 0.00 0.00 0.01 0.00 0.00 0.02 0.02 0.01 0.01 0.02 0.03 0.01 0.00 0.00 0.00 0.00 0.00 0.01 0.02 0.00 0.00 0.00 0.01 0.01 0.01 0.01 0.03 0.03 0.02
0.07 0.13 0.23 0.07 0.01 0.00 0.00 0.00 0.00 0.00 0.00 0.00 0.00 0.00 0.00 0.01 0.01 0.03 0.02 0.01 0.02 0.02 0.04 0.03 0.02 0.01 0.01 0.00 0.00 0.00 0.02 0.01 0.00 0.00 0.00 0.00 0.00 0.00 0.00 0.00 0.00 0.00 0.02 0.02 0.02 0.01 0.03 0.02 0.01
0.18 0.20 0.06 0.02 0.01 0.01 0.02 0.00 0.00 0.00 0.00 0.00 0.00 0.00 0.00 0.01 0.05 0.05 0.03 0.01 0.01 0.03 0.04 0.02 0.01 0.00 0.01 0.00 0.00 0.00 0.00 0.00 0.00 0.00 0.00 0.00 0.00 0.00 0.00 0.00 0.00 0.00 0.03 0.02 0.03 0.01 0.01 0.01 0.00
0.04 0.11 0.00 0.01 0.02 0.12 0.07 0.00 0.00 0.00 0.00 0.00 0.00 0.00 0.00 0.01 0.03 0.05 0.04 0.03 0.01 0.01 0.01 0.00 0.00 0.00 0.00 0.00 0.00 0.00 0.00 0.00 0.00 0.00 0.00 0.00 0.00 0.00 0.00 0.00 0.00 0.00 0.01 0.00 0.01 0.00 0.00 0.00 0.00
0.00 0.00 0.00 0.02 0.04 0.14 0.09 0.02 0.00 0.00 0.00 0.00 0.00 0.00 0.00 0.00 0.00 0.02 0.02 0.04 0.03 0.01 0.00 0.00 0.00 0.00 0.00 0.01 0.00 0.00 0.00 0.00 0.00 0.00 0.00 0.00 0.00 0.00 0.00 0.00 0.00 0.00 0.00 0.00 0.00 0.00 0.00 0.00 0.00
0.00 0.00 0.00 0.01 0.01 0.03 0.09 0.06 0.00 0.00 0.00 0.00 0.00 0.00 0.00 0.00 0.00 0.00 0.01 0.01 0.02 0.00 0.00 0.01 0.01 0.01 0.02 0.02 0.02 0.00 0.00 0.00 0.00 0.00 0.00 0.00 0.00 0.00 0.00 0.00 0.00 0.00 0.00 0.00 0.00 0.00 0.00 0.00 0.00
0.00 0.00 0.01 0.02 0.00 0.01 0.04 0.04 0.01 0.00 0.00 0.00 0.00 0.00 0.00 0.00 0.00 0.00 0.00 0.00 0.00 0.00 0.01 0.02 0.04 0.02 0.00 0.03 0.03 0.03 0.00 0.00 0.00 0.00 0.00 0.00 0.00 0.00 0.00 0.00 0.00 0.00 0.00 0.00 0.00 0.00 0.00 0.00 0.00
0.02 0.06 0.02 0.00 0.00 0.00 0.00 0.00 0.01 0.00 0.00 0.00 0.00 0.00 0.00 0.00 0.00 0.00 0.00 0.00 0.00 0.00 0.01 0.01 0.01 0.00 0.00 0.01 0.05 0.05 0.08 0.03 0.01 0.00 0.00 0.00 0.00 0.00 0.00 0.00 0.00 0.00 0.00 0.00 0.00 0.00 0.00 0.00 0.00
0.09 0.14 0.04 0.00 0.00 0.00 0.00 0.00 0.00 0.00 0.00 0.00 0.00 0.00 0.00 0.00 0.00 0.00 0.00 0.00 0.00 0.00 0.00 0.01 0.03 0.04 0.01 0.02 0.08 0.15 0.16 0.09 0.10 0.06 0.01 0.00 0.00 0.00 0.00 0.00 0.00 0.00 0.00 0.00 0.00 0.00 0.00 0.00 0.00
0.19 0.06 0.02 0.00 0.00 0.00 0.00 0.00 0.00 0.00 0.00 0.00 0.00 0.00 0.00 0.00 0.00 0.00 0.00 0.00 0.00 0.00 0.00 0.00 0.00 0.01 0.03 0.05 0.10 0.25 0.26 0.11 0.09 0.07 0.02 0.01 0.01 0.02 0.01 0.00 0.00 0.00 0.00 0.00 0.00 0.00 0.00 0.00 0.00
0.07 0.05 0.03 0.01 0.00 0.01 0.00 0.00 0.00 0.00 0.00 0.00 0.00 0.00 0.00 0.00 0.00 0.00 0.00 0.00 0.00 0.00 0.00 0.00 0.00 0.00 0.03 0.08 0.19 0.25 0.22 0.10 0.10 0.03 0.03 0.12 0.07 0.07 0.07 0.03 0.02 0.01 0.00 0.00 0.00 0.00 0.00 0.00 0.00
0.05 0.07 0.04 0.01 0.01 0.02 0.00 0.00 0.00 0.00 0.00 0.00 0.00 0.00 0.00 0.00 0.00 0.00 0.00 0.00 0.00 0.00 0.00 0.00 0.00 0.00 0.02 0.03 0.07 0.16 0.18 0.20 0.23 0.12 0.23 0.16 0.20 0.24 0.19 0.07 0.04 0.05 0.02 0.01 0.01 0.00 0.00 0.01 0.05
0.11 0.12 0.04 0.03 0.02 0.04 0.01 0.00 0.00 0.00 0.00 0.00 0.00 0.00 0.00 0.00 0.00 0.00 0.00 0.00 0.00 0.00 0.00 0.00 0.00 0.00 0.00 0.02 0.04 0.14 0.26 0.23 0.25 0.22 0.11 0.12 0.21 0.31 0.25 0.17 0.15 0.10 0.07 0.05 0.03 0.04 0.07 0.06 0.11
0.11 0.14 0.10 0.04 0.06 0.05 0.04 0.01 0.00 0.00 0.00 0.00 0.00 0.00 0.00 0.00 0.00 0.00 0.00 0.00 0.00 0.00 0.00 0.00 0.00 0.00 0.01 0.02 0.07 0.15 0.18 0.20 0.20 0.11 0.05 0.08 0.30 0.37 0.35 0.22 0.17 0.23 0.18 0.15 0.09 0.14 0.15 0.14 0.12
0.13 0.07 0.11 0.17 0.15 0.04 0.06 0.03 0.00 0.00 0.00 0.00 0.00 0.00 0.00 0.00 0.00 0.00 0.00 0.00 0.00 0.00 0.00 0.00 0.00 0.00 0.00 0.00 0.04 0.08 0.07 0.08 0.08 0.08 0.18 0.23 0.25 0.30 0.35 0.31 0.28 0.24 0.19 0.16 0.22 0.29 0.28 0.26 0.14
0.21 0.07 0.11 0.23 0.35 0.35 0.07 0.09 0.01 0.00 0.00 0.00 0.00 0.00 0.00 0.00 0.00 0.00 0.00 0.00 0.00 0.00 0.00 0.00 0.00 0.00 0.00 0.00 0.03 0.09 0.07 0.05 0.05 0.08 0.11 0.14 0.20 0.22 0.28 0.26 0.26 0.19 0.21 0.30 0.24 0.21 0.22 0.22 0.22
0.21 0.25 0.26 0.47 0.48 0.69 0.30 0.07 0.01 0.00 0.00 0.00 0.00 0.00 0.00 0.00 0.00 0.00 0.00 0.00 0.00 0.00 0.00 0.00 0.00 0.00 0.00 0.00 0.00 0.03 0.05 0.04 0.03 0.05 0.12 0.12 0.16 0.16 0.18 0.19 0.16 0.20 0.18 0.18 0.24 0.34 0.33 0.31 0.32
0.49 0.62 0.84 0.76 0.91 0.42 0.15 0.16 0.06 0.00 0.00 0.00 0.00 0.00 0.00 0.00 0.00 0.00 0.00 0.00 0.00 0.00 0.00 0.00 0.00 0.00 0.00 0.00 0.00 0.02 0.04 0.03 0.04 0.07 0.14 0.13 0.11 0.09 0.09 0.16 0.19 0.16 0.18 0.23 0.31 0.29 0.31 0.40 0.38
0.61 0.58 0.64 0.38 0.28 0.17 0.08 0.26 0.05 0.00 0.00 0.00 0.00 0.00 0.00 0.00 0.00 0.00 0.00 0.00 0.00 0.00 0.00 0.00 0.00 0.00 0.00 0.00 0.00 0.00 0.01 0.02 0.05 0.08 0.06 0.08 0.10 0.09 0.09 0.18 0.21 0.20 0.19 0.17 0.24 0.24 0.19 0.24 0.28
0.70 0.65 0.36 0.50 0.18 0.27 0.09 0.08 0.04 0.01 0.00 0.00 0.00 0.00 0.00 0.00 0.00 0.00 0.00 0.00 0.00 0.00 0.00 0.00 0.00 0.00 0.00 0.01 0.01 0.01 0.01 0.03 0.04 0.04 0.05 0.05 0.06 0.08 0.08 0.12 0.18 0.19 0.18 0.20 0.21 0.23 0.22 0.22 0.25
0.54 0.32 0.50 1.03 0.61 0.19 0.06 0.02 0.04 0.00 0.00 0.00 0.00 0.00 0.00 0.00 0.00 0.00 0.00 0.00 0.00 0.00 0.00 0.00 0.00 0.00 0.00 0.03 0.03 0.01 0.04 0.04 0.03 0.03 0.03 0.04 0.05 0.06 0.07 0.08 0.08 0.09 0.09 0.12 0.16 0.18 0.20 0.25 0.25
0.59 0.58 0.38 0.52 0.43 0.25 0.10 0.02 0.00 0.00 0.01 0.01 0.01 0.00 0.00 0.00 0.00 0.00 0.00 0.00 0.00 0.00 0.00 0.00 0.00 0.00 0.01 0.02 0.00 0.00 0.02 0.04 0.03 0.03 0.03 0.04 0.05 0.03 0.04 0.03 0.04 0.04 0.05 0.06 0.07 0.09 0.12 0.16 0.17
0.20 0.23 0.18 0.66 0.43 0.37 0.32 0.13 0.00 0.01 0.01 0.01 0.01 0.01 0.01 0.01 0.00 0.00 0.00 0.00 0.00 0.00 0.00 0.00 0.00 0.01 0.02 0.01 0.00 0.01 0.04 0.04 0.04 0.04 0.04 0.05 0.06 0.05 0.05 0.04 0.03 0.02 0.03 0.06 0.12 0.16 0.18 0.18 0.18

GFSSGP_prec_precacc_063.txt.gz
Total_Precipitation_Accumulation
0.00 0.00 0.00 0.00 0.00 0.00 0.00 0.00 0.00 0.00 0.00 0.00 0.00 0.00 0.00 0.00 0.00 0.00 0.00 0.00 0.00 0.00 0.01 0.01 0.05 0.10 0.07 0.08 0.06 0.04 0.04 0.03 0.02 0.05 0.09 0.03 0.00 0.00 0.01 0.02 0.03 0.07 0.14 0.31 0.29 0.10 0.01 0.00 0.00
0.00 0.00 0.00 0.00 0.00 0.00 0.00 0.00 0.00 0.00 0.00 0.00 0.00 0.00 0.00 0.00 0.00 0.00 0.00 0.00 0.00 0.00 0.00 0.00 0.04 0.07 0.05 0.07 0.04 0.02 0.03 0.01 0.02 0.07 0.03 0.00 0.00 0.00 0.01 0.02 0.07 0.10 0.19 0.16 0.03 0.00 0.00 0.00 0.00
0.00 0.00 0.00 0.00 0.00 0.00 0.00 0.00 0.00 0.00 0.00 0.00 0.00 0.00 0.00 0.00 0.00 0.00 0.00 0.00 0.00 0.00 0.00 0.01 0.05 0.05 0.05 0.05 0.04 0.03 0.03 0.02 0.03 0.02 0.00 0.02 0.04 0.06 0.04 0.05 0.05 0.03 0.02 0.00 0.00 0.00 0.00 0.00 0.00
0.00 0.00 0.00 0.00 0.00 0.00 0.00 0.00 0.00 0.00 0.00 0.00 0.00 0.00 0.00 0.00 0.00 0.00 0.00 0.00 0.00 0.00 0.00 0.01 0.05 0.05 0.03 0.05 0.05 0.03 0.03 0.03 0.02 0.01 0.00 0.02 0.05 0.09 0.09 0.02 0.00 0.00 0.00 0.00 0.00 0.00 0.00 0.00 0.00
0.00 0.00 0.00 0.00 0.00 0.00 0.00 0.00 0.00 0.00 0.00 0.00 0.00 0.00 0.00 0.00 0.00 0.00 0.00 0.00 0.00 0.00 0.00 0.01 0.04 0.05 0.03 0.05 0.05 0.03 0.04 0.02 0.01 0.00 0.00 0.03 0.05 0.10 0.13 0.03 0.00 0.00 0.00 0.00 0.00 0.00 0.00 0.00 0.00
0.10 0.03 0.01 0.00 0.00 0.00 0.00 0.00 0.00 0.00 0.00 0.00 0.00 0.00 0.02 0.01 0.00 0.01 0.00 0.00 0.00 0.00 0.00 0.01 0.04 0.06 0.04 0.04 0.04 0.04 0.04 0.03 0.01 0.00 0.01 0.01 0.02 0.06 0.12 0.05 0.00 0.00 0.00 0.00 0.00 0.00 0.00 0.01 0.01
0.13 0.16 0.04 0.00 0.00 0.00 0.00 0.00 0.00 0.00 0.00 0.00 0.00 0.02 0.08 0.03 0.01 0.02 0.00 0.00 0.00 0.00 0.00 0.00 0.02 0.04 0.03 0.03 0.03 0.04 0.03 0.03 0.01 0.00 0.00 0.00 0.01 0.03 0.07 0.02 0.00 0.00 0.00 0.01 0.00 0.00 0.00 0.01 0.02
0.04 0.16 0.10 0.02 0.00 0.00 0.00 0.00 0.00 0.00 0.00 0.00 0.00 0.01 0.06 0.02 0.00 0.02 0.02 0.01 0.00 0.00 0.01 0.00 0.00 0.02 0.02 0.01 0.01 0.02 0.03 0.01 0.00 0.00 0.00 0.00 0.00 0.01 0.02 0.00 0.00 0.00 0.01 0.01 0.01 0.01 0.03 0.03 0.02
0.08 0.15 0.23 0.07 0.01 0.00 0.00 0.00 0.00 0.00 0.00 0.00 0.00 0.00 0.00 0.01 0.01 0.03 0.02 0.01 0.02 0.02 0.04 0.03 0.02 0.01 0.01 0.00 0.00 0.00 0.02 0.01 0.00 0.00 0.00 0.00 0.00 0.00 0.00 0.00 0.00 0.00 0.02 0.02 0.02 0.01 0.03 0.02 0.01
0.24 0.26 0.06 0.02 0.01 0.01 0.02 0.00 0.00 0.00 0.00 0.00 0.00 0.00 0.00 0.01 0.05 0.05 0.03 0.01 0.03 0.03 0.04 0.02 0.01 0.00 0.01 0.00 0.00 0.00 0.00 0.00 0.00 0.00 0.00 0.00 0.00 0.00 0.00 0.00 0.00 0.00 0.03 0.02 0.03 0.01 0.01 0.01 0.00
0.11 0.14 0.00 0.01 0.03 0.14 0.07 0.01 0.00 0.00 0.00 0.00 0.02 0.00 0.00 0.01 0.04 0.05 0.04 0.03 0.01 0.01 0.01 0.00 0.00 0.00 0.00 0.00 0.00 0.00 0.00 0.00 0.00 0.00 0.00 0.00 0.00 0.00 0.00 0.00 0.00 0.00 0.01 0.00 0.01 0.00 0.00 0.00 0.00
0.02 0.00 0.00 0.02 0.06 0.17 0.09 0.02 0.00 0.00 0.00 0.00 0.03 0.04 0.03 0.01 0.01 0.03 0.03 0.05 0.03 0.01 0.00 0.00 0.00 0.00 0.00 0.01 0.00 0.00 0.00 0.00 0.00 0.00 0.00 0.00 0.00 0.00 0.00 0.00 0.00 0.00 0.00 0.00 0.00 0.00 0.00 0.00 0.00
0.00 0.00 0.01 0.06 0.04 0.04 0.11 0.10 0.00 0.00 0.00 0.00 0.01 0.03 0.01 0.00 0.00 0.01 0.01 0.02 0.02 0.00 0.00 0.01 0.01 0.01 0.02 0.02 0.02 0.00 0.00 0.00 0.00 0.00 0.00 0.00 0.00 0.00 0.00 0.00 0.00 0.00 0.00 0.00 0.00 0.00 0.00 0.00 0.00
0.00 0.00 0.02 0.06 0.02 0.02 0.10 0.11 0.06 0.00 0.00 0.00 0.01 0.01 0.00 0.00 0.00 0.00 0.00 0.00 0.00 0.00 0.01 0.02 0.04 0.02 0.00 0.03 0.03 0.03 0.00 0.00 0.00 0.00 0.00 0.00 0.00 0.00 0.00 0.00 0.00 0.00 0.00 0.00 0.00 0.00 0.00 0.00 0.00
0.03 0.08 0.04 0.01 0.00 0.00 0.01 0.09 0.10 0.00 0.00 0.00 0.01 0.00 0.00 0.00 0.00 0.00 0.00 0.00 0.00 0.00 0.01 0.01 0.01 0.00 0.00 0.01 0.05 0.05 0.08 0.03 0.01 0.00 0.00 0.00 0.00 0.00 0.00 0.00 0.00 0.00 0.00 0.00 0.00 0.00 0.00 0.00 0.00
0.10 0.17 0.05 0.00 0.00 0.00 0.05 0.04 0.01 0.02 0.00 0.00 0.00 0.00 0.00 0.00 0.00 0.00 0.00 0.00 0.00 0.00 0.00 0.01 0.03 0.04 0.01 0.02 0.08 0.15 0.16 0.09 0.10 0.06 0.01 0.00 0.00 0.00 0.00 0.00 0.00 0.00 0.00 0.00 0.00 0.00 0.00 0.00 0.00
0.19 0.07 0.02 0.00 0.00 0.00 0.01 0.00 0.01 0.00 0.00 0.00 0.00 0.00 0.00 0.00 0.00 0.00 0.00 0.00 0.00 0.00 0.00 0.00 0.00 0.01 0.03 0.05 0.10 0.25 0.26 0.11 0.09 0.07 0.02 0.01 0.01 0.02 0.01 0.00 0.00 0.00 0.00 0.00 0.00 0.00 0.00 0.00 0.00
0.07 0.05 0.03 0.01 0.00 0.01 0.00 0.00 0.00 0.00 0.00 0.00 0.00 0.00 0.00 0.00 0.00 0.00 0.00 0.00 0.00 0.00 0.00 0.00 0.00 0.00 0.03 0.08 0.19 0.25 0.22 0.10 0.10 0.03 0.03 0.12 0.07 0.07 0.07 0.03 0.02 0.01 0.00 0.00 0.00 0.00 0.00 0.00 0.00
0.05 0.07 0.04 0.01 0.01 0.02 0.00 0.00 0.00 0.00 0.00 0.00 0.00 0.00 0.00 0.00 0.00 0.00 0.00 0.00 0.00 0.00 0.00 0.00 0.00 0.00 0.02 0.03 0.07 0.16 0.18 0.21 0.23 0.13 0.24 0.17 0.23 0.26 0.21 0.09 0.07 0.07 0.04 0.03 0.01 0.00 0.00 0.01 0.05
0.11 0.12 0.04 0.03 0.02 0.04 0.01 0.00 0.00 0.00 0.00 0.00 0.00 0.00 0.00 0.00 0.00 0.00 0.00 0.00 0.00 0.00 0.00 0.00 0.00 0.00 0.00 0.02 0.04 0.14 0.26 0.23 0.25 0.22 0.12 0.13 0.22 0.33 0.27 0.19 0.16 0.10 0.07 0.06 0.04 0.05 0.08 0.07 0.14
0.11 0.14 0.10 0.04 0.06 0.05 0.04 0.01 0.00 0.00 0.00 0.00 0.00 0.00 0.00 0.00 0.00 0.00 0.00 0.00 0.00 0.00 0.00 0.00 0.00 0.00 0.01 0.02 0.07 0.15 0.18 0.20 0.20 0.11 0.05 0.08 0.30 0.37 0.35 0.22 0.17 0.23 0.18 0.15 0.09 0.14 0.16 0.16 0.14
0.13 0.07 0.11 0.17 0.15 0.04 0.06 0.03 0.00 0.00 0.00 0.00 0.00 0.00 0.00 0.00 0.00 0.00 0.00 0.00 0.00 0.00 0.00 0.00 0.00 0.00 0.00 0.00 0.04 0.08 0.07 0.08 0.08 0.08 0.18 0.23 0.25 0.30 0.35 0.31 0.28 0.24 0.19 0.16 0.22 0.29 0.28 0.26 0.15
0.21 0.07 0.11 0.23 0.35 0.35 0.07 0.09 0.01 0.00 0.00 0.00 0.00 0.00 0.00 0.00 0.00 0.00 0.00 0.00 0.00 0.00 0.00 0.00 0.00 0.00 0.00 0.00 0.03 0.09 0.07 0.05 0.05 0.08 0.11 0.14 0.20 0.22 0.28 0.26 0.26 0.19 0.21 0.30 0.24 0.21 0.22 0.22 0.23
0.21 0.25 0.26 0.47 0.48 0.69 0.30 0.07 0.01 0.00 0.00 0.00 0.00 0.00 0.00 0.00 0.00 0.00 0.00 0.00 0.00 0.00 0.00 0.00 0.00 0.00 0.00 0.00 0.00 0.03 0.05 0.04 0.03 0.05 0.12 0.12 0.16 0.16 0.18 0.19 0.16 0.20 0.18 0.18 0.24 0.35 0.34 0.32 0.33
0.49 0.62 0.84 0.77 0.92 0.42 0.15 0.16 0.06 0.00 0.00 0.00 0.00 0.00 0.00 0.00 0.00 0.00 0.00 0.00 0.00 0.00 0.00 0.00 0.00 0.00 0.00 0.00 0.00 0.02 0.04 0.03 0.04 0.07 0.14 0.13 0.11 0.09 0.09 0.16 0.19 0.16 0.18 0.23 0.31 0.29 0.32 0.40 0.38
0.61 0.58 0.64 0.38 0.28 0.17 0.08 0.26 0.05 0.00 0.00 0.00 0.00 0.00 0.00 0.00 0.00 0.00 0.00 0.00 0.00 0.00 0.00 0.00 0.00 0.00 0.00 0.00 0.00 0.00 0.01 0.02 0.05 0.08 0.06 0.08 0.10 0.09 0.09 0.18 0.21 0.20 0.19 0.17 0.24 0.24 0.19 0.24 0.28
0.70 0.65 0.36 0.50 0.18 0.27 0.09 0.08 0.04 0.01 0.00 0.00 0.00 0.00 0.00 0.00 0.00 0.00 0.00 0.00 0.00 0.00 0.00 0.00 0.00 0.00 0.00 0.01 0.01 0.01 0.01 0.03 0.04 0.04 0.05 0.05 0.06 0.08 0.08 0.12 0.18 0.19 0.18 0.20 0.21 0.23 0.22 0.22 0.25
0.54 0.32 0.50 1.03 0.61 0.19 0.06 0.02 0.04 0.00 0.00 0.00 0.00 0.00 0.00 0.00 0.00 0.00 0.00 0.00 0.00 0.00 0.00 0.00 0.00 0.00 0.00 0.03 0.03 0.01 0.04 0.04 0.03 0.03 0.03 0.04 0.05 0.06 0.07 0.08 0.08 0.09 0.09 0.12 0.16 0.18 0.20 0.25 0.25
0.59 0.58 0.38 0.52 0.43 0.25 0.10 0.02 0.00 0.00 0.01 0.01 0.01 0.00 0.00 0.00 0.00 0.00 0.00 0.00 0.00 0.00 0.00 0.00 0.00 0.00 0.01 0.02 0.00 0.00 0.02 0.04 0.03 0.03 0.03 0.04 0.05 0.03 0.04 0.03 0.04 0.04 0.05 0.06 0.07 0.09 0.12 0.16 0.17
0.21 0.23 0.18 0.66 0.43 0.37 0.32 0.13 0.00 0.01 0.01 0.01 0.01 0.01 0.01 0.01 0.00 0.00 0.00 0.00 0.00 0.00 0.00 0.00 0.00 0.01 0.02 0.01 0.00 0.01 0.04 0.04 0.04 0.04 0.04 0.05 0.06 0.05 0.05 0.04 0.03 0.02 0.03 0.06 0.12 0.16 0.18 0.18 0.18

GFSSGP_prec_precacc_066.txt.gz
Total_Precipitation_Accumulation
0.00 0.00 0.00 0.00 0.00 0.00 0.00 0.00 0.00 0.00 0.00 0.00 0.00 0.00 0.00 0.00 0.00 0.00 0.00 0.00 0.00 0.00 0.01 0.02 0.05 0.10 0.07 0.08 0.06 0.04 0.05 0.05 0.03 0.06 0.09 0.03 0.00 0.00 0.01 0.02 0.03 0.07 0.14 0.31 0.29 0.10 0.01 0.00 0.00
0.00 0.00 0.00 0.00 0.00 0.00 0.00 0.00 0.00 0.00 0.00 0.00 0.00 0.00 0.00 0.00 0.00 0.00 0.00 0.00 0.00 0.00 0.00 0.01 0.04 0.08 0.05 0.07 0.04 0.03 0.03 0.01 0.02 0.07 0.03 0.00 0.00 0.00 0.01 0.03 0.07 0.10 0.19 0.16 0.03 0.00 0.00 0.00 0.00
0.00 0.00 0.00 0.00 0.00 0.00 0.00 0.00 0.00 0.00 0.00 0.00 0.00 0.00 0.00 0.00 0.00 0.00 0.00 0.00 0.00 0.00 0.00 0.01 0.05 0.06 0.05 0.05 0.04 0.03 0.03 0.02 0.03 0.02 0.00 0.02 0.04 0.06 0.05 0.06 0.05 0.03 0.02 0.00 0.00 0.00 0.00 0.00 0.00
0.00 0.00 0.00 0.00 0.00 0.00 0.00 0.00 0.00 0.00 0.00 0.00 0.00 0.00 0.00 0.00 0.00 0.00 0.00 0.00 0.00 0.00 0.00 0.02 0.05 0.05 0.03 0.05 0.05 0.03 0.03 0.03 0.02 0.01 0.00 0.02 0.05 0.09 0.10 0.03 0.00 0.00 0.00 0.00 0.00 0.00 0.00 0.00 0.00
0.00 0.00 0.00 0.00 0.00 0.00 0.00 0.00 0.00 0.00 0.00 0.00 0.00 0.00 0.00 0.00 0.00 0.00 0.00 0.00 0.00 0.00 0.00 0.01 0.04 0.05 0.03 0.05 0.05 0.03 0.04 0.02 0.01 0.01 0.02 0.03 0.05 0.10 0.14 0.03 0.00 0.00 0.00 0.00 0.00 0.00 0.00 0.00 0.00
0.12 0.03 0.01 0.00 0.00 0.00 0.00 0.00 0.00 0.00 0.00 0.00 0.00 0.00 0.02 0.01 0.00 0.01 0.00 0.00 0.00 0.00 0.00 0.01 0.04 0.06 0.04 0.04 0.04 0.04 0.04 0.03 0.01 0.00 0.02 0.03 0.04 0.07 0.13 0.05 0.00 0.00 0.00 0.00 0.00 0.00 0.00 0.01 0.01
0.24 0.17 0.04 0.00 0.00 0.00 0.00 0.00 0.00 0.00 0.00 0.00 0.00 0.02 0.08 0.03 0.01 0.02 0.00 0.00 0.00 0.00 0.00 0.00 0.02 0.04 0.03 0.03 0.03 0.04 0.03 0.03 0.01 0.00 0.00 0.01 0.02 0.04 0.07 0.02 0.00 0.00 0.00 0.01 0.00 0.00 0.00 0.01 0.02
0.10 0.18 0.10 0.02 0.00 0.00 0.00 0.00 0.00 0.00 0.00 0.00 0.00 0.01 0.06 0.02 0.00 0.02 0.02 0.01 0.00 0.00 0.01 0.00 0.00 0.02 0.02 0.01 0.01 0.02 0.03 0.01 0.00 0.00 0.00 0.00 0.00 0.01 0.02 0.00 0.00 0.00 0.01 0.01 0.01 0.01 0.03 0.03 0.02
0.15 0.21 0.24 0.07 0.01 0.00 0.00 0.00 0.00 0.00 0.00 0.00 0.00 0.00 0.00 0.01 0.01 0.03 0.02 0.01 0.02 0.02 0.04 0.03 0.02 0.01 0.01 0.00 0.00 0.00 0.02 0.01 0.00 0.00 0.00 0.00 0.00 0.00 0.00 0.00 0.00 0.00 0.02 0.02 0.02 0.01 0.03 0.02 0.01
0.36 0.40 0.07 0.02 0.01 0.01 0.02 0.00 0.00 0.00 0.00 0.01 0.02 0.02 0.01 0.01 0.05 0.06 0.06 0.02 0.03 0.03 0.04 0.02 0.01 0.00 0.01 0.00 0.00 0.00 0.00 0.00 0.00 0.00 0.00 0.00 0.00 0.00 0.00 0.00 0.00 0.00 0.03 0.02 0.03 0.01 0.01 0.01 0.00
0.20 0.23 0.01 0.01 0.03 0.14 0.07 0.01 0.00 0.00 0.00 0.00 0.03 0.07 0.07 0.02 0.05 0.08 0.06 0.03 0.01 0.01 0.01 0.00 0.00 0.00 0.00 0.00 0.00 0.00 0.00 0.00 0.00 0.00 0.00 0.00 0.00 0.00 0.00 0.00 0.00 0.00 0.01 0.00 0.01 0.00 0.00 0.00 0.00
0.04 0.03 0.00 0.03 0.07 0.17 0.09 0.02 0.00 0.00 0.00 0.00 0.03 0.09 0.12 0.12 0.09 0.06 0.05 0.06 0.03 0.01 0.00 0.00 0.00 0.00 0.00 0.01 0.00 0.00 0.00 0.00 0.00 0.00 0.00 0.00 0.00 0.00 0.00 0.00 0.00 0.00 0.00 0.00 0.00 0.00 0.00 0.00 0.00
0.00 0.00 0.02 0.08 0.06 0.04 0.12 0.10 0.01 0.00 0.00 0.00 0.01 0.04 0.04 0.07 0.07 0.07 0.05 0.03 0.02 0.00 0.00 0.01 0.01 0.01 0.02 0.02 0.02 0.00 0.00 0.00 0.00 0.00 0.00 0.00 0.00 0.00 0.00 0.00 0.00 0.00 0.00 0.00 0.00 0.00 0.00 0.00 0.00
0.01 0.01 0.06 0.14 0.04 0.03 0.11 0.11 0.06 0.00 0.00 0.00 0.01 0.03 0.01 0.03 0.05 0.03 0.02 0.02 0.00 0.00 0.01 0.02 0.04 0.02 0.00 0.03 0.03 0.03 0.00 0.00 0.00 0.00 0.00 0.00 0.00 0.00 0.00 0.00 0.00 0.00 0.00 0.00 0.00 0.00 0.00 0.00 0.00
0.04 0.11 0.12 0.10 0.08 0.03 0.03 0.16 0.11 0.00 0.00 0.00 0.01 0.02 0.01 0.00 0.00 0.02 0.02 0.01 0.00 0.00 0.01 0.01 0.01 0.00 0.00 0.01 0.05 0.05 0.08 0.03 0.01 0.00 0.00 0.00 0.00 0.00 0.00 0.00 0.00 0.00 0.00 0.00 0.00 0.00 0.00 0.00 0.00
0.12 0.21 0.08 0.03 0.07 0.05 0.10 0.09 0.02 0.03 0.00 0.00 0.00 0.00 0.00 0.00 0.00 0.00 0.00 0.00 0.00 0.00 0.00 0.01 0.03 0.04 0.01 0.02 0.08 0.15 0.16 0.09 0.10 0.06 0.01 0.00 0.00 0.00 0.00 0.00 0.00 0.00 0.00 0.00 0.00 0.00 0.00 0.00 0.00
0.20 0.08 0.02 0.01 0.01 0.01 0.02 0.00 0.02 0.03 0.01 0.00 0.00 0.00 0.00 0.00 0.00 0.00 0.00 0.00 0.00 0.00 0.00 0.00 0.00 0.01 0.03 0.05 0.10 0.25 0.26 0.11 0.09 0.07 0.02 0.01 0.01 0.02 0.01 0.00 0.00 0.00 0.00 0.00 0.00 0.00 0.00 0.00 0.00
0.07 0.05 0.03 0.01 0.00 0.01 0.00 0.00 0.00 0.01 0.02 0.00 0.00 0.00 0.00 0.00 0.00 0.00 0.00 0.00 0.00 0.00 0.00 0.00 0.00 0.00 0.03 0.08 0.19 0.25 0.22 0.11 0.10 0.03 0.03 0.12 0.07 0.07 0.07 0.03 0.02 0.01 0.00 0.00 0.00 0.00 0.00 0.00 0.00
0.05 0.07 0.04 0.01 0.01 0.02 0.00 0.00 0.00 0.00 0.02 0.01 0.00 0.00 0.00 0.00 0.00 0.00 0.00 0.00 0.00 0.00 0.00 0.00 0.00 0.00 0.02 0.03 0.07 0.16 0.18 0.21 0.23 0.13 0.25 0.18 0.23 0.26 0.21 0.09 0.07 0.08 0.04 0.04 0.02 0.01 0.00 0.01 0.05
0.11 0.12 0.04 0.03 0.02 0.04 0.01 0.00 0.00 0.00 0.00 0.00 0.00 0.00 0.00 0.00 0.00 0.00 0.00 0.00 0.00 0.00 0.00 0.00 0.00 0.00 0.00 0.02 0.04 0.14 0.26 0.23 0.25 0.22 0.12 0.14 0.23 0.33 0.27 0.20 0.17 0.11 0.08 0.06 0.04 0.05 0.08 0.07 0.14
0.11 0.14 0.10 0.04 0.06 0.05 0.04 0.01 0.00 0.00 0.00 0.00 0.00 0.00 0.00 0.00 0.00 0.00 0.00 0.00 0.00 0.00 0.00 0.00 0.00 0.00 0.01 0.02 0.07 0.15 0.18 0.20 0.20 0.11 0.05 0.08 0.30 0.37 0.35 0.22 0.17 0.23 0.18 0.15 0.09 0.14 0.16 0.16 0.14
0.13 0.07 0.11 0.17 0.15 0.04 0.06 0.03 0.00 0.00 0.00 0.00 0.00 0.00 0.00 0.00 0.00 0.00 0.00 0.00 0.00 0.00 0.00 0.00 0.00 0.00 0.00 0.00 0.04 0.08 0.07 0.08 0.08 0.08 0.18 0.23 0.25 0.30 0.35 0.31 0.28 0.24 0.19 0.16 0.22 0.29 0.28 0.27 0.15
0.21 0.07 0.11 0.23 0.35 0.35 0.07 0.09 0.01 0.00 0.00 0.00 0.00 0.00 0.00 0.00 0.00 0.00 0.00 0.00 0.00 0.00 0.00 0.00 0.00 0.00 0.00 0.00 0.03 0.09 0.07 0.05 0.05 0.08 0.11 0.14 0.20 0.22 0.28 0.26 0.26 0.19 0.21 0.30 0.24 0.21 0.22 0.22 0.23
0.21 0.25 0.26 0.47 0.48 0.69 0.30 0.07 0.01 0.00 0.00 0.00 0.00 0.00 0.00 0.00 0.00 0.00 0.00 0.00 0.00 0.00 0.00 0.00 0.00 0.00 0.00 0.00 0.00 0.03 0.05 0.04 0.03 0.05 0.12 0.12 0.16 0.16 0.18 0.19 0.16 0.20 0.18 0.18 0.24 0.35 0.34 0.32 0.33
0.49 0.62 0.84 0.77 0.92 0.42 0.15 0.16 0.06 0.00 0.00 0.00 0.00 0.00 0.00 0.00 0.00 0.00 0.00 0.00 0.00 0.00 0.00 0.00 0.00 0.00 0.00 0.00 0.00 0.02 0.04 0.03 0.04 0.07 0.14 0.13 0.11 0.09 0.09 0.16 0.19 0.16 0.18 0.23 0.31 0.29 0.32 0.41 0.38
0.61 0.58 0.64 0.38 0.28 0.17 0.08 0.26 0.05 0.00 0.00 0.00 0.00 0.00 0.00 0.00 0.00 0.00 0.00 0.00 0.00 0.00 0.00 0.00 0.00 0.00 0.00 0.00 0.00 0.00 0.01 0.02 0.05 0.08 0.06 0.08 0.10 0.09 0.09 0.18 0.21 0.20 0.19 0.17 0.24 0.24 0.19 0.25 0.28
0.70 0.65 0.36 0.50 0.18 0.27 0.09 0.08 0.04 0.01 0.00 0.00 0.00 0.00 0.00 0.00 0.00 0.00 0.00 0.00 0.00 0.00 0.00 0.00 0.00 0.00 0.00 0.01 0.01 0.01 0.01 0.03 0.04 0.04 0.05 0.05 0.06 0.08 0.08 0.12 0.18 0.19 0.18 0.20 0.21 0.23 0.22 0.22 0.25
0.54 0.32 0.50 1.03 0.61 0.19 0.06 0.02 0.04 0.00 0.00 0.00 0.00 0.00 0.00 0.00 0.00 0.00 0.00 0.00 0.00 0.00 0.00 0.00 0.00 0.00 0.00 0.03 0.03 0.01 0.04 0.04 0.03 0.03 0.03 0.04 0.05 0.06 0.07 0.08 0.08 0.09 0.09 0.12 0.16 0.18 0.20 0.25 0.25
0.59 0.58 0.38 0.52 0.43 0.25 0.10 0.02 0.00 0.00 0.01 0.01 0.01 0.00 0.00 0.00 0.00 0.00 0.00 0.00 0.00 0.00 0.00 0.00 0.00 0.00 0.01 0.02 0.00 0.00 0.02 0.04 0.03 0.03 0.03 0.04 0.05 0.03 0.04 0.03 0.04 0.04 0.05 0.06 0.07 0.09 0.12 0.16 0.17
0.21 0.24 0.18 0.66 0.43 0.37 0.32 0.13 0.00 0.01 0.01 0.01 0.01 0.01 0.01 0.01 0.00 0.00 0.00 0.00 0.00 0.00 0.00 0.00 0.00 0.01 0.02 0.01 0.00 0.01 0.04 0.04 0.04 0.04 0.04 0.05 0.06 0.05 0.05 0.04 0.03 0.02 0.03 0.06 0.12 0.16 0.18 0.18 0.18

GFSSGP_prec_precacc_069.txt.gz
Total_Precipitation_Accumulation
0.00 0.00 0.00 0.00 0.00 0.00 0.00 0.00 0.00 0.00 0.00 0.00 0.00 0.00 0.00 0.00 0.00 0.00 0.00 0.00 0.00 0.00 0.01 0.02 0.06 0.10 0.08 0.08 0.06 0.04 0.06 0.06 0.04 0.06 0.09 0.03 0.00 0.00 0.01 0.02 0.03 0.07 0.14 0.31 0.29 0.10 0.01 0.00 0.00
0.00 0.00 0.00 0.00 0.00 0.00 0.00 0.00 0.00 0.00 0.00 0.00 0.00 0.00 0.00 0.00 0.00 0.00 0.00 0.00 0.00 0.00 0.00 0.01 0.05 0.08 0.05 0.07 0.04 0.03 0.05 0.03 0.02 0.07 0.03 0.00 0.00 0.00 0.01 0.03 0.07 0.10 0.19 0.16 0.03 0.00 0.00 0.00 0.00
0.00 0.00 0.00 0.00 0.00 0.00 0.00 0.00 0.00 0.00 0.00 0.00 0.00 0.00 0.00 0.00 0.00 0.00 0.00 0.00 0.00 0.00 0.00 0.02 0.06 0.06 0.05 0.05 0.04 0.03 0.03 0.02 0.03 0.02 0.00 0.02 0.04 0.06 0.06 0.06 0.05 0.03 0.02 0.00 0.00 0.00 0.00 0.00 0.00
0.00 0.00 0.00 0.00 0.00 0.00 0.00 0.00 0.00 0.00 0.00 0.00 0.00 0.00 0.00 0.00 0.00 0.00 0.00 0.00 0.00 0.00 0.00 0.02 0.07 0.05 0.03 0.05 0.05 0.03 0.03 0.03 0.02 0.01 0.00 0.02 0.05 0.09 0.11 0.03 0.00 0.00 0.00 0.00 0.00 0.00 0.00 0.00 0.00
0.00 0.00 0.00 0.00 0.00 0.00 0.00 0.00 0.00 0.00 0.00 0.00 0.00 0.00 0.00 0.00 0.00 0.00 0.00 0.00 0.00 0.00 0.00 0.02 0.06 0.05 0.03 0.05 0.05 0.03 0.04 0.02 0.01 0.01 0.02 0.03 0.05 0.11 0.14 0.03 0.00 0.00 0.00 0.00 0.00 0.00 0.00 0.00 0.00
0.15 0.04 0.01 0.00 0.00 0.00 0.00 0.00 0.00 0.00 0.00 0.00 0.00 0.00 0.02 0.01 0.00 0.01 0.00 0.00 0.00 0.00 0.00 0.02 0.05 0.06 0.04 0.04 0.04 0.04 0.04 0.03 0.01 0.01 0.04 0.03 0.04 0.09 0.13 0.05 0.00 0.00 0.00 0.00 0.00 0.00 0.00 0.01 0.01
0.29 0.23 0.04 0.00 0.00 0.00 0.00 0.00 0.00 0.00 0.00 0.00 0.00 0.02 0.08 0.03 0.01 0.02 0.00 0.00 0.00 0.00 0.00 0.01 0.03 0.04 0.03 0.03 0.03 0.04 0.03 0.03 0.01 0.00 0.01 0.02 0.03 0.05 0.08 0.02 0.00 0.00 0.00 0.01 0.00 0.00 0.00 0.01 0.02
0.14 0.26 0.13 0.02 0.00 0.00 0.00 0.00 0.00 0.00 0.00 0.00 0.00 0.01 0.06 0.02 0.00 0.03 0.02 0.01 0.00 0.00 0.01 0.00 0.01 0.02 0.02 0.01 0.01 0.02 0.03 0.01 0.00 0.00 0.00 0.00 0.00 0.01 0.02 0.00 0.00 0.00 0.01 0.01 0.01 0.01 0.03 0.03 0.02
0.20 0.26 0.29 0.08 0.01 0.00 0.00 0.00 0.00 0.00 0.00 0.00 0.00 0.00 0.00 0.01 0.01 0.03 0.02 0.01 0.03 0.02 0.04 0.03 0.02 0.01 0.01 0.00 0.00 0.00 0.02 0.01 0.00 0.00 0.00 0.00 0.00 0.00 0.00 0.00 0.00 0.00 0.02 0.02 0.02 0.01 0.03 0.02 0.01
0.43 0.43 0.09 0.02 0.01 0.01 0.02 0.00 0.00 0.00 0.00 0.01 0.02 0.02 0.02 0.05 0.12 0.07 0.06 0.02 0.03 0.04 0.05 0.02 0.01 0.00 0.01 0.00 0.00 0.00 0.00 0.00 0.00 0.00 0.00 0.00 0.00 0.00 0.00 0.00 0.00 0.00 0.03 0.02 0.03 0.01 0.01 0.01 0.00
0.27 0.24 0.01 0.01 0.03 0.14 0.07 0.01 0.00 0.00 0.00 0.00 0.03 0.07 0.08 0.04 0.12 0.15 0.10 0.04 0.01 0.01 0.01 0.00 0.00 0.00 0.00 0.00 0.00 0.00 0.00 0.00 0.00 0.00 0.00 0.00 0.00 0.00 0.00 0.00 0.00 0.00 0.01 0.00 0.01 0.00 0.00 0.00 0.00
0.06 0.03 0.01 0.04 0.08 0.17 0.09 0.02 0.00 0.00 0.00 0.00 0.03 0.09 0.13 0.17 0.20 0.18 0.15 0.11 0.05 0.02 0.00 0.00 0.00 0.00 0.00 0.01 0.00 0.00 0.00 0.00 0.00 0.00 0.00 0.00 0.00 0.00 0.00 0.00 0.00 0.00 0.00 0.00 0.00 0.00 0.00 0.00 0.00
0.01 0.02 0.04 0.11 0.07 0.04 0.12 0.10 0.01 0.00 0.00 0.00 0.01 0.04 0.04 0.09 0.13 0.15 0.12 0.05 0.03 0.01 0.00 0.01 0.01 0.01 0.02 0.02 0.02 0.00 0.00 0.00 0.00 0.00 0.00 0.00 0.00 0.00 0.00 0.00 0.00 0.00 0.00 0.00 0.00 0.00 0.00 0.00 0.00
0.01 0.03 0.08 0.17 0.08 0.04 0.11 0.11 0.06 0.00 0.00 0.00 0.01 0.03 0.01 0.04 0.07 0.08 0.09 0.11 0.09 0.02 0.01 0.02 0.04 0.02 0.00 0.03 0.03 0.03 0.00 0.00 0.00 0.00 0.00 0.00 0.00 0.00 0.00 0.00 0.00 0.00 0.00 0.00 0.00 0.00 0.00 0.00 0.00
0.05 0.13 0.18 0.14 0.15 0.10 0.05 0.16 0.11 0.00 0.00 0.00 0.01 0.02 0.01 0.00 0.00 0.05 0.05 0.09 0.11 0.05 0.01 0.01 0.01 0.00 0.00 0.01 0.05 0.05 0.08 0.03 0.01 0.00 0.00 0.00 0.00 0.00 0.00 0.00 0.00 0.00 0.00 0.00 0.00 0.00 0.00 0.00 0.00
0.15 0.24 0.10 0.06 0.12 0.24 0.20 0.13 0.02 0.03 0.00 0.00 0.00 0.00 0.00 0.00 0.00 0.00 0.00 0.03 0.04 0.03 0.00 0.01 0.03 0.04 0.01 0.02 0.08 0.15 0.16 0.09 0.10 0.06 0.01 0.00 0.00 0.00 0.00 0.00 0.00 0.00 0.00 0.00 0.00 0.00 0.00 0.00 0.00
0.22 0.08 0.02 0.01 0.04 0.10 0.08 0.03 0.02 0.03 0.01 0.00 0.00 0.00 0.00 0.00 0.00 0.00 0.00 0.00 0.00 0.00 0.00 0.00 0.00 0.01 0.03 0.05 0.10 0.25 0.26 0.11 0.09 0.07 0.02 0.01 0.01 0.02 0.01 0.00 0.00 0.00 0.00 0.00 0.00 0.00 0.00 0.00 0.00
0.07 0.05 0.03 0.01 0.00 0.02 0.01 0.00 0.00 0.02 0.02 0.00 0.00 0.00 0.00 0.00 0.00 0.00 0.00 0.00 0.00 0.00 0.00 0.00 0.00 0.00 0.03 0.08 0.19 0.25 0.22 0.11 0.10 0.03 0.03 0.12 0.07 0.07 0.07 0.03 0.02 0.01 0.00 0.00 0.00 0.00 0.00 0.00 0.00
0.05 0.07 0.04 0.01 0.01 0.02 0.00 0.00 0.01 0.00 0.02 0.01 0.01 0.00 0.00 0.00 0.00 0.00 0.00 0.00 0.00 0.00 0.00 0.00 0.00 0.00 0.02 0.03 0.07 0.16 0.18 0.21 0.23 0.13 0.25 0.18 0.24 0.26 0.21 0.09 0.07 0.08 0.04 0.04 0.02 0.01 0.00 0.01 0.05
0.11 0.12 0.04 0.03 0.02 0.04 0.01 0.00 0.00 0.00 0.00 0.00 0.00 0.00 0.00 0.00 0.00 0.00 0.00 0.00 0.00 0.00 0.00 0.00 0.00 0.00 0.00 0.02 0.04 0.14 0.26 0.23 0.25 0.22 0.12 0.15 0.23 0.34 0.27 0.20 0.17 0.11 0.08 0.06 0.04 0.05 0.08 0.07 0.14
0.11 0.14 0.10 0.04 0.06 0.05 0.04 0.01 0.00 0.00 0.00 0.00 0.00 0.00 0.00 0.00 0.00 0.00 0.00 0.00 0.00 0.00 0.00 0.00 0.00 0.00 0.01 0.02 0.07 0.15 0.18 0.20 0.20 0.11 0.05 0.08 0.30 0.37 0.35 0.22 0.17 0.23 0.18 0.15 0.09 0.14 0.16 0.16 0.14
0.13 0.07 0.11 0.17 0.15 0.04 0.06 0.03 0.00 0.00 0.00 0.00 0.00 0.00 0.00 0.00 0.00 0.00 0.00 0.00 0.00 0.00 0.00 0.00 0.00 0.00 0.00 0.00 0.04 0.08 0.07 0.08 0.08 0.08 0.18 0.23 0.25 0.30 0.35 0.31 0.28 0.24 0.19 0.16 0.22 0.29 0.28 0.27 0.16
0.21 0.07 0.11 0.23 0.35 0.35 0.07 0.09 0.01 0.00 0.00 0.00 0.00 0.00 0.00 0.00 0.00 0.00 0.00 0.00 0.00 0.00 0.00 0.00 0.00 0.00 0.00 0.00 0.03 0.09 0.07 0.05 0.05 0.08 0.11 0.14 0.20 0.22 0.28 0.26 0.26 0.19 0.21 0.30 0.24 0.21 0.22 0.22 0.24
0.21 0.25 0.26 0.47 0.48 0.69 0.30 0.07 0.01 0.00 0.00 0.00 0.00 0.00 0.00 0.00 0.00 0.00 0.00 0.00 0.00 0.00 0.00 0.00 0.00 0.00 0.00 0.00 0.00 0.03 0.05 0.04 0.03 0.05 0.12 0.12 0.16 0.16 0.18 0.19 0.16 0.20 0.18 0.18 0.24 0.35 0.34 0.32 0.33
0.49 0.62 0.84 0.78 0.92 0.42 0.15 0.16 0.06 0.00 0.00 0.00 0.00 0.00 0.00 0.00 0.00 0.00 0.00 0.00 0.00 0.00 0.00 0.00 0.00 0.00 0.00 0.00 0.00 0.02 0.04 0.03 0.04 0.07 0.14 0.13 0.11 0.09 0.09 0.16 0.19 0.16 0.18 0.23 0.31 0.29 0.32 0.41 0.39
0.61 0.58 0.64 0.38 0.28 0.17 0.08 0.26 0.05 0.00 0.00 0.00 0.00 0.00 0.00 0.00 0.00 0.00 0.00 0.00 0.00 0.00 0.00 0.00 0.00 0.00 0.00 0.00 0.00 0.00 0.01 0.02 0.05 0.08 0.06 0.08 0.10 0.09 0.09 0.18 0.21 0.20 0.19 0.17 0.24 0.24 0.20 0.25 0.29
0.70 0.65 0.36 0.50 0.18 0.27 0.09 0.08 0.04 0.01 0.00 0.00 0.00 0.00 0.00 0.00 0.00 0.00 0.00 0.00 0.00 0.00 0.00 0.00 0.00 0.00 0.00 0.01 0.01 0.01 0.01 0.03 0.04 0.04 0.05 0.05 0.06 0.08 0.08 0.12 0.18 0.19 0.18 0.20 0.21 0.23 0.22 0.22 0.25
0.54 0.32 0.50 1.03 0.61 0.19 0.06 0.02 0.04 0.00 0.00 0.00 0.00 0.00 0.00 0.00 0.00 0.00 0.00 0.00 0.00 0.00 0.00 0.00 0.00 0.00 0.00 0.03 0.03 0.01 0.04 0.04 0.03 0.03 0.03 0.04 0.05 0.06 0.07 0.08 0.08 0.09 0.09 0.12 0.16 0.18 0.20 0.25 0.25
0.59 0.58 0.38 0.52 0.43 0.25 0.10 0.02 0.00 0.00 0.01 0.01 0.01 0.00 0.00 0.00 0.00 0.00 0.00 0.00 0.00 0.00 0.00 0.00 0.00 0.00 0.01 0.02 0.00 0.00 0.02 0.04 0.03 0.03 0.03 0.04 0.05 0.03 0.04 0.03 0.04 0.04 0.05 0.06 0.07 0.09 0.12 0.16 0.17
0.21 0.24 0.18 0.66 0.43 0.37 0.32 0.13 0.00 0.01 0.01 0.01 0.01 0.01 0.01 0.01 0.00 0.00 0.00 0.00 0.00 0.00 0.00 0.00 0.00 0.01 0.02 0.01 0.00 0.01 0.04 0.04 0.04 0.04 0.04 0.05 0.06 0.05 0.05 0.04 0.03 0.02 0.03 0.06 0.12 0.16 0.18 0.18 0.18

GFSSGP_prec_precacc_072.txt.gz
Total_Precipitation_Accumulation
0.00 0.00 0.00 0.00 0.00 0.00 0.00 0.00 0.00 0.00 0.00 0.00 0.00 0.00 0.00 0.00 0.00 0.00 0.00 0.00 0.00 0.00 0.02 0.02 0.07 0.11 0.08 0.09 0.06 0.04 0.06 0.06 0.04 0.06 0.09 0.03 0.00 0.00 0.01 0.02 0.03 0.07 0.14 0.31 0.29 0.10 0.01 0.00 0.00
0.00 0.00 0.00 0.00 0.00 0.00 0.00 0.00 0.00 0.00 0.00 0.00 0.00 0.00 0.00 0.00 0.00 0.00 0.00 0.00 0.00 0.00 0.00 0.01 0.05 0.09 0.06 0.07 0.04 0.04 0.05 0.03 0.02 0.07 0.03 0.00 0.00 0.01 0.01 0.03 0.07 0.10 0.19 0.16 0.03 0.00 0.00 0.00 0.00
0.00 0.00 0.00 0.00 0.00 0.00 0.00 0.00 0.00 0.00 0.00 0.00 0.00 0.00 0.00 0.00 0.00 0.00 0.00 0.00 0.00 0.00 0.00 0.02 0.06 0.07 0.05 0.05 0.04 0.04 0.03 0.02 0.03 0.02 0.00 0.02 0.04 0.07 0.06 0.06 0.05 0.03 0.02 0.00 0.00 0.00 0.00 0.00 0.00
0.00 0.00 0.00 0.00 0.00 0.00 0.00 0.00 0.00 0.00 0.00 0.00 0.00 0.00 0.00 0.00 0.00 0.00 0.00 0.00 0.00 0.00 0.00 0.03 0.07 0.06 0.04 0.05 0.05 0.03 0.03 0.03 0.02 0.01 0.00 0.02 0.05 0.11 0.11 0.03 0.00 0.00 0.00 0.00 0.00 0.00 0.00 0.00 0.00
0.00 0.00 0.00 0.00 0.00 0.00 0.00 0.00 0.00 0.00 0.00 0.00 0.00 0.00 0.00 0.00 0.00 0.00 0.00 0.00 0.00 0.00 0.00 0.02 0.07 0.05 0.03 0.05 0.05 0.03 0.04 0.02 0.01 0.01 0.02 0.03 0.05 0.13 0.14 0.03 0.00 0.00 0.00 0.00 0.00 0.00 0.00 0.00 0.00
0.16 0.04 0.01 0.00 0.00 0.00 0.00 0.00 0.00 0.00 0.00 0.00 0.00 0.00 0.02 0.01 0.00 0.02 0.00 0.00 0.00 0.00 0.00 0.02 0.06 0.06 0.04 0.04 0.04 0.04 0.04 0.03 0.01 0.01 0.04 0.03 0.05 0.10 0.13 0.05 0.00 0.00 0.00 0.00 0.00 0.00 0.00 0.01 0.01
0.31 0.23 0.04 0.00 0.00 0.00 0.00 0.00 0.00 0.00 0.00 0.00 0.00 0.02 0.08 0.03 0.01 0.03 0.01 0.00 0.00 0.00 0.00 0.02 0.03 0.04 0.03 0.03 0.03 0.04 0.03 0.03 0.01 0.01 0.01 0.02 0.04 0.06 0.08 0.02 0.00 0.00 0.00 0.01 0.00 0.00 0.00 0.01 0.02
0.16 0.27 0.13 0.02 0.00 0.00 0.00 0.00 0.00 0.00 0.00 0.00 0.00 0.01 0.06 0.02 0.01 0.04 0.03 0.02 0.00 0.00 0.01 0.01 0.01 0.02 0.02 0.01 0.01 0.02 0.03 0.01 0.00 0.00 0.00 0.00 0.00 0.01 0.02 0.00 0.00 0.00 0.01 0.01 0.01 0.01 0.03 0.03 0.02
0.28 0.31 0.30 0.08 0.01 0.00 0.00 0.00 0.00 0.00 0.00 0.00 0.00 0.00 0.00 0.01 0.03 0.04 0.03 0.03 0.04 0.04 0.05 0.04 0.03 0.01 0.01 0.00 0.00 0.00 0.02 0.01 0.00 0.00 0.00 0.00 0.00 0.00 0.00 0.00 0.00 0.00 0.02 0.02 0.02 0.01 0.03 0.02 0.01
0.49 0.46 0.09 0.02 0.01 0.01 0.02 0.00 0.00 0.00 0.00 0.01 0.02 0.02 0.03 0.06 0.13 0.08 0.07 0.03 0.04 0.05 0.06 0.03 0.02 0.01 0.01 0.00 0.00 0.00 0.00 0.00 0.00 0.00 0.00 0.00 0.00 0.00 0.00 0.00 0.00 0.00 0.03 0.02 0.03 0.01 0.01 0.01 0.00
0.31 0.26 0.01 0.01 0.03 0.14 0.07 0.01 0.00 0.00 0.00 0.00 0.03 0.07 0.09 0.06 0.14 0.23 0.11 0.04 0.01 0.01 0.01 0.01 0.01 0.01 0.00 0.00 0.00 0.00 0.00 0.00 0.00 0.00 0.00 0.00 0.00 0.00 0.00 0.00 0.00 0.00 0.01 0.00 0.01 0.00 0.00 0.00 0.00
0.08 0.05 0.02 0.04 0.09 0.17 0.09 0.02 0.00 0.00 0.00 0.00 0.03 0.09 0.15 0.20 0.23 0.21 0.17 0.12 0.05 0.02 0.00 0.01 0.01 0.01 0.00 0.01 0.00 0.00 0.00 0.00 0.00 0.00 0.00 0.00 0.00 0.00 0.00 0.00 0.00 0.00 0.00 0.00 0.00 0.00 0.00 0.00 0.00
0.02 0.04 0.05 0.13 0.07 0.04 0.12 0.10 0.01 0.00 0.00 0.00 0.01 0.04 0.06 0.16 0.17 0.18 0.15 0.05 0.03 0.02 0.00 0.01 0.02 0.01 0.02 0.02 0.02 0.00 0.00 0.00 0.00 0.00 0.00 0.00 0.00 0.00 0.00 0.00 0.00 0.00 0.00 0.00 0.00 0.00 0.00 0.00 0.00
0.02 0.06 0.12 0.20 0.10 0.04 0.11 0.11 0.06 0.00 0.00 0.00 0.01 0.03 0.02 0.05 0.07 0.08 0.09 0.17 0.22 0.04 0.01 0.02 0.04 0.03 0.01 0.03 0.03 0.03 0.00 0.00 0.00 0.00 0.00 0.00 0.00 0.00 0.00 0.00 0.00 0.00 0.00 0.00 0.00 0.00 0.00 0.00 0.00
0.07 0.15 0.23 0.22 0.22 0.13 0.05 0.18 0.11 0.00 0.00 0.00 0.01 0.02 0.01 0.00 0.00 0.05 0.05 0.11 0.14 0.13 0.05 0.01 0.01 0.00 0.00 0.01 0.05 0.05 0.08 0.03 0.01 0.00 0.00 0.00 0.00 0.00 0.00 0.00 0.00 0.00 0.00 0.00 0.00 0.00 0.00 0.00 0.00
0.21 0.28 0.13 0.08 0.18 0.28 0.22 0.15 0.02 0.03 0.00 0.00 0.00 0.00 0.00 0.00 0.00 0.00 0.00 0.05 0.05 0.03 0.02 0.01 0.03 0.04 0.01 0.02 0.08 0.15 0.16 0.09 0.10 0.06 0.01 0.00 0.00 0.00 0.00 0.00 0.00 0.00 0.00 0.00 0.00 0.00 0.00 0.00 0.00
0.25 0.09 0.03 0.02 0.06 0.11 0.09 0.03 0.02 0.04 0.01 0.00 0.00 0.00 0.00 0.00 0.00 0.00 0.00 0.00 0.01 0.00 0.02 0.02 0.02 0.01 0.03 0.05 0.10 0.25 0.26 0.11 0.09 0.07 0.02 0.01 0.01 0.02 0.01 0.00 0.00 0.00 0.00 0.00 0.00 0.00 0.00 0.00 0.00
0.07 0.05 0.03 0.01 0.02 0.02 0.01 0.00 0.01 0.02 0.02 0.00 0.00 0.00 0.00 0.00 0.00 0.00 0.00 0.00 0.00 0.00 0.01 0.02 0.04 0.01 0.03 0.08 0.19 0.25 0.22 0.11 0.10 0.03 0.03 0.12 0.07 0.07 0.07 0.03 0.02 0.01 0.00 0.00 0.00 0.00 0.00 0.00 0.00
0.05 0.08 0.04 0.01 0.01 0.02 0.00 0.01 0.01 0.00 0.02 0.01 0.01 0.00 0.00 0.00 0.00 0.00 0.00 0.00 0.00 0.00 0.00 0.00 0.00 0.00 0.02 0.03 0.07 0.16 0.18 0.21 0.23 0.13 0.25 0.18 0.24 0.26 0.21 0.09 0.07 0.08 0.04 0.04 0.02 0.01 0.00 0.01 0.05
0.11 0.12 0.05 0.03 0.03 0.05 0.01 0.00 0.00 0.00 0.00 0.00 0.00 0.00 0.00 0.00 0.00 0.00 0.00 0.00 0.00 0.00 0.00 0.00 0.00 0.00 0.00 0.02 0.04 0.14 0.26 0.23 0.25 0.22 0.12 0.15 0.23 0.34 0.27 0.20 0.17 0.11 0.08 0.06 0.04 0.05 0.08 0.07 0.14
0.11 0.14 0.10 0.04 0.06 0.05 0.04 0.01 0.00 0.00 0.00 0.00 0.00 0.00 0.00 0.00 0.00 0.00 0.00 0.00 0.00 0.00 0.00 0.00 0.00 0.00 0.01 0.02 0.07 0.15 0.18 0.20 0.20 0.11 0.05 0.08 0.30 0.37 0.35 0.22 0.17 0.23 0.18 0.15 0.10 0.15 0.17 0.16 0.14
0.13 0.07 0.11 0.17 0.15 0.04 0.06 0.03 0.00 0.00 0.00 0.00 0.00 0.00 0.00 0.00 0.00 0.00 0.00 0.00 0.00 0.00 0.00 0.00 0.00 0.00 0.00 0.00 0.04 0.08 0.07 0.08 0.08 0.08 0.18 0.23 0.25 0.30 0.35 0.31 0.28 0.24 0.19 0.16 0.22 0.30 0.28 0.27 0.16
0.21 0.07 0.11 0.23 0.35 0.35 0.07 0.09 0.01 0.00 0.00 0.00 0.00 0.00 0.00 0.00 0.00 0.00 0.00 0.00 0.00 0.00 0.00 0.00 0.00 0.00 0.00 0.00 0.03 0.09 0.07 0.05 0.05 0.08 0.11 0.14 0.20 0.22 0.28 0.26 0.26 0.19 0.21 0.30 0.24 0.21 0.22 0.23 0.24
0.21 0.25 0.26 0.47 0.48 0.69 0.30 0.07 0.01 0.00 0.00 0.00 0.00 0.00 0.00 0.00 0.00 0.00 0.00 0.00 0.00 0.00 0.00 0.00 0.00 0.00 0.00 0.00 0.00 0.03 0.05 0.04 0.03 0.05 0.12 0.12 0.16 0.16 0.18 0.19 0.16 0.20 0.18 0.18 0.24 0.35 0.35 0.32 0.34
0.49 0.62 0.85 0.78 0.93 0.43 0.15 0.16 0.06 0.00 0.00 0.00 0.00 0.00 0.00 0.00 0.00 0.00 0.00 0.00 0.00 0.00 0.00 0.00 0.00 0.00 0.00 0.00 0.00 0.02 0.04 0.03 0.04 0.07 0.14 0.13 0.11 0.09 0.09 0.16 0.19 0.16 0.18 0.23 0.31 0.29 0.32 0.41 0.39
0.61 0.58 0.64 0.38 0.29 0.17 0.08 0.26 0.05 0.00 0.00 0.00 0.00 0.00 0.00 0.00 0.00 0.00 0.00 0.00 0.00 0.00 0.00 0.00 0.00 0.00 0.00 0.00 0.00 0.00 0.01 0.02 0.05 0.08 0.06 0.08 0.10 0.09 0.09 0.18 0.21 0.20 0.19 0.17 0.24 0.24 0.20 0.25 0.29
0.70 0.65 0.36 0.50 0.18 0.27 0.09 0.08 0.04 0.01 0.00 0.00 0.00 0.00 0.00 0.00 0.00 0.00 0.00 0.00 0.00 0.00 0.00 0.00 0.00 0.00 0.00 0.01 0.01 0.01 0.01 0.03 0.04 0.04 0.05 0.05 0.06 0.08 0.08 0.12 0.18 0.19 0.18 0.20 0.21 0.23 0.22 0.22 0.25
0.54 0.32 0.50 1.03 0.61 0.19 0.06 0.02 0.04 0.00 0.00 0.00 0.00 0.00 0.00 0.00 0.00 0.00 0.00 0.00 0.00 0.00 0.00 0.00 0.00 0.00 0.00 0.03 0.03 0.01 0.04 0.04 0.03 0.03 0.03 0.04 0.05 0.06 0.07 0.08 0.08 0.09 0.09 0.12 0.16 0.18 0.20 0.25 0.25
0.60 0.58 0.38 0.52 0.43 0.25 0.10 0.02 0.00 0.00 0.01 0.01 0.01 0.00 0.00 0.00 0.00 0.00 0.00 0.00 0.00 0.00 0.00 0.00 0.00 0.00 0.01 0.02 0.00 0.00 0.02 0.04 0.03 0.03 0.03 0.04 0.05 0.03 0.04 0.03 0.04 0.04 0.05 0.06 0.07 0.09 0.12 0.16 0.17
0.21 0.24 0.18 0.66 0.43 0.37 0.32 0.13 0.00 0.01 0.01 0.01 0.01 0.01 0.01 0.01 0.00 0.00 0.00 0.00 0.00 0.00 0.00 0.00 0.00 0.01 0.02 0.01 0.00 0.01 0.04 0.04 0.04 0.04 0.04 0.05 0.06 0.05 0.05 0.04 0.03 0.02 0.03 0.06 0.12 0.16 0.18 0.18 0.18

GFSSGP_prec_precacc_075.txt.gz
Total_Precipitation_Accumulation
0.00 0.00 0.00 0.00 0.00 0.00 0.00 0.00 0.00 0.00 0.00 0.00 0.00 0.00 0.01 0.00 0.00 0.00 0.00 0.00 0.00 0.00 0.02 0.02 0.07 0.11 0.10 0.09 0.06 0.04 0.06 0.06 0.04 0.06 0.09 0.03 0.01 0.00 0.01 0.02 0.03 0.07 0.14 0.31 0.29 0.10 0.01 0.00 0.00
0.00 0.00 0.00 0.00 0.00 0.00 0.00 0.00 0.00 0.00 0.00 0.00 0.00 0.00 0.00 0.00 0.00 0.00 0.00 0.00 0.00 0.00 0.00 0.02 0.06 0.09 0.07 0.07 0.04 0.04 0.05 0.03 0.02 0.07 0.03 0.00 0.01 0.01 0.01 0.03 0.07 0.10 0.19 0.16 0.03 0.00 0.00 0.00 0.00
0.00 0.00 0.00 0.00 0.00 0.00 0.00 0.00 0.00 0.00 0.00 0.00 0.00 0.00 0.00 0.00 0.00 0.00 0.00 0.00 0.00 0.00 0.00 0.03 0.07 0.08 0.05 0.05 0.04 0.04 0.03 0.02 0.03 0.02 0.00 0.02 0.06 0.07 0.06 0.06 0.05 0.03 0.02 0.00 0.00 0.00 0.00 0.00 0.00
0.00 0.00 0.00 0.00 0.00 0.00 0.00 0.00 0.00 0.00 0.00 0.00 0.00 0.00 0.00 0.00 0.00 0.00 0.00 0.00 0.00 0.00 0.00 0.03 0.08 0.06 0.04 0.05 0.06 0.04 0.03 0.03 0.02 0.01 0.00 0.02 0.07 0.11 0.11 0.03 0.00 0.00 0.00 0.00 0.00 0.00 0.00 0.00 0.00
0.00 0.00 0.00 0.00 0.00 0.00 0.00 0.00 0.00 0.00 0.00 0.00 0.00 0.00 0.00 0.00 0.00 0.00 0.00 0.00 0.00 0.00 0.00 0.03 0.08 0.05 0.03 0.05 0.05 0.03 0.04 0.02 0.01 0.01 0.02 0.03 0.07 0.13 0.14 0.03 0.00 0.00 0.00 0.00 0.00 0.00 0.00 0.00 0.00
0.19 0.04 0.01 0.00 0.00 0.00 0.00 0.00 0.00 0.00 0.00 0.00 0.00 0.00 0.02 0.01 0.00 0.02 0.00 0.00 0.00 0.00 0.00 0.03 0.07 0.06 0.04 0.04 0.04 0.04 0.04 0.03 0.01 0.01 0.04 0.04 0.07 0.10 0.13 0.05 0.00 0.00 0.00 0.00 0.00 0.00 0.00 0.01 0.01
0.36 0.23 0.04 0.00 0.00 0.00 0.00 0.00 0.00 0.00 0.00 0.00 0.00 0.02 0.08 0.03 0.02 0.03 0.01 0.00 0.00 0.00 0.00 0.02 0.04 0.04 0.03 0.03 0.03 0.04 0.03 0.03 0.01 0.01 0.01 0.03 0.05 0.06 0.08 0.02 0.00 0.00 0.00 0.01 0.00 0.00 0.00 0.01 0.02
0.18 0.29 0.14 0.02 0.00 0.00 0.00 0.00 0.00 0.00 0.00 0.00 0.00 0.01 0.08 0.03 0.03 0.05 0.03 0.02 0.00 0.00 0.01 0.02 0.02 0.02 0.02 0.01 0.01 0.02 0.03 0.01 0.00 0.00 0.00 0.00 0.00 0.01 0.02 0.00 0.00 0.00 0.01 0.01 0.01 0.01 0.03 0.03 0.02
0.32 0.38 0.32 0.08 0.01 0.00 0.00 0.00 0.00 0.00 0.00 0.00 0.00 0.02 0.02 0.03 0.08 0.08 0.05 0.03 0.04 0.04 0.06 0.04 0.03 0.01 0.01 0.00 0.00 0.00 0.02 0.01 0.00 0.00 0.00 0.00 0.00 0.00 0.00 0.00 0.00 0.00 0.02 0.02 0.02 0.01 0.03 0.02 0.01
0.67 0.62 0.10 0.02 0.01 0.01 0.02 0.00 0.00 0.00 0.00 0.01 0.02 0.02 0.03 0.08 0.19 0.14 0.10 0.04 0.05 0.06 0.07 0.04 0.02 0.01 0.01 0.00 0.00 0.00 0.00 0.00 0.00 0.00 0.00 0.00 0.00 0.00 0.00 0.00 0.00 0.00 0.03 0.02 0.03 0.01 0.01 0.01 0.00
0.40 0.45 0.04 0.01 0.04 0.14 0.07 0.01 0.00 0.00 0.00 0.00 0.03 0.07 0.10 0.09 0.18 0.25 0.13 0.05 0.03 0.02 0.02 0.02 0.02 0.01 0.01 0.00 0.00 0.00 0.00 0.00 0.00 0.00 0.00 0.00 0.00 0.00 0.00 0.00 0.00 0.00 0.01 0.00 0.01 0.00 0.00 0.00 0.00
0.10 0.09 0.08 0.07 0.09 0.17 0.09 0.02 0.00 0.00 0.00 0.00 0.03 0.09 0.17 0.24 0.25 0.23 0.19 0.13 0.05 0.02 0.01 0.02 0.02 0.02 0.01 0.01 0.00 0.00 0.00 0.00 0.00 0.00 0.00 0.00 0.00 0.00 0.00 0.00 0.00 0.00 0.00 0.00 0.00 0.00 0.00 0.00 0.00
0.04 0.07 0.07 0.23 0.08 0.04 0.12 0.10 0.01 0.00 0.00 0.00 0.01 0.04 0.08 0.23 0.23 0.20 0.17 0.09 0.05 0.02 0.00 0.02 0.03 0.01 0.02 0.03 0.02 0.00 0.00 0.00 0.00 0.00 0.00 0.00 0.00 0.00 0.00 0.00 0.00 0.00 0.00 0.00 0.00 0.00 0.00 0.00 0.00
0.02 0.07 0.14 0.26 0.18 0.05 0.11 0.11 0.06 0.00 0.00 0.00 0.01 0.03 0.03 0.07 0.11 0.12 0.10 0.18 0.24 0.06 0.02 0.04 0.06 0.03 0.01 0.03 0.03 0.03 0.00 0.00 0.00 0.00 0.00 0.00 0.00 0.00 0.00 0.00 0.00 0.00 0.00 0.00 0.00 0.00 0.00 0.00 0.00
0.07 0.18 0.27 0.26 0.37 0.17 0.06 0.21 0.11 0.00 0.00 0.00 0.01 0.02 0.01 0.01 0.06 0.05 0.05 0.11 0.14 0.18 0.12 0.06 0.03 0.01 0.01 0.01 0.05 0.05 0.08 0.03 0.01 0.00 0.00 0.00 0.00 0.00 0.00 0.00 0.00 0.00 0.00 0.00 0.00 0.00 0.00 0.00 0.00
0.23 0.32 0.17 0.10 0.24 0.34 0.25 0.16 0.02 0.03 0.00 0.00 0.00 0.00 0.00 0.01 0.01 0.00 0.00 0.05 0.05 0.04 0.03 0.05 0.03 0.04 0.01 0.02 0.08 0.15 0.16 0.09 0.10 0.06 0.01 0.00 0.00 0.00 0.00 0.00 0.00 0.00 0.00 0.00 0.00 0.00 0.00 0.00 0.00
0.28 0.11 0.04 0.05 0.09 0.15 0.10 0.05 0.02 0.04 0.01 0.00 0.00 0.00 0.00 0.00 0.00 0.00 0.00 0.00 0.01 0.00 0.02 0.03 0.03 0.01 0.03 0.05 0.10 0.25 0.26 0.11 0.09 0.07 0.02 0.01 0.01 0.02 0.01 0.00 0.00 0.00 0.00 0.00 0.00 0.00 0.00 0.00 0.00
0.07 0.05 0.03 0.02 0.04 0.06 0.05 0.03 0.01 0.02 0.02 0.00 0.00 0.00 0.00 0.00 0.00 0.00 0.00 0.00 0.00 0.00 0.01 0.02 0.04 0.01 0.03 0.08 0.19 0.25 0.22 0.11 0.10 0.03 0.03 0.12 0.07 0.07 0.07 0.03 0.02 0.01 0.00 0.00 0.00 0.00 0.00 0.00 0.00
0.05 0.08 0.05 0.01 0.02 0.04 0.02 0.02 0.02 0.00 0.02 0.01 0.01 0.00 0.00 0.00 0.00 0.00 0.00 0.00 0.00 0.00 0.00 0.00 0.00 0.00 0.02 0.03 0.07 0.16 0.18 0.21 0.23 0.13 0.25 0.18 0.24 0.26 0.21 0.09 0.07 0.08 0.04 0.04 0.03 0.02 0.01 0.01 0.05
0.11 0.13 0.07 0.04 0.04 0.06 0.02 0.00 0.00 0.00 0.00 0.00 0.00 0.00 0.00 0.00 0.00 0.00 0.00 0.00 0.00 0.00 0.00 0.00 0.00 0.00 0.00 0.02 0.04 0.14 0.26 0.23 0.25 0.22 0.12 0.15 0.23 0.34 0.27 0.20 0.17 0.12 0.08 0.06 0.04 0.05 0.09 0.07 0.14
0.11 0.14 0.11 0.05 0.08 0.07 0.05 0.01 0.00 0.00 0.00 0.00 0.00 0.00 0.00 0.00 0.00 0.00 0.00 0.00 0.00 0.00 0.00 0.00 0.00 0.00 0.01 0.02 0.07 0.15 0.18 0.20 0.20 0.11 0.05 0.08 0.30 0.37 0.35 0.22 0.18 0.24 0.19 0.16 0.10 0.16 0.18 0.17 0.15
0.14 0.07 0.11 0.17 0.16 0.04 0.06 0.03 0.00 0.00 0.00 0.00 0.00 0.00 0.00 0.00 0.00 0.00 0.00 0.00 0.00 0.00 0.00 0.00 0.00 0.00 0.00 0.00 0.04 0.08 0.07 0.08 0.08 0.08 0.18 0.23 0.25 0.30 0.35 0.31 0.28 0.24 0.19 0.16 0.23 0.30 0.29 0.28 0.16
0.21 0.07 0.11 0.24 0.36 0.35 0.07 0.09 0.01 0.00 0.00 0.00 0.00 0.00 0.00 0.00 0.00 0.00 0.00 0.00 0.00 0.00 0.00 0.00 0.00 0.00 0.00 0.00 0.03 0.09 0.07 0.05 0.05 0.08 0.11 0.14 0.20 0.22 0.28 0.26 0.26 0.19 0.21 0.30 0.24 0.21 0.22 0.23 0.25
0.21 0.25 0.26 0.47 0.48 0.69 0.30 0.07 0.01 0.00 0.00 0.00 0.00 0.00 0.00 0.00 0.00 0.00 0.00 0.00 0.00 0.00 0.00 0.00 0.00 0.00 0.00 0.00 0.00 0.03 0.05 0.04 0.03 0.05 0.12 0.12 0.16 0.16 0.18 0.19 0.16 0.20 0.18 0.18 0.24 0.35 0.35 0.32 0.34
0.50 0.63 0.85 0.78 0.93 0.43 0.15 0.16 0.06 0.00 0.00 0.00 0.00 0.00 0.00 0.00 0.00 0.00 0.00 0.00 0.00 0.00 0.00 0.00 0.00 0.00 0.00 0.00 0.00 0.02 0.04 0.03 0.04 0.07 0.14 0.13 0.11 0.09 0.09 0.16 0.19 0.16 0.18 0.23 0.31 0.29 0.32 0.41 0.40
0.63 0.58 0.64 0.38 0.29 0.17 0.08 0.26 0.05 0.00 0.00 0.00 0.00 0.00 0.00 0.00 0.00 0.00 0.00 0.00 0.00 0.00 0.00 0.00 0.00 0.00 0.00 0.00 0.00 0.00 0.01 0.02 0.05 0.08 0.06 0.08 0.10 0.09 0.09 0.18 0.21 0.20 0.19 0.17 0.24 0.24 0.20 0.26 0.29
0.72 0.66 0.36 0.50 0.18 0.27 0.09 0.08 0.04 0.01 0.00 0.00 0.00 0.00 0.00 0.00 0.00 0.00 0.00 0.00 0.00 0.00 0.00 0.00 0.00 0.00 0.00 0.01 0.01 0.01 0.01 0.03 0.04 0.04 0.05 0.05 0.06 0.08 0.08 0.12 0.18 0.19 0.18 0.20 0.21 0.23 0.22 0.22 0.25
0.55 0.32 0.51 1.03 0.61 0.19 0.06 0.02 0.04 0.00 0.00 0.00 0.00 0.00 0.00 0.00 0.00 0.00 0.00 0.00 0.00 0.00 0.00 0.00 0.00 0.00 0.00 0.03 0.03 0.01 0.04 0.04 0.03 0.03 0.03 0.04 0.05 0.06 0.07 0.08 0.08 0.09 0.09 0.12 0.16 0.18 0.20 0.25 0.25
0.60 0.58 0.38 0.52 0.43 0.25 0.10 0.02 0.00 0.00 0.01 0.01 0.01 0.00 0.00 0.00 0.00 0.00 0.00 0.00 0.00 0.00 0.00 0.00 0.00 0.00 0.01 0.02 0.00 0.00 0.02 0.04 0.03 0.03 0.03 0.04 0.05 0.03 0.04 0.03 0.04 0.04 0.05 0.06 0.07 0.09 0.12 0.16 0.17
0.22 0.24 0.18 0.66 0.43 0.37 0.32 0.13 0.00 0.01 0.01 0.01 0.01 0.01 0.01 0.01 0.00 0.00 0.00 0.00 0.00 0.00 0.00 0.00 0.00 0.01 0.02 0.01 0.00 0.01 0.04 0.04 0.04 0.04 0.04 0.05 0.06 0.05 0.05 0.04 0.03 0.02 0.03 0.06 0.12 0.16 0.18 0.18 0.18

GFSSGP_prec_precacc_078.txt.gz
Total_Precipitation_Accumulation
0.00 0.00 0.00 0.00 0.00 0.00 0.00 0.00 0.00 0.00 0.00 0.00 0.00 0.00 0.02 0.00 0.00 0.01 0.00 0.00 0.00 0.00 0.02 0.02 0.07 0.12 0.11 0.10 0.07 0.04 0.06 0.06 0.04 0.06 0.10 0.03 0.01 0.00 0.01 0.02 0.03 0.07 0.15 0.31 0.30 0.10 0.01 0.00 0.00
0.00 0.00 0.00 0.00 0.00 0.00 0.00 0.00 0.00 0.00 0.00 0.00 0.00 0.00 0.03 0.00 0.00 0.00 0.00 0.00 0.00 0.00 0.00 0.02 0.06 0.10 0.07 0.07 0.04 0.04 0.05 0.03 0.02 0.07 0.03 0.01 0.01 0.01 0.01 0.03 0.07 0.10 0.20 0.16 0.03 0.00 0.00 0.00 0.00
0.00 0.00 0.00 0.00 0.00 0.00 0.00 0.00 0.00 0.00 0.00 0.00 0.00 0.00 0.05 0.05 0.01 0.00 0.00 0.00 0.00 0.00 0.00 0.03 0.07 0.08 0.05 0.05 0.04 0.04 0.03 0.02 0.03 0.02 0.01 0.03 0.06 0.07 0.06 0.06 0.05 0.03 0.02 0.00 0.00 0.00 0.00 0.00 0.00
0.00 0.00 0.00 0.00 0.00 0.00 0.00 0.00 0.00 0.00 0.00 0.00 0.00 0.00 0.06 0.08 0.00 0.00 0.00 0.00 0.00 0.00 0.00 0.03 0.09 0.06 0.04 0.05 0.07 0.04 0.03 0.03 0.02 0.01 0.00 0.04 0.08 0.11 0.11 0.03 0.00 0.00 0.00 0.00 0.00 0.00 0.00 0.00 0.00
0.01 0.02 0.00 0.00 0.00 0.00 0.00 0.00 0.00 0.00 0.00 0.00 0.00 0.01 0.06 0.02 0.03 0.02 0.00 0.00 0.00 0.00 0.00 0.03 0.09 0.05 0.03 0.05 0.05 0.03 0.04 0.02 0.01 0.01 0.02 0.05 0.08 0.13 0.14 0.03 0.00 0.00 0.00 0.00 0.00 0.00 0.00 0.00 0.00
0.25 0.06 0.02 0.00 0.00 0.00 0.00 0.00 0.00 0.00 0.00 0.00 0.00 0.11 0.15 0.03 0.01 0.03 0.00 0.00 0.00 0.00 0.00 0.03 0.08 0.06 0.04 0.04 0.04 0.04 0.04 0.03 0.01 0.01 0.04 0.05 0.07 0.10 0.13 0.05 0.00 0.00 0.00 0.00 0.00 0.00 0.00 0.01 0.01
0.43 0.26 0.05 0.00 0.00 0.00 0.00 0.00 0.00 0.00 0.00 0.00 0.00 0.04 0.26 0.07 0.03 0.03 0.01 0.01 0.00 0.00 0.00 0.03 0.04 0.04 0.03 0.03 0.03 0.04 0.03 0.03 0.01 0.01 0.01 0.04 0.06 0.06 0.08 0.02 0.00 0.00 0.00 0.01 0.00 0.00 0.00 0.01 0.02
0.24 0.35 0.15 0.02 0.00 0.00 0.00 0.00 0.00 0.00 0.00 0.00 0.00 0.02 0.13 0.06 0.04 0.05 0.04 0.02 0.00 0.00 0.02 0.02 0.02 0.02 0.02 0.01 0.01 0.02 0.03 0.01 0.01 0.00 0.00 0.00 0.00 0.01 0.02 0.00 0.00 0.00 0.01 0.01 0.01 0.01 0.03 0.03 0.02
0.40 0.48 0.34 0.08 0.04 0.01 0.00 0.00 0.00 0.00 0.00 0.00 0.00 0.11 0.07 0.04 0.11 0.10 0.05 0.05 0.04 0.04 0.06 0.05 0.03 0.01 0.01 0.00 0.00 0.00 0.02 0.01 0.00 0.00 0.00 0.00 0.00 0.00 0.00 0.00 0.00 0.00 0.02 0.02 0.02 0.01 0.03 0.02 0.01
0.78 0.69 0.10 0.02 0.01 0.01 0.02 0.00 0.00 0.00 0.00 0.01 0.02 0.03 0.03 0.08 0.22 0.20 0.10 0.04 0.07 0.07 0.09 0.06 0.03 0.01 0.01 0.00 0.00 0.00 0.00 0.00 0.00 0.00 0.00 0.00 0.00 0.00 0.00 0.00 0.00 0.00 0.03 0.02 0.03 0.01 0.01 0.01 0.00
0.53 0.56 0.06 0.06 0.09 0.16 0.07 0.01 0.00 0.00 0.00 0.00 0.03 0.07 0.10 0.10 0.20 0.32 0.16 0.06 0.04 0.05 0.05 0.03 0.02 0.01 0.01 0.00 0.00 0.00 0.00 0.00 0.00 0.00 0.00 0.00 0.00 0.00 0.00 0.00 0.00 0.00 0.01 0.00 0.01 0.00 0.00 0.00 0.00
0.17 0.16 0.13 0.12 0.15 0.20 0.10 0.02 0.00 0.00 0.00 0.00 0.03 0.09 0.19 0.28 0.27 0.24 0.21 0.16 0.11 0.06 0.03 0.04 0.03 0.02 0.01 0.01 0.00 0.00 0.00 0.00 0.00 0.00 0.00 0.00 0.00 0.00 0.00 0.00 0.00 0.00 0.00 0.00 0.00 0.00 0.00 0.00 0.00
0.11 0.10 0.09 0.28 0.17 0.06 0.13 0.10 0.01 0.00 0.00 0.00 0.01 0.04 0.10 0.29 0.26 0.25 0.31 0.16 0.12 0.09 0.08 0.07 0.04 0.02 0.03 0.03 0.02 0.00 0.00 0.00 0.00 0.00 0.00 0.00 0.00 0.00 0.00 0.00 0.00 0.00 0.00 0.00 0.00 0.00 0.00 0.00 0.00
0.03 0.09 0.19 0.30 0.29 0.18 0.15 0.12 0.06 0.00 0.00 0.00 0.01 0.03 0.04 0.11 0.13 0.26 0.35 0.35 0.29 0.08 0.06 0.15 0.10 0.05 0.02 0.04 0.03 0.03 0.00 0.00 0.00 0.00 0.00 0.00 0.00 0.00 0.00 0.00 0.00 0.00 0.00 0.00 0.00 0.00 0.00 0.00 0.00
0.07 0.19 0.43 0.31 0.41 0.26 0.22 0.30 0.11 0.00 0.00 0.00 0.01 0.02 0.01 0.04 0.16 0.14 0.09 0.23 0.20 0.22 0.14 0.12 0.08 0.07 0.02 0.01 0.05 0.05 0.08 0.03 0.01 0.00 0.00 0.00 0.00 0.00 0.00 0.00 0.00 0.00 0.00 0.00 0.00 0.00 0.00 0.00 0.00
0.25 0.34 0.24 0.24 0.36 0.57 0.37 0.18 0.02 0.03 0.00 0.00 0.00 0.00 0.00 0.01 0.01 0.04 0.07 0.08 0.09 0.09 0.09 0.11 0.07 0.07 0.03 0.03 0.09 0.15 0.16 0.09 0.10 0.06 0.01 0.00 0.00 0.00 0.00 0.00 0.00 0.00 0.00 0.00 0.00 0.00 0.00 0.00 0.00
0.31 0.13 0.04 0.06 0.11 0.35 0.30 0.14 0.02 0.04 0.01 0.00 0.00 0.00 0.00 0.00 0.01 0.00 0.03 0.04 0.04 0.02 0.07 0.11 0.07 0.02 0.04 0.06 0.10 0.25 0.26 0.11 0.09 0.07 0.02 0.01 0.01 0.02 0.01 0.00 0.00 0.00 0.00 0.00 0.00 0.00 0.00 0.00 0.00
0.08 0.05 0.03 0.03 0.06 0.10 0.13 0.10 0.02 0.02 0.02 0.00 0.00 0.00 0.00 0.00 0.00 0.00 0.00 0.01 0.02 0.06 0.07 0.08 0.12 0.02 0.04 0.09 0.21 0.25 0.22 0.11 0.10 0.03 0.03 0.12 0.07 0.07 0.07 0.03 0.02 0.01 0.00 0.00 0.00 0.00 0.00 0.00 0.01
0.05 0.08 0.05 0.01 0.03 0.05 0.04 0.05 0.04 0.00 0.02 0.01 0.01 0.00 0.00 0.00 0.00 0.00 0.00 0.00 0.00 0.02 0.06 0.04 0.03 0.06 0.04 0.04 0.08 0.17 0.18 0.21 0.24 0.13 0.25 0.18 0.24 0.26 0.21 0.09 0.07 0.08 0.04 0.04 0.03 0.03 0.01 0.01 0.06
0.15 0.13 0.08 0.06 0.06 0.11 0.03 0.01 0.00 0.00 0.00 0.00 0.00 0.00 0.00 0.00 0.00 0.00 0.00 0.00 0.00 0.00 0.01 0.05 0.04 0.04 0.09 0.04 0.09 0.18 0.28 0.26 0.27 0.23 0.12 0.15 0.23 0.34 0.27 0.20 0.17 0.12 0.08 0.06 0.05 0.06 0.09 0.08 0.15
0.12 0.14 0.11 0.08 0.10 0.10 0.07 0.01 0.00 0.00 0.00 0.00 0.00 0.00 0.00 0.00 0.00 0.00 0.00 0.00 0.00 0.00 0.00 0.00 0.04 0.02 0.04 0.08 0.08 0.16 0.23 0.24 0.23 0.12 0.05 0.08 0.30 0.37 0.35 0.22 0.18 0.24 0.20 0.16 0.11 0.16 0.19 0.17 0.15
0.15 0.07 0.11 0.19 0.19 0.05 0.06 0.03 0.00 0.00 0.00 0.00 0.00 0.00 0.00 0.00 0.00 0.00 0.00 0.00 0.00 0.00 0.00 0.00 0.00 0.00 0.01 0.01 0.05 0.09 0.07 0.09 0.08 0.08 0.18 0.23 0.25 0.30 0.35 0.31 0.28 0.24 0.19 0.16 0.23 0.30 0.29 0.28 0.16
0.23 0.08 0.12 0.25 0.37 0.36 0.08 0.09 0.01 0.00 0.00 0.00 0.00 0.00 0.00 0.00 0.00 0.00 0.00 0.00 0.00 0.00 0.00 0.00 0.00 0.00 0.00 0.00 0.03 0.09 0.07 0.05 0.05 0.08 0.11 0.14 0.20 0.22 0.28 0.26 0.26 0.19 0.21 0.30 0.24 0.21 0.22 0.23 0.25
0.22 0.27 0.27 0.48 0.49 0.70 0.30 0.07 0.01 0.00 0.00 0.00 0.00 0.00 0.00 0.00 0.00 0.00 0.00 0.00 0.00 0.00 0.00 0.00 0.00 0.00 0.00 0.00 0.00 0.03 0.05 0.04 0.03 0.05 0.12 0.12 0.16 0.16 0.18 0.19 0.16 0.20 0.18 0.18 0.24 0.35 0.35 0.32 0.34
0.50 0.65 0.86 0.79 0.93 0.43 0.15 0.16 0.06 0.00 0.00 0.00 0.00 0.00 0.00 0.00 0.00 0.00 0.00 0.00 0.00 0.00 0.00 0.00 0.00 0.00 0.00 0.00 0.00 0.02 0.04 0.03 0.04 0.07 0.14 0.13 0.11 0.09 0.09 0.16 0.19 0.16 0.18 0.23 0.31 0.29 0.32 0.41 0.40
0.63 0.58 0.64 0.39 0.29 0.17 0.08 0.26 0.05 0.00 0.00 0.00 0.00 0.00 0.00 0.00 0.00 0.00 0.00 0.00 0.00 0.00 0.00 0.00 0.00 0.00 0.00 0.00 0.00 0.00 0.01 0.02 0.05 0.08 0.06 0.08 0.10 0.09 0.09 0.18 0.21 0.20 0.19 0.17 0.24 0.24 0.20 0.26 0.29
0.74 0.67 0.36 0.50 0.18 0.27 0.09 0.08 0.04 0.01 0.00 0.00 0.00 0.00 0.00 0.00 0.00 0.00 0.00 0.00 0.00 0.00 0.00 0.00 0.00 0.00 0.00 0.01 0.01 0.01 0.01 0.03 0.04 0.04 0.05 0.05 0.06 0.08 0.08 0.12 0.18 0.19 0.18 0.20 0.21 0.23 0.22 0.22 0.25
0.56 0.33 0.51 1.04 0.61 0.19 0.06 0.02 0.04 0.00 0.00 0.00 0.00 0.00 0.00 0.00 0.00 0.00 0.00 0.00 0.00 0.00 0.00 0.00 0.00 0.00 0.00 0.03 0.03 0.01 0.04 0.04 0.03 0.03 0.03 0.04 0.05 0.06 0.07 0.08 0.08 0.09 0.09 0.12 0.16 0.18 0.20 0.25 0.25
0.60 0.59 0.39 0.52 0.43 0.25 0.11 0.02 0.00 0.00 0.01 0.01 0.01 0.00 0.00 0.00 0.00 0.00 0.00 0.00 0.00 0.00 0.00 0.00 0.00 0.00 0.01 0.02 0.00 0.00 0.02 0.04 0.03 0.03 0.03 0.04 0.05 0.03 0.04 0.03 0.04 0.04 0.05 0.06 0.07 0.09 0.12 0.16 0.17
0.23 0.24 0.18 0.66 0.43 0.37 0.32 0.13 0.00 0.01 0.01 0.01 0.01 0.01 0.01 0.01 0.00 0.00 0.00 0.00 0.00 0.00 0.00 0.00 0.00 0.01 0.02 0.01 0.00 0.01 0.04 0.04 0.04 0.04 0.04 0.05 0.06 0.05 0.05 0.04 0.03 0.02 0.03 0.06 0.12 0.16 0.18 0.18 0.18

GFSSGP_prec_precacc_081.txt.gz
Total_Precipitation_Accumulation
0.00 0.00 0.00 0.00 0.00 0.00 0.00 0.00 0.00 0.00 0.00 0.00 0.00 0.00 0.03 0.00 0.00 0.01 0.00 0.00 0.00 0.00 0.02 0.02 0.07 0.12 0.12 0.10 0.07 0.04 0.06 0.06 0.04 0.06 0.10 0.03 0.01 0.00 0.01 0.02 0.04 0.07 0.15 0.31 0.30 0.10 0.01 0.00 0.00
0.00 0.00 0.00 0.00 0.00 0.00 0.00 0.00 0.00 0.00 0.00 0.00 0.00 0.00 0.05 0.02 0.00 0.00 0.00 0.00 0.00 0.00 0.00 0.02 0.06 0.10 0.08 0.07 0.04 0.04 0.05 0.03 0.02 0.07 0.04 0.01 0.01 0.01 0.01 0.03 0.07 0.11 0.20 0.16 0.03 0.00 0.00 0.00 0.00
0.01 0.04 0.01 0.00 0.00 0.00 0.00 0.00 0.00 0.00 0.00 0.00 0.00 0.00 0.07 0.10 0.02 0.00 0.00 0.00 0.00 0.00 0.00 0.03 0.08 0.09 0.05 0.05 0.04 0.04 0.03 0.02 0.03 0.03 0.02 0.03 0.06 0.07 0.06 0.06 0.05 0.03 0.02 0.00 0.00 0.00 0.00 0.00 0.00
0.02 0.07 0.03 0.00 0.00 0.00 0.00 0.00 0.00 0.00 0.00 0.00 0.00 0.03 0.16 0.17 0.02 0.00 0.00 0.00 0.00 0.00 0.00 0.03 0.09 0.06 0.04 0.05 0.07 0.04 0.03 0.03 0.02 0.01 0.01 0.04 0.08 0.11 0.11 0.03 0.00 0.00 0.00 0.00 0.00 0.00 0.00 0.00 0.00
0.05 0.10 0.01 0.00 0.00 0.00 0.00 0.00 0.00 0.00 0.00 0.00 0.00 0.06 0.18 0.33 0.09 0.07 0.00 0.00 0.00 0.00 0.00 0.03 0.09 0.05 0.03 0.06 0.05 0.03 0.04 0.02 0.01 0.01 0.03 0.06 0.08 0.13 0.14 0.03 0.00 0.00 0.00 0.00 0.00 0.00 0.00 0.00 0.00
0.35 0.18 0.03 0.00 0.00 0.00 0.00 0.00 0.00 0.00 0.00 0.00 0.00 0.11 0.24 0.47 0.37 0.11 0.04 0.00 0.00 0.00 0.00 0.03 0.09 0.06 0.05 0.04 0.04 0.04 0.04 0.03 0.01 0.01 0.05 0.05 0.07 0.10 0.13 0.05 0.00 0.00 0.00 0.00 0.00 0.00 0.00 0.01 0.01
0.47 0.31 0.05 0.00 0.00 0.00 0.00 0.00 0.00 0.00 0.00 0.00 0.00 0.04 0.26 0.18 0.62 0.11 0.10 0.05 0.00 0.00 0.00 0.03 0.04 0.04 0.03 0.03 0.03 0.04 0.03 0.03 0.01 0.01 0.02 0.04 0.06 0.06 0.08 0.02 0.00 0.00 0.00 0.01 0.00 0.00 0.00 0.01 0.02
0.34 0.41 0.15 0.02 0.00 0.01 0.00 0.00 0.00 0.00 0.00 0.00 0.00 0.02 0.14 0.11 0.17 0.14 0.15 0.16 0.02 0.00 0.02 0.02 0.02 0.02 0.02 0.01 0.01 0.02 0.03 0.01 0.01 0.00 0.00 0.00 0.00 0.01 0.02 0.00 0.00 0.00 0.01 0.01 0.01 0.01 0.03 0.03 0.02
0.49 0.55 0.34 0.08 0.04 0.02 0.00 0.00 0.00 0.00 0.00 0.00 0.01 0.12 0.09 0.05 0.22 0.23 0.25 0.30 0.12 0.05 0.06 0.05 0.03 0.01 0.01 0.00 0.00 0.00 0.02 0.01 0.00 0.00 0.00 0.00 0.00 0.00 0.00 0.00 0.00 0.00 0.02 0.02 0.02 0.01 0.03 0.02 0.01
0.88 0.81 0.11 0.04 0.04 0.01 0.02 0.00 0.00 0.00 0.00 0.01 0.03 0.03 0.03 0.08 0.29 0.48 0.49 0.24 0.23 0.10 0.10 0.06 0.03 0.01 0.01 0.00 0.00 0.00 0.00 0.00 0.00 0.00 0.00 0.00 0.00 0.00 0.00 0.00 0.00 0.00 0.03 0.02 0.03 0.01 0.01 0.01 0.00
0.62 0.67 0.10 0.16 0.15 0.17 0.07 0.01 0.00 0.00 0.00 0.00 0.03 0.07 0.10 0.11 0.20 0.42 0.71 0.33 0.21 0.15 0.10 0.05 0.02 0.01 0.01 0.00 0.00 0.00 0.00 0.00 0.00 0.00 0.00 0.00 0.00 0.00 0.00 0.00 0.00 0.00 0.01 0.00 0.01 0.00 0.00 0.00 0.00
0.22 0.21 0.18 0.21 0.21 0.23 0.10 0.02 0.00 0.00 0.00 0.00 0.03 0.10 0.20 0.29 0.27 0.24 0.47 0.50 0.25 0.07 0.09 0.07 0.04 0.02 0.01 0.01 0.00 0.00 0.00 0.00 0.00 0.00 0.00 0.00 0.00 0.00 0.00 0.00 0.00 0.00 0.00 0.00 0.00 0.00 0.00 0.00 0.00
0.13 0.14 0.14 0.34 0.27 0.10 0.14 0.10 0.01 0.00 0.00 0.00 0.01 0.04 0.14 0.34 0.29 0.31 0.38 0.31 0.17 0.13 0.09 0.09 0.05 0.03 0.04 0.03 0.02 0.00 0.00 0.00 0.00 0.00 0.00 0.00 0.00 0.00 0.00 0.00 0.00 0.00 0.00 0.00 0.00 0.00 0.00 0.00 0.00
0.04 0.12 0.23 0.36 0.35 0.37 0.18 0.13 0.06 0.00 0.00 0.00 0.01 0.03 0.05 0.14 0.17 0.31 0.45 0.52 0.41 0.12 0.10 0.25 0.16 0.07 0.02 0.04 0.03 0.03 0.00 0.00 0.00 0.00 0.00 0.00 0.00 0.00 0.00 0.00 0.00 0.00 0.00 0.00 0.00 0.00 0.00 0.00 0.00
0.10 0.24 0.52 0.43 0.53 0.41 0.28 0.39 0.12 0.00 0.00 0.00 0.01 0.02 0.01 0.04 0.16 0.22 0.26 0.38 0.37 0.34 0.31 0.17 0.15 0.15 0.05 0.03 0.06 0.05 0.08 0.03 0.01 0.00 0.00 0.00 0.00 0.00 0.00 0.00 0.00 0.00 0.00 0.00 0.00 0.00 0.00 0.00 0.00
0.28 0.41 0.34 0.35 0.51 0.68 0.51 0.28 0.05 0.03 0.00 0.00 0.00 0.00 0.00 0.01 0.01 0.07 0.10 0.12 0.18 0.17 0.16 0.21 0.17 0.17 0.09 0.06 0.09 0.15 0.16 0.09 0.10 0.06 0.01 0.00 0.00 0.00 0.00 0.00 0.00 0.00 0.00 0.00 0.00 0.00 0.00 0.00 0.00
0.35 0.20 0.14 0.14 0.21 0.46 0.38 0.19 0.05 0.05 0.01 0.00 0.00 0.00 0.00 0.00 0.01 0.00 0.07 0.11 0.11 0.08 0.24 0.33 0.21 0.09 0.10 0.12 0.16 0.27 0.26 0.11 0.09 0.07 0.02 0.01 0.01 0.02 0.01 0.00 0.00 0.00 0.00 0.00 0.00 0.00 0.00 0.00 0.00
0.09 0.05 0.04 0.04 0.10 0.12 0.16 0.15 0.07 0.06 0.02 0.00 0.00 0.00 0.00 0.00 0.00 0.00 0.01 0.04 0.06 0.14 0.11 0.11 0.18 0.08 0.07 0.14 0.33 0.30 0.24 0.11 0.10 0.03 0.03 0.12 0.07 0.07 0.07 0.03 0.02 0.01 0.00 0.00 0.00 0.00 0.00 0.00 0.01
0.06 0.09 0.05 0.01 0.04 0.06 0.04 0.07 0.06 0.03 0.03 0.01 0.01 0.00 0.00 0.00 0.00 0.00 0.00 0.00 0.02 0.11 0.14 0.07 0.04 0.17 0.10 0.05 0.11 0.26 0.21 0.21 0.25 0.21 0.27 0.18 0.24 0.26 0.21 0.09 0.07 0.08 0.04 0.04 0.03 0.03 0.01 0.01 0.06
0.16 0.13 0.08 0.08 0.10 0.15 0.04 0.01 0.00 0.00 0.01 0.00 0.00 0.00 0.00 0.00 0.00 0.00 0.00 0.00 0.00 0.01 0.10 0.17 0.18 0.24 0.24 0.21 0.15 0.21 0.31 0.27 0.29 0.30 0.15 0.16 0.24 0.34 0.27 0.20 0.17 0.12 0.08 0.06 0.05 0.06 0.09 0.08 0.15
0.14 0.14 0.11 0.09 0.15 0.15 0.11 0.05 0.00 0.00 0.00 0.00 0.00 0.00 0.00 0.00 0.00 0.00 0.00 0.00 0.00 0.00 0.01 0.02 0.13 0.11 0.11 0.20 0.19 0.25 0.37 0.41 0.36 0.22 0.12 0.09 0.30 0.37 0.35 0.22 0.18 0.24 0.20 0.16 0.11 0.16 0.19 0.18 0.15
0.16 0.07 0.11 0.19 0.21 0.06 0.08 0.06 0.00 0.00 0.00 0.00 0.00 0.00 0.00 0.00 0.00 0.00 0.00 0.00 0.00 0.00 0.00 0.00 0.01 0.05 0.11 0.06 0.16 0.21 0.15 0.15 0.10 0.09 0.18 0.23 0.25 0.30 0.35 0.31 0.28 0.24 0.19 0.16 0.23 0.30 0.29 0.28 0.16
0.25 0.08 0.13 0.28 0.40 0.37 0.09 0.09 0.01 0.00 0.00 0.00 0.00 0.00 0.00 0.00 0.00 0.00 0.00 0.00 0.00 0.00 0.00 0.00 0.00 0.01 0.06 0.04 0.06 0.13 0.08 0.05 0.05 0.08 0.11 0.14 0.20 0.22 0.28 0.26 0.26 0.19 0.21 0.30 0.24 0.21 0.22 0.23 0.25
0.24 0.28 0.30 0.51 0.52 0.70 0.30 0.07 0.01 0.00 0.00 0.00 0.00 0.00 0.00 0.00 0.00 0.00 0.00 0.00 0.00 0.00 0.00 0.00 0.00 0.00 0.01 0.02 0.01 0.05 0.05 0.04 0.03 0.05 0.12 0.12 0.16 0.16 0.18 0.19 0.16 0.20 0.18 0.18 0.24 0.35 0.35 0.32 0.34
0.52 0.67 0.96 0.86 0.94 0.43 0.15 0.16 0.06 0.00 0.00 0.00 0.00 0.00 0.00 0.00 0.00 0.00 0.00 0.00 0.00 0.00 0.00 0.00 0.00 0.00 0.00 0.00 0.00 0.02 0.04 0.03 0.04 0.07 0.14 0.13 0.11 0.09 0.09 0.16 0.19 0.16 0.18 0.23 0.31 0.29 0.32 0.41 0.40
0.64 0.59 0.65 0.40 0.29 0.17 0.08 0.26 0.05 0.00 0.00 0.00 0.00 0.00 0.00 0.00 0.00 0.00 0.00 0.00 0.00 0.00 0.00 0.00 0.00 0.00 0.00 0.00 0.00 0.00 0.01 0.02 0.05 0.08 0.06 0.08 0.10 0.09 0.09 0.18 0.21 0.20 0.19 0.17 0.24 0.24 0.20 0.26 0.29
0.75 0.67 0.36 0.50 0.18 0.27 0.09 0.08 0.04 0.01 0.00 0.00 0.00 0.00 0.00 0.00 0.00 0.00 0.00 0.00 0.00 0.00 0.00 0.00 0.00 0.00 0.00 0.01 0.01 0.01 0.01 0.03 0.04 0.04 0.05 0.05 0.06 0.08 0.08 0.12 0.18 0.19 0.18 0.20 0.21 0.23 0.22 0.22 0.25
0.56 0.33 0.51 1.04 0.61 0.19 0.06 0.02 0.04 0.00 0.00 0.00 0.00 0.00 0.00 0.00 0.00 0.00 0.00 0.00 0.00 0.00 0.00 0.00 0.00 0.00 0.00 0.03 0.03 0.01 0.04 0.04 0.03 0.03 0.03 0.04 0.05 0.06 0.07 0.08 0.08 0.09 0.09 0.12 0.16 0.18 0.20 0.25 0.25
0.60 0.59 0.39 0.52 0.43 0.25 0.11 0.02 0.00 0.00 0.01 0.01 0.01 0.00 0.00 0.00 0.00 0.00 0.00 0.00 0.00 0.00 0.00 0.00 0.00 0.00 0.01 0.02 0.00 0.00 0.02 0.04 0.03 0.03 0.03 0.04 0.05 0.03 0.04 0.03 0.04 0.04 0.05 0.06 0.07 0.09 0.12 0.16 0.17
0.23 0.24 0.18 0.66 0.43 0.37 0.32 0.13 0.00 0.01 0.01 0.01 0.01 0.01 0.01 0.01 0.00 0.00 0.00 0.00 0.00 0.00 0.00 0.00 0.00 0.01 0.02 0.01 0.00 0.01 0.04 0.04 0.04 0.04 0.04 0.05 0.06 0.05 0.05 0.04 0.03 0.02 0.03 0.06 0.12 0.16 0.18 0.18 0.18

GFSSGP_prec_precacc_084.txt.gz
Total_Precipitation_Accumulation
0.00 0.00 0.00 0.00 0.00 0.00 0.00 0.00 0.00 0.00 0.02 0.00 0.00 0.00 0.03 0.00 0.00 0.01 0.00 0.00 0.00 0.00 0.02 0.02 0.07 0.12 0.13 0.10 0.07 0.04 0.06 0.06 0.04 0.06 0.10 0.03 0.01 0.00 0.01 0.03 0.04 0.07 0.16 0.31 0.30 0.10 0.01 0.00 0.00
0.00 0.01 0.01 0.00 0.00 0.00 0.00 0.00 0.00 0.00 0.00 0.00 0.00 0.01 0.06 0.03 0.00 0.00 0.00 0.00 0.00 0.00 0.00 0.02 0.07 0.11 0.08 0.07 0.04 0.04 0.05 0.03 0.02 0.07 0.04 0.01 0.01 0.01 0.01 0.03 0.08 0.11 0.20 0.16 0.03 0.00 0.00 0.00 0.00
0.01 0.08 0.02 0.00 0.00 0.00 0.00 0.00 0.00 0.00 0.00 0.00 0.01 0.01 0.11 0.10 0.02 0.00 0.00 0.00 0.00 0.00 0.00 0.03 0.08 0.09 0.05 0.05 0.04 0.04 0.03 0.02 0.04 0.03 0.02 0.03 0.06 0.07 0.06 0.06 0.05 0.03 0.02 0.00 0.00 0.00 0.00 0.00 0.00
0.03 0.14 0.08 0.00 0.00 0.00 0.00 0.00 0.00 0.00 0.00 0.00 0.01 0.05 0.23 0.18 0.02 0.00 0.00 0.00 0.00 0.00 0.01 0.05 0.10 0.07 0.04 0.05 0.07 0.04 0.03 0.03 0.02 0.01 0.01 0.04 0.08 0.11 0.11 0.03 0.00 0.00 0.00 0.00 0.00 0.00 0.00 0.00 0.00
0.07 0.18 0.03 0.00 0.00 0.00 0.00 0.00 0.00 0.00 0.00 0.00 0.00 0.10 0.28 0.40 0.10 0.10 0.01 0.00 0.00 0.00 0.01 0.05 0.11 0.06 0.03 0.06 0.05 0.03 0.04 0.02 0.02 0.02 0.03 0.06 0.08 0.13 0.14 0.03 0.00 0.00 0.00 0.00 0.00 0.00 0.00 0.00 0.00
0.40 0.25 0.04 0.00 0.00 0.00 0.00 0.00 0.00 0.00 0.00 0.00 0.00 0.15 0.35 0.58 0.42 0.20 0.10 0.01 0.00 0.00 0.01 0.05 0.10 0.07 0.06 0.04 0.04 0.04 0.04 0.03 0.02 0.02 0.05 0.05 0.07 0.10 0.13 0.05 0.00 0.00 0.00 0.00 0.00 0.00 0.00 0.01 0.01
0.51 0.33 0.05 0.00 0.00 0.00 0.00 0.00 0.00 0.00 0.00 0.00 0.00 0.06 0.34 0.31 0.83 0.40 0.25 0.15 0.01 0.01 0.01 0.04 0.04 0.05 0.04 0.03 0.03 0.04 0.03 0.03 0.01 0.02 0.02 0.04 0.06 0.06 0.08 0.02 0.00 0.00 0.00 0.01 0.00 0.00 0.00 0.01 0.02
0.40 0.45 0.16 0.02 0.00 0.01 0.00 0.00 0.00 0.00 0.00 0.00 0.00 0.02 0.18 0.16 0.35 0.55 0.47 0.37 0.08 0.01 0.02 0.02 0.02 0.02 0.02 0.01 0.01 0.02 0.03 0.01 0.01 0.01 0.01 0.00 0.00 0.01 0.02 0.00 0.00 0.00 0.01 0.01 0.01 0.01 0.03 0.03 0.02
0.60 0.64 0.37 0.08 0.04 0.02 0.00 0.00 0.00 0.00 0.00 0.00 0.01 0.12 0.09 0.06 0.24 0.40 0.64 0.62 0.22 0.07 0.07 0.05 0.03 0.01 0.01 0.00 0.00 0.00 0.02 0.01 0.00 0.00 0.00 0.00 0.00 0.00 0.00 0.00 0.00 0.00 0.02 0.02 0.02 0.01 0.03 0.02 0.01
1.03 0.88 0.14 0.04 0.06 0.02 0.03 0.00 0.00 0.00 0.00 0.01 0.04 0.04 0.03 0.08 0.29 0.52 0.96 0.68 0.35 0.13 0.10 0.06 0.03 0.01 0.01 0.00 0.00 0.00 0.00 0.00 0.00 0.00 0.00 0.00 0.00 0.00 0.00 0.00 0.00 0.00 0.03 0.02 0.03 0.01 0.01 0.01 0.00
0.73 0.73 0.12 0.20 0.17 0.18 0.08 0.01 0.00 0.00 0.00 0.00 0.04 0.08 0.11 0.11 0.20 0.42 0.89 1.19 0.78 0.37 0.15 0.06 0.02 0.01 0.01 0.00 0.00 0.00 0.00 0.00 0.00 0.00 0.00 0.00 0.00 0.00 0.00 0.00 0.00 0.00 0.01 0.00 0.01 0.00 0.00 0.00 0.00
0.35 0.24 0.27 0.29 0.30 0.27 0.11 0.03 0.00 0.00 0.00 0.00 0.04 0.12 0.21 0.29 0.27 0.24 0.47 0.98 1.95 0.62 0.23 0.09 0.04 0.02 0.01 0.01 0.00 0.00 0.00 0.00 0.00 0.00 0.00 0.00 0.00 0.00 0.00 0.00 0.00 0.00 0.00 0.00 0.00 0.00 0.00 0.00 0.00
0.24 0.18 0.27 0.45 0.36 0.16 0.15 0.10 0.01 0.00 0.00 0.00 0.01 0.04 0.15 0.39 0.30 0.31 0.39 0.40 1.17 1.44 0.68 0.21 0.05 0.03 0.04 0.03 0.02 0.00 0.00 0.00 0.00 0.00 0.00 0.00 0.00 0.00 0.00 0.00 0.00 0.00 0.00 0.00 0.00 0.00 0.00 0.00 0.00
0.09 0.24 0.31 0.55 0.41 0.43 0.19 0.14 0.06 0.00 0.00 0.00 0.01 0.03 0.06 0.16 0.20 0.33 0.47 0.57 0.49 0.43 0.67 0.56 0.29 0.08 0.02 0.04 0.03 0.03 0.00 0.00 0.00 0.00 0.00 0.00 0.00 0.00 0.00 0.00 0.00 0.00 0.00 0.00 0.00 0.00 0.00 0.00 0.00
0.15 0.33 0.63 0.60 0.64 0.61 0.36 0.40 0.12 0.00 0.00 0.00 0.01 0.02 0.03 0.10 0.22 0.28 0.33 0.43 0.42 0.40 0.42 0.35 0.39 0.29 0.05 0.03 0.06 0.05 0.08 0.03 0.01 0.00 0.00 0.00 0.00 0.00 0.00 0.00 0.00 0.00 0.00 0.00 0.00 0.00 0.00 0.00 0.00
0.32 0.49 0.46 0.46 0.65 0.91 0.76 0.34 0.07 0.03 0.00 0.00 0.00 0.00 0.01 0.05 0.06 0.16 0.15 0.16 0.29 0.26 0.19 0.28 0.37 0.45 0.25 0.11 0.10 0.15 0.16 0.09 0.10 0.07 0.01 0.00 0.00 0.00 0.00 0.00 0.00 0.00 0.00 0.00 0.00 0.00 0.00 0.00 0.00
0.40 0.24 0.18 0.18 0.27 0.73 0.70 0.36 0.09 0.07 0.01 0.00 0.00 0.00 0.00 0.00 0.01 0.01 0.08 0.11 0.12 0.12 0.27 0.36 0.29 0.24 0.29 0.32 0.26 0.30 0.26 0.11 0.10 0.07 0.02 0.01 0.01 0.02 0.01 0.00 0.00 0.00 0.00 0.00 0.00 0.00 0.00 0.00 0.00
0.09 0.09 0.08 0.10 0.14 0.32 0.46 0.28 0.14 0.09 0.02 0.00 0.00 0.00 0.00 0.00 0.00 0.00 0.02 0.07 0.08 0.20 0.16 0.13 0.18 0.10 0.12 0.29 0.54 0.36 0.25 0.11 0.10 0.04 0.03 0.12 0.07 0.07 0.07 0.03 0.02 0.01 0.00 0.00 0.00 0.00 0.00 0.00 0.01
0.07 0.09 0.07 0.04 0.06 0.12 0.13 0.10 0.10 0.05 0.03 0.01 0.01 0.00 0.00 0.00 0.00 0.00 0.00 0.01 0.05 0.23 0.25 0.12 0.04 0.18 0.17 0.20 0.27 0.29 0.23 0.28 0.34 0.32 0.34 0.19 0.24 0.26 0.21 0.09 0.07 0.08 0.04 0.04 0.03 0.03 0.02 0.01 0.06
0.17 0.15 0.10 0.13 0.15 0.16 0.05 0.02 0.01 0.02 0.01 0.00 0.00 0.00 0.00 0.00 0.00 0.00 0.00 0.00 0.00 0.03 0.16 0.28 0.26 0.31 0.29 0.29 0.26 0.30 0.48 0.54 0.58 0.46 0.23 0.28 0.26 0.34 0.27 0.20 0.17 0.12 0.08 0.06 0.05 0.06 0.09 0.08 0.15
0.16 0.16 0.11 0.12 0.19 0.20 0.15 0.05 0.00 0.00 0.00 0.00 0.00 0.00 0.00 0.00 0.00 0.00 0.00 0.00 0.00 0.00 0.01 0.06 0.24 0.14 0.13 0.23 0.24 0.31 0.44 0.47 0.45 0.29 0.16 0.21 0.41 0.45 0.38 0.23 0.18 0.24 0.20 0.16 0.11 0.16 0.19 0.18 0.15
0.17 0.07 0.12 0.22 0.23 0.10 0.16 0.08 0.00 0.00 0.00 0.00 0.00 0.00 0.00 0.00 0.00 0.00 0.00 0.00 0.00 0.00 0.00 0.02 0.05 0.08 0.14 0.11 0.17 0.30 0.26 0.28 0.24 0.21 0.24 0.33 0.34 0.34 0.36 0.31 0.28 0.24 0.19 0.16 0.23 0.30 0.29 0.28 0.16
0.26 0.09 0.13 0.31 0.44 0.38 0.12 0.10 0.01 0.00 0.00 0.00 0.00 0.00 0.00 0.00 0.00 0.00 0.00 0.00 0.00 0.00 0.00 0.00 0.00 0.04 0.16 0.10 0.14 0.24 0.19 0.12 0.08 0.10 0.15 0.18 0.23 0.22 0.28 0.26 0.26 0.19 0.21 0.30 0.24 0.21 0.22 0.23 0.25
0.26 0.29 0.30 0.53 0.58 0.73 0.30 0.07 0.01 0.00 0.00 0.00 0.00 0.00 0.00 0.00 0.00 0.00 0.00 0.00 0.00 0.00 0.00 0.00 0.00 0.00 0.04 0.08 0.09 0.15 0.11 0.11 0.11 0.13 0.17 0.15 0.18 0.16 0.18 0.19 0.16 0.20 0.18 0.18 0.24 0.35 0.35 0.32 0.34
0.54 0.68 1.01 0.95 1.07 0.44 0.15 0.16 0.06 0.00 0.00 0.00 0.00 0.00 0.00 0.00 0.00 0.00 0.00 0.00 0.00 0.00 0.00 0.00 0.00 0.00 0.00 0.04 0.07 0.11 0.10 0.08 0.07 0.10 0.16 0.15 0.12 0.09 0.09 0.16 0.19 0.16 0.18 0.23 0.31 0.29 0.32 0.41 0.40
0.65 0.59 0.67 0.42 0.31 0.17 0.08 0.26 0.05 0.00 0.00 0.00 0.00 0.00 0.00 0.00 0.00 0.00 0.00 0.00 0.00 0.00 0.00 0.00 0.00 0.00 0.00 0.00 0.00 0.02 0.03 0.04 0.07 0.08 0.06 0.08 0.10 0.09 0.09 0.18 0.21 0.20 0.19 0.17 0.24 0.24 0.20 0.26 0.29
0.75 0.67 0.36 0.50 0.18 0.27 0.09 0.08 0.04 0.01 0.00 0.00 0.00 0.00 0.00 0.00 0.00 0.00 0.00 0.00 0.00 0.00 0.00 0.00 0.00 0.00 0.00 0.01 0.01 0.01 0.01 0.03 0.04 0.04 0.05 0.05 0.06 0.08 0.08 0.12 0.18 0.19 0.18 0.20 0.21 0.23 0.22 0.22 0.25
0.56 0.33 0.51 1.04 0.61 0.19 0.06 0.02 0.04 0.00 0.00 0.00 0.00 0.00 0.00 0.00 0.00 0.00 0.00 0.00 0.00 0.00 0.00 0.00 0.00 0.00 0.00 0.03 0.03 0.01 0.04 0.04 0.03 0.03 0.03 0.04 0.05 0.06 0.07 0.08 0.08 0.09 0.09 0.12 0.16 0.18 0.20 0.25 0.25
0.60 0.59 0.39 0.52 0.43 0.25 0.11 0.02 0.00 0.00 0.01 0.01 0.01 0.00 0.00 0.00 0.00 0.00 0.00 0.00 0.00 0.00 0.00 0.00 0.00 0.00 0.01 0.02 0.00 0.00 0.02 0.04 0.03 0.03 0.03 0.04 0.05 0.03 0.04 0.03 0.04 0.04 0.05 0.06 0.07 0.09 0.12 0.16 0.17
0.23 0.24 0.18 0.66 0.43 0.37 0.32 0.13 0.00 0.01 0.01 0.01 0.01 0.01 0.01 0.01 0.00 0.00 0.00 0.00 0.00 0.00 0.00 0.00 0.00 0.01 0.02 0.01 0.00 0.01 0.04 0.04 0.04 0.04 0.04 0.05 0.06 0.05 0.05 0.04 0.03 0.02 0.03 0.06 0.12 0.16 0.18 0.18 0.18

GFSSGP_prec_precacc_087.txt.gz
Total_Precipitation_Accumulation
0.00 0.00 0.00 0.00 0.00 0.00 0.00 0.00 0.00 0.01 0.06 0.00 0.00 0.01 0.03 0.00 0.00 0.01 0.00 0.00 0.00 0.00 0.02 0.03 0.07 0.13 0.14 0.10 0.07 0.04 0.06 0.06 0.04 0.06 0.10 0.05 0.03 0.02 0.02 0.03 0.04 0.07 0.16 0.31 0.30 0.10 0.01 0.00 0.00
0.00 0.02 0.03 0.02 0.00 0.00 0.00 0.00 0.00 0.00 0.04 0.00 0.00 0.02 0.10 0.03 0.00 0.01 0.01 0.00 0.00 0.00 0.01 0.02 0.07 0.12 0.09 0.07 0.04 0.04 0.05 0.03 0.02 0.07 0.04 0.01 0.01 0.01 0.01 0.03 0.08 0.11 0.20 0.16 0.03 0.00 0.00 0.00 0.00
0.01 0.09 0.11 0.02 0.00 0.00 0.00 0.00 0.00 0.00 0.00 0.01 0.01 0.01 0.18 0.11 0.02 0.00 0.00 0.01 0.00 0.00 0.01 0.03 0.10 0.11 0.06 0.05 0.04 0.04 0.04 0.03 0.04 0.03 0.02 0.03 0.06 0.07 0.06 0.06 0.05 0.03 0.02 0.00 0.00 0.00 0.00 0.00 0.00
0.06 0.17 0.19 0.01 0.00 0.00 0.00 0.00 0.00 0.00 0.01 0.01 0.02 0.06 0.29 0.20 0.02 0.00 0.00 0.01 0.00 0.01 0.01 0.05 0.12 0.07 0.04 0.06 0.07 0.04 0.04 0.03 0.02 0.01 0.01 0.04 0.08 0.11 0.11 0.03 0.00 0.00 0.00 0.00 0.00 0.00 0.00 0.00 0.00
0.16 0.28 0.11 0.02 0.00 0.00 0.00 0.00 0.00 0.00 0.00 0.00 0.01 0.12 0.37 0.46 0.10 0.10 0.01 0.00 0.00 0.00 0.02 0.05 0.12 0.06 0.03 0.06 0.05 0.04 0.05 0.03 0.02 0.02 0.03 0.06 0.08 0.13 0.14 0.03 0.00 0.00 0.00 0.00 0.00 0.00 0.00 0.00 0.00
0.50 0.33 0.12 0.03 0.00 0.00 0.00 0.00 0.00 0.00 0.00 0.00 0.00 0.17 0.47 0.76 0.54 0.21 0.10 0.01 0.00 0.01 0.03 0.07 0.11 0.07 0.06 0.04 0.04 0.04 0.05 0.04 0.02 0.02 0.05 0.05 0.07 0.10 0.13 0.05 0.00 0.00 0.00 0.00 0.00 0.00 0.00 0.01 0.01
0.63 0.42 0.10 0.01 0.00 0.00 0.00 0.00 0.00 0.00 0.00 0.00 0.00 0.06 0.38 0.65 1.10 0.42 0.27 0.16 0.01 0.02 0.03 0.07 0.05 0.06 0.04 0.03 0.03 0.04 0.04 0.04 0.02 0.02 0.02 0.04 0.06 0.06 0.08 0.02 0.00 0.00 0.00 0.01 0.00 0.00 0.00 0.01 0.02
0.52 0.66 0.21 0.02 0.00 0.01 0.00 0.00 0.00 0.00 0.00 0.00 0.00 0.02 0.18 0.29 1.07 0.79 0.52 0.44 0.08 0.02 0.02 0.03 0.02 0.03 0.02 0.01 0.01 0.02 0.03 0.02 0.02 0.01 0.01 0.00 0.00 0.01 0.02 0.00 0.00 0.00 0.01 0.01 0.01 0.01 0.03 0.03 0.02
0.80 0.97 0.55 0.08 0.04 0.02 0.00 0.00 0.00 0.00 0.00 0.00 0.01 0.12 0.09 0.07 0.59 0.68 0.73 0.73 0.27 0.08 0.07 0.05 0.04 0.01 0.01 0.00 0.00 0.00 0.02 0.01 0.01 0.00 0.00 0.00 0.00 0.00 0.00 0.00 0.00 0.00 0.02 0.02 0.02 0.01 0.03 0.02 0.01
1.27 1.25 0.38 0.06 0.06 0.02 0.03 0.00 0.00 0.00 0.00 0.01 0.05 0.04 0.03 0.08 0.31 0.61 1.01 0.80 0.47 0.16 0.11 0.06 0.03 0.01 0.01 0.00 0.00 0.00 0.00 0.00 0.00 0.00 0.00 0.00 0.00 0.00 0.00 0.00 0.00 0.00 0.03 0.02 0.03 0.01 0.01 0.01 0.00
0.94 1.04 0.28 0.24 0.20 0.19 0.10 0.02 0.00 0.00 0.00 0.00 0.04 0.08 0.11 0.11 0.20 0.42 0.91 1.31 1.01 0.61 0.29 0.09 0.02 0.01 0.01 0.00 0.00 0.00 0.00 0.00 0.00 0.00 0.00 0.00 0.00 0.00 0.00 0.00 0.00 0.00 0.01 0.00 0.01 0.00 0.00 0.00 0.00
0.45 0.59 0.42 0.41 0.35 0.31 0.13 0.04 0.01 0.00 0.00 0.00 0.04 0.13 0.21 0.29 0.27 0.24 0.48 1.00 2.20 1.50 0.71 0.44 0.14 0.02 0.01 0.01 0.00 0.00 0.00 0.00 0.00 0.00 0.00 0.00 0.00 0.00 0.00 0.00 0.00 0.00 0.00 0.00 0.00 0.00 0.00 0.00 0.00
0.28 0.44 0.53 0.55 0.41 0.22 0.17 0.11 0.02 0.00 0.00 0.00 0.02 0.07 0.18 0.40 0.31 0.32 0.40 0.47 1.26 2.47 1.89 0.74 0.38 0.13 0.04 0.03 0.02 0.00 0.00 0.00 0.00 0.00 0.00 0.00 0.00 0.00 0.00 0.00 0.00 0.00 0.00 0.00 0.00 0.00 0.00 0.00 0.00
0.11 0.41 0.57 0.67 0.50 0.48 0.23 0.16 0.07 0.01 0.00 0.01 0.04 0.12 0.12 0.20 0.22 0.34 0.50 0.58 0.50 0.58 1.29 1.27 0.67 0.32 0.08 0.04 0.03 0.03 0.00 0.00 0.00 0.00 0.00 0.00 0.00 0.00 0.00 0.00 0.00 0.00 0.00 0.00 0.00 0.00 0.00 0.00 0.00
0.16 0.52 0.86 0.69 0.78 0.67 0.41 0.44 0.14 0.01 0.00 0.01 0.02 0.05 0.13 0.22 0.29 0.31 0.34 0.46 0.46 0.41 0.46 0.63 0.71 0.68 0.28 0.11 0.06 0.05 0.08 0.03 0.01 0.00 0.00 0.00 0.00 0.00 0.00 0.00 0.00 0.00 0.00 0.00 0.00 0.00 0.00 0.00 0.00
0.34 0.66 0.74 0.62 0.87 1.12 0.85 0.43 0.08 0.04 0.00 0.00 0.00 0.01 0.08 0.15 0.17 0.31 0.21 0.18 0.31 0.28 0.21 0.31 0.42 0.71 0.66 0.42 0.24 0.17 0.16 0.09 0.10 0.07 0.01 0.00 0.00 0.00 0.00 0.00 0.00 0.00 0.00 0.00 0.00 0.00 0.00 0.00 0.00
0.43 0.37 0.42 0.38 0.46 1.12 0.94 0.53 0.13 0.07 0.01 0.00 0.00 0.00 0.01 0.06 0.11 0.14 0.16 0.14 0.16 0.20 0.34 0.43 0.34 0.29 0.44 0.61 0.50 0.48 0.36 0.13 0.10 0.09 0.02 0.01 0.01 0.02 0.01 0.00 0.00 0.00 0.00 0.00 0.00 0.00 0.00 0.00 0.00
0.10 0.15 0.18 0.31 0.30 0.60 0.80 0.44 0.28 0.10 0.02 0.00 0.00 0.00 0.00 0.00 0.01 0.04 0.12 0.10 0.11 0.32 0.26 0.24 0.28 0.19 0.19 0.39 0.69 0.57 0.44 0.24 0.12 0.04 0.03 0.12 0.07 0.07 0.07 0.03 0.02 0.01 0.00 0.00 0.00 0.00 0.00 0.00 0.01
0.07 0.10 0.10 0.12 0.15 0.22 0.31 0.36 0.27 0.07 0.03 0.01 0.01 0.00 0.00 0.00 0.00 0.00 0.02 0.04 0.10 0.32 0.30 0.17 0.12 0.26 0.29 0.25 0.33 0.49 0.41 0.48 0.46 0.39 0.39 0.20 0.24 0.26 0.21 0.09 0.07 0.08 0.04 0.04 0.03 0.03 0.02 0.02 0.06
0.18 0.15 0.11 0.16 0.19 0.19 0.13 0.11 0.17 0.08 0.01 0.00 0.00 0.00 0.00 0.00 0.00 0.00 0.00 0.01 0.04 0.11 0.23 0.35 0.33 0.42 0.33 0.32 0.30 0.34 0.52 0.62 0.78 0.75 0.47 0.49 0.40 0.37 0.29 0.20 0.17 0.12 0.08 0.06 0.05 0.06 0.09 0.08 0.15
0.17 0.16 0.12 0.12 0.21 0.22 0.20 0.08 0.02 0.05 0.01 0.00 0.00 0.00 0.00 0.00 0.00 0.00 0.00 0.00 0.00 0.01 0.08 0.13 0.30 0.19 0.17 0.29 0.32 0.35 0.50 0.54 0.49 0.31 0.17 0.24 0.55 0.68 0.57 0.38 0.29 0.31 0.22 0.16 0.11 0.16 0.19 0.18 0.15
0.19 0.08 0.13 0.25 0.24 0.15 0.25 0.13 0.00 0.00 0.01 0.00 0.00 0.00 0.00 0.00 0.00 0.00 0.00 0.00 0.00 0.00 0.01 0.07 0.06 0.09 0.18 0.23 0.33 0.33 0.30 0.32 0.28 0.32 0.33 0.43 0.42 0.48 0.47 0.40 0.36 0.29 0.20 0.16 0.23 0.30 0.29 0.28 0.16
0.27 0.09 0.15 0.34 0.47 0.39 0.17 0.17 0.01 0.00 0.00 0.00 0.00 0.00 0.00 0.00 0.00 0.00 0.00 0.00 0.00 0.00 0.00 0.00 0.09 0.14 0.30 0.19 0.21 0.38 0.36 0.24 0.20 0.18 0.20 0.26 0.35 0.35 0.39 0.34 0.31 0.23 0.22 0.30 0.24 0.21 0.22 0.23 0.25
0.29 0.30 0.32 0.59 0.64 0.75 0.30 0.07 0.01 0.00 0.00 0.00 0.00 0.00 0.00 0.00 0.00 0.00 0.00 0.00 0.00 0.00 0.00 0.00 0.01 0.05 0.14 0.21 0.23 0.31 0.25 0.22 0.16 0.18 0.25 0.24 0.28 0.27 0.24 0.23 0.17 0.21 0.18 0.18 0.24 0.35 0.35 0.32 0.34
0.60 0.68 1.07 1.04 1.20 0.45 0.15 0.16 0.06 0.00 0.00 0.00 0.00 0.00 0.00 0.00 0.00 0.00 0.00 0.00 0.00 0.00 0.00 0.00 0.00 0.00 0.02 0.07 0.15 0.22 0.20 0.19 0.17 0.18 0.21 0.19 0.16 0.11 0.10 0.16 0.19 0.16 0.18 0.23 0.31 0.29 0.32 0.41 0.40
0.68 0.59 0.67 0.45 0.33 0.17 0.08 0.26 0.05 0.00 0.00 0.00 0.00 0.00 0.00 0.00 0.00 0.00 0.00 0.00 0.00 0.00 0.00 0.00 0.00 0.00 0.00 0.00 0.02 0.11 0.13 0.13 0.13 0.16 0.13 0.12 0.13 0.10 0.09 0.18 0.21 0.20 0.19 0.17 0.24 0.24 0.20 0.26 0.29
0.76 0.67 0.36 0.50 0.18 0.27 0.09 0.08 0.04 0.01 0.00 0.00 0.00 0.00 0.00 0.00 0.00 0.00 0.00 0.00 0.00 0.00 0.00 0.00 0.00 0.00 0.00 0.01 0.01 0.01 0.02 0.04 0.09 0.07 0.07 0.06 0.06 0.08 0.08 0.12 0.18 0.19 0.18 0.20 0.21 0.23 0.22 0.22 0.25
0.56 0.33 0.51 1.04 0.61 0.19 0.06 0.02 0.04 0.00 0.00 0.00 0.00 0.00 0.00 0.00 0.00 0.00 0.00 0.00 0.00 0.00 0.00 0.00 0.00 0.00 0.00 0.03 0.03 0.01 0.04 0.04 0.03 0.04 0.03 0.04 0.05 0.06 0.07 0.08 0.08 0.09 0.09 0.12 0.16 0.18 0.20 0.25 0.25
0.60 0.59 0.39 0.52 0.43 0.25 0.11 0.02 0.00 0.00 0.01 0.01 0.01 0.00 0.00 0.00 0.00 0.00 0.00 0.00 0.00 0.00 0.00 0.00 0.00 0.00 0.01 0.02 0.00 0.00 0.02 0.04 0.03 0.03 0.03 0.04 0.05 0.03 0.04 0.04 0.04 0.04 0.05 0.06 0.07 0.09 0.12 0.16 0.17
0.23 0.24 0.18 0.66 0.43 0.37 0.32 0.13 0.00 0.01 0.01 0.01 0.01 0.01 0.01 0.01 0.00 0.00 0.00 0.00 0.00 0.00 0.00 0.00 0.00 0.01 0.02 0.01 0.00 0.01 0.04 0.04 0.04 0.04 0.04 0.05 0.06 0.05 0.05 0.04 0.03 0.02 0.03 0.06 0.12 0.16 0.18 0.18 0.18

GFSSGP_prec_precacc_090.txt.gz
Total_Precipitation_Accumulation
0.00 0.01 0.01 0.03 0.02 0.00 0.00 0.00 0.00 0.02 0.09 0.01 0.00 0.02 0.04 0.00 0.00 0.02 0.01 0.00 0.00 0.00 0.02 0.04 0.08 0.14 0.15 0.11 0.07 0.04 0.06 0.07 0.06 0.11 0.16 0.11 0.09 0.06 0.02 0.03 0.04 0.07 0.16 0.31 0.30 0.10 0.01 0.00 0.00
0.01 0.02 0.04 0.11 0.03 0.00 0.00 0.00 0.00 0.00 0.06 0.02 0.00 0.03 0.13 0.03 0.00 0.02 0.03 0.01 0.00 0.00 0.01 0.02 0.07 0.13 0.09 0.07 0.05 0.04 0.05 0.03 0.03 0.11 0.09 0.07 0.06 0.01 0.01 0.03 0.08 0.11 0.20 0.16 0.03 0.00 0.00 0.00 0.00
0.02 0.09 0.18 0.11 0.02 0.00 0.00 0.00 0.00 0.00 0.00 0.07 0.04 0.01 0.23 0.12 0.03 0.02 0.01 0.04 0.01 0.00 0.01 0.04 0.10 0.12 0.06 0.05 0.04 0.04 0.04 0.03 0.04 0.03 0.03 0.05 0.06 0.07 0.06 0.06 0.05 0.03 0.02 0.00 0.00 0.00 0.00 0.00 0.00
0.10 0.24 0.27 0.08 0.01 0.00 0.00 0.00 0.00 0.00 0.01 0.03 0.09 0.08 0.33 0.25 0.03 0.01 0.02 0.02 0.01 0.01 0.01 0.06 0.14 0.08 0.04 0.06 0.07 0.04 0.04 0.03 0.02 0.01 0.01 0.04 0.08 0.11 0.11 0.03 0.00 0.00 0.00 0.00 0.00 0.00 0.00 0.00 0.00
0.21 0.37 0.18 0.14 0.05 0.00 0.00 0.00 0.00 0.00 0.00 0.00 0.07 0.18 0.41 0.50 0.12 0.12 0.03 0.00 0.00 0.01 0.03 0.07 0.13 0.07 0.03 0.07 0.06 0.06 0.05 0.03 0.02 0.02 0.03 0.06 0.08 0.13 0.14 0.03 0.00 0.00 0.00 0.00 0.00 0.00 0.00 0.00 0.00
0.55 0.42 0.22 0.12 0.02 0.00 0.00 0.00 0.00 0.00 0.00 0.00 0.02 0.23 0.51 0.88 0.62 0.27 0.11 0.01 0.00 0.01 0.05 0.10 0.12 0.07 0.06 0.05 0.05 0.06 0.06 0.04 0.02 0.02 0.05 0.06 0.07 0.10 0.13 0.05 0.00 0.00 0.00 0.00 0.00 0.00 0.00 0.01 0.01
0.65 0.49 0.17 0.08 0.01 0.00 0.00 0.00 0.00 0.00 0.00 0.00 0.00 0.12 0.46 0.78 1.30 0.56 0.32 0.18 0.02 0.03 0.05 0.10 0.06 0.06 0.04 0.03 0.04 0.06 0.06 0.05 0.02 0.02 0.02 0.05 0.06 0.06 0.08 0.02 0.00 0.00 0.00 0.01 0.00 0.00 0.00 0.01 0.02
0.54 0.74 0.31 0.05 0.01 0.01 0.00 0.00 0.00 0.00 0.00 0.00 0.00 0.04 0.26 0.38 1.44 1.07 0.64 0.50 0.16 0.09 0.06 0.04 0.02 0.03 0.02 0.01 0.01 0.03 0.05 0.03 0.02 0.01 0.01 0.00 0.00 0.01 0.02 0.00 0.00 0.00 0.01 0.01 0.01 0.01 0.03 0.03 0.02
0.85 1.05 0.66 0.13 0.04 0.02 0.00 0.00 0.00 0.00 0.00 0.01 0.01 0.12 0.10 0.17 1.20 1.42 0.92 0.77 0.32 0.17 0.15 0.08 0.04 0.01 0.01 0.00 0.00 0.01 0.03 0.02 0.01 0.00 0.00 0.00 0.00 0.00 0.00 0.00 0.00 0.00 0.02 0.02 0.02 0.01 0.03 0.02 0.01
1.32 1.29 0.40 0.09 0.06 0.02 0.04 0.01 0.00 0.00 0.01 0.05 0.06 0.04 0.05 0.16 0.45 1.45 1.51 0.87 0.47 0.18 0.13 0.08 0.04 0.01 0.01 0.00 0.00 0.00 0.01 0.01 0.01 0.00 0.00 0.00 0.00 0.00 0.00 0.00 0.00 0.00 0.03 0.02 0.03 0.01 0.01 0.01 0.00
0.99 1.06 0.29 0.29 0.26 0.22 0.11 0.03 0.00 0.00 0.01 0.01 0.04 0.08 0.11 0.11 0.22 0.55 1.17 1.55 1.08 0.65 0.38 0.20 0.07 0.02 0.01 0.00 0.00 0.00 0.00 0.00 0.00 0.00 0.00 0.00 0.00 0.00 0.00 0.00 0.00 0.00 0.01 0.00 0.01 0.00 0.00 0.00 0.00
0.50 0.59 0.43 0.47 0.46 0.43 0.15 0.05 0.01 0.00 0.00 0.00 0.04 0.13 0.21 0.29 0.28 0.25 0.51 1.21 2.38 1.59 0.89 0.63 0.22 0.03 0.01 0.01 0.00 0.00 0.00 0.00 0.00 0.00 0.00 0.00 0.00 0.00 0.00 0.00 0.00 0.00 0.00 0.00 0.00 0.00 0.00 0.00 0.00
0.32 0.44 0.54 0.71 0.62 0.42 0.23 0.14 0.03 0.01 0.00 0.02 0.03 0.08 0.18 0.40 0.31 0.33 0.43 0.53 1.41 2.59 1.96 0.89 0.56 0.20 0.06 0.03 0.02 0.00 0.00 0.00 0.00 0.00 0.00 0.00 0.00 0.00 0.00 0.00 0.00 0.00 0.00 0.00 0.00 0.00 0.00 0.00 0.00
0.13 0.42 0.66 0.94 0.78 0.81 0.33 0.19 0.10 0.02 0.02 0.10 0.16 0.18 0.13 0.20 0.22 0.34 0.51 0.61 0.51 0.59 1.32 1.40 0.87 0.42 0.15 0.06 0.03 0.03 0.00 0.00 0.00 0.00 0.00 0.00 0.00 0.00 0.00 0.00 0.00 0.00 0.00 0.00 0.00 0.00 0.00 0.00 0.00
0.18 0.55 0.92 1.06 1.21 1.09 0.52 0.49 0.17 0.03 0.04 0.10 0.13 0.18 0.23 0.29 0.35 0.34 0.37 0.48 0.47 0.42 0.46 0.66 0.80 0.76 0.34 0.19 0.09 0.05 0.08 0.03 0.01 0.00 0.00 0.00 0.00 0.00 0.00 0.00 0.00 0.00 0.00 0.00 0.00 0.00 0.00 0.00 0.00
0.38 0.72 0.82 0.90 1.27 1.70 0.92 0.48 0.11 0.07 0.06 0.06 0.14 0.21 0.23 0.24 0.23 0.33 0.26 0.21 0.32 0.31 0.22 0.31 0.43 0.74 0.72 0.57 0.32 0.25 0.20 0.11 0.11 0.07 0.01 0.00 0.00 0.00 0.00 0.00 0.00 0.00 0.00 0.00 0.00 0.00 0.00 0.00 0.00
0.46 0.39 0.47 0.56 0.74 1.59 1.09 0.56 0.16 0.09 0.04 0.01 0.05 0.12 0.20 0.28 0.28 0.28 0.24 0.17 0.19 0.24 0.34 0.43 0.34 0.30 0.46 0.66 0.63 0.63 0.46 0.23 0.18 0.14 0.03 0.01 0.01 0.02 0.01 0.00 0.00 0.00 0.00 0.00 0.00 0.00 0.00 0.00 0.00
0.10 0.15 0.23 0.43 0.48 0.89 1.08 0.51 0.34 0.11 0.03 0.01 0.00 0.02 0.02 0.08 0.08 0.14 0.18 0.13 0.13 0.35 0.29 0.26 0.29 0.19 0.20 0.43 0.75 0.65 0.52 0.45 0.28 0.11 0.04 0.12 0.07 0.07 0.07 0.03 0.02 0.01 0.00 0.00 0.00 0.00 0.00 0.00 0.01
0.07 0.11 0.11 0.27 0.41 0.42 0.53 0.46 0.43 0.14 0.03 0.01 0.01 0.00 0.00 0.01 0.02 0.02 0.13 0.12 0.13 0.37 0.34 0.21 0.16 0.29 0.31 0.34 0.46 0.61 0.46 0.55 0.57 0.49 0.45 0.22 0.24 0.26 0.21 0.09 0.07 0.08 0.04 0.04 0.03 0.03 0.02 0.02 0.06
0.18 0.16 0.13 0.27 0.46 0.38 0.28 0.22 0.23 0.30 0.03 0.00 0.00 0.00 0.00 0.00 0.00 0.01 0.01 0.07 0.23 0.26 0.34 0.45 0.38 0.57 0.39 0.36 0.33 0.38 0.61 0.67 0.84 0.88 0.69 0.76 0.61 0.55 0.40 0.23 0.19 0.14 0.08 0.06 0.05 0.06 0.09 0.08 0.15
0.18 0.16 0.12 0.15 0.28 0.31 0.29 0.13 0.04 0.15 0.11 0.01 0.00 0.00 0.00 0.00 0.00 0.00 0.00 0.01 0.07 0.14 0.18 0.22 0.38 0.35 0.19 0.29 0.49 0.57 0.65 0.58 0.54 0.37 0.23 0.33 0.62 0.76 0.74 0.58 0.53 0.53 0.35 0.20 0.11 0.16 0.19 0.18 0.15
0.21 0.10 0.16 0.28 0.25 0.16 0.28 0.17 0.00 0.02 0.06 0.04 0.00 0.00 0.00 0.00 0.00 0.00 0.00 0.00 0.00 0.02 0.12 0.12 0.12 0.20 0.37 0.54 0.69 0.45 0.40 0.51 0.33 0.52 0.50 0.65 0.60 0.61 0.69 0.57 0.46 0.38 0.31 0.27 0.30 0.31 0.29 0.28 0.16
0.28 0.10 0.18 0.36 0.48 0.40 0.18 0.20 0.01 0.00 0.01 0.00 0.00 0.00 0.00 0.00 0.00 0.00 0.00 0.00 0.00 0.00 0.00 0.02 0.16 0.27 0.47 0.40 0.51 0.67 0.77 0.63 0.54 0.55 0.43 0.45 0.54 0.55 0.56 0.50 0.45 0.36 0.34 0.38 0.29 0.23 0.22 0.23 0.25
0.30 0.32 0.36 0.60 0.65 0.75 0.30 0.07 0.01 0.00 0.00 0.00 0.00 0.00 0.00 0.00 0.00 0.00 0.00 0.00 0.00 0.00 0.00 0.00 0.01 0.06 0.20 0.30 0.31 0.46 0.40 0.35 0.31 0.38 0.48 0.44 0.41 0.31 0.28 0.27 0.22 0.25 0.20 0.19 0.24 0.35 0.35 0.32 0.34
0.62 0.72 1.16 1.13 1.28 0.46 0.15 0.16 0.06 0.00 0.00 0.00 0.00 0.00 0.00 0.00 0.00 0.00 0.00 0.00 0.00 0.00 0.00 0.00 0.00 0.00 0.02 0.09 0.20 0.28 0.31 0.30 0.28 0.32 0.37 0.35 0.28 0.18 0.11 0.16 0.19 0.16 0.18 0.23 0.31 0.29 0.32 0.41 0.40
0.70 0.60 0.69 0.47 0.35 0.17 0.08 0.26 0.05 0.00 0.00 0.00 0.00 0.00 0.00 0.00 0.00 0.00 0.00 0.00 0.00 0.00 0.00 0.00 0.00 0.00 0.00 0.00 0.04 0.14 0.16 0.20 0.21 0.25 0.24 0.25 0.23 0.17 0.11 0.18 0.21 0.20 0.19 0.17 0.24 0.24 0.20 0.26 0.29
0.77 0.67 0.36 0.50 0.18 0.27 0.09 0.08 0.04 0.01 0.00 0.00 0.00 0.00 0.00 0.00 0.00 0.00 0.00 0.00 0.00 0.00 0.00 0.00 0.00 0.00 0.00 0.01 0.01 0.01 0.02 0.05 0.12 0.12 0.11 0.09 0.08 0.09 0.08 0.12 0.18 0.19 0.18 0.20 0.21 0.23 0.22 0.22 0.25
0.56 0.33 0.51 1.04 0.61 0.19 0.06 0.02 0.04 0.00 0.00 0.00 0.00 0.00 0.00 0.00 0.00 0.00 0.00 0.00 0.00 0.00 0.00 0.00 0.00 0.00 0.00 0.03 0.03 0.01 0.04 0.04 0.04 0.04 0.04 0.05 0.05 0.06 0.07 0.08 0.08 0.09 0.09 0.12 0.16 0.18 0.20 0.25 0.25
0.60 0.59 0.39 0.52 0.43 0.25 0.11 0.02 0.00 0.00 0.01 0.01 0.01 0.00 0.00 0.00 0.00 0.00 0.00 0.00 0.00 0.00 0.00 0.00 0.00 0.00 0.01 0.02 0.00 0.00 0.02 0.04 0.03 0.03 0.03 0.04 0.05 0.03 0.04 0.04 0.04 0.05 0.05 0.06 0.07 0.09 0.12 0.16 0.17
0.23 0.24 0.18 0.66 0.43 0.37 0.32 0.13 0.00 0.01 0.01 0.01 0.01 0.01 0.01 0.01 0.00 0.00 0.00 0.00 0.00 0.00 0.00 0.00 0.00 0.01 0.02 0.01 0.00 0.01 0.04 0.04 0.04 0.04 0.04 0.05 0.06 0.05 0.05 0.04 0.03 0.02 0.03 0.06 0.12 0.16 0.18 0.18 0.18

GFSSGP_prec_precacc_093.txt.gz
Total_Precipitation_Accumulation
0.00 0.01 0.01 0.03 0.04 0.01 0.00 0.00 0.00 0.02 0.11 0.02 0.00 0.02 0.04 0.00 0.00 0.02 0.01 0.01 0.00 0.00 0.03 0.05 0.08 0.15 0.15 0.11 0.07 0.04 0.06 0.09 0.09 0.13 0.18 0.14 0.11 0.07 0.02 0.03 0.04 0.07 0.16 0.31 0.30 0.10 0.01 0.00 0.00
0.01 0.02 0.04 0.14 0.05 0.00 0.00 0.00 0.00 0.00 0.06 0.04 0.02 0.03 0.14 0.03 0.00 0.03 0.06 0.04 0.00 0.00 0.01 0.03 0.08 0.14 0.09 0.07 0.05 0.04 0.05 0.06 0.12 0.20 0.16 0.14 0.12 0.02 0.01 0.03 0.08 0.11 0.20 0.16 0.03 0.00 0.00 0.00 0.00
0.02 0.09 0.21 0.19 0.04 0.00 0.00 0.00 0.00 0.00 0.00 0.14 0.18 0.03 0.27 0.17 0.03 0.02 0.03 0.06 0.03 0.01 0.01 0.04 0.11 0.13 0.06 0.05 0.04 0.04 0.04 0.05 0.11 0.14 0.19 0.20 0.08 0.07 0.06 0.06 0.05 0.04 0.02 0.01 0.01 0.00 0.00 0.00 0.00
0.10 0.26 0.32 0.13 0.05 0.00 0.00 0.00 0.00 0.00 0.01 0.03 0.21 0.17 0.38 0.32 0.04 0.02 0.04 0.05 0.02 0.02 0.02 0.06 0.15 0.09 0.04 0.06 0.07 0.04 0.04 0.04 0.05 0.07 0.07 0.07 0.08 0.11 0.11 0.03 0.00 0.00 0.00 0.00 0.00 0.00 0.00 0.00 0.00
0.21 0.38 0.21 0.16 0.07 0.00 0.00 0.00 0.00 0.00 0.00 0.00 0.12 0.36 0.48 0.58 0.18 0.20 0.04 0.03 0.01 0.02 0.04 0.07 0.16 0.07 0.03 0.07 0.06 0.06 0.05 0.03 0.02 0.03 0.04 0.06 0.08 0.13 0.15 0.03 0.00 0.00 0.00 0.00 0.00 0.00 0.00 0.00 0.00
0.56 0.43 0.24 0.13 0.03 0.00 0.00 0.00 0.00 0.00 0.00 0.00 0.03 0.29 0.62 0.97 0.80 0.53 0.13 0.03 0.01 0.01 0.06 0.13 0.15 0.07 0.06 0.05 0.06 0.07 0.06 0.04 0.02 0.02 0.05 0.06 0.07 0.11 0.13 0.05 0.00 0.00 0.00 0.00 0.00 0.00 0.00 0.01 0.01
0.66 0.50 0.18 0.08 0.01 0.00 0.00 0.01 0.00 0.00 0.00 0.00 0.00 0.13 0.54 0.88 1.58 0.88 0.41 0.21 0.03 0.04 0.06 0.13 0.07 0.06 0.04 0.03 0.05 0.07 0.06 0.05 0.02 0.02 0.02 0.05 0.06 0.07 0.08 0.02 0.00 0.00 0.00 0.01 0.00 0.00 0.00 0.01 0.02
0.55 0.77 0.31 0.06 0.01 0.01 0.00 0.01 0.00 0.00 0.00 0.01 0.01 0.04 0.29 0.50 1.74 1.56 0.86 0.54 0.19 0.13 0.10 0.05 0.03 0.03 0.02 0.01 0.02 0.04 0.06 0.03 0.02 0.01 0.01 0.00 0.00 0.01 0.02 0.01 0.00 0.00 0.01 0.01 0.01 0.01 0.03 0.03 0.02
0.89 1.09 0.66 0.14 0.04 0.02 0.01 0.01 0.01 0.00 0.00 0.01 0.01 0.12 0.10 0.25 1.46 2.21 1.60 0.87 0.39 0.25 0.20 0.08 0.05 0.01 0.01 0.00 0.00 0.02 0.04 0.02 0.01 0.00 0.00 0.00 0.00 0.00 0.00 0.00 0.00 0.00 0.02 0.02 0.02 0.01 0.03 0.02 0.01
1.38 1.33 0.40 0.09 0.06 0.02 0.04 0.01 0.01 0.01 0.01 0.05 0.07 0.05 0.05 0.19 0.73 2.54 3.36 1.33 0.58 0.22 0.20 0.09 0.05 0.01 0.01 0.00 0.00 0.00 0.02 0.02 0.01 0.00 0.00 0.00 0.00 0.00 0.00 0.00 0.00 0.00 0.03 0.02 0.03 0.01 0.01 0.01 0.00
1.04 1.08 0.29 0.29 0.26 0.23 0.12 0.03 0.01 0.04 0.04 0.01 0.05 0.08 0.11 0.13 0.34 1.31 2.40 2.03 1.34 0.77 0.49 0.21 0.07 0.02 0.01 0.00 0.00 0.00 0.00 0.01 0.00 0.00 0.00 0.00 0.00 0.00 0.00 0.00 0.00 0.00 0.01 0.00 0.01 0.00 0.00 0.00 0.00
0.55 0.60 0.43 0.47 0.47 0.46 0.17 0.09 0.04 0.04 0.01 0.01 0.05 0.15 0.23 0.30 0.32 0.49 0.83 1.40 2.60 1.80 1.05 0.66 0.23 0.03 0.01 0.01 0.00 0.00 0.00 0.00 0.00 0.00 0.00 0.00 0.00 0.00 0.00 0.00 0.00 0.00 0.00 0.00 0.00 0.00 0.00 0.00 0.00
0.36 0.46 0.56 0.71 0.62 0.45 0.28 0.16 0.06 0.03 0.02 0.04 0.13 0.22 0.25 0.43 0.32 0.36 0.48 0.56 1.62 2.87 2.28 1.01 0.57 0.20 0.06 0.03 0.02 0.00 0.00 0.00 0.00 0.00 0.00 0.00 0.00 0.00 0.00 0.00 0.00 0.00 0.00 0.00 0.00 0.00 0.00 0.00 0.00
0.17 0.43 0.68 0.95 0.78 0.85 0.45 0.23 0.12 0.04 0.06 0.17 0.34 0.23 0.19 0.22 0.23 0.35 0.52 0.62 0.56 0.98 1.56 1.48 0.91 0.42 0.15 0.06 0.03 0.03 0.00 0.00 0.00 0.00 0.00 0.00 0.00 0.00 0.00 0.00 0.00 0.00 0.00 0.00 0.00 0.00 0.00 0.00 0.00
0.22 0.63 0.96 1.07 1.22 1.18 0.81 0.68 0.20 0.04 0.11 0.24 0.33 0.33 0.29 0.30 0.35 0.38 0.38 0.48 0.47 0.61 0.62 0.67 0.81 0.76 0.34 0.19 0.09 0.05 0.08 0.03 0.01 0.00 0.00 0.00 0.00 0.00 0.00 0.00 0.00 0.00 0.00 0.00 0.00 0.00 0.00 0.00 0.00
0.42 0.78 0.88 0.91 1.28 1.88 1.42 0.78 0.19 0.08 0.14 0.18 0.35 0.50 0.37 0.26 0.24 0.39 0.34 0.28 0.33 0.33 0.23 0.31 0.43 0.74 0.72 0.57 0.32 0.25 0.20 0.11 0.11 0.07 0.01 0.00 0.00 0.00 0.00 0.00 0.00 0.00 0.00 0.00 0.00 0.00 0.00 0.00 0.00
0.51 0.43 0.52 0.57 0.76 1.83 1.68 0.98 0.35 0.12 0.09 0.08 0.15 0.27 0.43 0.49 0.50 0.49 0.40 0.23 0.27 0.31 0.37 0.43 0.34 0.30 0.46 0.66 0.63 0.63 0.46 0.24 0.18 0.14 0.03 0.01 0.01 0.02 0.01 0.00 0.00 0.00 0.00 0.00 0.00 0.00 0.00 0.00 0.00
0.11 0.16 0.24 0.44 0.50 1.04 1.55 0.96 0.50 0.14 0.06 0.05 0.06 0.11 0.13 0.31 0.36 0.37 0.36 0.21 0.19 0.40 0.31 0.27 0.29 0.19 0.20 0.43 0.75 0.65 0.52 0.45 0.29 0.13 0.05 0.14 0.07 0.07 0.07 0.03 0.02 0.01 0.00 0.00 0.00 0.00 0.00 0.00 0.01
0.08 0.13 0.13 0.29 0.44 0.50 0.87 0.83 0.58 0.17 0.05 0.04 0.05 0.05 0.08 0.14 0.26 0.32 0.37 0.32 0.24 0.42 0.34 0.23 0.16 0.29 0.31 0.34 0.46 0.62 0.46 0.55 0.57 0.53 0.52 0.26 0.25 0.26 0.21 0.09 0.07 0.08 0.04 0.04 0.03 0.03 0.02 0.02 0.06
0.21 0.17 0.14 0.29 0.52 0.56 0.55 0.61 0.34 0.33 0.06 0.03 0.03 0.02 0.02 0.04 0.11 0.20 0.15 0.16 0.32 0.33 0.40 0.47 0.40 0.57 0.39 0.36 0.33 0.38 0.62 0.69 0.85 0.91 0.77 0.90 0.74 0.67 0.51 0.28 0.20 0.15 0.11 0.08 0.05 0.06 0.09 0.08 0.15
0.20 0.17 0.12 0.19 0.34 0.35 0.39 0.41 0.20 0.17 0.13 0.03 0.01 0.00 0.00 0.00 0.01 0.04 0.14 0.13 0.20 0.24 0.27 0.29 0.45 0.40 0.20 0.30 0.49 0.63 0.74 0.62 0.57 0.41 0.31 0.39 0.77 0.90 0.92 0.78 0.73 0.71 0.54 0.38 0.25 0.22 0.20 0.18 0.15
0.23 0.10 0.16 0.28 0.25 0.17 0.31 0.27 0.11 0.06 0.10 0.07 0.01 0.00 0.00 0.00 0.00 0.00 0.04 0.08 0.05 0.05 0.17 0.19 0.19 0.28 0.45 0.71 0.88 0.66 0.58 0.63 0.43 0.62 0.62 0.78 0.75 0.78 0.88 0.85 0.72 0.57 0.40 0.35 0.40 0.41 0.36 0.31 0.17
0.29 0.11 0.19 0.36 0.48 0.40 0.19 0.22 0.06 0.02 0.02 0.03 0.01 0.01 0.00 0.00 0.00 0.00 0.00 0.00 0.01 0.02 0.02 0.05 0.24 0.39 0.62 0.62 0.82 1.00 1.07 0.86 0.81 0.87 0.76 0.76 0.91 1.04 1.06 0.93 0.82 0.62 0.49 0.48 0.38 0.31 0.26 0.24 0.25
0.31 0.34 0.37 0.60 0.65 0.75 0.30 0.08 0.02 0.00 0.00 0.00 0.01 0.00 0.02 0.00 0.00 0.00 0.00 0.00 0.00 0.00 0.00 0.00 0.02 0.08 0.23 0.35 0.40 0.59 0.53 0.57 0.52 0.56 0.68 0.71 0.82 0.88 0.86 0.68 0.47 0.41 0.27 0.23 0.29 0.39 0.36 0.32 0.34
0.63 0.81 1.21 1.16 1.29 0.46 0.15 0.16 0.06 0.00 0.00 0.00 0.00 0.00 0.01 0.01 0.00 0.00 0.00 0.00 0.00 0.00 0.00 0.00 0.00 0.00 0.02 0.10 0.22 0.34 0.42 0.43 0.44 0.47 0.48 0.44 0.38 0.34 0.29 0.31 0.27 0.18 0.19 0.23 0.32 0.29 0.32 0.41 0.40
0.77 0.64 0.70 0.47 0.35 0.17 0.08 0.26 0.05 0.00 0.00 0.00 0.00 0.00 0.00 0.00 0.00 0.00 0.00 0.00 0.00 0.00 0.00 0.00 0.00 0.00 0.00 0.00 0.04 0.16 0.19 0.23 0.26 0.31 0.33 0.34 0.34 0.29 0.21 0.24 0.23 0.20 0.19 0.17 0.24 0.24 0.20 0.26 0.29
0.77 0.67 0.36 0.50 0.18 0.27 0.09 0.08 0.04 0.01 0.00 0.00 0.00 0.00 0.00 0.00 0.00 0.00 0.00 0.00 0.00 0.00 0.00 0.00 0.00 0.00 0.00 0.01 0.01 0.01 0.02 0.05 0.12 0.12 0.12 0.11 0.11 0.12 0.10 0.12 0.18 0.19 0.18 0.20 0.21 0.23 0.22 0.22 0.25
0.56 0.33 0.51 1.04 0.61 0.19 0.06 0.02 0.04 0.00 0.00 0.00 0.00 0.00 0.00 0.00 0.00 0.00 0.00 0.00 0.00 0.00 0.00 0.00 0.00 0.00 0.00 0.03 0.03 0.01 0.04 0.04 0.04 0.04 0.04 0.05 0.05 0.06 0.07 0.08 0.08 0.09 0.09 0.12 0.16 0.18 0.20 0.25 0.25
0.60 0.59 0.39 0.52 0.43 0.25 0.11 0.02 0.00 0.00 0.01 0.01 0.01 0.00 0.00 0.00 0.00 0.00 0.00 0.00 0.00 0.00 0.00 0.00 0.00 0.00 0.01 0.02 0.00 0.00 0.02 0.04 0.03 0.03 0.03 0.04 0.05 0.03 0.04 0.04 0.04 0.05 0.05 0.06 0.07 0.09 0.12 0.16 0.17
0.23 0.24 0.18 0.66 0.43 0.37 0.32 0.13 0.00 0.01 0.01 0.01 0.01 0.01 0.01 0.01 0.00 0.00 0.00 0.00 0.00 0.00 0.00 0.00 0.00 0.01 0.02 0.01 0.00 0.01 0.04 0.04 0.04 0.04 0.04 0.05 0.06 0.05 0.05 0.04 0.03 0.02 0.03 0.06 0.12 0.16 0.18 0.18 0.18

GFSSGP_prec_precacc_096.txt.gz
Total_Precipitation_Accumulation
0.00 0.01 0.01 0.04 0.04 0.01 0.00 0.00 0.00 0.02 0.11 0.03 0.01 0.03 0.06 0.00 0.00 0.02 0.01 0.01 0.00 0.01 0.04 0.06 0.08 0.15 0.15 0.11 0.07 0.04 0.07 0.09 0.10 0.13 0.19 0.16 0.15 0.08 0.02 0.03 0.04 0.07 0.16 0.31 0.30 0.11 0.01 0.00 0.00
0.02 0.02 0.04 0.15 0.05 0.00 0.00 0.00 0.00 0.00 0.06 0.04 0.05 0.05 0.15 0.06 0.00 0.03 0.06 0.04 0.01 0.01 0.02 0.04 0.09 0.14 0.09 0.07 0.05 0.04 0.06 0.07 0.14 0.22 0.20 0.19 0.16 0.02 0.01 0.03 0.08 0.11 0.21 0.16 0.03 0.00 0.01 0.00 0.00
0.02 0.09 0.21 0.20 0.05 0.00 0.00 0.00 0.00 0.00 0.00 0.14 0.23 0.09 0.29 0.20 0.06 0.03 0.03 0.07 0.05 0.02 0.03 0.05 0.12 0.13 0.06 0.05 0.04 0.04 0.04 0.08 0.18 0.24 0.29 0.33 0.14 0.07 0.06 0.06 0.06 0.04 0.03 0.02 0.01 0.00 0.00 0.00 0.00
0.10 0.27 0.34 0.13 0.05 0.00 0.00 0.00 0.00 0.00 0.01 0.03 0.22 0.23 0.43 0.37 0.08 0.07 0.05 0.06 0.05 0.04 0.03 0.07 0.16 0.10 0.04 0.06 0.07 0.05 0.04 0.05 0.14 0.20 0.23 0.19 0.10 0.12 0.12 0.03 0.01 0.01 0.01 0.01 0.01 0.00 0.00 0.00 0.00
0.22 0.40 0.21 0.16 0.07 0.00 0.00 0.00 0.00 0.00 0.00 0.00 0.12 0.38 0.51 0.62 0.26 0.35 0.12 0.04 0.03 0.04 0.06 0.08 0.17 0.08 0.03 0.07 0.06 0.06 0.06 0.04 0.06 0.12 0.09 0.07 0.08 0.13 0.15 0.03 0.01 0.01 0.01 0.01 0.00 0.00 0.00 0.00 0.00
0.57 0.44 0.24 0.14 0.03 0.00 0.00 0.00 0.00 0.00 0.00 0.01 0.04 0.29 0.65 0.98 0.88 0.78 0.37 0.07 0.02 0.03 0.08 0.14 0.17 0.08 0.06 0.05 0.07 0.07 0.06 0.05 0.03 0.05 0.05 0.06 0.08 0.11 0.14 0.05 0.01 0.01 0.01 0.01 0.00 0.00 0.00 0.01 0.01
0.67 0.50 0.18 0.08 0.01 0.00 0.00 0.01 0.00 0.00 0.01 0.02 0.00 0.13 0.54 0.90 1.61 1.14 0.76 0.31 0.05 0.06 0.08 0.15 0.09 0.06 0.04 0.04 0.05 0.07 0.06 0.05 0.02 0.02 0.02 0.05 0.07 0.07 0.08 0.03 0.01 0.01 0.01 0.01 0.00 0.00 0.00 0.01 0.02
0.57 0.79 0.31 0.06 0.01 0.01 0.00 0.02 0.00 0.00 0.00 0.01 0.02 0.06 0.29 0.51 1.76 1.79 1.56 0.87 0.24 0.17 0.12 0.09 0.04 0.03 0.02 0.02 0.02 0.04 0.06 0.03 0.02 0.01 0.01 0.00 0.00 0.02 0.02 0.01 0.00 0.01 0.01 0.01 0.01 0.01 0.03 0.03 0.02
0.92 1.13 0.67 0.14 0.04 0.02 0.01 0.01 0.01 0.01 0.00 0.01 0.01 0.12 0.10 0.25 1.49 2.36 2.73 2.26 0.57 0.33 0.28 0.13 0.06 0.01 0.01 0.01 0.01 0.02 0.04 0.02 0.01 0.00 0.00 0.00 0.00 0.00 0.00 0.00 0.00 0.00 0.02 0.02 0.02 0.01 0.03 0.02 0.01
1.40 1.34 0.40 0.09 0.06 0.02 0.04 0.01 0.01 0.02 0.01 0.06 0.10 0.08 0.06 0.20 0.75 2.59 3.96 3.83 1.62 0.31 0.28 0.11 0.05 0.01 0.01 0.01 0.01 0.02 0.02 0.02 0.01 0.00 0.00 0.00 0.00 0.00 0.00 0.00 0.00 0.00 0.03 0.02 0.03 0.01 0.01 0.01 0.00
1.05 1.09 0.29 0.29 0.26 0.24 0.13 0.04 0.01 0.05 0.05 0.01 0.05 0.11 0.12 0.15 0.37 1.39 2.75 3.84 3.24 1.17 0.61 0.22 0.07 0.02 0.01 0.00 0.01 0.02 0.02 0.01 0.00 0.00 0.00 0.00 0.00 0.00 0.00 0.00 0.00 0.00 0.01 0.00 0.01 0.00 0.00 0.00 0.00
0.55 0.60 0.43 0.47 0.47 0.47 0.18 0.10 0.07 0.05 0.02 0.01 0.06 0.27 0.31 0.32 0.37 0.58 1.15 1.97 3.58 2.57 1.29 0.67 0.23 0.03 0.01 0.01 0.00 0.01 0.02 0.00 0.00 0.00 0.00 0.00 0.00 0.00 0.00 0.00 0.00 0.00 0.00 0.00 0.00 0.00 0.00 0.00 0.00
0.36 0.46 0.56 0.71 0.62 0.47 0.31 0.19 0.11 0.05 0.02 0.04 0.19 0.38 0.44 0.48 0.35 0.39 0.63 0.76 2.14 3.77 2.84 1.12 0.58 0.20 0.06 0.03 0.02 0.01 0.01 0.01 0.00 0.00 0.00 0.00 0.00 0.00 0.00 0.00 0.00 0.00 0.00 0.00 0.00 0.00 0.00 0.00 0.00
0.17 0.44 0.68 0.97 0.79 0.86 0.47 0.24 0.16 0.06 0.09 0.18 0.40 0.37 0.38 0.34 0.23 0.36 0.55 0.68 0.68 1.44 2.25 1.85 1.04 0.44 0.15 0.06 0.03 0.03 0.00 0.00 0.00 0.00 0.00 0.00 0.00 0.00 0.00 0.00 0.00 0.00 0.00 0.00 0.00 0.00 0.00 0.00 0.00
0.23 0.64 0.98 1.08 1.23 1.21 0.85 0.69 0.21 0.04 0.11 0.25 0.35 0.40 0.52 0.44 0.37 0.38 0.39 0.49 0.47 0.74 1.27 1.00 0.96 0.84 0.34 0.19 0.09 0.05 0.08 0.03 0.01 0.00 0.00 0.00 0.00 0.00 0.00 0.00 0.00 0.00 0.00 0.00 0.00 0.00 0.00 0.00 0.00
0.50 0.93 0.99 0.93 1.29 1.91 1.48 0.79 0.19 0.08 0.14 0.19 0.39 0.60 0.55 0.37 0.26 0.39 0.34 0.28 0.33 0.36 0.52 0.49 0.51 0.83 0.72 0.57 0.32 0.25 0.20 0.11 0.11 0.07 0.01 0.00 0.00 0.00 0.00 0.00 0.00 0.00 0.00 0.00 0.00 0.00 0.00 0.00 0.00
0.56 0.55 0.66 0.64 0.77 1.84 1.70 0.98 0.38 0.18 0.11 0.09 0.18 0.36 0.62 0.67 0.56 0.50 0.40 0.24 0.29 0.32 0.39 0.49 0.37 0.32 0.46 0.66 0.63 0.63 0.46 0.24 0.18 0.14 0.03 0.01 0.01 0.02 0.01 0.00 0.00 0.00 0.00 0.00 0.00 0.00 0.00 0.00 0.00
0.16 0.18 0.28 0.50 0.52 1.04 1.56 0.98 0.62 0.31 0.17 0.06 0.07 0.15 0.27 0.56 0.58 0.41 0.39 0.25 0.24 0.43 0.32 0.27 0.30 0.19 0.20 0.43 0.75 0.65 0.52 0.45 0.29 0.13 0.05 0.14 0.07 0.07 0.07 0.03 0.02 0.01 0.00 0.00 0.00 0.00 0.00 0.00 0.01
0.13 0.18 0.17 0.36 0.48 0.51 0.88 0.89 0.71 0.33 0.25 0.09 0.06 0.08 0.17 0.42 0.58 0.55 0.54 0.44 0.34 0.48 0.35 0.23 0.18 0.29 0.31 0.35 0.46 0.62 0.46 0.55 0.57 0.53 0.52 0.26 0.26 0.27 0.22 0.10 0.07 0.08 0.04 0.04 0.03 0.03 0.02 0.02 0.06
0.24 0.21 0.19 0.32 0.54 0.56 0.56 0.65 0.50 0.48 0.22 0.14 0.05 0.06 0.10 0.19 0.38 0.86 0.61 0.43 0.48 0.47 0.44 0.49 0.40 0.58 0.39 0.36 0.33 0.38 0.62 0.69 0.85 0.91 0.78 0.92 0.77 0.72 0.58 0.34 0.22 0.15 0.11 0.08 0.07 0.09 0.13 0.09 0.15
0.24 0.19 0.14 0.22 0.35 0.35 0.41 0.54 0.42 0.35 0.27 0.12 0.04 0.04 0.06 0.07 0.16 0.49 0.56 0.52 0.63 0.55 0.35 0.33 0.47 0.40 0.20 0.30 0.50 0.64 0.74 0.62 0.57 0.41 0.31 0.41 0.85 0.98 1.04 0.93 0.90 0.82 0.62 0.44 0.31 0.26 0.23 0.25 0.18
0.26 0.12 0.17 0.30 0.26 0.17 0.31 0.42 0.33 0.27 0.24 0.10 0.04 0.03 0.04 0.03 0.04 0.15 0.25 0.33 0.33 0.23 0.24 0.23 0.21 0.29 0.46 0.71 0.88 0.67 0.61 0.66 0.45 0.66 0.67 0.83 0.82 0.83 1.02 1.09 0.98 1.00 0.73 0.48 0.45 0.43 0.37 0.33 0.19
0.35 0.13 0.19 0.36 0.48 0.40 0.19 0.33 0.23 0.15 0.09 0.06 0.03 0.03 0.02 0.01 0.01 0.03 0.08 0.09 0.19 0.16 0.07 0.10 0.25 0.42 0.63 0.63 0.86 1.17 1.41 1.03 0.88 0.96 0.88 0.88 1.05 1.17 1.20 1.20 1.23 1.12 1.10 0.90 0.56 0.40 0.30 0.24 0.25
0.35 0.40 0.40 0.61 0.65 0.75 0.32 0.18 0.12 0.04 0.03 0.05 0.02 0.01 0.02 0.00 0.00 0.01 0.00 0.01 0.04 0.05 0.07 0.04 0.02 0.12 0.29 0.39 0.47 0.75 0.72 0.76 0.60 0.63 0.80 0.84 0.95 1.04 1.21 1.20 1.10 1.04 0.68 0.47 0.42 0.43 0.39 0.34 0.34
0.67 0.83 1.22 1.16 1.29 0.46 0.17 0.20 0.09 0.00 0.00 0.01 0.02 0.00 0.01 0.02 0.00 0.00 0.00 0.00 0.00 0.00 0.00 0.00 0.00 0.00 0.04 0.13 0.28 0.43 0.59 0.67 0.61 0.58 0.56 0.56 0.48 0.43 0.40 0.50 0.53 0.49 0.43 0.31 0.33 0.30 0.33 0.42 0.40
0.85 0.65 0.71 0.48 0.35 0.18 0.08 0.27 0.05 0.00 0.00 0.00 0.02 0.00 0.00 0.01 0.01 0.00 0.00 0.00 0.00 0.00 0.00 0.00 0.00 0.00 0.00 0.00 0.05 0.22 0.23 0.26 0.31 0.34 0.36 0.42 0.43 0.37 0.28 0.30 0.28 0.24 0.21 0.17 0.24 0.24 0.20 0.26 0.29
0.79 0.67 0.36 0.50 0.18 0.28 0.10 0.09 0.04 0.01 0.00 0.00 0.00 0.00 0.00 0.00 0.00 0.01 0.00 0.00 0.00 0.00 0.00 0.00 0.00 0.00 0.00 0.01 0.01 0.01 0.03 0.07 0.14 0.12 0.12 0.12 0.13 0.16 0.14 0.15 0.19 0.20 0.18 0.20 0.21 0.23 0.22 0.22 0.25
0.56 0.33 0.51 1.04 0.61 0.20 0.06 0.02 0.04 0.01 0.00 0.00 0.00 0.00 0.00 0.00 0.00 0.00 0.00 0.00 0.00 0.00 0.00 0.00 0.00 0.00 0.00 0.03 0.03 0.01 0.04 0.04 0.04 0.04 0.04 0.05 0.05 0.08 0.10 0.10 0.09 0.09 0.09 0.12 0.16 0.18 0.20 0.25 0.25
0.60 0.59 0.39 0.52 0.43 0.25 0.11 0.02 0.00 0.00 0.01 0.01 0.01 0.00 0.00 0.00 0.00 0.00 0.00 0.00 0.00 0.00 0.00 0.00 0.00 0.00 0.01 0.02 0.00 0.00 0.02 0.04 0.03 0.03 0.03 0.04 0.05 0.04 0.04 0.04 0.04 0.05 0.05 0.06 0.07 0.09 0.12 0.16 0.17
0.23 0.24 0.18 0.66 0.43 0.37 0.32 0.13 0.00 0.01 0.01 0.01 0.01 0.01 0.01 0.01 0.00 0.00 0.00 0.00 0.00 0.00 0.00 0.00 0.00 0.01 0.02 0.01 0.00 0.01 0.04 0.04 0.04 0.04 0.04 0.05 0.06 0.05 0.05 0.04 0.03 0.02 0.03 0.06 0.12 0.16 0.18 0.18 0.18

GFSSGP_prec_precacc_099.txt.gz
Total_Precipitation_Accumulation
0.00 0.01 0.01 0.04 0.04 0.01 0.00 0.00 0.00 0.02 0.11 0.03 0.01 0.03 0.06 0.01 0.00 0.03 0.01 0.01 0.00 0.01 0.04 0.06 0.09 0.15 0.15 0.11 0.07 0.04 0.07 0.09 0.10 0.14 0.20 0.17 0.19 0.08 0.02 0.03 0.04 0.07 0.16 0.32 0.31 0.11 0.01 0.00 0.00
0.02 0.02 0.04 0.16 0.06 0.00 0.00 0.00 0.00 0.00 0.06 0.04 0.05 0.05 0.15 0.06 0.00 0.03 0.06 0.04 0.01 0.01 0.03 0.04 0.09 0.14 0.09 0.07 0.05 0.04 0.06 0.08 0.14 0.22 0.21 0.22 0.22 0.02 0.01 0.03 0.08 0.11 0.22 0.17 0.04 0.00 0.01 0.00 0.00
0.02 0.09 0.21 0.20 0.05 0.00 0.00 0.00 0.00 0.00 0.00 0.14 0.23 0.09 0.29 0.20 0.07 0.04 0.04 0.07 0.05 0.04 0.04 0.06 0.12 0.13 0.06 0.06 0.04 0.05 0.04 0.08 0.19 0.25 0.33 0.39 0.20 0.07 0.06 0.06 0.06 0.04 0.03 0.02 0.02 0.00 0.00 0.00 0.00
0.10 0.27 0.34 0.13 0.05 0.00 0.00 0.00 0.00 0.00 0.01 0.03 0.22 0.23 0.43 0.37 0.08 0.09 0.07 0.06 0.05 0.07 0.07 0.08 0.16 0.10 0.04 0.06 0.07 0.05 0.05 0.06 0.16 0.24 0.31 0.27 0.13 0.12 0.12 0.04 0.01 0.01 0.02 0.02 0.01 0.00 0.00 0.00 0.00
0.22 0.40 0.21 0.16 0.07 0.00 0.00 0.00 0.00 0.00 0.00 0.00 0.12 0.38 0.51 0.62 0.26 0.36 0.15 0.07 0.03 0.06 0.10 0.09 0.18 0.08 0.03 0.07 0.06 0.07 0.07 0.06 0.10 0.18 0.15 0.11 0.08 0.13 0.15 0.04 0.01 0.02 0.02 0.01 0.00 0.00 0.00 0.00 0.00
0.57 0.44 0.24 0.14 0.03 0.00 0.00 0.00 0.00 0.00 0.00 0.01 0.04 0.29 0.65 0.98 0.88 0.79 0.45 0.21 0.06 0.07 0.15 0.16 0.19 0.09 0.06 0.05 0.07 0.08 0.08 0.07 0.09 0.11 0.11 0.07 0.08 0.11 0.14 0.06 0.02 0.02 0.02 0.01 0.00 0.00 0.00 0.01 0.01
0.67 0.50 0.18 0.08 0.01 0.00 0.00 0.01 0.00 0.00 0.01 0.02 0.00 0.13 0.54 0.90 1.61 1.14 0.85 0.60 0.24 0.11 0.15 0.18 0.12 0.08 0.04 0.04 0.05 0.09 0.07 0.08 0.06 0.05 0.05 0.06 0.07 0.07 0.09 0.03 0.02 0.02 0.02 0.02 0.00 0.00 0.00 0.01 0.02
0.57 0.79 0.31 0.06 0.01 0.01 0.00 0.02 0.00 0.00 0.00 0.01 0.02 0.06 0.29 0.51 1.76 1.80 1.60 1.30 0.78 0.57 0.25 0.15 0.09 0.05 0.02 0.02 0.02 0.05 0.07 0.04 0.04 0.02 0.01 0.00 0.00 0.02 0.03 0.02 0.01 0.02 0.02 0.01 0.01 0.01 0.03 0.03 0.02
0.92 1.13 0.67 0.14 0.04 0.02 0.01 0.01 0.01 0.01 0.00 0.01 0.01 0.12 0.10 0.25 1.50 2.37 2.75 2.71 1.86 1.32 0.74 0.25 0.11 0.03 0.01 0.01 0.01 0.02 0.05 0.03 0.02 0.00 0.00 0.00 0.00 0.00 0.00 0.00 0.00 0.01 0.03 0.02 0.02 0.01 0.03 0.02 0.01
1.40 1.34 0.40 0.09 0.06 0.02 0.04 0.01 0.01 0.02 0.01 0.06 0.10 0.09 0.06 0.20 0.75 2.60 3.99 3.98 2.69 1.62 1.02 0.56 0.12 0.01 0.01 0.01 0.02 0.02 0.02 0.02 0.01 0.00 0.00 0.00 0.00 0.00 0.00 0.00 0.00 0.00 0.03 0.02 0.03 0.01 0.01 0.01 0.00
1.05 1.09 0.29 0.29 0.26 0.24 0.13 0.04 0.01 0.05 0.05 0.01 0.05 0.12 0.22 0.26 0.41 1.40 2.79 3.97 3.76 2.18 1.24 0.71 0.24 0.03 0.01 0.01 0.02 0.02 0.02 0.01 0.00 0.00 0.00 0.00 0.00 0.00 0.00 0.00 0.00 0.00 0.01 0.00 0.01 0.00 0.00 0.00 0.00
0.55 0.60 0.43 0.47 0.47 0.47 0.18 0.10 0.07 0.05 0.02 0.01 0.06 0.27 0.41 0.54 0.46 0.61 1.19 2.03 3.86 3.42 1.76 1.02 0.58 0.06 0.02 0.03 0.02 0.02 0.02 0.00 0.00 0.00 0.00 0.00 0.00 0.00 0.00 0.00 0.00 0.00 0.00 0.00 0.00 0.00 0.00 0.00 0.00
0.36 0.46 0.56 0.71 0.62 0.47 0.32 0.19 0.11 0.05 0.02 0.04 0.20 0.39 0.49 0.75 0.59 0.44 0.64 0.77 2.22 4.13 3.61 1.92 1.05 0.26 0.06 0.07 0.07 0.04 0.02 0.01 0.00 0.00 0.00 0.00 0.00 0.00 0.00 0.00 0.00 0.00 0.00 0.00 0.00 0.00 0.00 0.00 0.00
0.18 0.44 0.68 0.97 0.79 0.86 0.47 0.24 0.18 0.06 0.10 0.18 0.40 0.37 0.39 0.45 0.40 0.42 0.55 0.68 0.72 1.61 3.05 3.53 1.76 0.47 0.15 0.08 0.06 0.07 0.02 0.01 0.00 0.00 0.00 0.00 0.00 0.00 0.00 0.00 0.00 0.00 0.00 0.00 0.00 0.00 0.00 0.00 0.00
0.23 0.64 0.99 1.08 1.23 1.21 0.87 0.70 0.22 0.04 0.11 0.26 0.35 0.40 0.52 0.49 0.54 0.47 0.39 0.49 0.49 0.77 1.59 2.21 1.63 0.94 0.35 0.19 0.10 0.07 0.10 0.03 0.01 0.00 0.00 0.00 0.00 0.00 0.00 0.00 0.00 0.00 0.00 0.00 0.00 0.00 0.00 0.00 0.00
0.50 0.94 0.99 0.93 1.30 1.91 1.54 0.81 0.19 0.10 0.16 0.20 0.40 0.60 0.56 0.43 0.38 0.51 0.36 0.28 0.33 0.37 0.67 1.02 0.74 1.08 0.79 0.57 0.32 0.25 0.20 0.12 0.11 0.07 0.01 0.00 0.00 0.00 0.00 0.00 0.00 0.00 0.00 0.00 0.00 0.00 0.00 0.00 0.00
0.56 0.57 0.73 0.73 0.77 1.87 1.75 1.02 0.40 0.19 0.13 0.10 0.19 0.37 0.63 0.72 0.71 0.69 0.45 0.25 0.29 0.32 0.41 0.58 0.48 0.40 0.62 0.73 0.64 0.63 0.46 0.24 0.18 0.14 0.03 0.01 0.01 0.02 0.01 0.00 0.00 0.00 0.00 0.00 0.00 0.00 0.00 0.00 0.00
0.17 0.20 0.33 0.59 0.54 1.08 1.61 0.99 0.69 0.34 0.17 0.06 0.07 0.15 0.29 0.61 0.77 0.72 0.50 0.31 0.25 0.43 0.32 0.28 0.36 0.26 0.28 0.51 0.79 0.65 0.52 0.45 0.29 0.13 0.05 0.14 0.07 0.07 0.07 0.03 0.02 0.01 0.00 0.00 0.00 0.00 0.00 0.00 0.01
0.13 0.20 0.23 0.47 0.61 0.52 0.89 0.89 0.72 0.33 0.25 0.09 0.06 0.08 0.20 0.49 0.80 0.92 0.77 0.50 0.41 0.50 0.36 0.24 0.19 0.34 0.35 0.42 0.51 0.62 0.46 0.55 0.57 0.53 0.52 0.26 0.26 0.27 0.22 0.10 0.07 0.08 0.04 0.04 0.03 0.03 0.02 0.02 0.06
0.24 0.22 0.24 0.36 0.60 0.59 0.57 0.65 0.50 0.48 0.22 0.15 0.08 0.06 0.16 0.34 0.68 1.52 0.96 0.60 0.55 0.50 0.45 0.50 0.44 0.60 0.46 0.49 0.57 0.50 0.65 0.71 0.88 0.91 0.78 0.92 0.77 0.72 0.58 0.34 0.24 0.16 0.11 0.08 0.07 0.10 0.16 0.13 0.17
0.25 0.20 0.19 0.29 0.39 0.38 0.42 0.56 0.43 0.35 0.27 0.13 0.07 0.06 0.11 0.15 0.29 1.25 1.44 0.70 0.74 0.62 0.44 0.38 0.52 0.45 0.27 0.42 0.61 0.79 0.86 0.67 0.58 0.43 0.32 0.41 0.86 0.99 1.04 0.93 0.92 0.84 0.64 0.50 0.37 0.31 0.31 0.34 0.26
0.28 0.12 0.20 0.38 0.33 0.23 0.32 0.51 0.44 0.29 0.28 0.15 0.06 0.04 0.10 0.10 0.13 0.50 1.18 0.85 0.78 0.62 0.56 0.39 0.32 0.36 0.50 0.81 0.95 0.73 0.70 0.77 0.50 0.69 0.70 0.83 0.82 0.83 1.02 1.09 0.99 1.07 1.02 0.82 0.68 0.56 0.44 0.37 0.23
0.41 0.15 0.23 0.38 0.49 0.44 0.20 0.42 0.43 0.34 0.30 0.15 0.05 0.03 0.06 0.09 0.13 0.18 0.46 0.55 0.72 0.70 0.43 0.28 0.34 0.47 0.69 0.70 1.00 1.24 1.47 1.11 1.00 1.04 0.89 0.88 1.05 1.20 1.22 1.21 1.26 1.19 1.29 1.39 1.16 0.85 0.56 0.38 0.31
0.41 0.43 0.41 0.63 0.68 0.80 0.36 0.32 0.33 0.29 0.30 0.20 0.02 0.02 0.05 0.04 0.07 0.05 0.10 0.25 0.32 0.39 0.33 0.17 0.05 0.12 0.31 0.41 0.58 0.85 0.94 0.92 0.71 0.70 0.85 0.86 0.99 1.11 1.29 1.29 1.21 1.21 0.99 0.84 0.78 0.69 0.53 0.41 0.37
0.71 0.86 1.27 1.20 1.34 0.53 0.23 0.27 0.27 0.11 0.11 0.06 0.02 0.02 0.03 0.04 0.01 0.02 0.02 0.05 0.07 0.10 0.05 0.09 0.16 0.07 0.11 0.15 0.29 0.47 0.75 0.86 0.92 0.88 0.73 0.63 0.58 0.54 0.50 0.59 0.65 0.66 0.66 0.51 0.46 0.37 0.34 0.42 0.40
0.88 0.68 0.75 0.48 0.37 0.21 0.10 0.34 0.17 0.03 0.02 0.02 0.04 0.02 0.01 0.03 0.03 0.01 0.00 0.00 0.00 0.00 0.00 0.00 0.00 0.02 0.02 0.03 0.05 0.22 0.29 0.40 0.48 0.48 0.46 0.53 0.59 0.54 0.39 0.39 0.35 0.31 0.26 0.21 0.26 0.25 0.20 0.26 0.29
0.79 0.67 0.36 0.51 0.18 0.28 0.12 0.16 0.12 0.04 0.01 0.02 0.04 0.04 0.00 0.00 0.00 0.02 0.01 0.00 0.00 0.00 0.00 0.00 0.00 0.00 0.00 0.01 0.01 0.01 0.03 0.08 0.17 0.14 0.12 0.14 0.15 0.20 0.22 0.27 0.28 0.26 0.22 0.21 0.23 0.23 0.22 0.22 0.25
0.57 0.33 0.51 1.04 0.61 0.20 0.06 0.03 0.09 0.04 0.05 0.04 0.08 0.03 0.00 0.00 0.00 0.00 0.01 0.00 0.00 0.00 0.00 0.00 0.00 0.00 0.00 0.03 0.03 0.01 0.04 0.04 0.04 0.04 0.05 0.07 0.06 0.09 0.12 0.14 0.16 0.11 0.10 0.13 0.16 0.18 0.20 0.25 0.25
0.60 0.59 0.39 0.52 0.43 0.25 0.11 0.03 0.00 0.00 0.02 0.01 0.02 0.01 0.00 0.00 0.00 0.00 0.00 0.00 0.00 0.00 0.00 0.00 0.00 0.00 0.01 0.02 0.00 0.00 0.02 0.04 0.03 0.03 0.03 0.04 0.05 0.04 0.05 0.05 0.06 0.06 0.06 0.06 0.07 0.09 0.12 0.16 0.17
0.23 0.24 0.18 0.66 0.43 0.37 0.32 0.13 0.00 0.01 0.01 0.01 0.01 0.01 0.01 0.01 0.00 0.00 0.00 0.00 0.00 0.00 0.00 0.00 0.00 0.01 0.02 0.01 0.00 0.01 0.04 0.04 0.04 0.04 0.04 0.05 0.06 0.05 0.05 0.06 0.05 0.05 0.05 0.07 0.12 0.16 0.18 0.18 0.18

GFSSGP_prec_precacc_102.txt.gz
Total_Precipitation_Accumulation
0.00 0.01 0.01 0.04 0.04 0.01 0.00 0.00 0.00 0.02 0.11 0.03 0.01 0.03 0.06 0.01 0.01 0.11 0.02 0.01 0.00 0.01 0.04 0.06 0.09 0.15 0.15 0.11 0.07 0.04 0.07 0.10 0.10 0.14 0.20 0.17 0.21 0.09 0.02 0.05 0.05 0.08 0.17 0.33 0.31 0.11 0.01 0.00 0.00
0.02 0.02 0.04 0.16 0.06 0.00 0.00 0.00 0.00 0.00 0.06 0.04 0.05 0.05 0.15 0.06 0.01 0.04 0.07 0.04 0.01 0.01 0.03 0.05 0.09 0.14 0.09 0.07 0.05 0.04 0.06 0.09 0.15 0.23 0.21 0.23 0.23 0.02 0.01 0.04 0.08 0.12 0.23 0.17 0.04 0.00 0.01 0.00 0.00
0.02 0.09 0.21 0.20 0.05 0.00 0.00 0.00 0.00 0.00 0.00 0.14 0.23 0.09 0.29 0.20 0.07 0.05 0.04 0.07 0.05 0.04 0.04 0.06 0.13 0.13 0.06 0.06 0.04 0.05 0.04 0.09 0.21 0.27 0.34 0.42 0.23 0.07 0.06 0.06 0.06 0.05 0.03 0.02 0.02 0.00 0.00 0.00 0.00
0.10 0.27 0.34 0.13 0.05 0.00 0.00 0.00 0.00 0.00 0.01 0.03 0.22 0.23 0.43 0.37 0.09 0.09 0.07 0.06 0.05 0.07 0.07 0.08 0.17 0.10 0.05 0.06 0.07 0.05 0.05 0.06 0.19 0.27 0.33 0.30 0.15 0.12 0.12 0.04 0.01 0.01 0.03 0.02 0.01 0.00 0.00 0.00 0.00
0.22 0.40 0.21 0.16 0.07 0.00 0.00 0.00 0.00 0.00 0.00 0.00 0.12 0.38 0.51 0.62 0.26 0.36 0.15 0.07 0.03 0.06 0.12 0.09 0.21 0.09 0.04 0.07 0.07 0.08 0.08 0.07 0.13 0.21 0.20 0.14 0.10 0.14 0.15 0.04 0.01 0.02 0.03 0.01 0.00 0.00 0.00 0.00 0.00
0.57 0.44 0.24 0.14 0.03 0.00 0.00 0.00 0.00 0.00 0.00 0.01 0.04 0.29 0.65 0.98 0.88 0.79 0.45 0.22 0.07 0.09 0.19 0.20 0.21 0.09 0.06 0.05 0.07 0.10 0.09 0.08 0.11 0.16 0.19 0.12 0.08 0.11 0.14 0.06 0.02 0.03 0.02 0.01 0.01 0.00 0.00 0.01 0.01
0.67 0.50 0.18 0.08 0.01 0.00 0.00 0.01 0.00 0.00 0.01 0.02 0.00 0.13 0.54 0.90 1.61 1.14 0.85 0.61 0.32 0.31 0.30 0.35 0.16 0.08 0.05 0.04 0.06 0.12 0.09 0.09 0.09 0.16 0.14 0.07 0.07 0.07 0.09 0.04 0.02 0.03 0.02 0.02 0.00 0.00 0.00 0.01 0.02
0.57 0.79 0.31 0.06 0.01 0.01 0.00 0.02 0.00 0.00 0.00 0.01 0.02 0.06 0.29 0.51 1.76 1.81 1.61 1.31 0.87 0.95 0.66 0.49 0.22 0.06 0.02 0.02 0.03 0.10 0.10 0.05 0.06 0.08 0.03 0.01 0.00 0.02 0.03 0.02 0.02 0.02 0.03 0.02 0.01 0.01 0.03 0.03 0.02
0.92 1.13 0.67 0.14 0.04 0.02 0.01 0.01 0.01 0.01 0.00 0.01 0.01 0.12 0.10 0.25 1.50 2.41 2.77 2.72 1.92 1.52 1.28 0.84 0.58 0.17 0.04 0.01 0.01 0.05 0.08 0.05 0.04 0.04 0.01 0.00 0.00 0.00 0.00 0.00 0.01 0.02 0.04 0.02 0.02 0.01 0.03 0.02 0.01
1.40 1.34 0.40 0.09 0.06 0.02 0.04 0.01 0.01 0.02 0.01 0.06 0.10 0.09 0.06 0.21 0.77 2.63 4.00 3.98 2.71 1.76 1.50 1.22 0.78 0.34 0.12 0.02 0.02 0.04 0.06 0.05 0.02 0.02 0.00 0.00 0.00 0.00 0.00 0.00 0.01 0.02 0.04 0.02 0.03 0.01 0.01 0.01 0.00
1.05 1.09 0.29 0.29 0.26 0.24 0.13 0.04 0.01 0.05 0.05 0.01 0.05 0.12 0.22 0.29 0.47 1.43 2.79 3.97 3.76 2.22 1.49 1.14 0.75 0.43 0.18 0.05 0.02 0.03 0.07 0.06 0.05 0.01 0.00 0.00 0.00 0.00 0.00 0.00 0.00 0.00 0.01 0.00 0.01 0.00 0.00 0.00 0.00
0.55 0.60 0.43 0.47 0.47 0.47 0.18 0.10 0.07 0.05 0.02 0.01 0.06 0.27 0.41 0.54 0.52 0.69 1.20 2.03 3.87 3.47 1.90 1.27 0.95 0.39 0.15 0.09 0.02 0.02 0.02 0.03 0.02 0.01 0.00 0.00 0.00 0.00 0.00 0.00 0.00 0.00 0.00 0.00 0.00 0.00 0.00 0.00 0.00
0.36 0.46 0.56 0.71 0.62 0.47 0.32 0.19 0.11 0.05 0.02 0.04 0.20 0.39 0.49 0.76 0.64 0.51 0.66 0.78 2.22 4.14 3.67 2.03 1.44 1.29 0.38 0.24 0.07 0.04 0.02 0.01 0.00 0.00 0.00 0.00 0.00 0.00 0.00 0.00 0.00 0.00 0.00 0.00 0.00 0.00 0.00 0.00 0.00
0.18 0.44 0.68 0.97 0.79 0.86 0.47 0.24 0.18 0.06 0.10 0.18 0.40 0.38 0.40 0.46 0.42 0.63 0.65 0.71 0.72 1.61 3.06 3.61 2.17 1.37 1.12 0.45 0.12 0.09 0.02 0.01 0.00 0.00 0.00 0.00 0.00 0.00 0.00 0.00 0.00 0.00 0.00 0.00 0.00 0.00 0.00 0.00 0.00
0.23 0.65 0.99 1.08 1.23 1.21 0.87 0.70 0.22 0.04 0.11 0.26 0.36 0.41 0.53 0.50 0.56 0.63 0.81 0.67 0.58 0.83 1.62 2.32 2.40 1.59 1.09 0.69 0.32 0.17 0.12 0.04 0.01 0.00 0.00 0.00 0.00 0.00 0.00 0.00 0.00 0.00 0.00 0.00 0.00 0.00 0.00 0.00 0.00
0.51 0.94 1.00 0.93 1.30 1.91 1.55 0.81 0.19 0.10 0.16 0.20 0.41 0.62 0.57 0.43 0.39 0.57 0.47 0.46 0.47 0.43 0.70 1.06 1.01 1.48 1.01 0.80 0.56 0.45 0.31 0.14 0.11 0.07 0.01 0.00 0.00 0.00 0.00 0.00 0.00 0.00 0.00 0.00 0.00 0.00 0.00 0.00 0.00
0.56 0.57 0.73 0.73 0.77 1.87 1.75 1.02 0.40 0.19 0.13 0.12 0.19 0.41 0.63 0.72 0.72 0.73 0.53 0.32 0.31 0.33 0.42 0.60 0.54 0.49 0.76 0.81 0.80 0.76 0.60 0.34 0.20 0.14 0.03 0.01 0.01 0.02 0.01 0.00 0.00 0.00 0.00 0.00 0.00 0.00 0.00 0.00 0.00
0.18 0.22 0.34 0.62 0.60 1.10 1.62 0.99 0.71 0.39 0.18 0.06 0.10 0.16 0.29 0.61 0.77 0.73 0.56 0.46 0.32 0.49 0.35 0.32 0.38 0.30 0.34 0.65 0.86 0.69 0.58 0.53 0.34 0.14 0.05 0.14 0.07 0.07 0.07 0.03 0.02 0.01 0.00 0.00 0.00 0.00 0.00 0.00 0.01
0.13 0.21 0.23 0.49 0.69 0.53 0.89 0.90 0.73 0.48 0.41 0.11 0.10 0.12 0.20 0.50 0.81 0.97 0.85 0.62 0.57 0.65 0.46 0.27 0.22 0.35 0.38 0.50 0.67 0.63 0.47 0.56 0.60 0.54 0.54 0.27 0.26 0.28 0.23 0.10 0.07 0.08 0.04 0.04 0.03 0.03 0.02 0.02 0.06
0.25 0.23 0.24 0.40 0.67 0.61 0.58 0.66 0.50 0.48 0.26 0.16 0.08 0.07 0.18 0.36 0.70 1.58 1.07 0.76 0.80 0.79 0.55 0.53 0.48 0.63 0.49 0.55 0.80 0.80 0.76 0.72 0.90 0.92 0.78 0.93 0.78 0.73 0.59 0.34 0.24 0.16 0.11 0.08 0.07 0.10 0.16 0.14 0.20
0.25 0.21 0.20 0.37 0.45 0.42 0.46 0.58 0.44 0.36 0.27 0.13 0.07 0.06 0.11 0.20 0.33 1.32 1.61 1.09 0.99 1.05 0.53 0.40 0.54 0.50 0.32 0.46 0.70 0.92 1.09 0.97 0.68 0.47 0.35 0.42 0.87 0.99 1.04 0.93 0.92 0.85 0.65 0.50 0.39 0.32 0.35 0.44 0.35
0.29 0.14 0.23 0.47 0.49 0.45 0.34 0.55 0.46 0.29 0.28 0.15 0.07 0.04 0.14 0.16 0.19 0.65 1.65 1.38 1.22 0.98 0.63 0.43 0.37 0.41 0.54 0.87 1.04 0.82 0.82 0.94 0.82 0.92 0.78 0.93 0.92 0.90 1.07 1.13 1.00 1.08 1.04 0.84 0.71 0.63 0.54 0.47 0.36
0.42 0.17 0.24 0.39 0.53 0.81 0.28 0.45 0.52 0.40 0.31 0.15 0.05 0.06 0.14 0.16 0.22 0.33 0.85 1.15 1.38 1.11 0.70 0.42 0.47 0.56 0.76 0.74 1.10 1.34 1.53 1.16 1.11 1.23 1.10 0.98 1.12 1.24 1.27 1.24 1.26 1.19 1.29 1.40 1.17 0.95 0.77 0.65 0.54
0.41 0.43 0.41 0.64 0.73 1.06 0.40 0.44 0.53 0.45 0.40 0.29 0.04 0.08 0.15 0.16 0.21 0.19 0.21 0.67 0.84 0.89 0.90 0.55 0.26 0.20 0.40 0.47 0.69 0.97 1.03 0.95 0.74 0.79 0.98 0.96 1.04 1.15 1.34 1.32 1.23 1.21 1.00 0.86 0.83 0.75 0.65 0.55 0.48
0.72 0.90 1.34 1.25 1.43 0.66 0.38 0.39 0.47 0.33 0.23 0.22 0.06 0.11 0.23 0.23 0.23 0.08 0.07 0.27 0.34 0.42 0.46 0.36 0.36 0.24 0.32 0.28 0.46 0.54 0.81 0.94 1.00 0.97 0.86 0.79 0.69 0.59 0.52 0.61 0.66 0.67 0.69 0.65 0.65 0.49 0.45 0.48 0.43
0.96 0.83 0.87 0.58 0.49 0.38 0.22 0.50 0.48 0.26 0.29 0.15 0.06 0.12 0.13 0.14 0.12 0.02 0.01 0.06 0.05 0.12 0.14 0.08 0.08 0.12 0.19 0.32 0.33 0.37 0.47 0.59 0.67 0.62 0.58 0.62 0.69 0.72 0.56 0.49 0.44 0.38 0.30 0.24 0.29 0.26 0.20 0.26 0.29
0.82 0.69 0.36 0.56 0.21 0.35 0.28 0.43 0.43 0.39 0.34 0.06 0.06 0.07 0.10 0.15 0.04 0.02 0.01 0.00 0.00 0.00 0.00 0.00 0.00 0.00 0.00 0.01 0.03 0.08 0.06 0.10 0.26 0.26 0.21 0.23 0.32 0.36 0.37 0.42 0.43 0.35 0.28 0.25 0.24 0.24 0.23 0.22 0.25
0.57 0.33 0.51 1.05 0.64 0.25 0.12 0.07 0.26 0.30 0.18 0.08 0.10 0.09 0.03 0.02 0.00 0.01 0.01 0.01 0.00 0.00 0.00 0.00 0.00 0.00 0.00 0.03 0.03 0.01 0.04 0.06 0.07 0.06 0.11 0.22 0.18 0.16 0.16 0.19 0.20 0.15 0.16 0.18 0.19 0.21 0.25 0.28 0.26
0.61 0.59 0.39 0.52 0.43 0.25 0.12 0.09 0.03 0.05 0.05 0.03 0.06 0.03 0.01 0.00 0.00 0.00 0.00 0.00 0.00 0.00 0.00 0.00 0.00 0.00 0.01 0.02 0.00 0.00 0.02 0.04 0.03 0.04 0.05 0.07 0.06 0.04 0.05 0.05 0.07 0.08 0.06 0.07 0.08 0.10 0.13 0.16 0.17
0.23 0.24 0.18 0.66 0.43 0.37 0.32 0.16 0.00 0.01 0.02 0.01 0.02 0.01 0.01 0.01 0.00 0.00 0.00 0.00 0.00 0.00 0.00 0.00 0.00 0.01 0.02 0.01 0.00 0.01 0.04 0.04 0.04 0.04 0.04 0.05 0.06 0.05 0.05 0.06 0.05 0.06 0.06 0.08 0.14 0.19 0.19 0.18 0.18

GFSSGP_prec_precacc_105.txt.gz
Total_Precipitation_Accumulation
0.00 0.01 0.01 0.04 0.04 0.01 0.00 0.00 0.00 0.02 0.11 0.03 0.01 0.03 0.06 0.01 0.01 0.11 0.02 0.03 0.00 0.01 0.04 0.06 0.09 0.15 0.15 0.11 0.07 0.04 0.07 0.11 0.11 0.16 0.20 0.17 0.27 0.09 0.02 0.06 0.05 0.09 0.17 0.33 0.31 0.11 0.01 0.01 0.01
0.02 0.02 0.04 0.16 0.06 0.00 0.00 0.00 0.00 0.00 0.06 0.04 0.05 0.05 0.15 0.06 0.01 0.04 0.08 0.04 0.01 0.01 0.03 0.05 0.09 0.14 0.09 0.07 0.05 0.04 0.06 0.09 0.15 0.24 0.22 0.24 0.26 0.02 0.02 0.05 0.08 0.13 0.23 0.17 0.04 0.00 0.01 0.00 0.00
0.02 0.09 0.21 0.20 0.05 0.00 0.00 0.00 0.00 0.00 0.00 0.14 0.23 0.09 0.29 0.20 0.07 0.05 0.05 0.07 0.05 0.04 0.04 0.06 0.13 0.13 0.06 0.06 0.04 0.05 0.04 0.10 0.21 0.27 0.36 0.44 0.24 0.08 0.08 0.07 0.06 0.05 0.03 0.02 0.02 0.00 0.00 0.00 0.00
0.10 0.27 0.34 0.13 0.05 0.00 0.00 0.00 0.00 0.00 0.01 0.03 0.22 0.23 0.43 0.37 0.09 0.10 0.07 0.06 0.05 0.07 0.07 0.08 0.17 0.10 0.05 0.07 0.07 0.06 0.05 0.07 0.19 0.28 0.34 0.33 0.17 0.13 0.13 0.04 0.01 0.01 0.03 0.02 0.01 0.00 0.00 0.00 0.00
0.22 0.40 0.21 0.16 0.07 0.00 0.00 0.00 0.00 0.00 0.00 0.00 0.12 0.38 0.51 0.62 0.26 0.36 0.15 0.07 0.03 0.06 0.12 0.09 0.21 0.09 0.04 0.08 0.07 0.09 0.09 0.07 0.15 0.23 0.21 0.16 0.12 0.14 0.15 0.04 0.01 0.02 0.03 0.01 0.00 0.00 0.00 0.00 0.00
0.57 0.44 0.24 0.14 0.03 0.00 0.00 0.00 0.00 0.00 0.00 0.01 0.04 0.29 0.65 0.98 0.88 0.79 0.45 0.23 0.07 0.09 0.20 0.21 0.23 0.12 0.06 0.06 0.07 0.11 0.10 0.09 0.13 0.19 0.22 0.15 0.10 0.11 0.14 0.06 0.02 0.03 0.02 0.01 0.01 0.00 0.00 0.01 0.01
0.67 0.50 0.18 0.08 0.01 0.00 0.00 0.01 0.00 0.00 0.01 0.02 0.00 0.13 0.54 0.90 1.61 1.15 0.86 0.63 0.36 0.41 0.42 0.48 0.23 0.17 0.06 0.04 0.06 0.14 0.12 0.10 0.12 0.19 0.19 0.12 0.08 0.07 0.09 0.04 0.02 0.03 0.03 0.02 0.01 0.00 0.00 0.01 0.02
0.57 0.79 0.31 0.06 0.01 0.01 0.00 0.02 0.00 0.00 0.00 0.01 0.02 0.06 0.29 0.51 1.76 1.83 1.66 1.39 0.95 1.07 0.76 0.57 0.31 0.15 0.07 0.02 0.03 0.11 0.14 0.05 0.08 0.12 0.06 0.02 0.00 0.02 0.03 0.02 0.02 0.03 0.03 0.02 0.01 0.01 0.03 0.03 0.02
0.92 1.13 0.67 0.14 0.04 0.02 0.01 0.01 0.01 0.01 0.00 0.01 0.01 0.12 0.10 0.25 1.50 2.42 2.79 2.75 1.99 1.61 1.41 1.03 0.78 0.25 0.11 0.07 0.02 0.06 0.16 0.07 0.06 0.06 0.02 0.01 0.00 0.00 0.00 0.00 0.01 0.02 0.04 0.02 0.02 0.01 0.03 0.02 0.01
1.40 1.34 0.40 0.09 0.06 0.02 0.04 0.01 0.01 0.02 0.01 0.06 0.10 0.09 0.06 0.21 0.77 2.63 4.00 3.99 2.72 1.80 1.58 1.36 1.08 0.54 0.20 0.08 0.08 0.09 0.17 0.11 0.04 0.04 0.02 0.00 0.00 0.00 0.00 0.00 0.01 0.02 0.04 0.02 0.03 0.01 0.01 0.01 0.00
1.05 1.09 0.29 0.29 0.26 0.24 0.13 0.04 0.01 0.05 0.05 0.01 0.05 0.12 0.22 0.29 0.48 1.43 2.79 3.97 3.76 2.22 1.50 1.19 1.10 0.95 0.46 0.12 0.07 0.10 0.25 0.13 0.10 0.03 0.01 0.01 0.00 0.00 0.00 0.00 0.00 0.01 0.01 0.00 0.01 0.00 0.00 0.00 0.00
0.55 0.60 0.43 0.47 0.47 0.47 0.18 0.10 0.07 0.05 0.02 0.01 0.06 0.27 0.41 0.54 0.53 0.70 1.20 2.03 3.87 3.47 1.90 1.27 0.99 0.70 0.52 0.26 0.05 0.03 0.17 0.14 0.07 0.06 0.01 0.00 0.00 0.00 0.00 0.00 0.00 0.00 0.00 0.00 0.00 0.00 0.00 0.00 0.00
0.36 0.46 0.56 0.71 0.62 0.47 0.32 0.19 0.11 0.05 0.02 0.04 0.20 0.39 0.49 0.76 0.65 0.53 0.68 0.78 2.22 4.14 3.67 2.03 1.46 1.36 0.52 0.38 0.10 0.04 0.04 0.26 0.04 0.07 0.02 0.00 0.00 0.00 0.00 0.00 0.00 0.00 0.00 0.00 0.00 0.00 0.00 0.00 0.00
0.18 0.44 0.68 0.97 0.79 0.86 0.47 0.24 0.18 0.06 0.10 0.18 0.40 0.38 0.40 0.46 0.42 0.63 0.69 0.74 0.73 1.61 3.06 3.61 2.18 1.42 1.21 0.83 0.30 0.10 0.03 0.08 0.10 0.02 0.03 0.00 0.00 0.00 0.00 0.00 0.00 0.00 0.00 0.00 0.00 0.00 0.00 0.00 0.00
0.23 0.65 0.99 1.08 1.23 1.21 0.87 0.70 0.22 0.04 0.11 0.26 0.36 0.41 0.53 0.50 0.56 0.63 0.82 0.68 0.59 0.84 1.63 2.32 2.43 1.66 1.25 1.13 0.75 0.22 0.12 0.04 0.02 0.00 0.00 0.00 0.00 0.00 0.00 0.00 0.00 0.00 0.00 0.00 0.00 0.00 0.00 0.00 0.00
0.51 0.94 1.00 0.93 1.30 1.91 1.55 0.81 0.19 0.10 0.16 0.20 0.41 0.62 0.57 0.43 0.39 0.57 0.47 0.47 0.58 0.56 0.75 1.13 1.11 1.53 1.20 1.39 1.05 0.69 0.33 0.14 0.11 0.07 0.01 0.00 0.00 0.00 0.00 0.00 0.00 0.00 0.00 0.00 0.00 0.00 0.00 0.00 0.00
0.56 0.57 0.73 0.73 0.77 1.87 1.75 1.02 0.40 0.19 0.13 0.12 0.19 0.41 0.63 0.72 0.72 0.74 0.54 0.32 0.35 0.45 0.52 0.66 0.65 0.55 0.83 1.04 1.35 1.19 0.79 0.37 0.20 0.14 0.03 0.01 0.01 0.02 0.01 0.00 0.00 0.00 0.00 0.00 0.00 0.00 0.00 0.00 0.00
0.19 0.24 0.34 0.62 0.60 1.10 1.62 0.99 0.71 0.39 0.19 0.06 0.10 0.17 0.29 0.61 0.77 0.74 0.59 0.48 0.33 0.53 0.43 0.40 0.44 0.33 0.36 0.70 1.15 1.24 0.97 0.75 0.41 0.16 0.05 0.14 0.07 0.07 0.07 0.03 0.02 0.01 0.00 0.00 0.00 0.00 0.00 0.00 0.01
0.13 0.21 0.23 0.49 0.69 0.54 0.89 0.90 0.73 0.49 0.47 0.14 0.12 0.13 0.22 0.51 0.82 0.98 0.88 0.68 0.62 0.70 0.52 0.34 0.27 0.36 0.39 0.54 0.75 0.87 0.74 0.91 0.86 0.65 0.60 0.29 0.27 0.28 0.23 0.10 0.07 0.08 0.04 0.04 0.03 0.03 0.02 0.02 0.06
0.26 0.25 0.25 0.40 0.70 0.62 0.58 0.66 0.50 0.48 0.32 0.21 0.10 0.07 0.19 0.39 0.74 1.62 1.15 0.80 0.83 0.96 0.70 0.67 0.55 0.68 0.51 0.58 0.89 0.96 0.89 0.81 1.09 1.12 0.88 1.01 0.86 0.76 0.59 0.34 0.24 0.16 0.11 0.08 0.07 0.10 0.16 0.14 0.20
0.26 0.22 0.20 0.38 0.47 0.42 0.47 0.58 0.44 0.37 0.27 0.13 0.07 0.06 0.11 0.23 0.40 1.36 1.66 1.18 1.03 1.24 0.79 0.65 0.68 0.61 0.40 0.51 0.75 1.03 1.22 1.15 0.84 0.56 0.47 0.48 0.92 1.03 1.05 0.93 0.92 0.85 0.65 0.50 0.40 0.34 0.36 0.44 0.35
0.30 0.14 0.24 0.48 0.56 0.52 0.42 0.59 0.47 0.30 0.28 0.15 0.07 0.04 0.14 0.22 0.32 0.71 1.69 1.45 1.28 1.22 0.83 0.66 0.72 0.68 0.68 0.96 1.08 0.87 0.89 1.02 1.01 1.18 1.01 1.08 0.98 0.96 1.12 1.23 1.13 1.20 1.17 0.97 0.90 0.76 0.61 0.51 0.37
0.42 0.17 0.24 0.40 0.59 0.94 0.41 0.54 0.55 0.41 0.31 0.15 0.05 0.06 0.16 0.24 0.31 0.39 0.92 1.24 1.45 1.47 0.90 0.60 0.88 0.90 0.95 0.88 1.25 1.40 1.54 1.18 1.15 1.32 1.38 1.26 1.31 1.40 1.44 1.43 1.46 1.32 1.39 1.47 1.24 1.08 0.94 0.84 0.65
0.41 0.43 0.41 0.65 0.78 1.26 0.49 0.49 0.64 0.55 0.42 0.29 0.05 0.12 0.22 0.25 0.29 0.24 0.29 0.92 1.48 1.25 1.15 0.78 0.52 0.45 0.60 0.63 0.82 1.04 1.04 0.96 0.76 0.85 1.12 1.14 1.15 1.19 1.35 1.36 1.30 1.28 1.05 0.91 0.87 0.79 0.71 0.66 0.55
0.72 0.92 1.40 1.36 1.57 0.79 0.47 0.48 0.67 0.49 0.27 0.25 0.17 0.26 0.31 0.28 0.27 0.18 0.23 0.54 1.20 0.81 0.80 0.61 0.58 0.50 0.57 0.43 0.61 0.69 0.89 0.98 1.02 1.00 0.94 0.94 0.80 0.66 0.54 0.63 0.70 0.70 0.71 0.66 0.66 0.51 0.49 0.54 0.48
0.97 0.87 1.03 0.73 0.63 0.54 0.34 0.71 0.78 0.47 0.41 0.36 0.33 0.36 0.31 0.30 0.28 0.28 0.22 0.16 0.44 0.56 0.39 0.27 0.26 0.34 0.50 0.58 0.54 0.52 0.59 0.76 0.81 0.72 0.62 0.66 0.72 0.76 0.61 0.54 0.49 0.44 0.35 0.29 0.34 0.29 0.22 0.27 0.30
0.82 0.73 0.50 0.78 0.36 0.42 0.42 0.70 0.76 0.60 0.57 0.32 0.47 0.31 0.34 0.32 0.19 0.20 0.17 0.06 0.15 0.23 0.17 0.09 0.06 0.04 0.03 0.03 0.07 0.24 0.33 0.32 0.43 0.34 0.23 0.24 0.32 0.38 0.46 0.48 0.52 0.48 0.38 0.32 0.30 0.28 0.24 0.22 0.25
0.57 0.33 0.54 1.10 0.69 0.38 0.22 0.23 0.82 0.81 0.44 0.22 0.25 0.22 0.16 0.08 0.04 0.04 0.05 0.02 0.02 0.03 0.01 0.00 0.00 0.00 0.00 0.03 0.03 0.05 0.07 0.08 0.10 0.12 0.19 0.26 0.22 0.19 0.19 0.23 0.23 0.18 0.19 0.21 0.21 0.22 0.26 0.32 0.29
0.61 0.59 0.39 0.52 0.44 0.28 0.14 0.28 0.47 0.39 0.17 0.08 0.08 0.06 0.03 0.06 0.04 0.02 0.01 0.00 0.00 0.00 0.00 0.00 0.00 0.00 0.01 0.02 0.00 0.00 0.02 0.04 0.03 0.04 0.05 0.09 0.09 0.08 0.08 0.08 0.08 0.08 0.07 0.08 0.08 0.10 0.14 0.21 0.21
0.23 0.24 0.18 0.66 0.43 0.37 0.33 0.32 0.14 0.09 0.10 0.03 0.07 0.02 0.01 0.02 0.00 0.00 0.00 0.00 0.00 0.00 0.00 0.00 0.00 0.01 0.02 0.01 0.00 0.01 0.04 0.04 0.04 0.04 0.04 0.05 0.06 0.05 0.05 0.06 0.05 0.06 0.06 0.09 0.15 0.20 0.21 0.21 0.22

GFSSGP_prec_precacc_108.txt.gz
Total_Precipitation_Accumulation
0.00 0.01 0.01 0.04 0.04 0.01 0.00 0.00 0.00 0.02 0.11 0.03 0.01 0.03 0.06 0.01 0.01 0.11 0.02 0.03 0.00 0.01 0.04 0.06 0.09 0.15 0.15 0.11 0.07 0.04 0.07 0.11 0.11 0.16 0.20 0.17 0.32 0.10 0.02 0.06 0.07 0.10 0.17 0.33 0.31 0.12 0.02 0.01 0.01
0.02 0.02 0.04 0.16 0.06 0.00 0.00 0.00 0.00 0.00 0.06 0.04 0.05 0.05 0.15 0.06 0.01 0.04 0.08 0.04 0.01 0.01 0.03 0.05 0.09 0.14 0.09 0.07 0.05 0.04 0.06 0.10 0.15 0.25 0.22 0.24 0.29 0.03 0.03 0.05 0.09 0.13 0.23 0.17 0.04 0.01 0.01 0.00 0.00
0.02 0.09 0.21 0.20 0.05 0.00 0.00 0.00 0.00 0.00 0.00 0.14 0.23 0.09 0.29 0.20 0.07 0.05 0.05 0.07 0.05 0.04 0.04 0.06 0.13 0.13 0.06 0.06 0.05 0.05 0.05 0.11 0.21 0.28 0.37 0.45 0.29 0.11 0.10 0.07 0.07 0.05 0.03 0.02 0.02 0.00 0.00 0.00 0.00
0.10 0.27 0.34 0.13 0.05 0.00 0.00 0.00 0.00 0.00 0.01 0.03 0.22 0.23 0.43 0.38 0.09 0.10 0.07 0.06 0.05 0.07 0.07 0.08 0.17 0.10 0.05 0.07 0.08 0.06 0.05 0.08 0.20 0.29 0.36 0.34 0.20 0.18 0.16 0.05 0.01 0.01 0.03 0.02 0.01 0.00 0.00 0.00 0.00
0.22 0.40 0.21 0.16 0.07 0.00 0.00 0.00 0.00 0.00 0.00 0.00 0.12 0.38 0.51 0.62 0.27 0.36 0.15 0.07 0.03 0.06 0.12 0.09 0.21 0.10 0.04 0.08 0.07 0.09 0.09 0.08 0.15 0.24 0.23 0.16 0.15 0.21 0.19 0.04 0.01 0.02 0.03 0.01 0.00 0.00 0.00 0.00 0.00
0.57 0.44 0.24 0.14 0.03 0.00 0.00 0.00 0.00 0.00 0.00 0.01 0.04 0.29 0.65 1.01 0.96 0.86 0.47 0.23 0.08 0.09 0.22 0.22 0.25 0.17 0.09 0.06 0.07 0.11 0.11 0.09 0.14 0.20 0.25 0.16 0.13 0.16 0.15 0.06 0.02 0.03 0.02 0.01 0.01 0.00 0.00 0.01 0.01
0.67 0.50 0.18 0.08 0.01 0.00 0.00 0.01 0.00 0.00 0.01 0.02 0.00 0.13 0.54 0.91 1.67 1.25 0.94 0.69 0.41 0.44 0.45 0.53 0.25 0.21 0.10 0.05 0.06 0.14 0.12 0.11 0.12 0.21 0.25 0.13 0.10 0.09 0.10 0.04 0.02 0.03 0.03 0.02 0.01 0.00 0.00 0.01 0.02
0.57 0.79 0.31 0.06 0.01 0.01 0.00 0.02 0.00 0.00 0.00 0.01 0.02 0.06 0.29 0.51 1.81 1.93 1.79 1.50 1.03 1.12 0.85 0.67 0.37 0.17 0.08 0.04 0.04 0.12 0.15 0.07 0.09 0.15 0.13 0.03 0.01 0.03 0.03 0.02 0.03 0.03 0.03 0.02 0.01 0.01 0.03 0.03 0.02
0.92 1.13 0.67 0.14 0.04 0.02 0.01 0.01 0.01 0.01 0.00 0.01 0.01 0.12 0.10 0.26 1.54 2.46 2.83 2.79 2.03 1.64 1.45 1.13 0.87 0.33 0.15 0.07 0.03 0.07 0.19 0.11 0.07 0.08 0.05 0.02 0.00 0.00 0.00 0.00 0.01 0.02 0.05 0.03 0.02 0.01 0.03 0.02 0.01
1.40 1.34 0.40 0.09 0.06 0.02 0.04 0.01 0.01 0.02 0.01 0.06 0.10 0.09 0.06 0.22 0.79 2.65 4.02 3.99 2.72 1.80 1.59 1.40 1.15 0.59 0.25 0.09 0.08 0.09 0.21 0.19 0.05 0.05 0.03 0.01 0.00 0.00 0.00 0.00 0.01 0.02 0.04 0.02 0.03 0.01 0.01 0.01 0.00
1.05 1.09 0.29 0.29 0.26 0.24 0.13 0.04 0.01 0.05 0.05 0.01 0.05 0.12 0.22 0.29 0.48 1.44 2.80 3.99 3.78 2.22 1.50 1.20 1.13 1.04 0.55 0.16 0.08 0.10 0.28 0.21 0.15 0.04 0.01 0.02 0.01 0.00 0.00 0.00 0.01 0.01 0.01 0.00 0.01 0.00 0.00 0.00 0.00
0.55 0.60 0.43 0.47 0.47 0.47 0.18 0.10 0.07 0.05 0.02 0.01 0.06 0.27 0.41 0.54 0.53 0.71 1.22 2.05 3.88 3.49 1.90 1.27 1.00 0.71 0.58 0.31 0.07 0.04 0.17 0.21 0.18 0.09 0.02 0.02 0.01 0.01 0.00 0.00 0.00 0.00 0.00 0.00 0.00 0.00 0.00 0.00 0.00
0.36 0.46 0.56 0.71 0.62 0.47 0.32 0.19 0.11 0.05 0.02 0.04 0.20 0.39 0.49 0.76 0.65 0.53 0.68 0.79 2.23 4.14 3.67 2.03 1.47 1.36 0.52 0.39 0.12 0.04 0.05 0.30 0.18 0.14 0.05 0.01 0.01 0.01 0.00 0.00 0.00 0.00 0.00 0.00 0.00 0.00 0.00 0.00 0.00
0.18 0.44 0.68 0.97 0.79 0.86 0.47 0.24 0.18 0.06 0.10 0.18 0.40 0.38 0.40 0.46 0.42 0.63 0.69 0.74 0.73 1.62 3.06 3.61 2.18 1.42 1.21 0.83 0.30 0.10 0.03 0.11 0.31 0.14 0.07 0.02 0.01 0.00 0.00 0.00 0.00 0.00 0.00 0.00 0.00 0.00 0.00 0.00 0.00
0.23 0.65 0.99 1.08 1.23 1.21 0.87 0.70 0.22 0.04 0.11 0.26 0.36 0.41 0.53 0.50 0.56 0.63 0.82 0.68 0.59 0.85 1.63 2.32 2.43 1.66 1.25 1.14 0.75 0.24 0.13 0.05 0.23 0.26 0.09 0.03 0.01 0.00 0.00 0.00 0.00 0.00 0.00 0.00 0.00 0.00 0.00 0.00 0.00
0.51 0.94 1.00 0.93 1.30 1.91 1.55 0.81 0.19 0.10 0.16 0.20 0.41 0.62 0.57 0.43 0.39 0.57 0.47 0.47 0.58 0.56 0.75 1.13 1.11 1.53 1.20 1.40 1.06 0.72 0.36 0.14 0.15 0.40 0.26 0.08 0.01 0.00 0.00 0.00 0.00 0.00 0.00 0.00 0.00 0.00 0.00 0.00 0.00
0.56 0.57 0.73 0.73 0.77 1.87 1.75 1.02 0.40 0.19 0.13 0.12 0.19 0.41 0.63 0.72 0.72 0.74 0.54 0.32 0.35 0.45 0.52 0.66 0.65 0.58 0.85 1.08 1.39 1.23 0.89 0.42 0.21 0.22 0.26 0.18 0.05 0.03 0.01 0.00 0.00 0.00 0.00 0.00 0.00 0.00 0.00 0.00 0.00
0.19 0.24 0.34 0.62 0.60 1.10 1.62 0.99 0.71 0.39 0.19 0.06 0.10 0.17 0.29 0.61 0.77 0.74 0.59 0.48 0.33 0.53 0.43 0.40 0.45 0.36 0.46 0.73 1.21 1.33 1.11 0.86 0.45 0.18 0.07 0.17 0.08 0.07 0.07 0.03 0.02 0.01 0.00 0.00 0.00 0.00 0.00 0.00 0.01
0.13 0.21 0.23 0.49 0.69 0.54 0.89 0.90 0.73 0.49 0.47 0.14 0.12 0.13 0.22 0.51 0.82 0.98 0.88 0.68 0.62 0.70 0.52 0.34 0.28 0.38 0.47 0.59 0.79 0.97 0.89 1.05 0.93 0.70 0.62 0.30 0.27 0.28 0.23 0.10 0.07 0.08 0.04 0.04 0.03 0.03 0.02 0.02 0.06
0.26 0.26 0.25 0.40 0.70 0.62 0.58 0.66 0.50 0.48 0.32 0.21 0.10 0.07 0.19 0.39 0.74 1.62 1.16 0.82 0.84 1.00 0.72 0.68 0.55 0.71 0.54 0.62 0.93 1.05 1.04 1.00 1.23 1.22 0.95 1.06 0.87 0.76 0.59 0.34 0.24 0.16 0.11 0.08 0.07 0.10 0.16 0.14 0.20
0.26 0.22 0.20 0.38 0.47 0.42 0.47 0.58 0.44 0.37 0.27 0.13 0.07 0.06 0.11 0.24 0.41 1.38 1.68 1.20 1.06 1.25 0.85 0.73 0.76 0.68 0.47 0.55 0.82 1.14 1.40 1.38 1.01 0.68 0.59 0.62 0.96 1.03 1.05 0.93 0.92 0.85 0.65 0.51 0.40 0.35 0.37 0.45 0.35
0.30 0.14 0.24 0.49 0.57 0.53 0.43 0.61 0.47 0.30 0.28 0.15 0.07 0.04 0.14 0.22 0.33 0.76 1.72 1.49 1.31 1.24 0.87 0.73 0.87 0.82 0.85 1.11 1.19 0.96 0.99 1.17 1.12 1.25 1.06 1.25 1.15 1.00 1.13 1.24 1.13 1.21 1.21 1.05 0.99 0.87 0.73 0.59 0.39
0.43 0.17 0.24 0.40 0.60 0.97 0.41 0.63 0.56 0.42 0.31 0.15 0.05 0.06 0.16 0.25 0.32 0.44 0.97 1.27 1.46 1.52 0.92 0.69 1.18 1.29 1.22 1.18 1.64 1.57 1.62 1.29 1.26 1.45 1.49 1.38 1.54 1.66 1.60 1.59 1.64 1.49 1.53 1.64 1.39 1.27 1.12 1.00 0.81
0.41 0.43 0.41 0.65 0.81 1.33 0.52 0.55 0.69 0.58 0.43 0.29 0.05 0.12 0.23 0.28 0.34 0.32 0.39 0.98 1.54 1.30 1.21 0.86 0.86 1.02 1.02 1.01 1.34 1.41 1.22 1.06 0.92 1.03 1.30 1.25 1.24 1.37 1.60 1.58 1.45 1.41 1.15 0.98 0.94 0.88 0.83 0.77 0.66
0.72 0.93 1.41 1.41 1.69 0.84 0.50 0.52 0.71 0.50 0.28 0.25 0.17 0.29 0.38 0.36 0.39 0.28 0.28 0.58 1.48 1.02 1.02 0.85 0.96 0.92 0.93 0.84 1.17 1.04 1.14 1.20 1.17 1.13 1.13 1.23 1.05 0.84 0.71 0.78 0.80 0.76 0.74 0.68 0.68 0.52 0.50 0.60 0.54
0.97 0.89 1.11 0.81 0.72 0.61 0.36 0.78 0.94 0.66 0.52 0.50 0.41 0.64 0.68 0.42 0.37 0.43 0.36 0.47 1.02 1.13 0.91 0.76 0.66 0.67 0.76 0.93 0.83 0.79 0.72 0.87 0.91 0.79 0.70 0.76 0.89 0.97 0.78 0.62 0.52 0.45 0.36 0.31 0.35 0.30 0.24 0.30 0.34
0.83 0.80 0.65 0.94 0.51 0.48 0.50 0.82 1.00 0.98 1.02 0.63 0.92 0.81 0.66 0.50 0.45 0.51 0.52 0.56 0.62 0.62 0.49 0.37 0.28 0.23 0.21 0.16 0.18 0.38 0.49 0.48 0.54 0.41 0.27 0.28 0.34 0.42 0.51 0.51 0.55 0.50 0.40 0.34 0.33 0.30 0.26 0.24 0.27
0.57 0.38 0.62 1.17 0.79 0.45 0.24 0.34 1.19 1.23 0.83 0.61 0.55 0.44 0.38 0.32 0.27 0.26 0.26 0.23 0.34 0.34 0.18 0.09 0.06 0.02 0.01 0.04 0.06 0.15 0.20 0.22 0.25 0.24 0.25 0.32 0.27 0.21 0.20 0.23 0.23 0.19 0.21 0.24 0.22 0.23 0.26 0.32 0.29
0.62 0.64 0.39 0.53 0.45 0.32 0.18 0.53 0.87 0.78 0.44 0.21 0.18 0.22 0.22 0.23 0.18 0.11 0.05 0.03 0.04 0.03 0.02 0.01 0.00 0.00 0.01 0.02 0.00 0.00 0.02 0.04 0.04 0.06 0.07 0.11 0.13 0.09 0.10 0.09 0.09 0.09 0.08 0.09 0.09 0.11 0.15 0.21 0.22
0.24 0.25 0.18 0.66 0.43 0.37 0.36 0.55 0.48 0.35 0.26 0.12 0.10 0.07 0.05 0.05 0.02 0.02 0.01 0.00 0.00 0.00 0.00 0.00 0.00 0.01 0.02 0.01 0.00 0.01 0.04 0.04 0.04 0.04 0.04 0.05 0.06 0.05 0.06 0.07 0.07 0.07 0.07 0.10 0.17 0.22 0.24 0.25 0.26

GFSSGP_prec_precacc_111.txt.gz
Total_Precipitation_Accumulation
0.00 0.01 0.01 0.04 0.04 0.01 0.00 0.00 0.00 0.02 0.11 0.03 0.01 0.03 0.06 0.01 0.01 0.11 0.02 0.03 0.00 0.01 0.04 0.06 0.09 0.15 0.15 0.11 0.07 0.05 0.07 0.11 0.11 0.16 0.20 0.17 0.32 0.10 0.02 0.07 0.08 0.11 0.18 0.33 0.32 0.12 0.02 0.01 0.01
0.02 0.02 0.04 0.16 0.06 0.00 0.00 0.00 0.00 0.00 0.06 0.04 0.05 0.05 0.15 0.06 0.01 0.04 0.08 0.04 0.01 0.01 0.03 0.05 0.09 0.14 0.09 0.07 0.05 0.04 0.06 0.10 0.15 0.27 0.22 0.25 0.30 0.03 0.04 0.06 0.10 0.13 0.23 0.17 0.04 0.01 0.01 0.00 0.00
0.02 0.09 0.21 0.20 0.05 0.00 0.00 0.00 0.00 0.00 0.00 0.14 0.23 0.09 0.29 0.20 0.07 0.05 0.05 0.07 0.05 0.04 0.04 0.06 0.13 0.13 0.06 0.06 0.05 0.05 0.05 0.11 0.21 0.29 0.39 0.45 0.33 0.12 0.12 0.08 0.07 0.05 0.03 0.02 0.02 0.00 0.00 0.00 0.00
0.10 0.27 0.34 0.13 0.05 0.00 0.00 0.00 0.00 0.00 0.01 0.03 0.22 0.23 0.43 0.38 0.10 0.10 0.07 0.06 0.05 0.07 0.07 0.08 0.17 0.10 0.05 0.07 0.08 0.06 0.06 0.08 0.20 0.29 0.38 0.36 0.24 0.23 0.19 0.06 0.01 0.01 0.03 0.02 0.01 0.00 0.00 0.00 0.00
0.22 0.40 0.21 0.16 0.07 0.00 0.00 0.00 0.00 0.00 0.00 0.00 0.12 0.38 0.51 0.62 0.29 0.39 0.22 0.13 0.04 0.06 0.12 0.09 0.21 0.10 0.04 0.08 0.07 0.09 0.09 0.08 0.16 0.24 0.23 0.17 0.19 0.31 0.21 0.04 0.01 0.02 0.03 0.01 0.00 0.00 0.00 0.00 0.00
0.57 0.44 0.24 0.14 0.03 0.00 0.00 0.00 0.00 0.00 0.00 0.01 0.04 0.29 0.65 1.01 0.97 0.94 0.59 0.40 0.25 0.14 0.22 0.22 0.25 0.17 0.09 0.06 0.07 0.11 0.11 0.10 0.15 0.21 0.26 0.17 0.16 0.27 0.17 0.06 0.02 0.03 0.02 0.01 0.01 0.00 0.00 0.01 0.01
0.67 0.50 0.18 0.08 0.01 0.00 0.00 0.01 0.00 0.00 0.01 0.02 0.00 0.13 0.54 0.91 1.68 1.30 1.05 0.84 0.60 0.65 0.51 0.54 0.25 0.21 0.10 0.05 0.06 0.14 0.12 0.12 0.14 0.22 0.26 0.15 0.11 0.17 0.12 0.04 0.02 0.03 0.03 0.02 0.01 0.00 0.00 0.01 0.02
0.57 0.79 0.31 0.06 0.01 0.01 0.00 0.02 0.00 0.00 0.00 0.01 0.02 0.06 0.29 0.51 1.81 1.96 1.85 1.62 1.15 1.25 1.01 0.78 0.39 0.18 0.08 0.04 0.05 0.13 0.16 0.08 0.12 0.18 0.13 0.05 0.01 0.06 0.08 0.02 0.03 0.03 0.03 0.02 0.01 0.01 0.03 0.03 0.02
0.92 1.13 0.67 0.14 0.04 0.02 0.01 0.01 0.01 0.01 0.00 0.01 0.01 0.12 0.10 0.26 1.54 2.48 2.85 2.82 2.11 1.74 1.56 1.25 0.95 0.35 0.15 0.07 0.03 0.07 0.20 0.12 0.09 0.11 0.07 0.07 0.01 0.00 0.00 0.00 0.01 0.02 0.05 0.03 0.02 0.01 0.03 0.02 0.01
1.40 1.34 0.40 0.09 0.06 0.02 0.04 0.01 0.01 0.02 0.01 0.06 0.10 0.09 0.06 0.22 0.79 2.65 4.03 4.02 2.75 1.83 1.63 1.44 1.18 0.60 0.26 0.10 0.09 0.10 0.21 0.19 0.07 0.06 0.05 0.04 0.01 0.00 0.00 0.00 0.01 0.03 0.05 0.02 0.03 0.01 0.01 0.01 0.00
1.05 1.09 0.29 0.29 0.26 0.24 0.13 0.04 0.01 0.05 0.05 0.01 0.05 0.12 0.22 0.29 0.48 1.44 2.80 3.99 3.80 2.25 1.53 1.24 1.17 1.07 0.55 0.16 0.09 0.11 0.28 0.21 0.15 0.05 0.04 0.03 0.01 0.00 0.00 0.00 0.01 0.01 0.01 0.00 0.01 0.00 0.00 0.00 0.00
0.55 0.60 0.43 0.47 0.47 0.47 0.18 0.10 0.07 0.05 0.02 0.01 0.06 0.27 0.41 0.54 0.53 0.71 1.22 2.05 3.88 3.49 1.92 1.30 1.02 0.71 0.58 0.31 0.07 0.04 0.17 0.21 0.18 0.11 0.06 0.04 0.01 0.01 0.00 0.00 0.00 0.00 0.00 0.00 0.00 0.00 0.00 0.00 0.00
0.36 0.46 0.56 0.71 0.62 0.47 0.32 0.19 0.11 0.05 0.02 0.04 0.20 0.39 0.49 0.76 0.65 0.53 0.68 0.79 2.23 4.14 3.67 2.07 1.51 1.40 0.54 0.39 0.12 0.04 0.05 0.30 0.18 0.18 0.09 0.03 0.01 0.01 0.01 0.00 0.00 0.00 0.00 0.00 0.00 0.00 0.00 0.00 0.00
0.18 0.44 0.68 0.97 0.79 0.86 0.47 0.24 0.18 0.06 0.10 0.18 0.40 0.38 0.40 0.46 0.42 0.63 0.69 0.74 0.73 1.62 3.06 3.61 2.18 1.42 1.21 0.84 0.31 0.10 0.03 0.11 0.31 0.22 0.14 0.03 0.01 0.01 0.01 0.00 0.00 0.00 0.00 0.00 0.00 0.00 0.00 0.00 0.00
0.23 0.65 0.99 1.08 1.23 1.21 0.87 0.70 0.22 0.04 0.11 0.26 0.36 0.41 0.53 0.50 0.56 0.63 0.82 0.68 0.59 0.85 1.63 2.32 2.43 1.66 1.25 1.14 0.75 0.24 0.13 0.05 0.23 0.30 0.24 0.15 0.06 0.02 0.01 0.00 0.00 0.00 0.00 0.00 0.00 0.00 0.00 0.00 0.00
0.51 0.94 1.00 0.93 1.30 1.91 1.55 0.81 0.19 0.10 0.16 0.20 0.41 0.62 0.57 0.43 0.39 0.57 0.47 0.47 0.58 0.56 0.75 1.13 1.11 1.53 1.20 1.40 1.06 0.72 0.36 0.14 0.15 0.40 0.35 0.24 0.22 0.08 0.03 0.01 0.00 0.00 0.00 0.00 0.00 0.00 0.00 0.00 0.00
0.56 0.57 0.73 0.73 0.77 1.87 1.75 1.02 0.40 0.19 0.13 0.12 0.19 0.41 0.63 0.72 0.72 0.74 0.54 0.32 0.35 0.45 0.52 0.66 0.65 0.58 0.85 1.08 1.39 1.23 0.89 0.42 0.21 0.22 0.37 0.56 0.33 0.29 0.08 0.03 0.00 0.00 0.00 0.00 0.00 0.00 0.00 0.00 0.00
0.19 0.24 0.34 0.62 0.60 1.10 1.62 0.99 0.71 0.39 0.19 0.06 0.10 0.17 0.29 0.61 0.77 0.74 0.59 0.48 0.33 0.53 0.43 0.40 0.45 0.36 0.46 0.73 1.21 1.34 1.11 0.86 0.45 0.19 0.10 0.38 0.73 0.55 0.35 0.10 0.03 0.01 0.00 0.00 0.00 0.00 0.00 0.00 0.01
0.13 0.21 0.23 0.49 0.69 0.54 0.89 0.90 0.73 0.49 0.47 0.14 0.12 0.13 0.22 0.51 0.82 0.98 0.88 0.68 0.62 0.70 0.52 0.34 0.28 0.38 0.48 0.59 0.80 0.99 0.91 1.05 0.94 0.72 0.65 0.34 0.41 0.64 0.51 0.18 0.11 0.09 0.04 0.04 0.03 0.03 0.02 0.02 0.06
0.26 0.26 0.25 0.40 0.70 0.62 0.58 0.66 0.50 0.48 0.32 0.21 0.10 0.07 0.19 0.39 0.74 1.62 1.16 0.82 0.84 1.00 0.72 0.68 0.55 0.71 0.54 0.62 0.93 1.06 1.08 1.02 1.23 1.23 0.99 1.10 0.93 0.85 0.75 0.43 0.25 0.16 0.11 0.08 0.07 0.10 0.16 0.14 0.20
0.26 0.22 0.20 0.38 0.47 0.42 0.47 0.58 0.44 0.37 0.27 0.13 0.07 0.06 0.11 0.24 0.41 1.38 1.68 1.20 1.07 1.25 0.85 0.73 0.76 0.68 0.47 0.55 0.82 1.15 1.45 1.45 1.05 0.71 0.62 0.67 1.04 1.13 1.13 1.00 0.97 0.85 0.65 0.51 0.40 0.35 0.37 0.45 0.35
0.30 0.14 0.24 0.49 0.58 0.53 0.43 0.62 0.47 0.30 0.28 0.15 0.07 0.04 0.14 0.22 0.33 0.77 1.72 1.50 1.34 1.24 0.87 0.73 0.87 0.82 0.85 1.11 1.20 0.97 1.02 1.24 1.16 1.28 1.10 1.28 1.20 1.11 1.24 1.32 1.17 1.22 1.22 1.06 1.00 0.87 0.73 0.59 0.41
0.43 0.17 0.24 0.40 0.60 0.98 0.42 0.66 0.56 0.42 0.31 0.15 0.05 0.06 0.16 0.25 0.32 0.45 1.02 1.32 1.50 1.56 0.95 0.70 1.20 1.30 1.23 1.18 1.65 1.59 1.69 1.36 1.38 1.54 1.57 1.42 1.61 1.75 1.71 1.65 1.68 1.51 1.54 1.68 1.46 1.34 1.19 1.06 0.86
0.41 0.43 0.41 0.65 0.82 1.36 0.53 0.62 0.70 0.58 0.44 0.29 0.05 0.12 0.23 0.28 0.35 0.34 0.44 1.03 1.58 1.36 1.32 0.92 0.91 1.08 1.10 1.07 1.44 1.62 1.29 1.19 1.07 1.20 1.39 1.30 1.29 1.42 1.73 1.81 1.69 1.63 1.33 1.17 1.10 0.98 0.90 0.81 0.69
0.72 0.93 1.41 1.42 1.73 0.86 0.52 0.59 0.73 0.52 0.28 0.25 0.17 0.29 0.40 0.40 0.49 0.37 0.38 0.72 1.54 1.09 1.16 0.91 0.97 0.98 1.17 1.10 1.46 1.46 1.47 1.41 1.41 1.37 1.33 1.34 1.12 0.90 0.76 0.87 0.97 0.96 0.92 0.83 0.79 0.58 0.52 0.61 0.56
0.97 0.89 1.15 0.84 0.74 0.62 0.37 0.83 1.01 0.74 0.55 0.51 0.42 0.67 0.95 0.90 0.87 0.68 0.51 0.67 1.12 1.29 1.07 0.91 0.81 0.88 1.11 1.33 1.45 1.20 1.51 1.42 1.34 1.11 0.96 0.95 1.02 1.10 0.90 0.74 0.67 0.61 0.47 0.38 0.42 0.33 0.25 0.31 0.35
0.83 0.82 0.70 1.00 0.55 0.55 0.55 0.92 1.19 1.25 1.18 0.69 1.11 1.24 1.14 0.78 0.93 0.86 0.92 1.23 0.97 1.09 0.98 0.89 0.75 0.62 0.45 0.31 0.35 0.59 0.82 0.87 0.89 0.68 0.49 0.44 0.45 0.51 0.60 0.59 0.62 0.57 0.45 0.37 0.35 0.32 0.28 0.26 0.29
0.58 0.43 0.67 1.21 0.84 0.50 0.31 0.45 1.48 1.60 1.15 0.91 0.97 0.87 0.68 0.61 0.66 0.56 0.62 0.61 0.65 0.62 0.51 0.37 0.29 0.19 0.11 0.10 0.16 0.29 0.37 0.38 0.39 0.36 0.32 0.40 0.38 0.31 0.28 0.27 0.26 0.22 0.22 0.25 0.24 0.26 0.28 0.33 0.30
0.65 0.69 0.41 0.53 0.45 0.34 0.22 0.71 1.18 1.14 0.77 0.50 0.51 0.54 0.53 0.51 0.41 0.33 0.29 0.24 0.21 0.21 0.16 0.10 0.03 0.01 0.03 0.04 0.04 0.05 0.05 0.07 0.08 0.09 0.11 0.13 0.16 0.12 0.13 0.10 0.10 0.10 0.09 0.11 0.11 0.12 0.16 0.22 0.23
0.24 0.25 0.19 0.67 0.44 0.37 0.37 0.72 0.78 0.68 0.49 0.27 0.26 0.18 0.13 0.09 0.04 0.04 0.02 0.00 0.00 0.01 0.00 0.00 0.00 0.01 0.03 0.01 0.00 0.01 0.04 0.04 0.04 0.04 0.04 0.05 0.06 0.05 0.06 0.07 0.07 0.08 0.08 0.11 0.18 0.24 0.25 0.26 0.27

GFSSGP_prec_precacc_114.txt.gz
Total_Precipitation_Accumulation
0.00 0.01 0.01 0.04 0.04 0.01 0.00 0.00 0.00 0.02 0.11 0.03 0.01 0.03 0.06 0.01 0.01 0.11 0.02 0.03 0.00 0.01 0.04 0.06 0.09 0.16 0.16 0.12 0.08 0.05 0.07 0.11 0.11 0.16 0.21 0.17 0.32 0.10 0.03 0.08 0.08 0.12 0.20 0.34 0.32 0.12 0.02 0.02 0.01
0.02 0.02 0.04 0.16 0.06 0.00 0.00 0.00 0.00 0.00 0.06 0.04 0.05 0.05 0.15 0.06 0.01 0.04 0.08 0.04 0.01 0.01 0.03 0.05 0.09 0.14 0.10 0.08 0.05 0.05 0.07 0.10 0.16 0.27 0.23 0.25 0.30 0.03 0.06 0.08 0.11 0.14 0.23 0.18 0.04 0.01 0.01 0.01 0.00
0.02 0.09 0.21 0.20 0.05 0.00 0.00 0.00 0.00 0.00 0.00 0.14 0.23 0.09 0.29 0.20 0.07 0.05 0.05 0.07 0.05 0.04 0.04 0.06 0.13 0.13 0.06 0.06 0.05 0.05 0.05 0.11 0.22 0.31 0.40 0.46 0.33 0.13 0.17 0.11 0.08 0.06 0.03 0.02 0.02 0.01 0.00 0.00 0.00
0.10 0.27 0.34 0.13 0.05 0.00 0.00 0.00 0.00 0.00 0.01 0.03 0.22 0.23 0.43 0.38 0.10 0.10 0.07 0.08 0.06 0.07 0.07 0.08 0.17 0.10 0.05 0.07 0.08 0.06 0.06 0.08 0.20 0.30 0.42 0.38 0.27 0.26 0.26 0.08 0.01 0.01 0.03 0.02 0.01 0.00 0.00 0.00 0.00
0.22 0.40 0.21 0.16 0.07 0.00 0.00 0.00 0.00 0.00 0.00 0.00 0.12 0.38 0.51 0.62 0.29 0.40 0.29 0.21 0.08 0.06 0.12 0.09 0.22 0.10 0.04 0.08 0.07 0.09 0.09 0.08 0.16 0.24 0.24 0.18 0.21 0.41 0.25 0.05 0.01 0.02 0.03 0.01 0.00 0.00 0.00 0.00 0.00
0.57 0.44 0.24 0.14 0.03 0.00 0.00 0.00 0.00 0.00 0.00 0.01 0.04 0.29 0.65 1.01 0.97 0.96 0.73 0.56 0.36 0.18 0.23 0.23 0.26 0.17 0.09 0.06 0.07 0.11 0.11 0.10 0.15 0.21 0.27 0.21 0.18 0.36 0.22 0.06 0.02 0.03 0.02 0.01 0.01 0.00 0.00 0.01 0.01
0.67 0.50 0.18 0.08 0.01 0.00 0.00 0.01 0.00 0.00 0.01 0.02 0.00 0.13 0.54 0.91 1.68 1.30 1.08 0.92 0.74 0.77 0.73 0.67 0.29 0.23 0.13 0.05 0.06 0.14 0.12 0.12 0.14 0.22 0.27 0.18 0.13 0.21 0.15 0.04 0.02 0.03 0.03 0.02 0.01 0.00 0.00 0.01 0.02
0.57 0.79 0.31 0.06 0.01 0.01 0.00 0.02 0.00 0.00 0.00 0.01 0.02 0.06 0.29 0.51 1.81 1.96 1.86 1.63 1.19 1.33 1.17 1.03 0.55 0.21 0.11 0.06 0.05 0.13 0.16 0.08 0.13 0.18 0.14 0.06 0.03 0.08 0.15 0.02 0.03 0.03 0.03 0.02 0.01 0.01 0.03 0.03 0.02
0.92 1.13 0.67 0.14 0.04 0.02 0.01 0.01 0.01 0.01 0.00 0.01 0.01 0.12 0.10 0.26 1.54 2.48 2.85 2.82 2.11 1.77 1.64 1.40 1.09 0.54 0.22 0.07 0.03 0.07 0.20 0.12 0.10 0.13 0.08 0.07 0.01 0.01 0.04 0.01 0.01 0.02 0.05 0.03 0.02 0.01 0.03 0.02 0.01
1.40 1.34 0.40 0.09 0.06 0.02 0.04 0.01 0.01 0.02 0.01 0.06 0.10 0.09 0.06 0.22 0.79 2.65 4.03 4.02 2.75 1.84 1.66 1.50 1.27 0.68 0.28 0.11 0.09 0.10 0.21 0.19 0.07 0.08 0.07 0.05 0.03 0.00 0.00 0.00 0.01 0.03 0.05 0.02 0.03 0.01 0.01 0.01 0.00
1.05 1.09 0.29 0.29 0.26 0.24 0.13 0.04 0.01 0.05 0.05 0.01 0.05 0.12 0.22 0.29 0.48 1.44 2.80 3.99 3.80 2.25 1.53 1.25 1.20 1.13 0.65 0.21 0.10 0.11 0.31 0.23 0.15 0.06 0.05 0.07 0.05 0.01 0.00 0.00 0.01 0.01 0.01 0.00 0.01 0.00 0.00 0.00 0.00
0.55 0.60 0.43 0.47 0.47 0.47 0.18 0.10 0.07 0.05 0.02 0.01 0.06 0.27 0.41 0.54 0.53 0.71 1.22 2.05 3.88 3.49 1.92 1.30 1.02 0.73 0.60 0.36 0.08 0.04 0.18 0.23 0.18 0.11 0.06 0.05 0.04 0.03 0.01 0.00 0.00 0.00 0.00 0.00 0.00 0.00 0.00 0.00 0.00
0.36 0.46 0.56 0.71 0.62 0.47 0.32 0.19 0.11 0.05 0.02 0.04 0.20 0.39 0.49 0.76 0.65 0.53 0.68 0.79 2.23 4.14 3.67 2.07 1.51 1.41 0.55 0.40 0.12 0.04 0.05 0.30 0.18 0.18 0.09 0.04 0.02 0.02 0.01 0.00 0.00 0.00 0.00 0.00 0.00 0.00 0.00 0.00 0.00
0.18 0.44 0.68 0.97 0.79 0.86 0.47 0.24 0.18 0.06 0.10 0.18 0.40 0.38 0.40 0.46 0.42 0.63 0.69 0.74 0.73 1.62 3.06 3.61 2.19 1.43 1.22 0.84 0.31 0.10 0.03 0.11 0.31 0.22 0.15 0.05 0.05 0.02 0.01 0.00 0.00 0.00 0.00 0.00 0.00 0.00 0.00 0.00 0.00
0.23 0.65 0.99 1.08 1.23 1.21 0.87 0.70 0.22 0.04 0.11 0.26 0.36 0.41 0.53 0.50 0.56 0.63 0.82 0.68 0.59 0.85 1.63 2.32 2.43 1.66 1.26 1.14 0.75 0.24 0.13 0.05 0.23 0.30 0.24 0.15 0.07 0.03 0.02 0.01 0.02 0.02 0.01 0.00 0.00 0.00 0.00 0.00 0.00
0.51 0.94 1.00 0.93 1.30 1.91 1.55 0.81 0.19 0.10 0.16 0.20 0.41 0.62 0.57 0.43 0.39 0.57 0.47 0.47 0.58 0.56 0.75 1.13 1.11 1.53 1.20 1.40 1.06 0.72 0.36 0.14 0.15 0.40 0.35 0.24 0.23 0.16 0.08 0.03 0.03 0.04 0.03 0.00 0.00 0.00 0.00 0.00 0.00
0.56 0.57 0.73 0.73 0.77 1.87 1.75 1.02 0.40 0.19 0.13 0.12 0.19 0.41 0.63 0.72 0.72 0.74 0.54 0.32 0.35 0.45 0.52 0.66 0.65 0.58 0.85 1.08 1.39 1.23 0.89 0.42 0.21 0.22 0.37 0.56 0.34 0.38 0.22 0.12 0.07 0.06 0.07 0.01 0.00 0.00 0.00 0.00 0.00
0.19 0.24 0.34 0.62 0.60 1.10 1.62 0.99 0.71 0.39 0.19 0.06 0.10 0.17 0.29 0.61 0.77 0.74 0.59 0.48 0.33 0.53 0.43 0.40 0.45 0.36 0.46 0.73 1.21 1.34 1.11 0.86 0.45 0.19 0.10 0.39 0.74 0.60 0.68 0.47 0.33 0.31 0.29 0.09 0.00 0.00 0.00 0.00 0.01
0.13 0.21 0.23 0.49 0.69 0.54 0.89 0.90 0.73 0.49 0.47 0.14 0.12 0.13 0.22 0.51 0.82 0.98 0.88 0.68 0.62 0.70 0.52 0.34 0.28 0.38 0.48 0.60 0.80 0.99 0.91 1.05 0.94 0.72 0.65 0.35 0.42 0.66 0.67 0.62 0.63 0.58 0.51 0.23 0.06 0.03 0.02 0.02 0.06
0.26 0.26 0.25 0.40 0.70 0.62 0.58 0.66 0.50 0.48 0.32 0.21 0.10 0.07 0.19 0.39 0.74 1.62 1.16 0.82 0.84 1.00 0.72 0.68 0.55 0.71 0.54 0.62 0.93 1.06 1.08 1.02 1.23 1.24 1.01 1.12 0.94 0.87 0.79 0.53 0.41 0.40 0.37 0.23 0.16 0.13 0.16 0.14 0.20
0.26 0.22 0.20 0.38 0.47 0.42 0.47 0.58 0.44 0.37 0.27 0.13 0.07 0.06 0.11 0.24 0.41 1.38 1.68 1.20 1.07 1.25 0.85 0.73 0.76 0.68 0.47 0.55 0.82 1.15 1.45 1.45 1.05 0.72 0.64 0.70 1.08 1.15 1.18 1.05 0.99 0.89 0.71 0.58 0.46 0.38 0.38 0.45 0.35
0.30 0.14 0.24 0.49 0.59 0.53 0.43 0.64 0.47 0.30 0.28 0.15 0.07 0.04 0.14 0.22 0.33 0.77 1.72 1.50 1.34 1.24 0.87 0.73 0.87 0.82 0.85 1.11 1.20 0.97 1.02 1.24 1.16 1.29 1.11 1.30 1.24 1.15 1.30 1.42 1.28 1.32 1.25 1.07 1.01 0.88 0.73 0.59 0.41
0.43 0.17 0.24 0.40 0.61 1.00 0.42 0.70 0.56 0.42 0.31 0.15 0.05 0.06 0.16 0.25 0.32 0.45 1.02 1.32 1.51 1.57 0.95 0.70 1.20 1.30 1.23 1.18 1.65 1.59 1.69 1.36 1.39 1.56 1.62 1.52 1.68 1.81 1.81 1.81 1.85 1.68 1.66 1.72 1.49 1.35 1.19 1.07 0.87
0.41 0.44 0.41 0.65 0.83 1.39 0.54 0.66 0.71 0.59 0.46 0.30 0.05 0.12 0.23 0.28 0.35 0.34 0.44 1.04 1.59 1.39 1.37 1.00 0.98 1.10 1.11 1.07 1.44 1.62 1.29 1.19 1.07 1.21 1.43 1.39 1.43 1.61 1.89 1.92 1.81 1.78 1.44 1.27 1.21 1.13 1.04 0.94 0.79
0.73 0.94 1.41 1.42 1.74 0.86 0.54 0.66 0.75 0.58 0.30 0.26 0.18 0.30 0.40 0.40 0.49 0.37 0.39 0.75 1.59 1.16 1.24 0.99 1.09 1.10 1.24 1.14 1.49 1.47 1.48 1.43 1.42 1.44 1.42 1.41 1.23 1.03 0.94 1.08 1.10 1.05 1.00 0.93 0.91 0.69 0.64 0.74 0.66
0.97 0.90 1.16 0.85 0.74 0.62 0.38 0.86 1.04 0.84 0.61 0.55 0.43 0.68 0.97 1.06 1.04 0.76 0.58 0.73 1.15 1.36 1.19 1.02 0.93 0.96 1.16 1.42 1.62 1.30 1.61 1.54 1.54 1.34 1.35 1.24 1.20 1.26 1.02 0.83 0.78 0.70 0.55 0.46 0.50 0.42 0.33 0.38 0.41
0.83 0.84 0.74 1.05 0.56 0.59 0.59 0.95 1.21 1.31 1.21 0.71 1.17 1.27 1.35 1.33 1.42 1.15 1.13 1.41 1.04 1.14 1.09 1.00 0.82 0.75 0.65 0.57 0.56 0.71 1.08 1.17 1.25 1.05 0.81 0.70 0.67 0.67 0.76 0.70 0.70 0.66 0.53 0.44 0.39 0.35 0.31 0.30 0.32
0.59 0.45 0.70 1.24 0.87 0.56 0.38 0.49 1.56 1.73 1.28 1.05 1.13 1.17 1.05 1.06 1.03 0.92 1.07 1.04 1.03 0.89 0.82 0.66 0.61 0.55 0.35 0.19 0.23 0.41 0.47 0.45 0.48 0.47 0.42 0.48 0.48 0.41 0.39 0.36 0.31 0.26 0.26 0.29 0.26 0.27 0.31 0.37 0.32
0.67 0.72 0.42 0.55 0.47 0.39 0.26 0.78 1.34 1.35 1.03 0.76 0.79 0.83 0.80 0.76 0.66 0.64 0.65 0.61 0.53 0.49 0.34 0.31 0.31 0.27 0.12 0.11 0.14 0.12 0.12 0.14 0.13 0.15 0.17 0.19 0.24 0.20 0.20 0.16 0.15 0.13 0.11 0.13 0.12 0.13 0.17 0.24 0.25
0.25 0.26 0.19 0.67 0.44 0.37 0.38 0.82 0.94 0.90 0.71 0.45 0.38 0.25 0.17 0.11 0.07 0.09 0.12 0.17 0.19 0.16 0.10 0.10 0.08 0.10 0.08 0.06 0.03 0.01 0.04 0.05 0.04 0.04 0.05 0.06 0.07 0.06 0.06 0.07 0.08 0.09 0.10 0.13 0.20 0.26 0.27 0.29 0.30

GFSSGP_prec_precacc_117.txt.gz
Total_Precipitation_Accumulation
0.00 0.01 0.01 0.04 0.04 0.01 0.00 0.00 0.00 0.02 0.11 0.03 0.01 0.03 0.06 0.01 0.01 0.11 0.02 0.03 0.00 0.01 0.05 0.06 0.09 0.17 0.17 0.13 0.09 0.05 0.08 0.12 0.11 0.17 0.21 0.17 0.32 0.10 0.03 0.08 0.08 0.13 0.21 0.34 0.32 0.12 0.02 0.02 0.01
0.02 0.02 0.04 0.16 0.06 0.00 0.00 0.00 0.00 0.00 0.06 0.04 0.05 0.05 0.15 0.06 0.01 0.04 0.08 0.04 0.01 0.01 0.03 0.05 0.09 0.15 0.10 0.09 0.06 0.05 0.07 0.11 0.16 0.27 0.24 0.25 0.30 0.03 0.08 0.08 0.11 0.16 0.24 0.18 0.04 0.01 0.02 0.01 0.00
0.02 0.09 0.21 0.20 0.05 0.00 0.00 0.00 0.00 0.00 0.00 0.14 0.23 0.09 0.29 0.20 0.07 0.05 0.05 0.07 0.05 0.04 0.04 0.06 0.13 0.13 0.07 0.07 0.05 0.05 0.06 0.12 0.23 0.31 0.41 0.46 0.33 0.16 0.26 0.15 0.10 0.06 0.03 0.02 0.02 0.01 0.00 0.00 0.00
0.10 0.27 0.34 0.13 0.05 0.00 0.00 0.00 0.00 0.00 0.01 0.03 0.22 0.23 0.43 0.38 0.10 0.10 0.07 0.08 0.07 0.07 0.07 0.08 0.17 0.11 0.06 0.08 0.08 0.06 0.06 0.08 0.20 0.31 0.44 0.38 0.28 0.34 0.41 0.15 0.03 0.01 0.03 0.02 0.01 0.00 0.00 0.00 0.00
0.22 0.40 0.21 0.16 0.07 0.00 0.00 0.00 0.00 0.00 0.00 0.00 0.12 0.38 0.51 0.62 0.29 0.40 0.29 0.22 0.10 0.07 0.12 0.09 0.22 0.10 0.06 0.09 0.08 0.09 0.09 0.08 0.16 0.24 0.24 0.18 0.23 0.56 0.36 0.07 0.01 0.02 0.03 0.01 0.00 0.00 0.00 0.00 0.00
0.57 0.44 0.24 0.14 0.03 0.00 0.00 0.00 0.00 0.00 0.00 0.01 0.04 0.29 0.65 1.01 0.97 0.96 0.73 0.57 0.45 0.28 0.31 0.26 0.27 0.20 0.10 0.07 0.09 0.13 0.12 0.11 0.16 0.21 0.27 0.22 0.20 0.44 0.32 0.06 0.02 0.03 0.02 0.01 0.01 0.00 0.00 0.01 0.01
0.67 0.50 0.18 0.08 0.01 0.00 0.00 0.01 0.00 0.00 0.01 0.02 0.00 0.13 0.54 0.91 1.68 1.30 1.08 0.92 0.75 0.86 0.87 0.77 0.33 0.24 0.13 0.06 0.06 0.15 0.14 0.16 0.16 0.23 0.27 0.19 0.14 0.23 0.24 0.05 0.02 0.03 0.03 0.02 0.01 0.00 0.00 0.01 0.02
0.57 0.79 0.31 0.06 0.01 0.01 0.00 0.02 0.00 0.00 0.00 0.01 0.02 0.06 0.29 0.51 1.81 1.96 1.86 1.63 1.19 1.34 1.23 1.12 0.67 0.30 0.11 0.07 0.06 0.14 0.16 0.09 0.14 0.19 0.15 0.07 0.03 0.08 0.19 0.04 0.03 0.03 0.03 0.02 0.01 0.01 0.03 0.03 0.02
0.92 1.13 0.67 0.14 0.04 0.02 0.01 0.01 0.01 0.01 0.00 0.01 0.01 0.12 0.10 0.26 1.54 2.48 2.85 2.82 2.11 1.77 1.65 1.49 1.22 0.65 0.27 0.11 0.07 0.15 0.22 0.12 0.10 0.13 0.09 0.08 0.02 0.02 0.06 0.01 0.01 0.02 0.05 0.03 0.02 0.01 0.03 0.02 0.01
1.40 1.34 0.40 0.09 0.06 0.02 0.04 0.01 0.01 0.02 0.01 0.06 0.10 0.09 0.06 0.22 0.79 2.65 4.03 4.02 2.75 1.84 1.66 1.50 1.31 0.81 0.36 0.20 0.15 0.10 0.25 0.20 0.07 0.08 0.08 0.06 0.03 0.01 0.00 0.00 0.01 0.03 0.05 0.02 0.03 0.01 0.01 0.01 0.00
1.05 1.09 0.29 0.29 0.26 0.24 0.13 0.04 0.01 0.05 0.05 0.01 0.05 0.12 0.22 0.29 0.48 1.44 2.80 3.99 3.80 2.25 1.53 1.25 1.20 1.14 0.67 0.26 0.15 0.14 0.41 0.32 0.16 0.06 0.05 0.08 0.06 0.03 0.02 0.01 0.01 0.01 0.01 0.00 0.01 0.00 0.00 0.00 0.00
0.55 0.60 0.43 0.47 0.47 0.47 0.18 0.10 0.07 0.05 0.02 0.01 0.06 0.27 0.41 0.54 0.53 0.71 1.22 2.05 3.88 3.49 1.92 1.30 1.02 0.73 0.60 0.36 0.09 0.04 0.19 0.27 0.23 0.13 0.06 0.06 0.04 0.05 0.03 0.01 0.00 0.00 0.00 0.00 0.00 0.00 0.00 0.00 0.00
0.36 0.46 0.56 0.71 0.62 0.47 0.32 0.19 0.11 0.05 0.02 0.04 0.20 0.39 0.49 0.76 0.65 0.53 0.68 0.79 2.23 4.14 3.67 2.07 1.51 1.41 0.55 0.40 0.12 0.04 0.05 0.30 0.19 0.19 0.10 0.06 0.05 0.08 0.04 0.01 0.00 0.00 0.00 0.00 0.00 0.00 0.00 0.00 0.00
0.18 0.44 0.68 0.97 0.79 0.86 0.47 0.24 0.18 0.06 0.10 0.18 0.40 0.38 0.40 0.46 0.42 0.63 0.69 0.74 0.73 1.62 3.06 3.61 2.19 1.43 1.22 0.84 0.31 0.10 0.03 0.11 0.31 0.22 0.16 0.08 0.08 0.06 0.04 0.02 0.00 0.01 0.01 0.01 0.00 0.00 0.00 0.00 0.00
0.23 0.65 0.99 1.08 1.23 1.21 0.87 0.70 0.22 0.04 0.11 0.26 0.36 0.41 0.53 0.50 0.56 0.63 0.82 0.68 0.59 0.85 1.63 2.32 2.43 1.66 1.26 1.14 0.75 0.24 0.13 0.05 0.23 0.30 0.24 0.15 0.07 0.04 0.02 0.02 0.02 0.03 0.03 0.03 0.01 0.00 0.00 0.00 0.00
0.51 0.94 1.00 0.93 1.30 1.91 1.55 0.81 0.19 0.10 0.16 0.20 0.41 0.62 0.57 0.43 0.39 0.57 0.47 0.47 0.58 0.56 0.75 1.13 1.11 1.53 1.20 1.40 1.06 0.72 0.36 0.14 0.15 0.40 0.35 0.24 0.23 0.16 0.08 0.03 0.03 0.06 0.06 0.05 0.02 0.00 0.00 0.00 0.00
0.56 0.57 0.73 0.73 0.77 1.87 1.75 1.02 0.40 0.19 0.13 0.12 0.19 0.41 0.63 0.72 0.72 0.74 0.54 0.32 0.35 0.45 0.52 0.66 0.65 0.58 0.85 1.08 1.39 1.23 0.89 0.42 0.21 0.22 0.37 0.56 0.34 0.38 0.23 0.13 0.08 0.06 0.09 0.08 0.05 0.02 0.00 0.00 0.00
0.19 0.24 0.34 0.62 0.60 1.10 1.62 0.99 0.71 0.39 0.19 0.06 0.10 0.17 0.29 0.61 0.77 0.74 0.59 0.48 0.33 0.53 0.43 0.40 0.45 0.36 0.46 0.73 1.21 1.34 1.11 0.86 0.45 0.19 0.10 0.39 0.74 0.60 0.68 0.47 0.33 0.32 0.35 0.46 0.42 0.16 0.06 0.02 0.01
0.13 0.21 0.23 0.49 0.69 0.54 0.89 0.90 0.73 0.49 0.47 0.14 0.12 0.13 0.22 0.51 0.82 0.98 0.88 0.68 0.62 0.70 0.52 0.34 0.28 0.38 0.48 0.60 0.80 0.99 0.91 1.05 0.94 0.72 0.65 0.35 0.42 0.67 0.68 0.63 0.63 0.60 0.57 0.47 0.45 0.38 0.20 0.09 0.08
0.26 0.26 0.25 0.40 0.70 0.62 0.58 0.66 0.50 0.48 0.32 0.21 0.10 0.07 0.19 0.39 0.74 1.62 1.16 0.82 0.84 1.00 0.72 0.68 0.55 0.71 0.54 0.62 0.93 1.06 1.08 1.02 1.23 1.24 1.01 1.12 0.94 0.87 0.80 0.54 0.43 0.43 0.50 0.45 0.34 0.34 0.34 0.23 0.24
0.26 0.22 0.20 0.38 0.47 0.42 0.47 0.58 0.44 0.37 0.27 0.13 0.07 0.06 0.11 0.24 0.41 1.38 1.68 1.20 1.07 1.25 0.85 0.73 0.76 0.68 0.47 0.55 0.82 1.15 1.46 1.45 1.05 0.72 0.64 0.70 1.08 1.16 1.20 1.08 1.02 0.91 0.74 0.63 0.52 0.48 0.51 0.54 0.40
0.30 0.14 0.24 0.49 0.59 0.53 0.43 0.66 0.47 0.30 0.28 0.15 0.07 0.04 0.14 0.22 0.33 0.77 1.72 1.50 1.34 1.24 0.87 0.73 0.87 0.82 0.85 1.11 1.20 0.97 1.02 1.25 1.16 1.29 1.11 1.30 1.25 1.16 1.32 1.45 1.31 1.35 1.27 1.08 1.02 0.91 0.77 0.65 0.45
0.43 0.17 0.24 0.40 0.61 1.01 0.42 0.73 0.56 0.42 0.31 0.15 0.05 0.06 0.17 0.25 0.32 0.45 1.02 1.32 1.51 1.57 0.95 0.70 1.20 1.30 1.23 1.19 1.65 1.59 1.69 1.36 1.39 1.56 1.62 1.53 1.69 1.81 1.83 1.83 1.87 1.69 1.67 1.73 1.49 1.35 1.20 1.09 0.90
0.41 0.44 0.41 0.65 0.84 1.40 0.54 0.68 0.72 0.59 0.52 0.31 0.06 0.13 0.25 0.29 0.35 0.34 0.44 1.04 1.59 1.39 1.37 1.00 0.98 1.10 1.11 1.08 1.44 1.63 1.29 1.19 1.07 1.21 1.43 1.39 1.44 1.62 1.91 1.97 1.87 1.82 1.48 1.29 1.22 1.16 1.07 0.98 0.86
0.73 0.94 1.41 1.42 1.74 0.86 0.54 0.69 0.76 0.62 0.38 0.31 0.21 0.33 0.40 0.40 0.49 0.38 0.39 0.75 1.59 1.16 1.25 1.00 1.10 1.12 1.30 1.22 1.54 1.51 1.48 1.43 1.42 1.44 1.42 1.42 1.24 1.04 0.99 1.30 1.32 1.15 1.08 1.00 0.98 0.75 0.70 0.80 0.73
0.97 0.90 1.17 0.86 0.74 0.62 0.38 0.87 1.05 0.88 0.70 0.60 0.45 0.70 0.98 1.07 1.07 0.78 0.59 0.74 1.17 1.38 1.20 1.02 0.96 1.02 1.26 1.50 1.70 1.32 1.62 1.54 1.54 1.35 1.36 1.26 1.20 1.28 1.05 0.91 1.12 1.15 0.84 0.62 0.56 0.47 0.39 0.44 0.46
0.83 0.85 0.75 1.07 0.56 0.60 0.59 0.95 1.22 1.31 1.24 0.73 1.19 1.30 1.36 1.42 1.61 1.22 1.20 1.43 1.05 1.18 1.20 1.12 0.90 0.87 0.76 0.67 0.61 0.75 1.14 1.24 1.29 1.11 0.87 0.81 0.83 0.81 0.83 0.77 0.74 0.72 0.63 0.56 0.47 0.41 0.35 0.33 0.35
0.59 0.46 0.72 1.26 0.89 0.57 0.39 0.50 1.59 1.75 1.31 1.10 1.24 1.25 1.19 1.37 1.35 1.19 1.25 1.18 1.13 1.01 1.00 0.79 0.69 0.67 0.46 0.54 0.45 0.52 0.68 0.61 0.62 0.63 0.68 0.61 0.61 0.62 0.56 0.46 0.39 0.35 0.34 0.37 0.37 0.35 0.36 0.42 0.34
0.69 0.75 0.45 0.57 0.49 0.42 0.26 0.78 1.40 1.41 1.11 0.90 0.90 0.92 0.92 0.91 0.85 0.89 1.00 1.02 0.91 0.77 0.53 0.55 0.56 0.66 0.31 0.44 0.39 0.23 0.24 0.21 0.17 0.18 0.27 0.30 0.37 0.35 0.34 0.41 0.43 0.30 0.27 0.30 0.26 0.24 0.26 0.34 0.33
0.25 0.26 0.19 0.69 0.49 0.39 0.39 0.84 0.96 0.92 0.78 0.56 0.46 0.29 0.18 0.12 0.09 0.16 0.27 0.40 0.45 0.42 0.37 0.36 0.57 0.45 0.26 0.22 0.16 0.11 0.17 0.14 0.13 0.08 0.11 0.14 0.14 0.15 0.13 0.13 0.15 0.18 0.18 0.21 0.29 0.35 0.31 0.31 0.31

GFSSGP_prec_precacc_120.txt.gz
Total_Precipitation_Accumulation
0.00 0.01 0.01 0.04 0.04 0.01 0.00 0.00 0.00 0.02 0.11 0.03 0.01 0.03 0.06 0.01 0.01 0.11 0.02 0.03 0.00 0.01 0.05 0.06 0.10 0.17 0.17 0.13 0.09 0.06 0.08 0.12 0.12 0.19 0.22 0.18 0.32 0.10 0.03 0.08 0.08 0.13 0.21 0.34 0.33 0.12 0.02 0.02 0.01
0.02 0.02 0.04 0.16 0.06 0.00 0.00 0.00 0.00 0.00 0.06 0.04 0.05 0.05 0.15 0.06 0.01 0.04 0.08 0.04 0.01 0.02 0.05 0.05 0.11 0.16 0.12 0.10 0.06 0.05 0.07 0.11 0.16 0.27 0.24 0.25 0.30 0.03 0.08 0.08 0.12 0.18 0.24 0.18 0.04 0.01 0.02 0.01 0.00
0.02 0.09 0.21 0.20 0.05 0.00 0.00 0.00 0.00 0.00 0.00 0.14 0.23 0.09 0.29 0.20 0.07 0.05 0.05 0.07 0.05 0.05 0.05 0.07 0.14 0.15 0.10 0.09 0.06 0.06 0.06 0.12 0.23 0.31 0.41 0.47 0.34 0.18 0.28 0.16 0.14 0.07 0.03 0.02 0.02 0.01 0.00 0.00 0.00
0.10 0.27 0.34 0.13 0.05 0.00 0.00 0.00 0.00 0.00 0.01 0.03 0.22 0.23 0.43 0.38 0.10 0.10 0.07 0.08 0.07 0.08 0.08 0.09 0.18 0.13 0.10 0.09 0.09 0.06 0.06 0.09 0.20 0.31 0.45 0.38 0.28 0.44 0.56 0.23 0.08 0.01 0.03 0.02 0.01 0.00 0.00 0.00 0.00
0.22 0.40 0.21 0.16 0.07 0.00 0.00 0.00 0.00 0.00 0.00 0.00 0.12 0.38 0.51 0.62 0.29 0.40 0.29 0.22 0.11 0.09 0.13 0.10 0.23 0.14 0.11 0.16 0.13 0.13 0.11 0.09 0.16 0.25 0.25 0.19 0.23 0.63 0.50 0.17 0.03 0.02 0.03 0.01 0.00 0.00 0.00 0.00 0.00
0.57 0.44 0.24 0.14 0.03 0.00 0.00 0.00 0.00 0.00 0.00 0.01 0.04 0.29 0.65 1.01 0.97 0.96 0.73 0.57 0.45 0.30 0.34 0.27 0.27 0.21 0.12 0.12 0.16 0.19 0.16 0.14 0.17 0.22 0.28 0.26 0.24 0.46 0.41 0.17 0.04 0.03 0.02 0.01 0.01 0.00 0.00 0.01 0.01
0.67 0.50 0.18 0.08 0.01 0.00 0.00 0.01 0.00 0.00 0.01 0.02 0.00 0.13 0.54 0.91 1.68 1.30 1.08 0.92 0.75 0.87 0.89 0.82 0.37 0.26 0.14 0.06 0.07 0.17 0.18 0.19 0.20 0.26 0.30 0.21 0.18 0.26 0.29 0.12 0.04 0.03 0.03 0.02 0.01 0.00 0.00 0.01 0.02
0.57 0.79 0.31 0.06 0.01 0.01 0.00 0.02 0.00 0.00 0.00 0.01 0.02 0.06 0.29 0.51 1.81 1.96 1.86 1.63 1.19 1.34 1.23 1.13 0.72 0.38 0.12 0.07 0.06 0.14 0.17 0.14 0.17 0.21 0.16 0.08 0.04 0.10 0.23 0.07 0.04 0.03 0.03 0.02 0.01 0.01 0.03 0.03 0.02
0.92 1.13 0.67 0.14 0.04 0.02 0.01 0.01 0.01 0.01 0.00 0.01 0.01 0.12 0.10 0.26 1.54 2.48 2.85 2.82 2.11 1.77 1.65 1.50 1.28 0.67 0.32 0.12 0.10 0.18 0.22 0.14 0.13 0.14 0.10 0.10 0.03 0.02 0.10 0.04 0.02 0.02 0.05 0.03 0.02 0.01 0.03 0.02 0.01
1.40 1.34 0.40 0.09 0.06 0.02 0.04 0.01 0.01 0.02 0.01 0.06 0.10 0.09 0.06 0.22 0.79 2.65 4.03 4.02 2.75 1.84 1.66 1.50 1.31 0.86 0.38 0.23 0.19 0.12 0.28 0.21 0.07 0.08 0.09 0.07 0.04 0.02 0.03 0.04 0.02 0.03 0.05 0.02 0.03 0.01 0.01 0.01 0.00
1.05 1.09 0.29 0.29 0.26 0.24 0.13 0.04 0.01 0.05 0.05 0.01 0.05 0.12 0.22 0.29 0.48 1.44 2.80 3.99 3.80 2.25 1.53 1.25 1.20 1.14 0.67 0.29 0.16 0.14 0.47 0.36 0.16 0.06 0.07 0.10 0.09 0.06 0.06 0.05 0.01 0.01 0.01 0.00 0.01 0.00 0.00 0.00 0.00
0.55 0.60 0.43 0.47 0.47 0.47 0.18 0.10 0.07 0.05 0.02 0.01 0.06 0.27 0.41 0.54 0.53 0.71 1.22 2.05 3.88 3.49 1.92 1.30 1.02 0.73 0.60 0.36 0.09 0.04 0.19 0.27 0.24 0.15 0.07 0.07 0.05 0.08 0.07 0.05 0.01 0.00 0.00 0.00 0.00 0.00 0.00 0.00 0.00
0.36 0.46 0.56 0.71 0.62 0.47 0.32 0.19 0.11 0.05 0.02 0.04 0.20 0.39 0.49 0.76 0.65 0.53 0.68 0.79 2.23 4.14 3.67 2.07 1.51 1.41 0.55 0.40 0.12 0.04 0.05 0.30 0.22 0.21 0.11 0.14 0.09 0.10 0.06 0.06 0.04 0.01 0.00 0.01 0.00 0.00 0.00 0.00 0.00
0.18 0.44 0.68 0.97 0.79 0.86 0.47 0.24 0.18 0.06 0.10 0.18 0.40 0.38 0.40 0.46 0.42 0.63 0.69 0.74 0.73 1.62 3.06 3.61 2.19 1.43 1.22 0.84 0.31 0.10 0.03 0.11 0.31 0.22 0.16 0.11 0.13 0.16 0.08 0.06 0.03 0.01 0.01 0.01 0.01 0.00 0.00 0.00 0.00
0.23 0.65 0.99 1.08 1.23 1.21 0.87 0.70 0.22 0.04 0.11 0.26 0.36 0.41 0.53 0.50 0.56 0.63 0.82 0.68 0.59 0.85 1.63 2.32 2.43 1.66 1.26 1.14 0.75 0.24 0.13 0.05 0.23 0.30 0.24 0.15 0.08 0.06 0.05 0.05 0.05 0.04 0.05 0.03 0.03 0.01 0.00 0.00 0.00
0.51 0.94 1.00 0.93 1.30 1.91 1.55 0.81 0.19 0.10 0.16 0.20 0.41 0.62 0.57 0.43 0.39 0.57 0.47 0.47 0.58 0.56 0.75 1.13 1.11 1.53 1.20 1.40 1.06 0.72 0.36 0.14 0.15 0.40 0.35 0.24 0.23 0.16 0.09 0.03 0.04 0.08 0.09 0.07 0.03 0.01 0.00 0.00 0.00
0.56 0.57 0.73 0.73 0.77 1.87 1.75 1.02 0.40 0.19 0.13 0.12 0.19 0.41 0.63 0.72 0.72 0.74 0.54 0.32 0.35 0.45 0.52 0.66 0.65 0.58 0.85 1.08 1.39 1.24 0.90 0.42 0.21 0.22 0.37 0.56 0.34 0.38 0.23 0.13 0.08 0.06 0.09 0.09 0.06 0.03 0.01 0.00 0.00
0.19 0.24 0.34 0.62 0.60 1.10 1.62 0.99 0.71 0.39 0.19 0.06 0.10 0.17 0.29 0.61 0.77 0.74 0.59 0.48 0.33 0.53 0.43 0.40 0.45 0.36 0.46 0.73 1.21 1.34 1.12 0.86 0.45 0.19 0.10 0.39 0.74 0.60 0.68 0.47 0.33 0.33 0.36 0.47 0.43 0.16 0.06 0.02 0.01
0.13 0.21 0.23 0.49 0.69 0.54 0.89 0.90 0.73 0.49 0.47 0.14 0.12 0.13 0.22 0.51 0.82 0.98 0.88 0.68 0.62 0.70 0.52 0.34 0.28 0.38 0.48 0.60 0.80 0.99 0.91 1.05 0.94 0.72 0.65 0.35 0.42 0.67 0.68 0.63 0.64 0.60 0.57 0.48 0.45 0.41 0.22 0.11 0.10
0.26 0.26 0.25 0.40 0.70 0.62 0.58 0.66 0.50 0.48 0.32 0.21 0.10 0.07 0.19 0.39 0.74 1.62 1.16 0.82 0.84 1.00 0.72 0.68 0.55 0.71 0.54 0.62 0.93 1.06 1.08 1.02 1.23 1.24 1.01 1.12 0.94 0.87 0.80 0.54 0.43 0.43 0.51 0.46 0.35 0.36 0.38 0.25 0.25
0.26 0.22 0.20 0.38 0.47 0.42 0.47 0.58 0.44 0.37 0.27 0.13 0.07 0.06 0.11 0.24 0.41 1.38 1.68 1.20 1.07 1.25 0.85 0.73 0.76 0.68 0.47 0.55 0.82 1.15 1.46 1.45 1.05 0.72 0.64 0.70 1.08 1.16 1.20 1.08 1.03 0.92 0.75 0.64 0.54 0.50 0.54 0.59 0.43
0.30 0.14 0.24 0.49 0.59 0.53 0.44 0.66 0.47 0.30 0.28 0.15 0.07 0.04 0.14 0.22 0.33 0.77 1.72 1.50 1.34 1.24 0.87 0.73 0.87 0.82 0.85 1.11 1.20 0.97 1.02 1.25 1.16 1.29 1.11 1.30 1.25 1.16 1.33 1.46 1.32 1.37 1.30 1.11 1.04 0.93 0.79 0.66 0.46
0.43 0.17 0.24 0.40 0.62 1.02 0.42 0.75 0.56 0.42 0.31 0.15 0.05 0.06 0.17 0.26 0.32 0.45 1.02 1.32 1.51 1.57 0.95 0.70 1.20 1.30 1.23 1.19 1.65 1.59 1.70 1.37 1.39 1.56 1.62 1.53 1.69 1.82 1.83 1.84 1.88 1.70 1.69 1.75 1.51 1.36 1.21 1.09 0.90
0.41 0.44 0.41 0.65 0.84 1.41 0.54 0.69 0.72 0.59 0.55 0.32 0.07 0.14 0.26 0.29 0.35 0.34 0.44 1.04 1.59 1.39 1.37 1.00 0.98 1.10 1.11 1.08 1.44 1.63 1.30 1.20 1.08 1.21 1.44 1.40 1.44 1.63 1.92 1.98 1.88 1.83 1.49 1.31 1.24 1.17 1.08 0.98 0.86
0.73 0.95 1.41 1.42 1.75 0.86 0.54 0.70 0.77 0.62 0.40 0.35 0.27 0.36 0.43 0.42 0.49 0.38 0.39 0.75 1.59 1.16 1.25 1.00 1.11 1.12 1.30 1.22 1.54 1.53 1.51 1.46 1.43 1.44 1.42 1.42 1.24 1.04 0.99 1.30 1.33 1.16 1.09 1.02 0.99 0.77 0.72 0.81 0.74
0.97 0.91 1.18 0.86 0.74 0.62 0.38 0.87 1.06 0.88 0.71 0.64 0.49 0.72 1.00 1.08 1.07 0.79 0.62 0.76 1.18 1.39 1.21 1.04 0.98 1.05 1.27 1.50 1.72 1.37 1.64 1.56 1.55 1.36 1.36 1.26 1.20 1.28 1.05 0.91 1.13 1.17 0.92 0.71 0.70 0.58 0.43 0.47 0.49
0.83 0.86 0.76 1.09 0.57 0.61 0.60 0.96 1.22 1.31 1.24 0.73 1.22 1.33 1.37 1.50 1.71 1.28 1.33 1.47 1.06 1.20 1.25 1.16 0.93 0.89 0.81 0.77 0.70 0.81 1.17 1.24 1.29 1.11 0.87 0.82 0.84 0.84 0.86 0.78 0.75 0.73 0.68 0.72 0.69 0.60 0.47 0.41 0.41
0.60 0.47 0.75 1.30 0.91 0.58 0.39 0.52 1.61 1.75 1.33 1.13 1.26 1.28 1.25 1.52 1.55 1.34 1.43 1.20 1.14 1.03 1.03 0.83 0.71 0.69 0.47 0.58 0.47 0.54 0.77 0.67 0.72 0.75 0.84 0.77 0.72 0.76 0.80 0.68 0.47 0.39 0.37 0.42 0.43 0.44 0.48 0.55 0.47
0.70 0.76 0.46 0.58 0.51 0.43 0.26 0.79 1.41 1.41 1.13 0.92 0.91 0.92 0.93 0.96 0.96 1.02 1.10 1.08 0.94 0.99 0.74 0.75 0.65 0.81 0.48 0.77 0.59 0.31 0.52 0.55 0.34 0.37 0.53 0.52 0.56 0.47 0.41 0.54 0.57 0.36 0.32 0.39 0.35 0.34 0.36 0.42 0.44
0.25 0.26 0.19 0.70 0.50 0.40 0.39 0.85 0.96 0.92 0.79 0.60 0.47 0.29 0.18 0.12 0.10 0.18 0.33 0.48 0.53 0.53 0.51 0.59 0.92 0.81 0.54 0.73 0.64 0.38 0.43 0.42 0.24 0.21 0.25 0.26 0.29 0.29 0.23 0.20 0.25 0.33 0.28 0.28 0.37 0.44 0.40 0.35 0.35

GFSSGP_prec_precacc_123.txt.gz
Total_Precipitation_Accumulation
0.00 0.01 0.01 0.04 0.04 0.01 0.00 0.00 0.00 0.02 0.11 0.03 0.01 0.03 0.06 0.01 0.01 0.11 0.02 0.03 0.00 0.01 0.06 0.07 0.11 0.17 0.17 0.13 0.09 0.06 0.08 0.13 0.13 0.22 0.25 0.18 0.32 0.10 0.03 0.08 0.08 0.13 0.21 0.34 0.33 0.13 0.03 0.02 0.01
0.02 0.02 0.04 0.16 0.06 0.00 0.00 0.00 0.00 0.00 0.06 0.04 0.05 0.05 0.15 0.06 0.01 0.04 0.08 0.04 0.01 0.02 0.06 0.05 0.12 0.17 0.13 0.10 0.06 0.05 0.07 0.11 0.16 0.28 0.25 0.26 0.30 0.03 0.08 0.08 0.12 0.18 0.24 0.18 0.05 0.01 0.02 0.01 0.00
0.02 0.09 0.21 0.20 0.05 0.00 0.00 0.00 0.00 0.00 0.00 0.14 0.23 0.09 0.29 0.20 0.07 0.05 0.05 0.07 0.05 0.05 0.08 0.08 0.14 0.16 0.14 0.11 0.08 0.07 0.06 0.12 0.23 0.31 0.42 0.47 0.34 0.19 0.29 0.16 0.15 0.08 0.03 0.02 0.02 0.01 0.00 0.00 0.00
0.10 0.27 0.34 0.13 0.05 0.00 0.00 0.00 0.00 0.00 0.01 0.03 0.22 0.23 0.43 0.38 0.10 0.10 0.07 0.08 0.08 0.09 0.14 0.13 0.19 0.15 0.13 0.13 0.11 0.07 0.06 0.09 0.20 0.31 0.45 0.39 0.29 0.50 0.62 0.27 0.13 0.02 0.03 0.02 0.01 0.00 0.00 0.00 0.00
0.22 0.40 0.21 0.16 0.07 0.00 0.00 0.00 0.00 0.00 0.00 0.00 0.12 0.38 0.51 0.62 0.29 0.40 0.29 0.22 0.11 0.10 0.14 0.12 0.25 0.17 0.15 0.19 0.15 0.15 0.13 0.11 0.17 0.25 0.25 0.19 0.26 0.68 0.59 0.31 0.11 0.02 0.03 0.01 0.00 0.00 0.00 0.00 0.00
0.57 0.44 0.24 0.14 0.03 0.00 0.00 0.00 0.00 0.00 0.00 0.01 0.04 0.29 0.65 1.01 0.97 0.96 0.73 0.57 0.45 0.32 0.38 0.28 0.27 0.21 0.14 0.16 0.20 0.22 0.19 0.16 0.19 0.24 0.29 0.31 0.29 0.51 0.48 0.27 0.11 0.03 0.02 0.01 0.01 0.00 0.00 0.01 0.01
0.67 0.50 0.18 0.08 0.01 0.00 0.00 0.01 0.00 0.00 0.01 0.02 0.00 0.13 0.54 0.91 1.68 1.30 1.08 0.92 0.75 0.87 0.91 0.85 0.38 0.27 0.15 0.09 0.11 0.21 0.21 0.21 0.22 0.28 0.31 0.24 0.20 0.27 0.33 0.20 0.10 0.04 0.03 0.02 0.01 0.00 0.00 0.01 0.02
0.57 0.79 0.31 0.06 0.01 0.01 0.00 0.02 0.00 0.00 0.00 0.01 0.02 0.06 0.29 0.51 1.81 1.96 1.86 1.63 1.19 1.34 1.23 1.14 0.75 0.41 0.13 0.07 0.08 0.16 0.20 0.16 0.20 0.22 0.17 0.10 0.06 0.10 0.27 0.11 0.06 0.04 0.03 0.02 0.01 0.01 0.03 0.03 0.02
0.92 1.13 0.67 0.14 0.04 0.02 0.01 0.01 0.01 0.01 0.00 0.01 0.01 0.12 0.10 0.26 1.54 2.48 2.85 2.82 2.11 1.77 1.65 1.50 1.28 0.69 0.34 0.13 0.10 0.18 0.23 0.16 0.15 0.15 0.10 0.10 0.03 0.02 0.11 0.05 0.02 0.04 0.05 0.03 0.02 0.01 0.03 0.02 0.01
1.40 1.34 0.40 0.09 0.06 0.02 0.04 0.01 0.01 0.02 0.01 0.06 0.10 0.09 0.06 0.22 0.79 2.65 4.03 4.02 2.75 1.84 1.66 1.50 1.31 0.86 0.39 0.24 0.19 0.12 0.28 0.21 0.07 0.08 0.09 0.07 0.04 0.02 0.05 0.05 0.04 0.05 0.05 0.02 0.03 0.01 0.01 0.01 0.00
1.05 1.09 0.29 0.29 0.26 0.24 0.13 0.04 0.01 0.05 0.05 0.01 0.05 0.12 0.22 0.29 0.48 1.44 2.80 3.99 3.80 2.25 1.53 1.25 1.20 1.14 0.67 0.29 0.17 0.16 0.49 0.37 0.17 0.06 0.07 0.10 0.09 0.08 0.11 0.08 0.02 0.02 0.01 0.00 0.01 0.00 0.00 0.00 0.00
0.55 0.60 0.43 0.47 0.47 0.47 0.18 0.10 0.07 0.05 0.02 0.01 0.06 0.27 0.41 0.54 0.53 0.71 1.22 2.05 3.88 3.49 1.92 1.30 1.02 0.73 0.60 0.36 0.09 0.05 0.21 0.28 0.24 0.15 0.07 0.07 0.05 0.09 0.14 0.09 0.03 0.01 0.00 0.00 0.00 0.00 0.00 0.00 0.00
0.36 0.46 0.56 0.71 0.62 0.47 0.32 0.19 0.11 0.05 0.02 0.04 0.20 0.39 0.49 0.76 0.65 0.53 0.68 0.79 2.23 4.14 3.67 2.07 1.51 1.41 0.55 0.40 0.12 0.04 0.05 0.30 0.22 0.21 0.11 0.14 0.12 0.13 0.09 0.12 0.10 0.06 0.02 0.02 0.00 0.00 0.00 0.00 0.00
0.18 0.44 0.68 0.97 0.79 0.86 0.47 0.24 0.18 0.06 0.10 0.18 0.40 0.38 0.40 0.46 0.42 0.63 0.69 0.74 0.73 1.62 3.06 3.61 2.19 1.43 1.22 0.84 0.31 0.10 0.03 0.12 0.31 0.22 0.16 0.12 0.15 0.22 0.14 0.12 0.07 0.05 0.07 0.02 0.01 0.00 0.00 0.00 0.00
0.23 0.65 0.99 1.08 1.23 1.21 0.87 0.70 0.22 0.04 0.11 0.26 0.36 0.41 0.53 0.50 0.56 0.63 0.82 0.68 0.59 0.85 1.63 2.32 2.43 1.66 1.26 1.14 0.75 0.24 0.13 0.05 0.23 0.30 0.24 0.16 0.09 0.09 0.11 0.11 0.12 0.13 0.15 0.12 0.05 0.01 0.00 0.00 0.00
0.51 0.94 1.00 0.93 1.30 1.91 1.55 0.81 0.19 0.10 0.16 0.20 0.41 0.62 0.57 0.43 0.39 0.57 0.47 0.47 0.58 0.56 0.75 1.13 1.11 1.53 1.20 1.40 1.06 0.72 0.37 0.15 0.15 0.40 0.35 0.24 0.24 0.16 0.10 0.05 0.05 0.11 0.17 0.16 0.07 0.01 0.00 0.00 0.00
0.56 0.57 0.73 0.73 0.77 1.87 1.75 1.02 0.40 0.19 0.13 0.12 0.19 0.41 0.63 0.72 0.72 0.74 0.54 0.32 0.35 0.45 0.52 0.66 0.65 0.58 0.85 1.08 1.39 1.24 0.90 0.43 0.21 0.22 0.37 0.56 0.34 0.38 0.23 0.13 0.08 0.07 0.12 0.11 0.07 0.03 0.01 0.00 0.00
0.19 0.24 0.34 0.62 0.60 1.10 1.62 0.99 0.71 0.39 0.19 0.06 0.10 0.17 0.29 0.61 0.77 0.74 0.59 0.48 0.33 0.53 0.43 0.40 0.45 0.36 0.46 0.73 1.21 1.35 1.13 0.87 0.46 0.20 0.10 0.39 0.74 0.60 0.68 0.47 0.33 0.33 0.37 0.48 0.44 0.17 0.07 0.02 0.01
0.13 0.21 0.23 0.49 0.69 0.54 0.89 0.90 0.73 0.49 0.47 0.14 0.12 0.13 0.22 0.51 0.82 0.98 0.88 0.68 0.62 0.70 0.52 0.34 0.28 0.38 0.48 0.60 0.80 0.99 0.92 1.06 0.94 0.72 0.65 0.35 0.42 0.67 0.68 0.63 0.64 0.60 0.57 0.48 0.46 0.42 0.24 0.11 0.12
0.26 0.26 0.25 0.40 0.70 0.62 0.58 0.66 0.50 0.48 0.32 0.21 0.10 0.07 0.19 0.39 0.74 1.62 1.16 0.82 0.84 1.00 0.72 0.68 0.55 0.71 0.54 0.62 0.93 1.06 1.08 1.02 1.25 1.25 1.01 1.12 0.94 0.87 0.80 0.54 0.43 0.43 0.51 0.47 0.37 0.39 0.40 0.27 0.27
0.26 0.22 0.20 0.38 0.47 0.42 0.47 0.58 0.44 0.37 0.27 0.13 0.07 0.06 0.11 0.24 0.41 1.38 1.68 1.20 1.07 1.25 0.85 0.73 0.76 0.68 0.47 0.55 0.82 1.15 1.46 1.46 1.07 0.74 0.65 0.70 1.08 1.16 1.20 1.08 1.03 0.92 0.76 0.65 0.54 0.51 0.56 0.61 0.44
0.30 0.14 0.24 0.49 0.59 0.53 0.44 0.66 0.47 0.30 0.28 0.15 0.07 0.04 0.14 0.22 0.33 0.77 1.72 1.50 1.34 1.24 0.87 0.73 0.87 0.82 0.85 1.11 1.20 0.97 1.02 1.25 1.17 1.30 1.12 1.30 1.25 1.16 1.33 1.46 1.32 1.37 1.31 1.12 1.05 0.93 0.80 0.69 0.48
0.43 0.17 0.24 0.40 0.62 1.02 0.42 0.75 0.56 0.42 0.31 0.15 0.05 0.06 0.17 0.26 0.32 0.45 1.02 1.32 1.51 1.57 0.95 0.70 1.20 1.30 1.23 1.19 1.65 1.59 1.70 1.37 1.41 1.60 1.64 1.53 1.69 1.82 1.83 1.84 1.88 1.71 1.70 1.75 1.53 1.39 1.22 1.12 0.94
0.41 0.44 0.41 0.65 0.84 1.41 0.54 0.69 0.72 0.59 0.55 0.32 0.07 0.14 0.26 0.29 0.35 0.34 0.44 1.04 1.59 1.39 1.37 1.00 0.98 1.10 1.11 1.08 1.44 1.63 1.30 1.20 1.08 1.23 1.47 1.40 1.44 1.63 1.92 1.98 1.88 1.84 1.50 1.32 1.25 1.20 1.10 1.00 0.88
0.73 0.95 1.42 1.42 1.75 0.86 0.54 0.70 0.77 0.62 0.40 0.36 0.28 0.37 0.43 0.42 0.50 0.38 0.39 0.76 1.59 1.16 1.25 1.01 1.11 1.12 1.30 1.22 1.54 1.53 1.51 1.46 1.43 1.44 1.42 1.42 1.24 1.05 1.00 1.31 1.33 1.17 1.10 1.03 1.01 0.79 0.73 0.83 0.76
0.97 0.91 1.18 0.86 0.74 0.63 0.38 0.88 1.06 0.88 0.71 0.65 0.50 0.73 1.00 1.09 1.09 0.80 0.64 0.84 1.23 1.40 1.21 1.05 0.98 1.09 1.29 1.51 1.72 1.37 1.64 1.57 1.56 1.37 1.37 1.27 1.22 1.30 1.06 0.92 1.13 1.18 0.92 0.71 0.72 0.61 0.46 0.49 0.50
0.84 0.86 0.76 1.10 0.58 0.62 0.60 0.97 1.22 1.31 1.24 0.73 1.22 1.33 1.37 1.52 1.75 1.31 1.40 1.55 1.10 1.21 1.25 1.18 0.96 0.94 0.85 0.80 0.75 0.85 1.21 1.26 1.30 1.12 0.88 0.83 0.86 0.85 0.87 0.78 0.75 0.73 0.69 0.73 0.70 0.66 0.56 0.46 0.44
0.60 0.47 0.77 1.33 0.93 0.59 0.39 0.52 1.61 1.75 1.33 1.13 1.26 1.28 1.25 1.54 1.58 1.37 1.50 1.24 1.17 1.05 1.04 0.86 0.74 0.73 0.51 0.60 0.48 0.55 0.77 0.69 0.73 0.78 0.85 0.80 0.73 0.77 0.80 0.72 0.54 0.44 0.39 0.43 0.44 0.46 0.50 0.58 0.50
0.70 0.77 0.47 0.60 0.51 0.44 0.27 0.79 1.41 1.41 1.13 0.92 0.91 0.92 0.93 0.96 0.97 1.05 1.13 1.10 0.96 1.02 0.78 0.76 0.67 0.83 0.51 0.80 0.61 0.31 0.54 0.61 0.35 0.38 0.55 0.56 0.64 0.61 0.48 0.62 0.75 0.61 0.45 0.45 0.42 0.38 0.40 0.48 0.51
0.25 0.27 0.20 0.72 0.51 0.40 0.39 0.85 0.96 0.92 0.80 0.61 0.47 0.29 0.18 0.12 0.10 0.18 0.33 0.49 0.55 0.56 0.56 0.65 0.97 0.89 0.59 0.78 0.69 0.43 0.53 0.84 0.59 0.42 0.37 0.43 0.50 0.58 0.47 0.35 0.36 0.45 0.43 0.37 0.45 0.55 0.46 0.40 0.41

GFSSGP_prec_precacc_126.txt.gz
Total_Precipitation_Accumulation
0.00 0.01 0.01 0.04 0.04 0.01 0.00 0.00 0.00 0.02 0.11 0.03 0.01 0.03 0.06 0.01 0.01 0.11 0.03 0.03 0.00 0.01 0.06 0.07 0.11 0.17 0.17 0.13 0.09 0.07 0.08 0.13 0.14 0.24 0.29 0.19 0.32 0.10 0.03 0.08 0.08 0.13 0.21 0.35 0.33 0.13 0.03 0.02 0.01
0.02 0.02 0.04 0.16 0.06 0.00 0.00 0.00 0.00 0.00 0.06 0.04 0.05 0.05 0.15 0.06 0.01 0.04 0.08 0.04 0.01 0.02 0.06 0.05 0.12 0.17 0.13 0.10 0.07 0.05 0.07 0.12 0.16 0.28 0.26 0.26 0.30 0.03 0.08 0.08 0.12 0.18 0.24 0.18 0.05 0.01 0.02 0.01 0.00
0.02 0.09 0.21 0.20 0.05 0.00 0.00 0.00 0.00 0.00 0.00 0.14 0.23 0.09 0.29 0.20 0.07 0.05 0.05 0.07 0.05 0.05 0.10 0.08 0.14 0.17 0.16 0.12 0.08 0.07 0.06 0.13 0.23 0.32 0.43 0.47 0.34 0.19 0.29 0.16 0.15 0.08 0.03 0.02 0.02 0.01 0.00 0.00 0.00
0.10 0.27 0.34 0.13 0.05 0.00 0.00 0.00 0.00 0.00 0.01 0.03 0.22 0.23 0.43 0.38 0.10 0.10 0.07 0.08 0.08 0.11 0.16 0.15 0.21 0.17 0.16 0.15 0.13 0.09 0.08 0.10 0.21 0.31 0.45 0.39 0.29 0.52 0.63 0.28 0.14 0.02 0.03 0.02 0.01 0.00 0.00 0.00 0.00
0.22 0.40 0.21 0.16 0.07 0.00 0.00 0.00 0.00 0.00 0.00 0.00 0.12 0.38 0.51 0.62 0.29 0.40 0.29 0.22 0.11 0.11 0.16 0.18 0.29 0.20 0.16 0.20 0.17 0.17 0.15 0.12 0.18 0.26 0.25 0.19 0.28 0.74 0.65 0.35 0.15 0.03 0.03 0.01 0.00 0.00 0.00 0.00 0.00
0.57 0.44 0.24 0.14 0.03 0.00 0.00 0.00 0.00 0.00 0.00 0.01 0.04 0.29 0.65 1.01 0.97 0.96 0.73 0.57 0.45 0.32 0.40 0.32 0.29 0.22 0.15 0.17 0.20 0.23 0.20 0.17 0.20 0.25 0.30 0.32 0.33 0.55 0.52 0.31 0.20 0.06 0.02 0.01 0.01 0.00 0.00 0.01 0.01
0.67 0.50 0.18 0.08 0.01 0.00 0.00 0.01 0.00 0.00 0.01 0.02 0.00 0.13 0.54 0.91 1.68 1.30 1.08 0.92 0.75 0.88 0.91 0.86 0.40 0.27 0.15 0.09 0.11 0.21 0.21 0.22 0.22 0.28 0.31 0.24 0.21 0.27 0.34 0.24 0.16 0.08 0.03 0.02 0.01 0.00 0.00 0.01 0.02
0.57 0.79 0.31 0.06 0.01 0.01 0.00 0.02 0.00 0.00 0.00 0.01 0.02 0.06 0.29 0.51 1.81 1.96 1.86 1.63 1.19 1.34 1.23 1.15 0.76 0.42 0.13 0.07 0.08 0.16 0.20 0.16 0.20 0.22 0.17 0.10 0.06 0.10 0.27 0.11 0.08 0.07 0.04 0.02 0.01 0.01 0.03 0.03 0.02
0.92 1.13 0.67 0.14 0.04 0.02 0.01 0.01 0.01 0.01 0.00 0.01 0.01 0.12 0.10 0.26 1.54 2.48 2.85 2.82 2.11 1.77 1.65 1.50 1.28 0.71 0.35 0.13 0.10 0.18 0.23 0.16 0.15 0.15 0.10 0.10 0.03 0.02 0.11 0.05 0.02 0.04 0.06 0.03 0.02 0.01 0.03 0.02 0.01
1.40 1.34 0.40 0.09 0.06 0.02 0.04 0.01 0.01 0.02 0.01 0.06 0.10 0.09 0.06 0.22 0.79 2.65 4.03 4.02 2.75 1.84 1.66 1.50 1.31 0.86 0.41 0.29 0.23 0.12 0.28 0.21 0.07 0.08 0.09 0.07 0.04 0.03 0.05 0.06 0.04 0.05 0.06 0.02 0.03 0.01 0.01 0.01 0.00
1.05 1.09 0.29 0.29 0.26 0.24 0.13 0.04 0.01 0.05 0.05 0.01 0.05 0.12 0.22 0.29 0.48 1.44 2.80 3.99 3.80 2.25 1.53 1.25 1.20 1.14 0.67 0.30 0.21 0.16 0.49 0.37 0.17 0.06 0.07 0.10 0.09 0.08 0.11 0.09 0.02 0.02 0.01 0.00 0.01 0.00 0.00 0.00 0.00
0.55 0.60 0.43 0.47 0.47 0.47 0.18 0.10 0.07 0.05 0.02 0.01 0.06 0.27 0.41 0.54 0.53 0.71 1.22 2.05 3.88 3.49 1.92 1.30 1.02 0.73 0.60 0.36 0.10 0.07 0.23 0.29 0.25 0.15 0.07 0.07 0.05 0.09 0.14 0.11 0.04 0.01 0.00 0.00 0.00 0.00 0.00 0.00 0.00
0.36 0.46 0.56 0.71 0.62 0.47 0.32 0.19 0.11 0.05 0.02 0.04 0.20 0.39 0.49 0.76 0.65 0.53 0.68 0.79 2.23 4.14 3.67 2.07 1.51 1.41 0.55 0.40 0.12 0.06 0.10 0.34 0.25 0.23 0.11 0.14 0.12 0.13 0.10 0.13 0.11 0.07 0.03 0.02 0.00 0.00 0.00 0.00 0.00
0.18 0.44 0.68 0.97 0.79 0.86 0.47 0.24 0.18 0.06 0.10 0.18 0.40 0.38 0.40 0.46 0.42 0.63 0.69 0.74 0.73 1.62 3.06 3.61 2.19 1.43 1.22 0.84 0.31 0.10 0.04 0.15 0.34 0.22 0.16 0.12 0.15 0.23 0.15 0.15 0.09 0.06 0.08 0.04 0.02 0.00 0.00 0.00 0.00
0.23 0.65 0.99 1.08 1.23 1.21 0.87 0.70 0.22 0.04 0.11 0.26 0.36 0.41 0.53 0.50 0.56 0.63 0.82 0.68 0.59 0.85 1.63 2.32 2.43 1.66 1.26 1.14 0.75 0.24 0.13 0.07 0.26 0.31 0.24 0.16 0.10 0.09 0.13 0.14 0.15 0.17 0.23 0.19 0.10 0.02 0.00 0.00 0.00
0.51 0.94 1.00 0.93 1.30 1.91 1.55 0.81 0.19 0.10 0.16 0.20 0.41 0.62 0.57 0.43 0.39 0.57 0.47 0.47 0.58 0.56 0.75 1.13 1.11 1.53 1.20 1.40 1.06 0.72 0.37 0.16 0.17 0.43 0.38 0.25 0.25 0.17 0.10 0.07 0.06 0.16 0.24 0.24 0.12 0.03 0.01 0.00 0.00
0.56 0.57 0.73 0.73 0.77 1.87 1.75 1.02 0.40 0.19 0.13 0.12 0.19 0.41 0.63 0.72 0.72 0.74 0.54 0.32 0.35 0.45 0.52 0.66 0.65 0.58 0.85 1.08 1.39 1.24 0.90 0.43 0.22 0.25 0.40 0.57 0.34 0.39 0.24 0.14 0.10 0.16 0.21 0.18 0.14 0.09 0.03 0.00 0.00
0.19 0.24 0.34 0.62 0.60 1.10 1.62 0.99 0.71 0.39 0.19 0.06 0.10 0.17 0.29 0.61 0.77 0.74 0.59 0.48 0.33 0.53 0.43 0.40 0.45 0.36 0.46 0.73 1.21 1.35 1.13 0.87 0.47 0.22 0.13 0.41 0.78 0.63 0.68 0.48 0.34 0.34 0.41 0.53 0.50 0.19 0.09 0.03 0.02
0.13 0.21 0.23 0.49 0.69 0.54 0.89 0.90 0.73 0.49 0.47 0.14 0.12 0.13 0.22 0.51 0.82 0.98 0.88 0.68 0.62 0.70 0.52 0.34 0.28 0.38 0.48 0.60 0.80 0.99 0.92 1.06 0.95 0.74 0.68 0.37 0.42 0.69 0.69 0.66 0.67 0.61 0.57 0.49 0.48 0.45 0.26 0.13 0.12
0.26 0.26 0.25 0.40 0.70 0.62 0.58 0.66 0.50 0.48 0.32 0.21 0.10 0.07 0.19 0.39 0.74 1.62 1.16 0.82 0.84 1.00 0.72 0.68 0.55 0.71 0.54 0.62 0.93 1.06 1.09 1.03 1.25 1.25 1.04 1.18 0.97 0.88 0.80 0.54 0.43 0.43 0.51 0.47 0.37 0.39 0.41 0.28 0.28
0.26 0.22 0.20 0.38 0.47 0.42 0.47 0.58 0.44 0.37 0.27 0.13 0.07 0.06 0.11 0.24 0.41 1.38 1.68 1.20 1.07 1.25 0.85 0.73 0.76 0.68 0.47 0.55 0.82 1.15 1.46 1.46 1.08 0.75 0.68 0.74 1.12 1.18 1.20 1.08 1.03 0.92 0.76 0.65 0.55 0.51 0.57 0.62 0.45
0.30 0.14 0.24 0.49 0.59 0.53 0.44 0.66 0.47 0.30 0.28 0.15 0.07 0.04 0.14 0.22 0.33 0.77 1.72 1.50 1.34 1.24 0.87 0.73 0.87 0.82 0.85 1.11 1.20 0.97 1.02 1.25 1.17 1.32 1.16 1.36 1.30 1.19 1.33 1.48 1.33 1.37 1.31 1.12 1.06 0.94 0.81 0.71 0.49
0.43 0.17 0.24 0.40 0.62 1.02 0.42 0.75 0.56 0.42 0.31 0.15 0.05 0.06 0.17 0.26 0.32 0.45 1.02 1.32 1.51 1.57 0.95 0.70 1.20 1.30 1.23 1.19 1.65 1.59 1.70 1.37 1.41 1.60 1.67 1.60 1.76 1.87 1.88 1.86 1.89 1.71 1.70 1.75 1.53 1.39 1.23 1.13 0.96
0.41 0.44 0.41 0.65 0.84 1.41 0.54 0.69 0.72 0.59 0.55 0.32 0.07 0.14 0.26 0.29 0.35 0.34 0.44 1.04 1.59 1.39 1.37 1.00 0.98 1.10 1.11 1.08 1.44 1.63 1.30 1.20 1.08 1.23 1.47 1.43 1.47 1.67 1.94 1.98 1.88 1.84 1.50 1.32 1.25 1.20 1.11 1.01 0.90
0.73 0.95 1.42 1.42 1.75 0.86 0.54 0.70 0.77 0.62 0.40 0.36 0.28 0.37 0.43 0.42 0.50 0.38 0.39 0.76 1.60 1.17 1.26 1.02 1.12 1.12 1.31 1.22 1.54 1.53 1.51 1.46 1.43 1.44 1.43 1.44 1.26 1.07 1.05 1.33 1.36 1.17 1.10 1.03 1.01 0.79 0.73 0.84 0.78
0.97 0.91 1.18 0.86 0.75 0.63 0.38 0.88 1.06 0.88 0.71 0.65 0.50 0.73 1.00 1.09 1.09 0.80 0.65 0.86 1.27 1.42 1.22 1.09 1.05 1.11 1.33 1.51 1.73 1.37 1.64 1.57 1.56 1.37 1.37 1.30 1.25 1.35 1.11 0.95 1.17 1.19 0.92 0.71 0.72 0.62 0.47 0.50 0.52
0.84 0.87 0.77 1.11 0.58 0.62 0.60 0.97 1.22 1.31 1.24 0.73 1.22 1.33 1.37 1.52 1.75 1.31 1.41 1.57 1.14 1.22 1.26 1.19 1.01 1.00 0.89 0.84 0.78 0.87 1.23 1.28 1.32 1.13 0.89 0.85 0.90 0.88 0.89 0.79 0.77 0.77 0.70 0.74 0.71 0.67 0.56 0.48 0.48
0.60 0.47 0.78 1.34 0.94 0.60 0.39 0.52 1.61 1.75 1.33 1.13 1.26 1.28 1.25 1.54 1.58 1.37 1.51 1.26 1.21 1.08 1.06 0.87 0.74 0.73 0.51 0.61 0.50 0.56 0.77 0.69 0.74 0.80 0.88 0.82 0.76 0.79 0.83 0.73 0.63 0.47 0.40 0.44 0.47 0.47 0.51 0.59 0.52
0.71 0.77 0.47 0.61 0.52 0.45 0.27 0.79 1.41 1.41 1.13 0.92 0.91 0.92 0.93 0.96 0.97 1.05 1.14 1.12 0.97 1.04 0.84 0.81 0.67 0.84 0.52 0.82 0.63 0.33 0.55 0.62 0.36 0.40 0.58 0.59 0.66 0.62 0.49 0.62 0.76 0.63 0.47 0.48 0.50 0.51 0.56 0.58 0.54
0.25 0.27 0.20 0.73 0.53 0.41 0.40 0.85 0.96 0.92 0.80 0.61 0.47 0.29 0.18 0.12 0.10 0.18 0.34 0.51 0.56 0.56 0.61 0.73 1.01 0.89 0.59 0.78 0.69 0.45 0.55 0.85 0.60 0.44 0.39 0.45 0.53 0.61 0.50 0.38 0.44 0.62 0.67 0.68 0.66 0.82 0.75 0.56 0.50

GFSSGP_prec_precacc_129.txt.gz
Total_Precipitation_Accumulation
0.00 0.01 0.01 0.04 0.04 0.01 0.00 0.00 0.00 0.02 0.11 0.03 0.01 0.03 0.06 0.01 0.01 0.11 0.03 0.03 0.00 0.02 0.08 0.07 0.11 0.17 0.17 0.13 0.10 0.07 0.08 0.14 0.14 0.26 0.30 0.19 0.32 0.10 0.03 0.08 0.08 0.14 0.23 0.36 0.34 0.13 0.03 0.02 0.01
0.02 0.02 0.04 0.16 0.06 0.00 0.00 0.00 0.00 0.00 0.06 0.04 0.05 0.05 0.15 0.06 0.01 0.04 0.08 0.04 0.01 0.03 0.08 0.06 0.12 0.18 0.14 0.11 0.07 0.06 0.07 0.12 0.16 0.29 0.26 0.26 0.30 0.03 0.08 0.08 0.12 0.18 0.25 0.19 0.05 0.01 0.02 0.01 0.00
0.02 0.09 0.21 0.20 0.05 0.00 0.00 0.00 0.00 0.00 0.00 0.14 0.23 0.09 0.29 0.20 0.07 0.05 0.05 0.07 0.05 0.06 0.12 0.09 0.15 0.18 0.16 0.13 0.10 0.08 0.07 0.14 0.23 0.32 0.44 0.47 0.34 0.19 0.29 0.16 0.15 0.08 0.03 0.02 0.02 0.01 0.00 0.00 0.00
0.10 0.27 0.34 0.13 0.05 0.00 0.00 0.00 0.00 0.00 0.01 0.03 0.22 0.23 0.43 0.38 0.10 0.10 0.07 0.08 0.08 0.12 0.20 0.19 0.23 0.23 0.19 0.16 0.13 0.09 0.09 0.11 0.21 0.31 0.45 0.39 0.29 0.52 0.63 0.29 0.14 0.02 0.03 0.02 0.01 0.00 0.00 0.00 0.00
0.22 0.40 0.21 0.16 0.07 0.00 0.00 0.00 0.00 0.00 0.00 0.00 0.12 0.38 0.51 0.62 0.29 0.40 0.29 0.22 0.11 0.12 0.19 0.26 0.37 0.25 0.21 0.24 0.17 0.18 0.17 0.14 0.18 0.26 0.25 0.19 0.29 0.76 0.68 0.36 0.16 0.03 0.03 0.01 0.00 0.00 0.00 0.00 0.00
0.57 0.44 0.24 0.14 0.03 0.00 0.00 0.00 0.00 0.00 0.00 0.01 0.04 0.29 0.65 1.01 0.97 0.96 0.73 0.57 0.45 0.32 0.40 0.33 0.31 0.26 0.20 0.19 0.23 0.24 0.22 0.18 0.20 0.25 0.30 0.32 0.34 0.56 0.53 0.33 0.23 0.08 0.02 0.01 0.01 0.00 0.00 0.01 0.01
0.67 0.50 0.18 0.08 0.01 0.00 0.00 0.01 0.00 0.00 0.01 0.02 0.00 0.13 0.54 0.91 1.68 1.30 1.08 0.92 0.75 0.88 0.91 0.87 0.41 0.27 0.16 0.10 0.11 0.21 0.21 0.22 0.22 0.28 0.31 0.24 0.21 0.27 0.34 0.24 0.19 0.10 0.03 0.02 0.01 0.00 0.00 0.01 0.02
0.57 0.79 0.31 0.06 0.01 0.01 0.00 0.02 0.00 0.00 0.00 0.01 0.02 0.06 0.29 0.51 1.81 1.96 1.86 1.63 1.19 1.34 1.23 1.15 0.76 0.42 0.13 0.07 0.08 0.16 0.20 0.16 0.20 0.22 0.17 0.10 0.06 0.10 0.27 0.11 0.08 0.08 0.04 0.02 0.01 0.01 0.03 0.03 0.02
0.92 1.13 0.67 0.14 0.04 0.02 0.01 0.01 0.01 0.01 0.00 0.01 0.01 0.12 0.10 0.26 1.54 2.48 2.85 2.82 2.11 1.77 1.65 1.50 1.28 0.71 0.35 0.13 0.10 0.18 0.23 0.16 0.15 0.15 0.10 0.10 0.03 0.02 0.11 0.05 0.02 0.04 0.06 0.03 0.02 0.01 0.03 0.02 0.01
1.40 1.34 0.40 0.09 0.06 0.02 0.04 0.01 0.01 0.02 0.01 0.06 0.10 0.09 0.06 0.22 0.79 2.65 4.03 4.02 2.75 1.84 1.66 1.50 1.31 0.86 0.41 0.29 0.23 0.12 0.28 0.21 0.07 0.08 0.09 0.07 0.04 0.03 0.05 0.06 0.04 0.05 0.06 0.02 0.03 0.01 0.01 0.01 0.00
1.05 1.09 0.29 0.29 0.26 0.24 0.13 0.04 0.01 0.05 0.05 0.01 0.05 0.12 0.22 0.29 0.48 1.44 2.80 3.99 3.80 2.25 1.53 1.25 1.20 1.14 0.67 0.30 0.21 0.16 0.49 0.37 0.17 0.06 0.07 0.10 0.09 0.08 0.11 0.09 0.02 0.02 0.01 0.00 0.01 0.00 0.00 0.00 0.00
0.55 0.60 0.43 0.47 0.47 0.47 0.18 0.10 0.07 0.05 0.02 0.01 0.06 0.27 0.41 0.54 0.53 0.71 1.22 2.05 3.88 3.49 1.92 1.30 1.02 0.73 0.60 0.36 0.10 0.08 0.24 0.29 0.25 0.15 0.07 0.07 0.05 0.09 0.15 0.11 0.04 0.01 0.00 0.00 0.00 0.00 0.00 0.00 0.00
0.36 0.46 0.56 0.71 0.62 0.47 0.32 0.19 0.11 0.05 0.02 0.04 0.20 0.39 0.49 0.76 0.65 0.53 0.68 0.79 2.23 4.14 3.67 2.07 1.51 1.41 0.55 0.40 0.12 0.06 0.11 0.36 0.26 0.25 0.12 0.15 0.12 0.14 0.10 0.13 0.11 0.07 0.03 0.02 0.00 0.00 0.00 0.00 0.00
0.18 0.44 0.68 0.97 0.79 0.86 0.47 0.24 0.18 0.06 0.10 0.18 0.40 0.38 0.40 0.46 0.42 0.63 0.69 0.74 0.73 1.62 3.06 3.61 2.19 1.43 1.22 0.84 0.31 0.10 0.04 0.16 0.38 0.26 0.19 0.14 0.20 0.25 0.16 0.15 0.10 0.06 0.08 0.04 0.02 0.00 0.00 0.00 0.00
0.23 0.65 0.99 1.08 1.23 1.21 0.87 0.70 0.22 0.04 0.11 0.26 0.36 0.41 0.53 0.50 0.56 0.63 0.82 0.68 0.59 0.85 1.63 2.32 2.43 1.66 1.26 1.14 0.75 0.24 0.13 0.07 0.27 0.34 0.25 0.18 0.16 0.12 0.14 0.15 0.16 0.18 0.25 0.21 0.11 0.02 0.00 0.00 0.00
0.51 0.94 1.00 0.93 1.30 1.91 1.55 0.81 0.19 0.10 0.16 0.20 0.41 0.62 0.57 0.43 0.39 0.57 0.47 0.47 0.58 0.56 0.75 1.13 1.11 1.53 1.20 1.40 1.06 0.72 0.37 0.16 0.17 0.45 0.41 0.28 0.26 0.17 0.11 0.07 0.07 0.20 0.35 0.34 0.17 0.06 0.04 0.00 0.00
0.56 0.57 0.73 0.73 0.77 1.87 1.75 1.02 0.40 0.19 0.13 0.12 0.19 0.41 0.63 0.72 0.72 0.74 0.54 0.32 0.35 0.45 0.52 0.66 0.65 0.58 0.85 1.08 1.39 1.24 0.90 0.43 0.22 0.26 0.43 0.58 0.40 0.43 0.27 0.15 0.10 0.18 0.28 0.26 0.21 0.18 0.16 0.09 0.02
0.19 0.24 0.34 0.62 0.60 1.10 1.62 0.99 0.71 0.39 0.19 0.06 0.10 0.17 0.29 0.61 0.77 0.74 0.59 0.48 0.33 0.53 0.43 0.40 0.45 0.36 0.46 0.73 1.21 1.35 1.13 0.87 0.47 0.23 0.14 0.43 0.84 0.66 0.71 0.50 0.34 0.35 0.41 0.56 0.59 0.27 0.24 0.14 0.10
0.13 0.21 0.23 0.49 0.69 0.54 0.89 0.90 0.73 0.49 0.47 0.14 0.12 0.13 0.22 0.51 0.82 0.98 0.88 0.68 0.62 0.70 0.52 0.34 0.28 0.38 0.48 0.60 0.80 0.99 0.92 1.06 0.95 0.74 0.70 0.40 0.46 0.75 0.73 0.69 0.73 0.68 0.62 0.53 0.53 0.51 0.38 0.18 0.17
0.26 0.26 0.25 0.40 0.70 0.62 0.58 0.66 0.50 0.48 0.32 0.21 0.10 0.07 0.19 0.39 0.74 1.62 1.16 0.82 0.84 1.00 0.72 0.68 0.55 0.71 0.54 0.62 0.93 1.06 1.09 1.03 1.25 1.25 1.04 1.21 1.01 0.94 0.88 0.61 0.50 0.53 0.58 0.50 0.38 0.46 0.46 0.31 0.33
0.26 0.22 0.20 0.38 0.47 0.42 0.47 0.58 0.44 0.37 0.27 0.13 0.07 0.06 0.11 0.24 0.41 1.38 1.68 1.20 1.07 1.25 0.85 0.73 0.76 0.68 0.47 0.55 0.82 1.15 1.46 1.46 1.09 0.75 0.68 0.75 1.15 1.23 1.26 1.13 1.08 0.96 0.79 0.66 0.55 0.53 0.59 0.62 0.45
0.30 0.14 0.24 0.49 0.59 0.53 0.44 0.66 0.47 0.30 0.28 0.15 0.07 0.04 0.14 0.22 0.33 0.77 1.72 1.50 1.34 1.24 0.87 0.73 0.87 0.82 0.85 1.11 1.20 0.97 1.02 1.25 1.17 1.32 1.16 1.37 1.32 1.25 1.42 1.54 1.41 1.41 1.39 1.14 1.06 0.94 0.81 0.71 0.50
0.43 0.17 0.24 0.40 0.62 1.02 0.42 0.75 0.56 0.42 0.31 0.15 0.05 0.06 0.17 0.26 0.32 0.45 1.02 1.32 1.51 1.57 0.95 0.70 1.20 1.30 1.23 1.19 1.65 1.59 1.70 1.37 1.41 1.60 1.67 1.60 1.78 1.92 1.97 2.00 2.02 1.80 1.74 1.81 1.54 1.39 1.23 1.13 0.96
0.41 0.44 0.41 0.65 0.84 1.41 0.54 0.69 0.72 0.59 0.55 0.32 0.07 0.14 0.26 0.29 0.35 0.34 0.44 1.04 1.59 1.39 1.37 1.00 0.98 1.10 1.11 1.08 1.44 1.63 1.30 1.20 1.08 1.23 1.47 1.43 1.48 1.68 1.97 2.10 1.98 1.91 1.52 1.34 1.28 1.20 1.11 1.01 0.91
0.73 0.95 1.42 1.42 1.75 0.86 0.54 0.70 0.77 0.62 0.40 0.36 0.28 0.37 0.43 0.42 0.50 0.38 0.40 0.76 1.60 1.17 1.26 1.04 1.13 1.13 1.31 1.22 1.54 1.53 1.51 1.46 1.43 1.44 1.43 1.44 1.27 1.08 1.10 1.37 1.43 1.23 1.15 1.07 1.03 0.81 0.74 0.84 0.78
0.97 0.91 1.18 0.86 0.75 0.63 0.38 0.88 1.06 0.88 0.71 0.65 0.50 0.73 1.00 1.09 1.09 0.80 0.65 0.86 1.28 1.42 1.22 1.09 1.08 1.17 1.41 1.56 1.73 1.37 1.64 1.57 1.56 1.37 1.38 1.30 1.28 1.41 1.21 1.04 1.28 1.33 1.04 0.76 0.76 0.64 0.48 0.50 0.52
0.84 0.87 0.77 1.11 0.58 0.62 0.60 0.97 1.22 1.31 1.24 0.73 1.22 1.33 1.37 1.52 1.75 1.31 1.41 1.57 1.15 1.22 1.26 1.19 1.02 1.01 0.91 0.85 0.79 0.88 1.23 1.28 1.32 1.13 0.90 0.85 0.92 0.94 0.94 0.83 0.78 0.79 0.73 0.76 0.74 0.69 0.58 0.48 0.48
0.60 0.47 0.78 1.34 0.94 0.60 0.39 0.52 1.61 1.75 1.33 1.13 1.26 1.28 1.25 1.54 1.58 1.37 1.51 1.26 1.21 1.08 1.06 0.87 0.74 0.73 0.52 0.61 0.51 0.57 0.78 0.69 0.74 0.81 0.89 0.83 0.77 0.82 0.88 0.75 0.64 0.49 0.41 0.45 0.49 0.49 0.52 0.60 0.53
0.71 0.77 0.47 0.61 0.52 0.45 0.27 0.79 1.41 1.41 1.13 0.92 0.91 0.92 0.93 0.96 0.97 1.05 1.14 1.12 0.97 1.04 0.84 0.83 0.68 0.84 0.52 0.82 0.63 0.33 0.55 0.62 0.37 0.40 0.58 0.61 0.69 0.65 0.54 0.66 0.78 0.63 0.48 0.48 0.51 0.51 0.57 0.68 0.66
0.25 0.27 0.20 0.73 0.54 0.41 0.41 0.85 0.96 0.92 0.80 0.61 0.47 0.29 0.18 0.12 0.10 0.18 0.34 0.51 0.56 0.56 0.61 0.74 1.03 0.90 0.59 0.78 0.69 0.45 0.55 0.85 0.61 0.45 0.40 0.46 0.54 0.62 0.50 0.39 0.44 0.62 0.67 0.68 0.69 0.85 0.80 0.68 0.73

GFSSGP_prec_precacc_132.txt.gz
Total_Precipitation_Accumulation
0.00 0.01 0.01 0.04 0.04 0.01 0.00 0.00 0.00 0.02 0.11 0.03 0.01 0.03 0.06 0.01 0.01 0.11 0.03 0.03 0.00 0.03 0.08 0.09 0.13 0.17 0.18 0.16 0.11 0.09 0.09 0.14 0.15 0.26 0.30 0.19 0.32 0.10 0.03 0.08 0.09 0.16 0.25 0.37 0.34 0.13 0.03 0.02 0.01
0.02 0.02 0.04 0.16 0.06 0.00 0.00 0.00 0.00 0.00 0.06 0.04 0.05 0.05 0.15 0.06 0.01 0.04 0.08 0.04 0.01 0.03 0.09 0.07 0.14 0.18 0.14 0.12 0.09 0.09 0.09 0.12 0.16 0.29 0.27 0.26 0.30 0.03 0.08 0.08 0.12 0.19 0.26 0.19 0.05 0.01 0.02 0.01 0.00
0.02 0.09 0.21 0.20 0.05 0.00 0.00 0.00 0.00 0.00 0.00 0.14 0.23 0.09 0.29 0.20 0.07 0.05 0.05 0.07 0.05 0.06 0.13 0.09 0.18 0.20 0.17 0.14 0.11 0.09 0.07 0.14 0.23 0.33 0.45 0.47 0.34 0.19 0.29 0.16 0.15 0.08 0.04 0.02 0.02 0.01 0.00 0.00 0.00
0.10 0.27 0.34 0.13 0.05 0.00 0.00 0.00 0.00 0.00 0.01 0.03 0.22 0.23 0.43 0.38 0.10 0.10 0.07 0.08 0.08 0.12 0.24 0.22 0.28 0.28 0.21 0.16 0.14 0.11 0.11 0.11 0.21 0.31 0.45 0.39 0.29 0.52 0.64 0.29 0.14 0.02 0.03 0.02 0.01 0.00 0.00 0.00 0.00
0.22 0.40 0.21 0.16 0.07 0.00 0.00 0.00 0.00 0.00 0.00 0.00 0.12 0.38 0.51 0.62 0.29 0.40 0.29 0.22 0.11 0.12 0.19 0.30 0.44 0.30 0.27 0.29 0.19 0.19 0.19 0.15 0.18 0.26 0.25 0.19 0.29 0.76 0.69 0.37 0.16 0.03 0.03 0.01 0.00 0.00 0.00 0.00 0.00
0.57 0.44 0.24 0.14 0.03 0.00 0.00 0.00 0.00 0.00 0.00 0.01 0.04 0.29 0.65 1.01 0.97 0.96 0.73 0.57 0.45 0.32 0.41 0.33 0.32 0.27 0.21 0.21 0.26 0.24 0.23 0.18 0.21 0.25 0.30 0.32 0.34 0.58 0.55 0.34 0.25 0.09 0.02 0.01 0.01 0.00 0.00 0.01 0.01
0.67 0.50 0.18 0.08 0.01 0.00 0.00 0.01 0.00 0.00 0.01 0.02 0.00 0.13 0.54 0.91 1.68 1.30 1.08 0.92 0.75 0.88 0.91 0.87 0.42 0.30 0.16 0.11 0.13 0.25 0.23 0.22 0.22 0.28 0.31 0.24 0.21 0.27 0.34 0.25 0.21 0.12 0.03 0.02 0.01 0.00 0.00 0.01 0.02
0.57 0.79 0.31 0.06 0.01 0.01 0.00 0.02 0.00 0.00 0.00 0.01 0.02 0.06 0.29 0.51 1.81 1.96 1.86 1.63 1.19 1.34 1.23 1.15 0.77 0.43 0.14 0.08 0.08 0.17 0.21 0.16 0.20 0.22 0.17 0.10 0.06 0.10 0.27 0.11 0.08 0.10 0.05 0.02 0.01 0.01 0.03 0.03 0.02
0.92 1.13 0.67 0.14 0.04 0.02 0.01 0.01 0.01 0.01 0.00 0.01 0.01 0.12 0.10 0.26 1.54 2.48 2.85 2.82 2.11 1.77 1.65 1.50 1.28 0.71 0.35 0.13 0.10 0.18 0.23 0.16 0.15 0.15 0.10 0.10 0.03 0.02 0.11 0.05 0.02 0.05 0.07 0.03 0.02 0.01 0.03 0.02 0.01
1.40 1.34 0.40 0.09 0.06 0.02 0.04 0.01 0.01 0.02 0.01 0.06 0.10 0.09 0.06 0.22 0.79 2.65 4.03 4.02 2.75 1.84 1.66 1.50 1.31 0.86 0.41 0.29 0.23 0.12 0.28 0.21 0.07 0.08 0.09 0.07 0.04 0.03 0.05 0.06 0.04 0.05 0.06 0.03 0.03 0.01 0.01 0.01 0.00
1.05 1.09 0.29 0.29 0.26 0.24 0.13 0.04 0.01 0.05 0.05 0.01 0.05 0.12 0.22 0.29 0.48 1.44 2.80 3.99 3.80 2.25 1.53 1.25 1.20 1.14 0.67 0.30 0.21 0.16 0.49 0.37 0.17 0.06 0.07 0.10 0.09 0.08 0.11 0.09 0.02 0.02 0.01 0.01 0.01 0.00 0.00 0.00 0.00
0.55 0.60 0.43 0.47 0.47 0.47 0.18 0.10 0.07 0.05 0.02 0.01 0.06 0.27 0.41 0.54 0.53 0.71 1.22 2.05 3.88 3.49 1.92 1.30 1.02 0.73 0.60 0.36 0.10 0.08 0.24 0.29 0.25 0.15 0.07 0.07 0.05 0.09 0.15 0.11 0.04 0.01 0.00 0.00 0.00 0.00 0.00 0.00 0.00
0.36 0.46 0.56 0.71 0.62 0.47 0.32 0.19 0.11 0.05 0.02 0.04 0.20 0.39 0.49 0.76 0.65 0.53 0.68 0.79 2.23 4.14 3.67 2.07 1.51 1.41 0.55 0.40 0.12 0.06 0.11 0.36 0.27 0.26 0.14 0.16 0.13 0.14 0.10 0.13 0.11 0.07 0.03 0.02 0.00 0.00 0.00 0.00 0.00
0.18 0.44 0.68 0.97 0.79 0.86 0.47 0.24 0.18 0.06 0.10 0.18 0.40 0.38 0.40 0.46 0.42 0.63 0.69 0.74 0.73 1.62 3.06 3.61 2.19 1.43 1.22 0.84 0.31 0.10 0.04 0.16 0.38 0.26 0.20 0.17 0.29 0.33 0.17 0.15 0.10 0.06 0.09 0.04 0.02 0.00 0.00 0.00 0.00
0.23 0.65 0.99 1.08 1.23 1.21 0.87 0.70 0.22 0.04 0.11 0.26 0.36 0.41 0.53 0.50 0.56 0.63 0.82 0.68 0.59 0.85 1.63 2.32 2.43 1.66 1.26 1.14 0.75 0.24 0.13 0.07 0.27 0.34 0.25 0.19 0.20 0.17 0.16 0.15 0.16 0.18 0.26 0.25 0.14 0.04 0.01 0.00 0.00
0.51 0.94 1.00 0.93 1.30 1.91 1.55 0.81 0.19 0.10 0.16 0.20 0.41 0.62 0.57 0.43 0.39 0.57 0.47 0.47 0.58 0.56 0.75 1.13 1.11 1.53 1.20 1.40 1.06 0.72 0.37 0.16 0.17 0.45 0.41 0.29 0.30 0.23 0.14 0.08 0.07 0.21 0.37 0.40 0.25 0.11 0.06 0.00 0.00
0.56 0.57 0.73 0.73 0.77 1.87 1.75 1.02 0.40 0.19 0.13 0.12 0.19 0.41 0.63 0.72 0.72 0.74 0.54 0.32 0.35 0.45 0.52 0.66 0.65 0.58 0.85 1.08 1.39 1.24 0.90 0.43 0.22 0.26 0.43 0.58 0.40 0.48 0.35 0.20 0.13 0.21 0.32 0.29 0.24 0.25 0.20 0.12 0.08
0.19 0.24 0.34 0.62 0.60 1.10 1.62 0.99 0.71 0.39 0.19 0.06 0.10 0.17 0.29 0.61 0.77 0.74 0.59 0.48 0.33 0.53 0.43 0.40 0.45 0.36 0.46 0.73 1.21 1.35 1.13 0.87 0.47 0.23 0.14 0.43 0.84 0.68 0.75 0.54 0.39 0.40 0.46 0.58 0.59 0.27 0.29 0.27 0.29
0.13 0.21 0.23 0.49 0.69 0.54 0.89 0.90 0.73 0.49 0.47 0.14 0.12 0.13 0.22 0.51 0.82 0.98 0.88 0.68 0.62 0.70 0.52 0.34 0.28 0.38 0.48 0.60 0.80 0.99 0.92 1.06 0.95 0.74 0.70 0.40 0.46 0.75 0.78 0.74 0.78 0.72 0.64 0.55 0.58 0.59 0.45 0.25 0.32
0.26 0.26 0.25 0.40 0.70 0.62 0.58 0.66 0.50 0.48 0.32 0.21 0.10 0.07 0.19 0.39 0.74 1.62 1.16 0.82 0.84 1.00 0.72 0.68 0.55 0.71 0.54 0.62 0.93 1.06 1.09 1.03 1.25 1.25 1.04 1.21 1.01 0.95 0.91 0.65 0.55 0.59 0.65 0.61 0.51 0.52 0.54 0.38 0.39
0.26 0.22 0.20 0.38 0.47 0.42 0.47 0.58 0.44 0.37 0.27 0.13 0.07 0.06 0.11 0.24 0.41 1.38 1.68 1.20 1.07 1.25 0.85 0.73 0.76 0.68 0.47 0.55 0.82 1.15 1.46 1.46 1.09 0.75 0.68 0.75 1.15 1.23 1.27 1.19 1.17 1.03 0.86 0.75 0.64 0.62 0.70 0.68 0.52
0.30 0.14 0.24 0.49 0.59 0.53 0.44 0.66 0.47 0.30 0.28 0.15 0.07 0.04 0.14 0.22 0.33 0.77 1.72 1.50 1.34 1.24 0.87 0.73 0.87 0.82 0.85 1.11 1.20 0.97 1.02 1.25 1.17 1.32 1.16 1.37 1.32 1.26 1.43 1.59 1.50 1.54 1.53 1.24 1.11 0.97 0.92 0.78 0.51
0.43 0.17 0.24 0.40 0.62 1.02 0.42 0.75 0.56 0.42 0.31 0.15 0.05 0.06 0.17 0.26 0.32 0.45 1.02 1.32 1.51 1.57 0.95 0.70 1.20 1.30 1.23 1.19 1.65 1.59 1.70 1.37 1.41 1.60 1.67 1.60 1.78 1.92 1.98 2.00 2.07 1.85 1.83 1.99 1.72 1.53 1.36 1.22 1.00
0.41 0.44 0.41 0.65 0.84 1.41 0.54 0.69 0.72 0.59 0.55 0.32 0.07 0.14 0.26 0.29 0.35 0.34 0.44 1.04 1.59 1.39 1.37 1.00 0.98 1.10 1.11 1.08 1.44 1.63 1.30 1.20 1.08 1.23 1.47 1.43 1.48 1.68 1.98 2.11 2.00 1.93 1.58 1.44 1.49 1.39 1.28 1.14 0.96
0.73 0.95 1.42 1.42 1.75 0.86 0.54 0.70 0.77 0.62 0.40 0.36 0.28 0.37 0.43 0.42 0.50 0.38 0.40 0.76 1.60 1.17 1.26 1.04 1.13 1.13 1.31 1.22 1.54 1.53 1.51 1.46 1.43 1.44 1.43 1.44 1.27 1.08 1.10 1.41 1.48 1.29 1.24 1.17 1.17 0.94 0.86 0.94 0.88
0.97 0.91 1.18 0.86 0.75 0.63 0.38 0.88 1.06 0.88 0.71 0.65 0.50 0.73 1.00 1.09 1.09 0.80 0.65 0.86 1.28 1.42 1.22 1.09 1.08 1.17 1.41 1.56 1.73 1.37 1.64 1.57 1.56 1.37 1.38 1.30 1.28 1.41 1.21 1.05 1.32 1.41 1.12 0.86 0.85 0.69 0.51 0.53 0.52
0.84 0.87 0.77 1.11 0.58 0.62 0.60 0.97 1.22 1.31 1.24 0.73 1.22 1.33 1.37 1.52 1.75 1.31 1.41 1.57 1.15 1.22 1.26 1.19 1.02 1.01 0.91 0.85 0.79 0.88 1.23 1.28 1.32 1.13 0.90 0.85 0.92 0.94 0.94 0.84 0.80 0.81 0.74 0.81 0.82 0.76 0.62 0.51 0.49
0.60 0.47 0.78 1.34 0.94 0.60 0.39 0.52 1.61 1.75 1.33 1.13 1.26 1.28 1.25 1.54 1.58 1.37 1.51 1.26 1.21 1.08 1.06 0.87 0.74 0.73 0.52 0.61 0.51 0.57 0.78 0.69 0.74 0.81 0.89 0.83 0.77 0.82 0.88 0.75 0.65 0.50 0.42 0.46 0.49 0.50 0.55 0.62 0.54
0.71 0.77 0.47 0.61 0.52 0.45 0.27 0.79 1.41 1.41 1.13 0.92 0.91 0.92 0.93 0.96 0.97 1.05 1.14 1.12 0.97 1.04 0.84 0.83 0.68 0.84 0.52 0.82 0.63 0.33 0.55 0.62 0.37 0.40 0.58 0.61 0.69 0.65 0.54 0.67 0.82 0.68 0.51 0.50 0.52 0.52 0.58 0.69 0.66
0.25 0.27 0.20 0.73 0.54 0.41 0.41 0.85 0.96 0.92 0.80 0.61 0.47 0.29 0.18 0.12 0.10 0.18 0.34 0.51 0.56 0.56 0.61 0.74 1.03 0.90 0.59 0.79 0.69 0.45 0.55 0.85 0.62 0.46 0.40 0.46 0.54 0.62 0.51 0.39 0.45 0.62 0.68 0.69 0.69 0.85 0.80 0.69 0.74